# Wetter Temperatur Luftdruck Luftfeuchtigkeit Sichtweite Windgeschwindigkeit Windrichtung Zeit
1 Clouds 15 1010 87 10000 3.6 180 19:55 17.10.2019
2 Rain 15 1010 72 10000 5.7 200 19:37 17.10.2019
3 Clouds 15 1010 72 10000 6.7 190 19:18 17.10.2019
4 Clouds 15 1010 72 10000 6.7 190 19:18 17.10.2019
5 Clouds 16 1010 77 10000 4.6 210 18:39 17.10.2019
6 Clouds 16 1009 67 10000 5.7 190 18:21 17.10.2019
7 Clouds 16 1009 67 10000 5.7 190 17:55 17.10.2019
8 Clouds 16 1009 77 10000 4.1 190 17:37 17.10.2019
9 Clouds 16 1009 72 10000 5.7 180 17:19 17.10.2019
10 Clouds 17 1010 77 10000 4.6 200 16:42 17.10.2019
11 Clouds 17 1010 77 10000 4.6 200 16:42 17.10.2019
12 Clouds 17 1010 77 10000 4.6 200 16:42 17.10.2019
13 Clouds 16 1010 82 10000 4.6 190 16:19 17.10.2019
14 Clouds 16 1010 82 10000 4.6 190 15:59 17.10.2019
15 Clouds 16 1010 82 10000 4.6 180 15:41 17.10.2019
16 Clouds 15 1010 82 10000 4.6 180 15:20 17.10.2019
17 Clouds 15 1010 82 10000 3.6 160 14:58 17.10.2019
18 Clouds 15 1010 82 10000 3.1 160 14:39 17.10.2019
19 Clouds 15 1010 87 10000 4.1 150 14:21 17.10.2019
20 Clouds 14 1011 82 10000 4.1 140 13:42 17.10.2019
21 Clouds 14 1011 82 10000 4.1 140 13:21 17.10.2019
22 Rain 13 1011 82 10000 4.1 170 12:58 17.10.2019
23 Rain 13 1011 82 10000 3.1 170 12:40 17.10.2019
24 Rain 13 1011 87 10000 3.6 190 12:20 17.10.2019
25 Rain 13 1011 87 10000 3.6 190 12:20 17.10.2019
26 Clouds 13 1011 82 10000 4.1 190 11:57 17.10.2019
27 Rain 13 1011 93 10000 2.6 190 11:39 17.10.2019
28 Clouds 13 1011 93 10000 2.1 200 11:18 17.10.2019
29 Clouds 13 1011 93 10000 2.6 200 10:42 17.10.2019
30 Clouds 12 1011 93 10000 2.1 160 10:21 17.10.2019
31 Clouds 12 1011 93 10000 2.1 160 10:21 17.10.2019
32 Clouds 12 1011 93 10000 2.1 160 09:59 17.10.2019
33 Clouds 12 1011 100 10000 2.1 150 09:41 17.10.2019
34 Clouds 12 1011 100 10000 2.1 150 09:41 17.10.2019
35 Clouds 12 1011 93 10000 1 0 09:21 17.10.2019
36 Clouds 12 1011 93 10000 1 0 08:58 17.10.2019
37 Clouds 12 1011 93 10000 1 350 08:39 17.10.2019
38 Clouds 12 1010 93 10000 1 350 08:21 17.10.2019
39 Clouds 12 1010 93 10000 0.704 186 07:55 17.10.2019
40 Clouds 12 1010 93 10000 0.704 186 07:36 17.10.2019
41 Rain 11 1010 93 10000 0.704 186 07:18 17.10.2019
42 Rain 11 1010 93 10000 0.5 0 06:39 17.10.2019
43 Clouds 11 1010 93 10000 1 320 06:20 17.10.2019
44 Clouds 12 1010 87 10000 2.1 190 05:52 17.10.2019
45 Clouds 12 1010 87 10000 2.1 190 05:32 17.10.2019
46 Clouds 12 1010 93 10000 2.1 240 04:53 17.10.2019
47 Rain 12 1010 93 10000 3.6 240 03:55 17.10.2019
48 Rain 14 1009 87 10000 6.7 200 02:36 17.10.2019
49 Clouds 14 1008 87 10000 6.7 200 01:27 17.10.2019
50 Clouds 14 1008 87 10000 7.2 190 00:38 17.10.2019
51 Clouds 14 1008 87 10000 6.2 190 00:19 17.10.2019
52 Rain 14 1008 93 10000 5.1 190 23:42 16.10.2019
53 Rain 14 1008 93 10000 5.1 190 23:21 16.10.2019
54 Rain 14 1008 93 10000 5.1 190 23:21 16.10.2019
55 Rain 14 1008 93 10000 6.7 180 22:56 16.10.2019
56 Rain 14 1008 93 10000 6.7 180 22:37 16.10.2019
57 Rain 14 1008 87 10000 7.2 180 22:18 16.10.2019
58 Rain 14 1008 87 10000 7.7 180 21:56 16.10.2019
59 Rain 14 1008 87 10000 7.7 180 21:37 16.10.2019
60 Rain 14 1008 87 10000 8.2 180 21:19 16.10.2019
61 Rain 14 1008 87 10000 8.2 180 20:57 16.10.2019
62 Rain 14 1008 87 5000 8.7 180 20:38 16.10.2019
63 Clouds 14 1008 93 6000 6.2 200 20:20 16.10.2019
64 Clouds 14 1008 93 6000 6.2 200 19:58 16.10.2019
65 Clouds 14 1008 87 10000 6.7 190 19:38 16.10.2019
66 Clouds 14 1008 87 10000 6.7 190 19:20 16.10.2019
67 Clouds 14 1008 87 10000 6.7 190 19:20 16.10.2019
68 Rain 14 1008 87 10000 7.2 180 18:39 16.10.2019
69 Rain 14 1009 87 5000 8.2 180 18:20 16.10.2019
70 Rain 14 1009 87 5000 8.2 180 17:58 16.10.2019
71 Drizzle 14 1009 87 10000 7.2 170 17:39 16.10.2019
72 Rain 14 1009 87 9000 8.7 180 17:21 16.10.2019
73 Rain 15 1009 87 9000 8.7 180 16:59 16.10.2019
74 Rain 15 1009 87 7000 7.2 180 16:41 16.10.2019
75 Rain 15 1009 87 7000 7.2 180 16:21 16.10.2019
76 Rain 15 1009 82 10000 9.3 190 15:57 16.10.2019
77 Clouds 15 1009 77 10000 10.3 190 15:38 16.10.2019
78 Clouds 16 1009 77 10000 8.7 190 15:18 16.10.2019
79 Clouds 16 1009 77 10000 8.7 190 14:56 16.10.2019
80 Clouds 16 1009 77 10000 8.7 190 14:38 16.10.2019
81 Clouds 16 1009 77 10000 8.7 190 14:18 16.10.2019
82 Rain 16 1009 77 10000 7.7 200 13:56 16.10.2019
83 Rain 16 1009 77 10000 7.7 200 13:56 16.10.2019
84 Rain 16 1009 77 10000 7.7 200 13:56 16.10.2019
85 Clouds 15 1009 77 10000 8.2 190 13:37 16.10.2019
86 Clouds 15 1009 77 10000 8.2 190 13:19 16.10.2019
87 Clouds 15 1009 77 10000 7.7 190 12:41 16.10.2019
88 Clouds 15 1009 77 10000 8.2 190 12:19 16.10.2019
89 Rain 14 1009 77 10000 7.7 190 11:44 16.10.2019
90 Rain 14 1009 77 10000 7.2 190 11:18 16.10.2019
91 Rain 14 1009 77 10000 7.2 190 10:41 16.10.2019
92 Clouds 14 1009 82 10000 6.7 200 10:22 16.10.2019
93 Rain 14 1009 87 10000 6.2 200 09:58 16.10.2019
94 Clouds 14 1009 82 10000 8.2 190 09:39 16.10.2019
95 Clouds 13 1009 82 10000 8.2 190 09:20 16.10.2019
96 Clouds 13 1009 87 10000 8.2 190 08:44 16.10.2019
97 Rain 13 1009 87 10000 7.2 180 08:25 16.10.2019
98 Clouds 13 1009 93 10000 6.2 180 07:56 16.10.2019
99 Rain 13 1009 87 10000 7.2 170 07:38 16.10.2019
100 Rain 13 1009 87 10000 7.2 170 07:20 16.10.2019
101 Rain 12 1009 93 10000 5.7 170 06:40 16.10.2019
102 Rain 12 1009 93 10000 5.7 170 06:19 16.10.2019
103 Rain 11 1011 87 10000 4.6 170 03:46 16.10.2019
104 Clouds 11 1011 76 10000 4.1 180 02:50 16.10.2019
105 Clouds 11 1012 81 10000 3.6 190 01:20 16.10.2019
106 Clouds 11 1011 81 10000 3.6 210 00:57 16.10.2019
107 Clouds 11 1012 87 10000 3.1 230 00:37 16.10.2019
108 Clouds 11 1012 87 10000 4.1 230 23:42 15.10.2019
109 Clouds 11 1011 76 10000 3.1 200 23:23 15.10.2019
110 Clouds 12 1011 76 10000 3.6 200 22:58 15.10.2019
111 Clouds 12 1011 76 10000 5.1 220 22:40 15.10.2019
112 Clouds 12 1011 76 10000 5.1 220 22:21 15.10.2019
113 Clouds 12 1011 87 10000 4.1 230 21:57 15.10.2019
114 Clouds 12 1011 87 10000 3.6 230 21:38 15.10.2019
115 Clouds 12 1010 71 10000 5.7 230 21:20 15.10.2019
116 Clouds 12 1010 71 10000 5.7 230 21:20 15.10.2019
117 Clouds 13 1010 71 10000 5.1 230 20:58 15.10.2019
118 Clouds 13 1010 67 10000 6.2 250 20:40 15.10.2019
119 Clouds 13 1010 67 10000 6.2 250 20:22 15.10.2019
120 Clouds 13 1009 62 10000 5.7 220 19:59 15.10.2019
121 Clouds 13 1009 67 10000 7.7 210 19:41 15.10.2019
122 Clouds 14 1009 67 10000 7.7 210 19:20 15.10.2019
123 Clouds 14 1009 62 10000 6.2 240 18:57 15.10.2019
124 Clouds 14 1009 62 10000 6.2 240 18:57 15.10.2019
125 Clouds 15 1008 59 10000 6.2 200 18:39 15.10.2019
126 Clouds 15 1008 59 10000 6.2 200 18:20 15.10.2019
127 Clouds 16 1008 63 10000 5.7 200 17:42 15.10.2019
128 Clouds 16 1008 63 10000 5.7 200 17:42 15.10.2019
129 Clouds 16 1008 63 10000 5.1 220 17:21 15.10.2019
130 Clouds 16 1008 59 10000 5.1 220 16:59 15.10.2019
131 Clouds 16 1008 59 10000 5.1 220 16:41 15.10.2019
132 Clouds 15 1008 59 10000 5.1 230 16:21 15.10.2019
133 Clouds 15 1008 63 10000 5.7 240 15:55 15.10.2019
134 Clouds 15 1008 63 10000 5.1 230 15:37 15.10.2019
135 Clouds 15 1008 63 10000 5.1 230 15:19 15.10.2019
136 Clouds 15 1007 63 10000 6.2 230 14:55 15.10.2019
137 Clouds 15 1008 67 10000 5.1 240 14:36 15.10.2019
138 Clouds 15 1008 63 10000 6.2 230 14:18 15.10.2019
139 Clouds 15 1008 67 10000 4.1 240 13:43 15.10.2019
140 Clouds 15 1008 67 10000 4.1 240 13:20 15.10.2019
141 Clouds 14 1008 76 10000 4.6 230 12:46 15.10.2019
142 Clouds 14 1008 76 10000 4.6 230 12:23 15.10.2019
143 Clouds 14 1008 76 10000 4.6 250 11:59 15.10.2019
144 Clouds 14 1008 82 10000 4.6 250 11:41 15.10.2019
145 Clouds 13 1008 82 10000 4.6 250 11:20 15.10.2019
146 Clouds 13 1008 82 10000 4.6 250 11:20 15.10.2019
147 Clouds 13 1007 82 10000 4.6 250 10:55 15.10.2019
148 Clouds 13 1007 82 10000 4.6 230 10:37 15.10.2019
149 Clouds 13 1007 82 10000 4.6 230 10:18 15.10.2019
150 Rain 13 1006 87 10000 2.6 210 09:40 15.10.2019
151 Rain 13 1006 87 10000 2.6 210 09:40 15.10.2019
152 Clouds 13 1006 87 10000 2.6 210 09:21 15.10.2019
153 Clouds 13 1006 87 10000 2.6 200 08:58 15.10.2019
154 Clouds 13 1006 87 10000 2.6 200 08:58 15.10.2019
155 Rain 13 1006 87 10000 3.1 230 08:40 15.10.2019
156 Rain 13 1006 87 10000 3.1 230 08:20 15.10.2019
157 Rain 13 1006 87 10000 2.6 180 07:44 15.10.2019
158 Rain 13 1006 87 10000 2.6 180 07:23 15.10.2019
159 Rain 13 1006 87 10000 2.6 200 06:58 15.10.2019
160 Rain 13 1006 87 10000 3.1 200 06:39 15.10.2019
161 Rain 13 1006 87 10000 2.6 210 05:58 15.10.2019
162 Rain 13 1006 93 10000 2.1 200 05:37 15.10.2019
163 Rain 13 1006 93 10000 2.6 200 04:53 15.10.2019
164 Rain 14 1006 93 10000 2.6 210 04:19 15.10.2019
165 Rain 14 1006 93 10000 1 0 03:35 15.10.2019
166 Rain 14 1007 93 10000 3.6 200 01:59 15.10.2019
167 Rain 14 1007 87 10000 4.6 180 01:40 15.10.2019
168 Rain 15 1007 87 10000 4.6 180 01:18 15.10.2019
169 Rain 15 1007 87 10000 4.1 180 00:26 15.10.2019
170 Rain 15 1007 87 10000 4.6 190 23:59 14.10.2019
171 Rain 15 1006 82 10000 5.7 210 23:38 14.10.2019
172 Rain 15 1006 82 10000 5.7 210 23:19 14.10.2019
173 Rain 15 1006 82 10000 5.7 210 23:19 14.10.2019
174 Rain 16 1006 87 10000 5.1 210 22:40 14.10.2019
175 Rain 16 1006 87 10000 5.1 210 22:40 14.10.2019
176 Rain 16 1005 68 10000 7.2 210 22:21 14.10.2019
177 Rain 16 1006 68 10000 8.7 200 21:59 14.10.2019
178 Rain 16 1005 68 10000 4.1 200 21:40 14.10.2019
179 Rain 16 1005 68 10000 4.1 200 21:40 14.10.2019
180 Rain 16 1005 68 10000 4.1 200 21:21 14.10.2019
181 Rain 17 1006 72 10000 6.7 230 21:21 14.10.2019
182 Rain 17 1006 72 10000 6.7 230 20:58 14.10.2019
183 Rain 17 1006 63 10000 9.3 230 20:38 14.10.2019
184 Rain 17 1006 63 10000 9.3 230 20:20 14.10.2019
185 Rain 18 1007 77 8000 9.3 240 19:58 14.10.2019
186 Rain 19 1004 56 10000 5.7 150 19:39 14.10.2019
187 Rain 19 1004 56 10000 5.7 150 19:39 14.10.2019
188 Rain 21 1004 56 10000 5.7 150 19:21 14.10.2019
189 Rain 23 1003 56 10000 5.1 140 18:57 14.10.2019
190 Rain 23 1004 56 10000 5.1 150 18:38 14.10.2019
191 Clouds 23 1004 56 10000 5.1 150 18:18 14.10.2019
192 Clear 23 1004 53 10000 6.2 130 17:44 14.10.2019
193 Clear 23 1004 53 10000 6.2 130 17:25 14.10.2019
194 Clear 24 1004 53 10000 6.2 130 16:58 14.10.2019
195 Clear 24 1004 50 10000 6.2 140 16:40 14.10.2019
196 Clear 24 1005 53 10000 5.1 120 16:20 14.10.2019
197 Clear 23 1005 53 10000 5.1 130 15:41 14.10.2019
198 Clear 23 1006 53 10000 4.6 150 15:22 14.10.2019
199 Clear 23 1006 53 10000 5.1 170 14:46 14.10.2019
200 Clear 23 1007 56 10000 5.7 160 14:26 14.10.2019
201 Clear 23 1007 56 10000 5.7 160 13:59 14.10.2019
202 Clear 22 1007 60 10000 6.7 160 13:41 14.10.2019
203 Clear 22 1008 60 10000 5.7 160 13:21 14.10.2019
204 Clear 21 1008 60 10000 5.7 160 12:54 14.10.2019
205 Clear 21 1008 60 10000 6.7 150 12:36 14.10.2019
206 Clear 20 1008 64 10000 6.2 140 12:18 14.10.2019
207 Clear 19 1008 64 10000 5.1 150 11:43 14.10.2019
208 Clear 18 1008 68 10000 6.2 150 11:24 14.10.2019
209 Clear 18 1008 68 10000 6.2 150 10:55 14.10.2019
210 Clear 17 1008 77 10000 5.1 140 10:37 14.10.2019
211 Clear 16 1009 82 10000 4.6 150 10:18 14.10.2019
212 Clear 15 1009 87 10000 2.1 0 09:41 14.10.2019
213 Clear 14 1009 87 10000 2.1 0 09:21 14.10.2019
214 Clear 14 1009 87 10000 2.1 100 08:50 14.10.2019
215 Clear 14 1009 87 10000 2.1 100 08:50 14.10.2019
216 Clear 14 1009 93 10000 2.1 90 08:23 14.10.2019
217 Clear 14 1009 87 10000 2.1 80 07:47 14.10.2019
218 Clear 14 1010 87 10000 1.5 60 07:25 14.10.2019
219 Clouds 14 1010 87 10000 3.1 60 06:59 14.10.2019
220 Clouds 14 1010 87 10000 3.1 60 06:28 14.10.2019
221 Clouds 14 1011 87 10000 2.6 50 05:57 14.10.2019
222 Clouds 14 1011 87 10000 3.6 90 05:26 14.10.2019
223 Clouds 14 1012 87 10000 1.5 0 03:50 14.10.2019
224 Clouds 14 1012 87 10000 1.5 0 03:26 14.10.2019
225 Clouds 14 1013 87 10000 1.5 40 02:32 14.10.2019
226 Clouds 14 1013 87 10000 1.5 30 01:21 14.10.2019
227 Rain 15 1013 82 10000 1.5 80 00:44 14.10.2019
228 Clouds 15 1013 77 10000 1.5 40 00:19 14.10.2019
229 Clouds 16 1012 82 10000 2.1 340 23:43 13.10.2019
230 Clear 16 1012 72 10000 3.6 310 23:20 13.10.2019
231 Clear 16 1012 72 10000 3.6 310 22:58 13.10.2019
232 Clouds 16 1012 77 10000 4.1 330 22:40 13.10.2019
233 Clear 17 1012 72 10000 4.1 260 22:21 13.10.2019
234 Clear 17 1011 72 10000 5.1 240 21:58 13.10.2019
235 Clear 17 1011 72 10000 5.1 240 21:37 13.10.2019
236 Clouds 18 1011 64 10000 6.7 240 21:18 13.10.2019
237 Clouds 18 1011 64 10000 6.7 240 21:18 13.10.2019
238 -273 0 0 0 0 0 20:57 13.10.2019
239 Clear 19 1011 64 10000 4.6 240 20:38 13.10.2019
240 Clouds 19 1010 56 10000 7.2 230 20:19 13.10.2019
241 Clouds 19 1010 56 10000 7.2 230 19:57 13.10.2019
242 Clear 20 1010 60 10000 6.2 240 19:57 13.10.2019
243 -273 0 0 0 0 0 19:57 13.10.2019
244 Clear 20 1010 60 10000 6.2 240 19:39 13.10.2019
245 Clear 20 1010 68 10000 3.1 230 19:20 13.10.2019
246 -273 0 0 0 0 0 18:55 13.10.2019
247 Rain 21 1009 60 10000 6.2 210 18:55 13.10.2019
248 Rain 21 1009 60 10000 6.2 210 18:54 13.10.2019
249 Rain 21 1009 60 10000 6.2 210 18:36 13.10.2019
250 Rain 21 1008 56 10000 7.2 230 18:18 13.10.2019
251 Rain 21 1008 56 10000 7.2 230 18:18 13.10.2019
252 Clear 23 1008 53 10000 7.7 210 17:42 13.10.2019
253 Clear 23 1008 53 10000 7.7 210 17:24 13.10.2019
254 Clear 24 1008 50 10000 8.2 220 16:54 13.10.2019
255 Clear 24 1008 50 10000 7.7 210 16:36 13.10.2019
256 Clear 24 1008 53 10000 6.2 220 16:18 13.10.2019
257 Clear 24 1007 53 10000 7.2 200 15:54 13.10.2019
258 Clear 24 1007 53 10000 7.2 200 15:36 13.10.2019
259 Clear 24 1007 53 10000 8.7 210 15:18 13.10.2019
260 Clear 24 1007 53 10000 7.7 210 14:40 13.10.2019
261 Clear 24 1007 50 10000 7.7 210 14:22 13.10.2019
262 Clear 24 1007 50 10000 7.7 210 13:59 13.10.2019
263 Clear 24 1007 53 10000 8.2 200 13:39 13.10.2019
264 Clear 24 1007 53 10000 8.2 200 13:21 13.10.2019
265 Clear 23 1007 56 10000 7.7 190 12:57 13.10.2019
266 Clear 23 1007 56 10000 7.7 190 12:38 13.10.2019
267 Clear 23 1007 56 10000 7.7 190 12:38 13.10.2019
268 Clear 22 1007 60 10000 7.7 180 12:19 13.10.2019
269 Clear 22 1007 60 10000 7.7 180 11:58 13.10.2019
270 Clear 21 1007 72 10000 5.1 160 11:38 13.10.2019
271 Clear 20 1007 72 10000 5.1 160 11:38 13.10.2019
272 Clear 20 1008 72 10000 5.1 170 11:19 13.10.2019
273 Clear 18 1008 77 10000 4.6 170 10:42 13.10.2019
274 Clear 18 1008 77 10000 4.6 170 10:23 13.10.2019
275 Clear 17 1008 82 10000 2.1 160 09:58 13.10.2019
276 Clear 17 1008 82 10000 2.1 160 09:58 13.10.2019
277 Clear 16 1007 87 10000 1 0 09:39 13.10.2019
278 Clear 16 1007 87 10000 1 0 09:20 13.10.2019
279 Clear 16 1008 87 10000 2.6 160 08:43 13.10.2019
280 Clear 16 1008 87 10000 2.6 160 08:43 13.10.2019
281 Clear 16 1008 87 10000 3.6 160 08:23 13.10.2019
282 Clear 15 1008 87 10000 3.6 160 08:23 13.10.2019
283 Clear 16 1008 87 10000 3.6 160 07:50 13.10.2019
284 Clear 16 1008 87 10000 3.6 160 07:30 13.10.2019
285 Clear 16 1008 93 10000 2.6 150 06:49 13.10.2019
286 Clear 16 1009 100 10000 3.6 160 05:59 13.10.2019
287 Rain 16 1009 93 9000 2.6 150 04:59 13.10.2019
288 Clear 16 1009 93 10000 4.1 150 04:33 13.10.2019
289 Fog 15 1009 100 9000 3.6 140 02:50 13.10.2019
290 Fog 15 1009 100 9000 3.6 140 02:27 13.10.2019
291 Clear 15 1010 93 8000 3.07 188.048 01:34 13.10.2019
292 Clear 15 1010 93 8000 0.5 0 00:53 13.10.2019
293 Clouds 15 1010 93 10000 0.5 0 00:23 13.10.2019
294 Clouds 15 1010 87 10000 1 140 23:59 12.10.2019
295 Clouds 15 1010 87 10000 1 140 23:41 12.10.2019
296 Clouds 16 1010 82 10000 2.6 140 23:22 12.10.2019
297 Clouds 16 1010 88 10000 1.5 140 22:58 12.10.2019
298 Clouds 16 1010 88 10000 1.5 140 22:40 12.10.2019
299 Clouds 16 1010 88 10000 2.6 130 22:22 12.10.2019
300 Clouds 16 1010 88 10000 1.5 140 22:22 12.10.2019
301 Clouds 16 1010 88 10000 2.6 130 21:58 12.10.2019
302 Clear 16 1010 82 10000 1.68 191.25 21:39 12.10.2019
303 Clear 16 1010 77 10000 2.1 180 21:21 12.10.2019
304 Clear 17 1010 77 10000 3.6 180 20:46 12.10.2019
305 Clear 17 1010 77 10000 3.6 180 20:46 12.10.2019
306 Clear 17 1010 77 10000 3.6 180 20:28 12.10.2019
307 Clear 17 1010 72 10000 4.1 180 19:57 12.10.2019
308 Clouds 18 1010 72 10000 5.7 180 19:36 12.10.2019
309 Clear 19 1010 72 10000 4.6 180 19:18 12.10.2019
310 Clear 20 1010 72 10000 5.1 190 18:42 12.10.2019
311 Clouds 20 1010 68 10000 5.1 180 18:24 12.10.2019
312 Clouds 20 1010 64 10000 4.6 180 17:46 12.10.2019
313 Clouds 21 1010 64 10000 4.6 190 17:21 12.10.2019
314 Clouds 20 1010 64 10000 4.6 190 16:59 12.10.2019
315 Clouds 20 1010 68 10000 4.1 190 16:40 12.10.2019
316 Clouds 19 1010 68 10000 2.6 160 16:21 12.10.2019
317 Clouds 19 1010 68 10000 2.6 160 15:56 12.10.2019
318 Clouds 19 1011 68 10000 2.6 180 15:37 12.10.2019
319 Clouds 19 1012 72 10000 3.6 180 15:18 12.10.2019
320 Clouds 18 1012 77 10000 4.1 190 14:40 12.10.2019
321 Clouds 17 1012 77 10000 4.6 180 14:20 12.10.2019
322 Clouds 17 1012 77 10000 4.6 180 13:51 12.10.2019
323 Clouds 17 1012 82 10000 4.6 180 13:32 12.10.2019
324 Clouds 15 1012 82 10000 3.6 180 12:56 12.10.2019
325 Clouds 15 1012 82 10000 3.6 180 12:38 12.10.2019
326 Clouds 15 1013 82 10000 4.6 180 12:20 12.10.2019
327 Mist 14 1013 82 10000 4.6 180 11:43 12.10.2019
328 -273 0 0 0 0 0 11:24 12.10.2019
329 Mist 14 1013 93 3000 3.1 190 10:58 12.10.2019
330 Mist 14 1013 93 3000 3.1 190 10:39 12.10.2019
331 Clear 13 1012 87 10000 2.6 190 10:20 12.10.2019
332 Clear 13 1012 87 10000 2.6 190 09:57 12.10.2019
333 Clear 13 1012 87 10000 2.6 190 09:57 12.10.2019
334 Clouds 12 1012 100 8000 3.6 190 09:38 12.10.2019
335 Clear 12 1012 87 10000 3.6 190 09:19 12.10.2019
336 Clear 12 1012 87 10000 3.6 190 09:19 12.10.2019
337 Clear 12 1012 93 10000 2.6 170 08:44 12.10.2019
338 Clear 12 1012 93 10000 2.6 170 08:24 12.10.2019
339 Clouds 12 1012 87 10000 3.6 170 07:50 12.10.2019
340 Clouds 12 1012 87 10000 3.6 170 07:30 12.10.2019
341 Clouds 12 1012 82 10000 3.6 200 06:28 12.10.2019
342 Clouds 12 1012 87 10000 3.1 190 05:43 12.10.2019
343 Clouds 12 1012 87 10000 2.1 160 04:34 12.10.2019
344 Clouds 13 1012 82 10000 1.5 160 03:54 12.10.2019
345 Clear 13 1011 76 10000 4.1 180 02:50 12.10.2019
346 Clear 14 1011 82 10000 3.6 190 01:33 12.10.2019
347 Clear 14 1012 82 10000 2.6 180 00:56 12.10.2019
348 Clear 14 1012 82 10000 2.6 180 00:38 12.10.2019
349 Clear 14 1012 82 10000 0.5 0 23:55 11.10.2019
350 Clear 14 1012 82 10000 0.5 0 23:36 11.10.2019
351 Clear 14 1012 76 10000 0.5 0 23:18 11.10.2019
352 Clear 14 1012 72 10000 1.5 0 22:38 11.10.2019
353 Clear 14 1012 72 10000 1.5 0 22:38 11.10.2019
354 Clear 14 1012 72 10000 2.6 190 22:19 11.10.2019
355 Clear 15 1012 67 10000 2.1 170 21:44 11.10.2019
356 Clear 15 1012 67 10000 2.1 170 21:22 11.10.2019
357 Clear 16 1012 67 10000 3.1 180 20:59 11.10.2019
358 Clear 16 1012 67 10000 3.1 180 20:59 11.10.2019
359 Clear 16 1012 67 10000 3.1 180 20:41 11.10.2019
360 Clear 16 1012 67 10000 3.1 180 20:23 11.10.2019
361 Clear 17 1012 59 10000 4.1 210 19:56 11.10.2019
362 Clear 17 1012 59 10000 4.1 210 19:38 11.10.2019
363 Clear 18 1012 56 10000 5.7 210 19:18 11.10.2019
364 Clouds 19 1013 60 10000 5.7 210 18:56 11.10.2019
365 Clouds 19 1013 60 10000 5.7 210 18:56 11.10.2019
366 Clouds 19 1013 60 10000 5.7 210 18:37 11.10.2019
367 Clouds 19 1013 60 10000 5.1 220 18:18 11.10.2019
368 Clouds 20 1013 60 10000 5.1 220 17:57 11.10.2019
369 Clouds 19 1013 63 10000 6.2 200 17:37 11.10.2019
370 Clouds 19 1013 63 10000 7.7 210 17:18 11.10.2019
371 Clouds 19 1013 63 10000 7.7 210 16:54 11.10.2019
372 -273 0 0 0 0 0 16:54 11.10.2019
373 Clouds 19 1014 63 10000 6.2 210 16:36 11.10.2019
374 Clouds 19 1014 63 10000 6.2 200 16:18 11.10.2019
375 Clouds 19 1014 59 10000 7.2 200 15:39 11.10.2019
376 Clouds 19 1015 63 10000 6.7 200 15:19 11.10.2019
377 Clouds 18 1015 63 10000 6.2 210 14:49 11.10.2019
378 Clouds 18 1015 63 10000 6.2 210 14:30 11.10.2019
379 Clouds 17 1016 72 10000 5.7 200 13:58 11.10.2019
380 Clouds 17 1016 77 10000 5.7 220 13:40 11.10.2019
381 Clouds 16 1016 77 10000 5.7 220 13:21 11.10.2019
382 Clouds 16 1016 82 10000 7.2 220 12:56 11.10.2019
383 Clouds 15 1016 82 10000 7.2 220 12:38 11.10.2019
384 Clouds 15 1017 82 10000 7.2 210 12:19 11.10.2019
385 Drizzle 14 1017 82 10000 5.7 200 11:55 11.10.2019
386 Drizzle 14 1017 82 10000 5.7 200 11:36 11.10.2019
387 Drizzle 13 1017 87 10000 6.2 200 11:18 11.10.2019
388 Mist 13 1017 87 10000 4.6 200 10:41 11.10.2019
389 Mist 13 1017 87 10000 4.6 200 10:23 11.10.2019
390 Mist 12 1017 87 10000 4.6 200 09:57 11.10.2019
391 Clouds 12 1016 87 10000 4.6 190 09:38 11.10.2019
392 Clouds 12 1017 87 10000 3.6 190 09:20 11.10.2019
393 Clouds 11 1017 87 10000 3.6 190 08:55 11.10.2019
394 Clouds 11 1017 87 10000 4.6 190 08:37 11.10.2019
395 Clouds 11 1017 87 10000 3.6 190 08:19 11.10.2019
396 Clear 11 1016 93 10000 4.1 160 07:45 11.10.2019
397 Clear 11 1016 93 10000 4.1 160 07:27 11.10.2019
398 Clear 11 1017 87 10000 3.1 160 06:49 11.10.2019
399 Clear 11 1017 87 10000 3.6 180 06:24 11.10.2019
400 Clear 11 1017 87 10000 3.1 200 05:41 11.10.2019
401 Clear 11 1017 93 10000 3.6 190 05:20 11.10.2019
402 Clear 12 1017 87 10000 3.6 140 04:28 11.10.2019
403 Clear 12 1018 87 10000 2.1 170 02:47 11.10.2019
404 Clouds 12 1018 76 10000 1 0 00:52 11.10.2019
405 Clouds 12 1018 76 10000 1 0 00:30 11.10.2019
406 Clear 12 1018 71 10000 3.06 219.978 23:50 10.10.2019
407 Clear 12 1018 71 10000 3.06 219.978 23:24 10.10.2019
408 Clear 12 1019 71 10000 2.1 180 22:59 10.10.2019
409 Clear 12 1018 71 10000 2.1 170 22:40 10.10.2019
410 Clear 11 1018 67 10000 2.6 170 22:21 10.10.2019
411 Clear 12 1018 67 10000 2.6 170 21:59 10.10.2019
412 Clear 12 1019 71 10000 2.6 200 21:40 10.10.2019
413 Clear 12 1019 71 10000 2.6 200 21:22 10.10.2019
414 Clear 12 1018 62 10000 3.1 210 20:57 10.10.2019
415 Clear 12 1019 67 10000 2.1 200 20:39 10.10.2019
416 Clouds 13 1018 58 10000 3.1 210 20:19 10.10.2019
417 Clouds 13 1018 58 10000 3.1 210 20:19 10.10.2019
418 Clouds 14 1018 58 10000 3.1 210 19:55 10.10.2019
419 Clouds 14 1018 59 10000 2.6 220 19:37 10.10.2019
420 Clouds 15 1018 51 10000 4.6 240 19:19 10.10.2019
421 Clouds 16 1018 51 10000 4.6 230 18:42 10.10.2019
422 Clouds 17 1018 51 10000 5.1 230 18:20 10.10.2019
423 Clouds 17 1018 51 10000 5.1 230 17:58 10.10.2019
424 Clouds 17 1018 51 10000 4.6 230 17:39 10.10.2019
425 Clouds 17 1018 51 10000 5.7 240 17:18 10.10.2019
426 Clouds 17 1018 51 10000 5.7 240 17:18 10.10.2019
427 Clouds 17 1018 51 10000 5.7 240 16:55 10.10.2019
428 Clouds 18 1018 48 10000 6.2 230 16:37 10.10.2019
429 Clouds 17 1018 55 10000 5.7 240 16:18 10.10.2019
430 Clouds 17 1018 59 10000 5.7 240 15:40 10.10.2019
431 Clouds 17 1018 55 10000 6.2 240 15:22 10.10.2019
432 Clouds 17 1019 63 10000 5.1 250 14:57 10.10.2019
433 Clouds 17 1018 59 10000 5.7 240 14:37 10.10.2019
434 Clouds 17 1018 63 10000 6.7 240 14:19 10.10.2019
435 Clouds 16 1018 67 10000 4.6 250 13:57 10.10.2019
436 Clouds 16 1018 67 10000 4.6 250 13:39 10.10.2019
437 Clouds 16 1018 63 10000 6.2 250 13:18 10.10.2019
438 Clouds 15 1018 67 10000 7.2 240 12:42 10.10.2019
439 Clouds 15 1018 72 10000 6.2 250 12:21 10.10.2019
440 Clouds 14 1018 76 10000 6.7 240 11:58 10.10.2019
441 Clouds 14 1018 76 10000 6.7 240 11:40 10.10.2019
442 Clouds 14 1017 76 10000 6.2 240 11:19 10.10.2019
443 Clouds 13 1017 82 10000 5.7 240 10:47 10.10.2019
444 Clouds 12 1017 93 10000 4.1 240 10:28 10.10.2019
445 Clouds 11 1016 81 10000 4.1 240 09:59 10.10.2019
446 Clouds 11 1016 81 10000 4.1 240 09:41 10.10.2019
447 Clouds 11 1016 87 10000 3.6 240 09:23 10.10.2019
448 Clouds 11 1016 87 10000 3.6 240 08:59 10.10.2019
449 Clear 10 1016 93 10000 3.6 250 08:40 10.10.2019
450 Clouds 10 1015 93 10000 3.6 250 08:21 10.10.2019
451 Clouds 11 1015 93 10000 2.6 240 07:48 10.10.2019
452 Clouds 11 1014 81 10000 4.6 240 07:26 10.10.2019
453 Clouds 11 1014 81 10000 4.6 240 06:56 10.10.2019
454 Clouds 11 1014 87 10000 3.1 240 06:38 10.10.2019
455 Clouds 11 1014 81 10000 4.1 230 05:56 10.10.2019
456 Clouds 11 1014 81 10000 4.1 230 05:21 10.10.2019
457 Rain 11 1013 76 10000 5.7 240 04:36 10.10.2019
458 Rain 11 1012 87 10000 6.2 220 02:46 10.10.2019
459 Rain 11 1012 81 10000 6.2 230 01:39 10.10.2019
460 Rain 11 1012 81 10000 6.2 210 01:21 10.10.2019
461 Rain 11 1012 81 10000 5.7 220 00:41 10.10.2019
462 Rain 11 1012 81 10000 6.2 210 00:19 10.10.2019
463 Rain 11 1012 81 10000 5.1 210 23:38 09.10.2019
464 Clouds 11 1012 81 10000 4.6 210 23:19 09.10.2019
465 Clouds 11 1012 81 10000 4.6 210 23:19 09.10.2019
466 Clouds 11 1012 81 10000 4.1 210 22:42 09.10.2019
467 Clouds 11 1012 81 10000 3.6 210 22:24 09.10.2019
468 Clouds 11 1012 81 10000 3.6 210 21:59 09.10.2019
469 Rain 11 1012 81 10000 2.6 190 21:39 09.10.2019
470 Clouds 11 1013 87 10000 3.6 240 21:20 09.10.2019
471 Rain 11 1012 93 10000 4.6 230 20:56 09.10.2019
472 Rain 11 1012 76 10000 3.6 220 20:37 09.10.2019
473 Clear 11 1012 81 10000 3.1 220 20:18 09.10.2019
474 Clear 11 1012 81 10000 3.1 220 20:18 09.10.2019
475 Rain 12 1012 81 10000 4.6 240 19:45 09.10.2019
476 Rain 12 1012 81 10000 4.6 240 19:24 09.10.2019
477 Rain 12 1012 76 10000 2.6 240 18:58 09.10.2019
478 Rain 13 1012 76 10000 4.1 250 18:38 09.10.2019
479 Rain 13 1011 81 10000 5.1 240 18:18 09.10.2019
480 Rain 13 1011 76 10000 8.2 270 17:56 09.10.2019
481 Rain 13 1011 76 10000 8.2 270 17:37 09.10.2019
482 Rain 14 1011 55 10000 7.2 250 17:18 09.10.2019
483 Clouds 15 1011 59 10000 7.2 250 16:42 09.10.2019
484 Rain 15 1011 58 10000 8.7 240 16:23 09.10.2019
485 Rain 15 1011 58 10000 8.7 240 15:58 09.10.2019
486 Clouds 15 1010 55 10000 9.3 240 15:39 09.10.2019
487 Clouds 15 1010 55 10000 9.3 240 15:20 09.10.2019
488 Clouds 15 1010 59 10000 8.2 230 14:59 09.10.2019
489 Clouds 15 1010 58 10000 9.3 240 14:41 09.10.2019
490 Clouds 15 1011 62 10000 8.7 260 14:18 09.10.2019
491 Clouds 15 1011 62 10000 8.7 260 14:18 09.10.2019
492 Clouds 15 1010 72 10000 8.2 240 13:40 09.10.2019
493 Rain 14 1010 76 10000 8.7 240 13:22 09.10.2019
494 Rain 14 1010 72 10000 8.7 210 12:59 09.10.2019
495 Rain 14 1010 72 10000 8.7 210 12:59 09.10.2019
496 Rain 14 1010 72 10000 8.7 210 12:41 09.10.2019
497 Clouds 13 1011 82 10000 6.2 230 12:22 09.10.2019
498 Clouds 13 1011 82 10000 6.2 230 12:22 09.10.2019
499 Clouds 13 1010 82 10000 7.2 220 11:56 09.10.2019
500 Clouds 13 1010 82 10000 7.2 220 11:37 09.10.2019
501 Clouds 13 1010 82 10000 7.2 220 11:37 09.10.2019
502 Rain 13 1010 87 10000 5.1 210 11:19 09.10.2019
503 Rain 12 1010 93 10000 4.1 210 10:44 09.10.2019
504 Rain 12 1010 93 10000 5.1 180 10:22 09.10.2019
505 Rain 11 1010 93 10000 5.1 180 09:59 09.10.2019
506 Rain 11 1010 93 6000 3.6 170 09:41 09.10.2019
507 Rain 11 1011 93 7000 4.6 210 09:19 09.10.2019
508 Rain 11 1011 93 7000 4.6 210 08:55 09.10.2019
509 Rain 11 1011 87 10000 3.6 190 08:37 09.10.2019
510 Clouds 11 1011 93 10000 3.6 220 08:18 09.10.2019
511 Clear 11 1011 87 10000 2.6 190 07:42 09.10.2019
512 Clear 11 1011 93 10000 4.1 190 07:22 09.10.2019
513 Clouds 11 1011 87 10000 1 0 06:52 09.10.2019
514 Clouds 11 1011 87 10000 1 0 06:52 09.10.2019
515 Clouds 10 1012 93 10000 2.1 220 06:20 09.10.2019
516 Clouds 10 1012 93 10000 4.6 230 05:46 09.10.2019
517 Clear 11 1012 87 10000 1.5 210 04:27 09.10.2019
518 Mist 12 1012 87 10000 2.1 190 02:54 09.10.2019
519 Clear 12 1013 93 10000 2.6 220 01:44 09.10.2019
520 Clear 12 1013 93 10000 2.6 220 01:21 09.10.2019
521 Clear 12 1013 93 10000 2.6 220 01:21 09.10.2019
522 Clear 12 1013 93 10000 2.6 220 01:21 09.10.2019
523 Clear 12 1013 87 10000 3.6 220 00:57 09.10.2019
524 Clear 12 1013 93 10000 3.1 220 00:39 09.10.2019
525 Mist 12 1013 93 10000 3.1 220 00:20 09.10.2019
526 Clear 12 1012 93 10000 4.6 220 23:57 08.10.2019
527 Clear 12 1012 93 10000 4.6 220 23:36 08.10.2019
528 Clouds 12 1012 93 10000 4.6 220 23:18 08.10.2019
529 Clear 12 1012 93 10000 3.1 210 22:39 08.10.2019
530 Clear 13 1012 87 10000 2.1 220 22:20 08.10.2019
531 Clear 13 1012 87 10000 2.1 220 22:20 08.10.2019
532 Clear 13 1012 87 10000 2.1 220 22:20 08.10.2019
533 Clear 13 1012 87 10000 2.1 220 21:58 08.10.2019
534 Clear 13 1012 93 10000 3.1 230 21:39 08.10.2019
535 Clear 13 1011 87 10000 2.1 230 21:19 08.10.2019
536 Clear 13 1011 87 10000 2.1 230 20:57 08.10.2019
537 Clear 13 1011 87 10000 2.1 230 20:57 08.10.2019
538 Clear 13 1011 87 10000 2.1 230 20:57 08.10.2019
539 Clear 13 1011 93 10000 3.1 220 20:39 08.10.2019
540 Clear 14 1011 93 10000 3.1 220 20:21 08.10.2019
541 Drizzle 14 1011 93 9000 1.5 250 19:58 08.10.2019
542 Drizzle 14 1011 93 9000 1.5 250 19:58 08.10.2019
543 Drizzle 14 1011 93 9000 1.5 250 19:40 08.10.2019
544 Rain 14 1011 87 10000 3.6 220 19:22 08.10.2019
545 Rain 14 1011 87 10000 3.6 220 18:55 08.10.2019
546 Rain 14 1010 87 10000 3.1 230 18:37 08.10.2019
547 Rain 14 1010 87 10000 3.6 230 18:19 08.10.2019
548 Rain 14 1010 87 10000 3.6 230 17:55 08.10.2019
549 Rain 14 1010 87 10000 3.6 230 17:55 08.10.2019
550 Rain 14 1010 87 10000 2.1 230 17:36 08.10.2019
551 Rain 14 1011 93 10000 3.1 240 17:18 08.10.2019
552 Rain 14 1011 93 10000 3.6 240 16:40 08.10.2019
553 Rain 14 1011 93 10000 3.6 240 16:22 08.10.2019
554 Rain 14 1010 87 10000 3.6 270 15:57 08.10.2019
555 Rain 14 1011 93 5000 3.1 250 15:37 08.10.2019
556 Rain 14 1010 93 9000 2.6 280 15:19 08.10.2019
557 Rain 14 1011 93 10000 3.1 260 14:42 08.10.2019
558 Rain 14 1011 93 4600 3.6 260 14:21 08.10.2019
559 Rain 14 1011 93 10000 1.5 270 13:58 08.10.2019
560 Rain 14 1011 93 10000 1.5 270 13:39 08.10.2019
561 Rain 14 1011 93 10000 1.5 270 13:39 08.10.2019
562 Rain 14 1011 93 6000 2.1 300 13:20 08.10.2019
563 Rain 14 1011 93 6000 2.1 300 12:59 08.10.2019
564 Rain 14 1011 93 10000 3.6 310 12:39 08.10.2019
565 Rain 14 1011 100 2300 3.6 240 12:20 08.10.2019
566 Rain 14 1011 100 1800 2.6 230 11:56 08.10.2019
567 Rain 14 1011 100 1800 2.6 230 11:37 08.10.2019
568 Drizzle 14 1011 100 10000 3.6 210 11:19 08.10.2019
569 Drizzle 14 1011 93 7000 3.6 200 10:40 08.10.2019
570 Rain 14 1011 93 7000 3.6 200 10:22 08.10.2019
571 Rain 14 1011 93 2600 3.1 200 09:58 08.10.2019
572 Rain 14 1011 100 4800 3.1 200 09:40 08.10.2019
573 Drizzle 14 1011 100 3300 3.1 190 09:21 08.10.2019
574 Drizzle 14 1011 100 7000 3.1 200 08:45 08.10.2019
575 Rain 14 1011 93 4700 4.6 200 08:25 08.10.2019
576 Rain 14 1011 93 5000 3.6 200 07:47 08.10.2019
577 Rain 14 1011 93 5000 3.6 200 07:23 08.10.2019
578 Rain 14 1012 93 7000 4.1 200 06:59 08.10.2019
579 Rain 13 1012 93 4200 5.1 200 06:39 08.10.2019
580 Drizzle 13 1012 93 10000 5.1 210 06:21 08.10.2019
581 Rain 13 1012 100 10000 4.6 190 05:43 08.10.2019
582 Rain 13 1013 93 3400 3.6 190 05:19 08.10.2019
583 Rain 13 1014 93 4600 5.1 190 03:31 08.10.2019
584 Drizzle 12 1015 93 5000 4.6 200 02:42 08.10.2019
585 Drizzle 12 1015 87 7000 5.1 200 01:58 08.10.2019
586 Clouds 12 1015 93 10000 5.7 210 01:40 08.10.2019
587 Clouds 13 1016 76 10000 5.7 200 00:55 08.10.2019
588 Clouds 13 1016 71 10000 4.6 200 00:23 08.10.2019
589 Clouds 13 1016 71 10000 5.7 200 23:56 07.10.2019
590 Clouds 13 1016 71 10000 5.7 200 23:37 07.10.2019
591 Rain 13 1017 76 10000 4.6 210 23:19 07.10.2019
592 Rain 13 1017 71 10000 6.2 220 22:54 07.10.2019
593 Rain 13 1017 71 10000 6.2 220 22:36 07.10.2019
594 Clouds 13 1017 76 10000 6.2 230 22:18 07.10.2019
595 Clouds 14 1017 62 10000 5.7 210 21:54 07.10.2019
596 Clouds 14 1017 62 10000 5.7 210 21:36 07.10.2019
597 Rain 14 1017 62 10000 6.7 210 21:18 07.10.2019
598 Rain 14 1017 62 10000 6.7 210 20:54 07.10.2019
599 Clouds 14 1017 62 10000 4.6 220 20:36 07.10.2019
600 Clouds 14 1018 62 10000 4.6 230 20:18 07.10.2019
601 Clear 15 1017 59 10000 5.7 220 19:41 07.10.2019
602 Clouds 15 1018 58 10000 4.6 240 19:20 07.10.2019
603 Clouds 16 1017 55 10000 4.6 210 18:59 07.10.2019
604 Clouds 16 1017 55 10000 4.6 210 18:59 07.10.2019
605 Clouds 16 1017 55 10000 3.1 210 18:40 07.10.2019
606 Clouds 16 1017 55 10000 3.6 220 18:19 07.10.2019
607 Clouds 17 1017 55 10000 3.6 220 17:56 07.10.2019
608 Clouds 17 1018 52 10000 4.6 230 17:38 07.10.2019
609 Clouds 17 1018 55 10000 3.1 250 17:18 07.10.2019
610 Clouds 17 1018 59 10000 4.1 250 16:44 07.10.2019
611 Clouds 17 1018 59 10000 3.6 270 16:25 07.10.2019
612 Clouds 17 1018 59 10000 3.6 270 15:57 07.10.2019
613 Clouds 17 1018 63 10000 4.1 230 15:38 07.10.2019
614 Clouds 17 1018 59 10000 3.6 280 15:20 07.10.2019
615 Clouds 16 1018 67 10000 4.1 260 14:41 07.10.2019
616 Clouds 16 1019 67 10000 3.6 260 14:23 07.10.2019
617 Clouds 16 1019 67 10000 5.1 260 13:45 07.10.2019
618 Clouds 16 1019 72 10000 3.6 250 13:21 07.10.2019
619 Clouds 16 1019 72 10000 3.6 250 12:58 07.10.2019
620 Clouds 16 1019 72 10000 3.6 250 12:58 07.10.2019
621 Clouds 15 1019 72 10000 3.6 270 12:40 07.10.2019
622 Clouds 14 1018 77 10000 3.1 250 12:21 07.10.2019
623 Clouds 14 1018 77 10000 3.1 250 11:59 07.10.2019
624 Clouds 14 1019 76 10000 2.6 270 11:40 07.10.2019
625 Clouds 13 1018 82 10000 3.1 250 11:21 07.10.2019
626 Clouds 13 1018 82 10000 3.1 250 10:57 07.10.2019
627 Clouds 13 1018 82 10000 3.1 250 10:39 07.10.2019
628 Clouds 12 1018 82 10000 3.1 250 10:20 07.10.2019
629 Clouds 11 1018 87 10000 3.1 260 09:39 07.10.2019
630 Clouds 11 1018 87 10000 3.1 260 09:39 07.10.2019
631 Clouds 11 1017 87 10000 3.6 250 09:21 07.10.2019
632 Clouds 11 1017 81 10000 3.1 250 08:44 07.10.2019
633 Clouds 11 1016 81 10000 2.6 250 08:21 07.10.2019
634 Clouds 11 1017 76 10000 2.6 260 07:56 07.10.2019
635 Clouds 11 1017 76 10000 2.6 260 07:38 07.10.2019
636 Clouds 11 1016 76 10000 4.1 260 07:19 07.10.2019
637 Clouds 11 1016 76 10000 3.1 270 06:43 07.10.2019
638 Clouds 11 1016 76 10000 3.1 270 06:22 07.10.2019
639 Clouds 11 1016 76 10000 3.6 270 05:27 07.10.2019
640 Clouds 11 1015 76 10000 3.1 270 04:56 07.10.2019
641 Clear 11 1015 76 10000 5.1 250 04:19 07.10.2019
642 Clear 12 1015 76 10000 5.1 250 03:39 07.10.2019
643 Clear 12 1015 76 10000 5.1 250 03:39 07.10.2019
644 Rain 12 1015 76 10000 4.1 270 03:18 07.10.2019
645 Clear 12 1015 76 10000 5.1 260 02:20 07.10.2019
646 Clear 12 1015 76 10000 4.1 260 01:42 07.10.2019
647 Clear 12 1015 76 10000 4.6 260 01:18 07.10.2019
648 Clear 12 1015 76 10000 6.2 250 00:38 07.10.2019
649 Clouds 12 1015 76 10000 5.1 270 00:19 07.10.2019
650 Clear 12 1014 76 10000 5.1 250 23:42 06.10.2019
651 Clear 12 1014 76 10000 5.1 250 23:21 06.10.2019
652 Clear 12 1014 76 10000 5.1 260 22:59 06.10.2019
653 Clear 12 1014 76 10000 5.1 260 22:40 06.10.2019
654 Clear 12 1014 76 10000 5.7 270 22:21 06.10.2019
655 Clear 12 1014 76 10000 5.7 270 22:21 06.10.2019
656 Clear 13 1014 71 10000 6.2 270 21:57 06.10.2019
657 Clear 13 1014 71 10000 6.2 270 21:37 06.10.2019
658 Clear 13 1014 76 10000 4.6 260 21:19 06.10.2019
659 Clear 13 1014 71 10000 4.1 280 20:57 06.10.2019
660 Clear 13 1014 71 10000 4.1 280 20:39 06.10.2019
661 Clear 14 1013 71 10000 5.1 280 20:20 06.10.2019
662 Clear 14 1013 71 10000 5.1 280 19:57 06.10.2019
663 Clear 14 1013 71 10000 5.1 280 19:57 06.10.2019
664 Clear 14 1013 71 10000 4.6 280 19:37 06.10.2019
665 Rain 15 1013 67 10000 6.7 290 19:19 06.10.2019
666 Rain 15 1013 67 10000 6.7 290 18:56 06.10.2019
667 Clouds 16 1012 59 10000 6.2 290 18:38 06.10.2019
668 Clouds 16 1012 55 10000 6.7 290 18:19 06.10.2019
669 Clouds 17 1012 55 10000 6.7 290 17:57 06.10.2019
670 Clouds 17 1012 59 10000 7.7 280 17:38 06.10.2019
671 Clouds 17 1012 59 10000 7.7 280 17:18 06.10.2019
672 Clouds 17 1012 59 10000 8.2 280 16:42 06.10.2019
673 Clouds 17 1012 63 10000 5.1 280 16:23 06.10.2019
674 Rain 17 1012 72 10000 6.7 300 15:45 06.10.2019
675 Rain 17 1012 72 10000 6.7 300 15:23 06.10.2019
676 Rain 17 1011 59 10000 6.7 260 14:59 06.10.2019
677 Rain 18 1012 68 10000 6.7 260 14:41 06.10.2019
678 Rain 18 1012 68 10000 6.7 260 14:23 06.10.2019
679 Clouds 17 1012 77 10000 5.7 250 13:56 06.10.2019
680 Clouds 17 1012 77 10000 5.7 250 13:56 06.10.2019
681 Clouds 17 1012 77 10000 5.7 250 13:37 06.10.2019
682 Clouds 16 1012 82 10000 5.1 240 13:19 06.10.2019
683 Clouds 16 1012 82 10000 5.1 240 12:56 06.10.2019
684 Drizzle 16 1012 87 10000 5.1 220 12:37 06.10.2019
685 Rain 15 1012 87 10000 5.1 200 12:19 06.10.2019
686 Drizzle 15 1012 93 10000 5.1 200 11:55 06.10.2019
687 Drizzle 14 1012 93 10000 5.1 200 11:36 06.10.2019
688 Drizzle 14 1012 93 10000 5.1 200 11:36 06.10.2019
689 Rain 14 1013 93 3300 4.6 200 11:18 06.10.2019
690 Rain 14 1013 93 6000 4.1 190 10:42 06.10.2019
691 Rain 14 1013 93 6000 4.1 190 10:24 06.10.2019
692 Rain 14 1013 93 10000 4.1 190 09:42 06.10.2019
693 Rain 14 1013 93 10000 3.6 190 09:22 06.10.2019
694 Rain 14 1013 93 10000 3.6 190 09:22 06.10.2019
695 Rain 14 1013 93 10000 3.6 190 09:22 06.10.2019
696 Rain 13 1013 87 10000 3.6 220 08:59 06.10.2019
697 Rain 13 1013 87 10000 3.6 220 08:40 06.10.2019
698 Rain 13 1013 93 10000 1.5 190 08:20 06.10.2019
699 Rain 13 1013 87 10000 2.1 190 07:44 06.10.2019
700 Clouds 13 1013 93 10000 2.1 190 07:18 06.10.2019
701 Clouds 13 1014 93 10000 2.6 170 06:20 06.10.2019
702 Rain 13 1014 93 10000 3.86 232.681 05:28 06.10.2019
703 Clouds 13 1015 87 10000 3.86 232.681 03:35 06.10.2019
704 Rain 14 1015 93 10000 4.6 250 02:42 06.10.2019
705 Rain 14 1015 82 10000 2.6 240 02:20 06.10.2019
706 Clouds 14 1015 82 10000 3.1 250 01:40 06.10.2019
707 Clouds 14 1015 87 10000 2.6 230 01:21 06.10.2019
708 Rain 14 1015 87 10000 2.6 240 00:46 06.10.2019
709 Rain 14 1015 87 10000 2.6 240 00:25 06.10.2019
710 Clouds 14 1015 87 10000 2.1 230 23:44 05.10.2019
711 Clouds 14 1015 87 10000 1.5 220 23:22 05.10.2019
712 Clouds 14 1015 87 10000 1.5 220 22:58 05.10.2019
713 Clouds 15 1015 87 10000 2.1 230 22:40 05.10.2019
714 Clouds 15 1015 82 10000 2.1 240 22:20 05.10.2019
715 Clouds 15 1015 82 10000 1.5 0 21:56 05.10.2019
716 Clouds 15 1015 82 10000 1.5 0 21:38 05.10.2019
717 Clouds 15 1015 82 10000 1.66 207.57 21:18 05.10.2019
718 Drizzle 15 1015 82 10000 0.5 0 20:55 05.10.2019
719 Drizzle 15 1015 82 10000 0.5 0 20:37 05.10.2019
720 Clouds 15 1015 82 10000 2.1 220 20:18 05.10.2019
721 Rain 16 1015 82 10000 3.6 260 19:37 05.10.2019
722 Clouds 16 1015 77 10000 2.1 220 19:19 05.10.2019
723 Rain 16 1014 72 10000 2.1 250 18:55 05.10.2019
724 Rain 16 1014 72 10000 2.1 250 18:37 05.10.2019
725 Rain 17 1014 72 10000 2.6 290 18:19 05.10.2019
726 Rain 17 1014 72 10000 2.6 270 17:43 05.10.2019
727 Clouds 17 1014 72 10000 3.1 250 17:24 05.10.2019
728 Clouds 17 1014 72 10000 3.1 230 16:57 05.10.2019
729 Clouds 17 1014 72 10000 3.1 230 16:39 05.10.2019
730 Clouds 17 1014 72 10000 3.1 270 16:20 05.10.2019
731 Clouds 17 1014 82 10000 2.6 210 15:57 05.10.2019
732 Clouds 17 1014 82 10000 2.6 210 15:38 05.10.2019
733 Clouds 17 1014 87 10000 2.1 230 15:20 05.10.2019
734 Drizzle 16 1015 93 10000 1.5 0 14:44 05.10.2019
735 Drizzle 16 1015 87 3700 1.5 0 14:25 05.10.2019
736 Rain 16 1015 87 3700 1.5 0 13:59 05.10.2019
737 Rain 16 1014 93 5000 2.1 230 13:40 05.10.2019
738 Rain 15 1014 87 8000 3.1 240 13:20 05.10.2019
739 Clouds 15 1014 87 10000 2.6 250 12:44 05.10.2019
740 Drizzle 15 1014 87 10000 2.1 230 12:20 05.10.2019
741 Rain 14 1014 93 6000 2.1 230 11:45 05.10.2019
742 Rain 14 1014 93 6000 2.1 230 11:23 05.10.2019
743 Rain 14 1014 93 10000 2.1 240 10:59 05.10.2019
744 Rain 14 1014 93 10000 2.1 240 10:41 05.10.2019
745 Rain 13 1013 93 10000 1.5 230 10:23 05.10.2019
746 Rain 13 1013 93 10000 2.6 250 09:56 05.10.2019
747 Rain 13 1013 93 6000 2.1 240 09:38 05.10.2019
748 Drizzle 13 1013 93 10000 2.1 260 09:20 05.10.2019
749 Rain 13 1012 93 10000 2.6 250 08:39 05.10.2019
750 Rain 13 1012 93 10000 3.1 230 08:19 05.10.2019
751 Rain 13 1012 93 10000 2.6 260 07:53 05.10.2019
752 Drizzle 13 1012 93 10000 2.6 260 07:32 05.10.2019
753 Rain 13 1012 93 10000 2.1 260 06:58 05.10.2019
754 Rain 13 1012 93 4000 3.1 270 06:26 05.10.2019
755 Drizzle 13 1012 93 10000 4.1 270 05:40 05.10.2019
756 Clouds 13 1011 82 10000 3.6 250 03:56 05.10.2019
757 Clouds 13 1011 82 10000 3.6 250 03:28 05.10.2019
758 Clouds 13 1010 82 10000 4.6 240 01:41 05.10.2019
759 Clouds 13 1010 82 10000 4.6 230 01:18 05.10.2019
760 Clouds 13 1010 82 10000 4.6 250 00:41 05.10.2019
761 Clear 13 1010 82 10000 4.1 240 00:23 05.10.2019
762 Clear 13 1010 82 10000 4.1 240 23:44 04.10.2019
763 Clear 13 1010 82 10000 4.1 240 23:25 04.10.2019
764 Clear 13 1011 87 10000 5.1 250 22:59 04.10.2019
765 Clear 13 1011 87 10000 5.1 250 22:39 04.10.2019
766 Clouds 13 1010 87 10000 3.6 240 22:20 04.10.2019
767 Clouds 13 1010 87 10000 3.6 240 21:57 04.10.2019
768 Clouds 14 1011 93 10000 4.6 250 21:38 04.10.2019
769 Clouds 14 1011 93 10000 5.1 250 21:19 04.10.2019
770 Rain 14 1010 93 10000 4.6 240 20:54 04.10.2019
771 Rain 14 1010 93 10000 4.6 240 20:36 04.10.2019
772 Rain 14 1010 93 10000 4.6 240 20:18 04.10.2019
773 Clouds 14 1009 77 10000 6.2 240 19:45 04.10.2019
774 Rain 15 1009 77 10000 6.7 240 19:26 04.10.2019
775 Rain 15 1009 72 10000 5.1 250 18:57 04.10.2019
776 Rain 15 1009 72 10000 5.1 250 18:38 04.10.2019
777 Clouds 15 1009 72 10000 5.1 240 18:19 04.10.2019
778 Clouds 15 1009 72 10000 5.1 240 18:19 04.10.2019
779 Clouds 15 1009 72 10000 5.1 240 17:54 04.10.2019
780 Rain 15 1009 77 10000 5.7 250 17:36 04.10.2019
781 Clouds 15 1009 67 10000 6.7 260 17:18 04.10.2019
782 Clouds 15 1009 63 10000 5.1 250 16:41 04.10.2019
783 Clouds 16 1009 67 10000 5.1 250 16:19 04.10.2019
784 Clouds 16 1009 67 10000 5.1 250 15:58 04.10.2019
785 Rain 16 1009 72 10000 5.1 250 15:40 04.10.2019
786 Clouds 16 1009 63 10000 7.2 250 15:21 04.10.2019
787 Clouds 16 1009 63 10000 7.2 250 14:59 04.10.2019
788 Clouds 16 1009 63 10000 6.2 250 14:41 04.10.2019
789 Clouds 16 1010 77 10000 6.2 270 14:21 04.10.2019
790 Clouds 16 1010 77 10000 6.2 270 13:54 04.10.2019
791 Clouds 16 1010 67 10000 6.7 260 13:36 04.10.2019
792 Clouds 16 1009 67 10000 6.2 260 13:18 04.10.2019
793 Clouds 16 1009 67 10000 5.7 260 12:42 04.10.2019
794 Clouds 15 1009 72 10000 6.2 260 12:24 04.10.2019
795 Clouds 15 1009 77 10000 6.7 260 11:43 04.10.2019
796 Clouds 15 1009 77 10000 6.7 260 11:43 04.10.2019
797 Clouds 15 1009 77 10000 6.7 260 11:43 04.10.2019
798 Clouds 15 1009 77 10000 6.7 260 11:43 04.10.2019
799 Clouds 14 1009 82 10000 4.6 260 11:22 04.10.2019
800 Clouds 14 1009 82 10000 4.6 260 10:57 04.10.2019
801 Rain 14 1009 82 10000 5.1 250 10:38 04.10.2019
802 Clouds 13 1009 82 10000 5.1 250 10:19 04.10.2019
803 Clouds 13 1009 93 10000 4.6 250 09:43 04.10.2019
804 Clouds 13 1009 93 10000 4.6 250 09:25 04.10.2019
805 Clouds 12 1008 93 10000 3.6 250 08:46 04.10.2019
806 Clouds 12 1008 93 10000 3.6 250 08:27 04.10.2019
807 Drizzle 13 1008 100 10000 3.1 240 07:56 04.10.2019
808 Drizzle 12 1008 93 10000 3.1 210 07:37 04.10.2019
809 Drizzle 12 1008 93 10000 3.6 230 07:18 04.10.2019
810 Drizzle 12 1008 93 7000 2.6 200 06:40 04.10.2019
811 Drizzle 12 1008 93 10000 4.1 180 06:21 04.10.2019
812 Drizzle 11 1009 93 10000 4.1 180 05:22 04.10.2019
813 Drizzle 11 1010 93 7000 4.6 170 04:54 04.10.2019
814 Drizzle 11 1011 93 10000 4.1 160 03:42 04.10.2019
815 Rain 10 1012 81 10000 3.6 210 02:53 04.10.2019
816 Clear 11 1013 66 10000 2.6 160 01:54 04.10.2019
817 Clear 11 1013 66 10000 2.6 160 01:27 04.10.2019
818 Clear 10 1014 66 10000 3.1 150 00:44 04.10.2019
819 Clear 10 1015 71 10000 3.1 140 23:54 03.10.2019
820 Clear 10 1015 71 10000 3.1 140 23:36 03.10.2019
821 Clear 9 1016 71 10000 2.6 140 23:18 03.10.2019
822 Clear 10 1016 71 10000 2.6 140 22:54 03.10.2019
823 Clear 9 1016 66 10000 3.1 140 22:36 03.10.2019
824 Clear 9 1016 66 10000 3.1 130 22:18 03.10.2019
825 Clear 9 1016 61 10000 2.6 150 21:41 03.10.2019
826 Clear 9 1016 57 10000 3.6 160 21:21 03.10.2019
827 Clear 10 1016 57 10000 4.1 170 20:59 03.10.2019
828 Clear 10 1016 57 10000 4.1 170 20:41 03.10.2019
829 Clear 11 1016 58 10000 3.6 160 20:23 03.10.2019
830 Clear 11 1016 58 10000 3.6 160 19:59 03.10.2019
831 Clear 11 1017 57 10000 3.6 150 19:41 03.10.2019
832 Clear 12 1017 50 10000 4.1 170 19:22 03.10.2019
833 Clear 12 1017 50 10000 4.1 170 18:58 03.10.2019
834 Clear 13 1018 43 10000 3.6 150 18:38 03.10.2019
835 Clear 13 1018 43 10000 3.6 150 18:38 03.10.2019
836 Clear 13 1018 50 10000 3.1 150 18:19 03.10.2019
837 Clear 13 1018 50 10000 3.1 150 17:55 03.10.2019
838 Clear 13 1018 50 10000 2.6 160 17:37 03.10.2019
839 Clear 13 1019 50 10000 3.6 150 17:19 03.10.2019
840 Clouds 13 1019 47 10000 3.1 170 16:41 03.10.2019
841 Clear 13 1019 47 10000 3.1 190 16:23 03.10.2019
842 Clear 12 1019 47 10000 3.1 190 15:55 03.10.2019
843 -273 0 0 0 0 0 15:55 03.10.2019
844 Clouds 12 1019 50 10000 2.1 150 15:37 03.10.2019
845 -273 0 0 0 0 0 15:19 03.10.2019
846 Clear 12 1020 47 10000 3.6 140 14:45 03.10.2019
847 Clear 13 1020 47 10000 3.6 140 14:26 03.10.2019
848 Clear 12 1020 47 10000 3.1 120 13:57 03.10.2019
849 Clear 12 1020 50 10000 1.5 130 13:39 03.10.2019
850 Clear 12 1021 50 10000 2.1 0 13:19 03.10.2019
851 Clear 12 1021 58 10000 0.5 0 12:56 03.10.2019
852 Clear 12 1021 58 10000 0.5 0 12:37 03.10.2019
853 Clear 12 1021 66 10000 1 0 12:19 03.10.2019
854 Clear 12 1021 66 10000 1 0 12:19 03.10.2019
855 Clear 11 1021 66 10000 1 0 12:19 03.10.2019
856 Clear 10 1021 76 10000 1 0 11:41 03.10.2019
857 Clouds 9 1021 81 10000 1 0 11:23 03.10.2019
858 Clouds 8 1021 81 10000 1 0 10:59 03.10.2019
859 Clear 8 1022 87 10000 0.69 152.502 10:40 03.10.2019
860 Clear 7 1022 87 10000 0.5 0 10:19 03.10.2019
861 Clear 7 1022 87 10000 0.5 0 10:19 03.10.2019
862 Clear 6 1022 93 10000 0.69 152.502 09:58 03.10.2019
863 Clear 6 1022 93 10000 0.69 152.502 09:40 03.10.2019
864 Clear 4 1022 100 10000 1 30 09:20 03.10.2019
865 Clear 3 1022 93 10000 1.5 340 08:45 03.10.2019
866 Clear 3 1022 93 10000 1.5 350 08:27 03.10.2019
867 Clear 2 1022 93 10000 1.5 350 07:57 03.10.2019
868 Clear 2 1022 93 10000 1 20 07:39 03.10.2019
869 Clear 2 1022 86 10000 1.5 360 07:19 03.10.2019
870 Clear 2 1022 86 10000 1.5 360 07:19 03.10.2019
871 Clear 3 1022 93 10000 1 10 06:47 03.10.2019
872 Clear 3 1022 93 10000 1.5 40 06:24 03.10.2019
873 Clear 3 1022 86 10000 0.66 293.769 05:44 03.10.2019
874 Clear 3 1022 93 10000 1.5 30 05:19 03.10.2019
875 Clear 4 1022 93 10000 0.5 0 04:27 03.10.2019
876 Clear 4 1022 86 10000 1 350 03:24 03.10.2019
877 Clear 4 1022 86 10000 0.71 310.444 02:39 03.10.2019
878 Clear 5 1022 86 10000 1 360 01:59 03.10.2019
879 Clear 5 1023 81 10000 0.5 350 01:35 03.10.2019
880 Clear 6 1023 81 10000 1.5 330 00:51 03.10.2019
881 Clear 6 1022 75 10000 2.06 11.813 00:19 03.10.2019
882 Clear 6 1022 75 10000 2.06 11.813 23:43 02.10.2019
883 Clear 7 1022 70 10000 0.5 330 23:22 02.10.2019
884 Clear 8 1022 66 10000 1.5 0 22:46 02.10.2019
885 Clear 8 1021 57 10000 1.5 320 22:23 02.10.2019
886 Clear 9 1021 57 10000 1.5 320 21:58 02.10.2019
887 Clear 9 1021 57 10000 1.5 320 21:58 02.10.2019
888 Clear 9 1021 57 10000 2.1 320 21:39 02.10.2019
889 Clear 10 1021 57 10000 3.6 330 21:20 02.10.2019
890 Clear 10 1021 57 10000 3.6 330 20:57 02.10.2019
891 Clear 11 1020 57 10000 4.6 330 20:39 02.10.2019
892 Clear 11 1020 54 10000 3.6 340 20:20 02.10.2019
893 Clear 12 1020 54 10000 3.6 340 19:57 02.10.2019
894 Clear 12 1019 50 10000 5.7 340 19:39 02.10.2019
895 Clear 13 1019 47 10000 5.7 330 19:20 02.10.2019
896 Clear 14 1018 47 10000 6.7 340 18:57 02.10.2019
897 Clear 14 1018 47 10000 6.7 340 18:38 02.10.2019
898 Clear 15 1018 47 10000 6.2 330 18:19 02.10.2019
899 Clouds 15 1017 47 10000 5.7 330 17:56 02.10.2019
900 Clouds 15 1017 47 10000 5.7 330 17:36 02.10.2019
901 Clouds 16 1017 51 10000 4.6 320 17:18 02.10.2019
902 Clouds 16 1017 48 10000 5.1 310 16:42 02.10.2019
903 Clouds 16 1017 48 10000 5.1 310 16:22 02.10.2019
904 Clouds 16 1017 48 10000 5.1 330 15:57 02.10.2019
905 Clouds 16 1016 51 10000 5.7 330 15:38 02.10.2019
906 Clouds 16 1016 51 10000 5.7 330 15:19 02.10.2019
907 Clouds 16 1016 54 10000 4.6 340 14:57 02.10.2019
908 Clear 16 1016 59 10000 4.1 330 14:39 02.10.2019
909 Clear 16 1016 59 10000 4.1 330 14:20 02.10.2019
910 Clouds 15 1016 62 10000 3.6 360 13:43 02.10.2019
911 Clouds 15 1016 62 10000 3.6 360 13:23 02.10.2019
912 Clouds 15 1016 71 10000 4.6 320 12:57 02.10.2019
913 Clouds 15 1016 71 10000 4.6 320 12:57 02.10.2019
914 Clouds 15 1015 67 10000 4.6 350 12:37 02.10.2019
915 Clouds 14 1015 67 10000 4.6 350 12:18 02.10.2019
916 Clouds 14 1014 71 10000 4.6 350 11:44 02.10.2019
917 Clouds 14 1014 71 10000 4.6 350 11:23 02.10.2019
918 Clouds 13 1012 71 10000 4.6 360 10:42 02.10.2019
919 Clouds 13 1012 71 10000 4.6 360 10:20 02.10.2019
920 Clear 12 1012 76 10000 4.1 10 09:58 02.10.2019
921 Rain 12 1011 81 10000 5.1 350 09:37 02.10.2019
922 Rain 12 1011 81 10000 5.1 350 09:18 02.10.2019
923 Rain 12 1011 81 10000 5.1 350 09:18 02.10.2019
924 Clouds 12 1010 81 10000 4.6 350 08:44 02.10.2019
925 Clouds 12 1010 81 10000 5.7 350 08:23 02.10.2019
926 Drizzle 12 1009 82 10000 5.1 340 07:57 02.10.2019
927 Clouds 13 1008 87 10000 7.2 340 07:38 02.10.2019
928 Clouds 13 1008 87 10000 7.2 340 07:19 02.10.2019
929 Clouds 14 1006 87 10000 4.1 310 06:31 02.10.2019
930 Clouds 14 1006 93 10000 3.1 300 05:54 02.10.2019
931 Clouds 14 1006 93 10000 3.1 300 05:54 02.10.2019
932 Clouds 14 1005 93 10000 2.1 290 05:23 02.10.2019
933 Clouds 14 1005 93 10000 2.6 290 04:50 02.10.2019
934 Rain 14 1004 93 10000 3.6 270 03:52 02.10.2019
935 Rain 14 1004 93 10000 4.1 240 02:41 02.10.2019
936 Rain 14 1004 93 10000 4.1 240 02:23 02.10.2019
937 Clouds 14 1004 93 10000 4.1 230 01:22 02.10.2019
938 Rain 14 1004 87 10000 3.6 210 00:49 02.10.2019
939 Clouds 14 1004 87 10000 2.6 210 00:25 02.10.2019
940 Clear 13 1003 87 10000 3.6 230 23:43 01.10.2019
941 Clear 13 1003 87 10000 3.6 230 23:25 01.10.2019
942 Clear 13 1003 87 10000 2.6 230 22:59 01.10.2019
943 Clear 13 1003 87 10000 2.1 240 22:39 01.10.2019
944 Clear 13 1003 87 10000 2.1 240 22:19 01.10.2019
945 Rain 14 1003 87 10000 3.1 250 21:56 01.10.2019
946 Rain 14 1003 82 10000 5.7 260 21:37 01.10.2019
947 Rain 14 1003 82 10000 5.7 260 21:19 01.10.2019
948 Rain 15 1002 82 10000 5.1 220 20:55 01.10.2019
949 Rain 15 1002 82 10000 4.6 220 20:37 01.10.2019
950 Rain 16 1002 82 10000 5.1 210 20:18 01.10.2019
951 Clear 16 1002 87 10000 4.6 230 19:55 01.10.2019
952 Clear 16 1002 82 10000 5.1 230 19:37 01.10.2019
953 Clear 16 1001 82 10000 4.6 210 19:18 01.10.2019
954 Thunderstorm 16 1002 87 10000 3.6 210 18:40 01.10.2019
955 Rain 16 1002 87 10000 3.6 210 18:21 01.10.2019
956 Rain 17 1002 87 5000 4.1 260 17:58 01.10.2019
957 Thunderstorm 18 1002 63 10000 5.7 270 17:39 01.10.2019
958 Rain 18 1002 63 10000 5.7 270 17:19 01.10.2019
959 Rain 19 1002 56 10000 7.2 220 16:57 01.10.2019
960 Rain 20 1002 53 10000 7.7 220 16:39 01.10.2019
961 Rain 20 1002 53 10000 7.7 220 16:21 01.10.2019
962 -273 0 0 0 0 0 16:21 01.10.2019
963 Clouds 21 1003 64 10000 6.7 220 15:42 01.10.2019
964 Clouds 21 1003 64 10000 6.7 220 15:23 01.10.2019
965 Rain 20 1003 68 10000 6.2 230 14:41 01.10.2019
966 Rain 20 1003 68 10000 6.2 230 14:20 01.10.2019
967 Rain 19 1003 72 10000 8.2 210 13:58 01.10.2019
968 Clouds 19 1004 77 10000 6.2 210 13:39 01.10.2019
969 Clouds 19 1004 77 10000 6.2 210 13:21 01.10.2019
970 Clouds 19 1004 82 10000 6.7 210 12:58 01.10.2019
971 Rain 19 1004 88 10000 5.7 210 12:39 01.10.2019
972 Rain 18 1004 88 10000 6.7 200 12:19 01.10.2019
973 Drizzle 18 1004 88 10000 6.7 200 11:58 01.10.2019
974 Rain 18 1004 88 10000 5.7 190 11:38 01.10.2019
975 Drizzle 18 1005 82 10000 7.2 200 11:18 01.10.2019
976 Drizzle 18 1005 93 10000 5.7 220 10:49 01.10.2019
977 Rain 17 1004 88 10000 5.1 180 10:29 01.10.2019
978 Rain 17 1005 93 10000 4.6 220 09:57 01.10.2019
979 Rain 17 1005 93 10000 4.1 210 09:39 01.10.2019
980 Rain 17 1005 93 10000 6.7 210 09:21 01.10.2019
981 Rain 17 1005 100 10000 5.1 220 08:42 01.10.2019
982 Rain 17 1005 82 10000 5.7 200 08:24 01.10.2019
983 Mist 17 1006 88 10000 5.7 230 07:48 01.10.2019
984 Clouds 17 1005 82 10000 5.1 200 07:25 01.10.2019
985 Clouds 17 1006 88 10000 5.1 220 06:48 01.10.2019
986 Clouds 17 1006 88 10000 4.6 190 06:19 01.10.2019
987 Clouds 17 1006 88 10000 5.1 180 05:46 01.10.2019
988 Clouds 17 1006 88 10000 5.1 180 05:18 01.10.2019
989 Rain 16 1007 82 10000 6.2 200 04:29 01.10.2019
990 Clouds 16 1009 77 10000 5.7 190 02:29 01.10.2019
991 Clouds 16 1009 77 10000 6.2 190 01:59 01.10.2019
992 Clouds 16 1010 87 10000 4.1 210 00:59 01.10.2019
993 Clouds 15 1011 87 10000 3.6 200 00:37 01.10.2019
994 Clouds 15 1011 87 10000 3.6 200 00:18 01.10.2019
995 Rain 15 1011 87 10000 3.1 200 23:41 30.09.2019
996 Rain 15 1011 87 10000 3.1 200 23:20 30.09.2019
997 Rain 15 1011 82 10000 3.1 200 22:43 30.09.2019
998 Rain 16 1011 67 10000 4.1 170 22:25 30.09.2019
999 Clouds 16 1012 67 10000 4.6 180 21:58 30.09.2019
1000 Clouds 16 1012 67 10000 5.1 180 21:38 30.09.2019
1001 Clouds 16 1012 67 10000 5.1 180 21:19 30.09.2019
1002 Clouds 16 1012 67 10000 4.6 190 20:57 30.09.2019
1003 Clouds 16 1012 67 10000 5.1 190 20:39 30.09.2019
1004 Clouds 16 1012 67 10000 5.1 190 20:20 30.09.2019
1005 Clouds 16 1013 63 10000 4.6 200 19:57 30.09.2019
1006 Clouds 17 1013 59 10000 5.1 190 19:39 30.09.2019
1007 Clouds 17 1013 59 10000 6.2 200 19:19 30.09.2019
1008 Clouds 18 1013 59 10000 6.2 200 18:57 30.09.2019
1009 Clouds 18 1014 63 10000 4.1 230 18:39 30.09.2019
1010 Clouds 18 1013 59 10000 5.1 220 18:19 30.09.2019
1011 Clouds 18 1014 55 10000 5.1 200 17:43 30.09.2019
1012 Clouds 19 1014 55 10000 5.1 200 17:23 30.09.2019
1013 Clouds 19 1014 55 10000 5.1 190 16:57 30.09.2019
1014 Clouds 19 1014 55 10000 5.1 220 16:39 30.09.2019
1015 Clouds 18 1014 59 10000 4.6 210 16:19 30.09.2019
1016 Clouds 18 1014 59 10000 4.6 210 15:58 30.09.2019
1017 Clouds 18 1014 59 10000 5.1 200 15:38 30.09.2019
1018 Clouds 18 1015 63 10000 3.6 210 15:19 30.09.2019
1019 Clouds 18 1015 63 10000 3.6 210 14:57 30.09.2019
1020 Clouds 18 1015 63 10000 5.1 220 14:37 30.09.2019
1021 Clouds 18 1015 63 10000 5.1 220 14:19 30.09.2019
1022 Clouds 18 1015 59 10000 5.7 210 13:57 30.09.2019
1023 Clouds 18 1016 59 10000 4.6 230 13:38 30.09.2019
1024 Clouds 17 1016 67 10000 4.1 230 13:20 30.09.2019
1025 Clouds 17 1016 67 10000 4.1 230 12:43 30.09.2019
1026 Clouds 16 1016 72 10000 4.1 200 12:22 30.09.2019
1027 Clouds 16 1016 77 10000 3.6 220 11:57 30.09.2019
1028 Clouds 15 1016 77 10000 3.1 220 11:39 30.09.2019
1029 Clouds 14 1016 77 10000 3.1 230 11:19 30.09.2019
1030 -273 0 0 0 0 0 10:55 30.09.2019
1031 Clouds 14 1015 82 10000 3.6 240 10:37 30.09.2019
1032 Clouds 13 1015 82 10000 3.6 240 10:18 30.09.2019
1033 Clouds 13 1015 82 10000 3.1 230 09:40 30.09.2019
1034 Clouds 12 1015 87 10000 2.6 220 09:21 30.09.2019
1035 Clouds 12 1015 87 10000 2.6 220 08:51 30.09.2019
1036 Clouds 12 1014 87 10000 3.6 230 08:33 30.09.2019
1037 Clouds 11 1014 87 10000 3.6 240 07:47 30.09.2019
1038 Clouds 12 1014 87 10000 4.1 240 07:28 30.09.2019
1039 Rain 12 1013 87 10000 3.6 250 06:59 30.09.2019
1040 Drizzle 12 1013 82 10000 4.1 240 06:41 30.09.2019
1041 Clouds 13 1013 82 10000 4.1 240 05:56 30.09.2019
1042 Clouds 13 1013 82 10000 4.6 240 05:38 30.09.2019
1043 Clouds 14 1011 77 10000 4.6 250 02:50 30.09.2019
1044 Clouds 14 1011 77 10000 5.7 240 01:50 30.09.2019
1045 Clouds 15 1010 77 10000 5.7 250 00:57 30.09.2019
1046 Clouds 15 1010 77 10000 5.7 250 00:57 30.09.2019
1047 Clouds 15 1010 77 10000 5.7 260 00:37 30.09.2019
1048 Clouds 15 1010 77 10000 5.7 260 00:18 30.09.2019
1049 Clouds 15 1010 77 10000 5.7 260 00:18 30.09.2019
1050 Clouds 15 1008 72 10000 7.2 250 23:40 29.09.2019
1051 Clouds 15 1007 77 10000 7.2 250 23:20 29.09.2019
1052 Clouds 15 1007 77 10000 7.2 250 22:45 29.09.2019
1053 Clouds 15 1007 77 10000 7.2 250 22:25 29.09.2019
1054 Clouds 15 1007 77 10000 7.2 250 22:25 29.09.2019
1055 Clouds 15 1006 77 10000 6.2 250 21:59 29.09.2019
1056 Clouds 15 1005 77 10000 7.7 240 21:39 29.09.2019
1057 Clouds 15 1005 77 10000 7.7 240 21:20 29.09.2019
1058 Rain 16 1004 82 10000 7.7 250 20:59 29.09.2019
1059 Rain 16 1004 87 10000 7.7 260 20:41 29.09.2019
1060 Rain 16 1004 87 10000 7.7 260 20:19 29.09.2019
1061 Rain 16 1004 87 10000 7.7 260 20:19 29.09.2019
1062 Rain 17 1003 88 2500 10.8 260 19:56 29.09.2019
1063 Rain 18 1002 77 10000 8.2 220 19:37 29.09.2019
1064 Rain 18 1002 77 10000 8.2 220 19:18 29.09.2019
1065 Rain 19 1002 77 10000 6.7 230 18:55 29.09.2019
1066 Rain 19 1002 82 10000 7.2 220 18:37 29.09.2019
1067 Rain 19 1002 82 10000 7.2 220 18:18 29.09.2019
1068 Rain 20 1001 82 9000 8.2 210 17:55 29.09.2019
1069 Rain 20 1001 82 9000 8.2 210 17:55 29.09.2019
1070 Clouds 20 1002 77 10000 8.2 200 17:37 29.09.2019
1071 Clouds 19 1002 77 10000 8.2 200 17:19 29.09.2019
1072 Rain 19 1002 77 10000 7.2 210 16:57 29.09.2019
1073 Rain 19 1003 82 10000 7.7 210 16:39 29.09.2019
1074 Rain 19 1003 82 10000 7.7 210 16:18 29.09.2019
1075 Rain 19 1003 77 10000 8.2 210 15:41 29.09.2019
1076 Clouds 19 1003 82 10000 7.2 200 15:41 29.09.2019
1077 Drizzle 18 1003 82 10000 7.2 200 15:19 29.09.2019
1078 Drizzle 18 1003 82 10000 7.2 200 14:59 29.09.2019
1079 Drizzle 18 1003 82 10000 7.2 200 14:39 29.09.2019
1080 Drizzle 17 1004 82 10000 8.7 200 14:20 29.09.2019
1081 Drizzle 17 1004 82 10000 8.7 200 13:57 29.09.2019
1082 Drizzle 17 1005 82 10000 8.2 200 13:39 29.09.2019
1083 Drizzle 16 1005 82 10000 8.2 200 13:19 29.09.2019
1084 Clouds 16 1005 82 10000 8.7 200 12:57 29.09.2019
1085 Rain 16 1005 82 10000 7.7 190 12:39 29.09.2019
1086 Rain 15 1005 82 10000 7.7 190 12:21 29.09.2019
1087 Rain 15 1006 87 10000 7.2 190 11:57 29.09.2019
1088 Clouds 15 1006 87 10000 7.2 200 11:37 29.09.2019
1089 Clouds 15 1006 87 10000 7.2 200 11:18 29.09.2019
1090 Rain 14 1006 87 10000 5.7 190 10:56 29.09.2019
1091 Rain 14 1006 87 10000 5.7 190 10:56 29.09.2019
1092 Drizzle 14 1006 82 10000 6.2 200 10:36 29.09.2019
1093 Rain 14 1006 82 10000 6.2 200 10:18 29.09.2019
1094 Rain 14 1006 82 6000 7.2 200 09:44 29.09.2019
1095 Rain 14 1006 77 10000 6.2 200 09:20 29.09.2019
1096 Rain 14 1006 72 10000 5.7 180 08:57 29.09.2019
1097 Rain 14 1007 76 10000 4.6 180 08:37 29.09.2019
1098 Rain 14 1007 76 10000 4.6 180 08:18 29.09.2019
1099 Rain 14 1007 87 10000 5.1 210 07:41 29.09.2019
1100 Clear 13 1008 76 10000 5.7 180 07:23 29.09.2019
1101 Clear 13 1008 76 10000 6.7 180 06:42 29.09.2019
1102 Clear 14 1010 76 10000 5.1 180 04:59 29.09.2019
1103 Clear 14 1010 72 10000 3.6 190 04:25 29.09.2019
1104 Clear 14 1011 72 10000 3.6 180 03:56 29.09.2019
1105 Clear 14 1012 72 10000 5.1 190 02:45 29.09.2019
1106 Clear 14 1012 72 10000 5.1 190 02:18 29.09.2019
1107 Clear 14 1013 82 10000 3.6 190 01:31 29.09.2019
1108 Clear 14 1013 72 10000 4.1 180 00:48 29.09.2019
1109 Clear 15 1014 77 10000 3.1 200 00:20 29.09.2019
1110 Clear 15 1015 77 10000 3.1 200 23:42 28.09.2019
1111 Clear 15 1015 77 10000 3.1 200 23:22 28.09.2019
1112 Clear 15 1014 67 10000 4.6 190 22:57 28.09.2019
1113 Clear 15 1014 67 10000 4.6 190 22:38 28.09.2019
1114 Clear 15 1014 67 10000 4.6 190 22:20 28.09.2019
1115 Clear 16 1015 72 10000 2.6 200 21:56 28.09.2019
1116 Clear 16 1015 72 10000 3.6 210 21:38 28.09.2019
1117 Clear 16 1015 72 10000 3.6 210 21:20 28.09.2019
1118 Clear 16 1015 59 10000 4.6 200 20:57 28.09.2019
1119 Clouds 17 1015 59 10000 5.1 210 20:38 28.09.2019
1120 Clouds 17 1015 59 10000 5.1 210 20:18 28.09.2019
1121 Clouds 17 1015 63 10000 4.1 210 19:55 28.09.2019
1122 Clouds 18 1015 55 10000 4.6 220 19:37 28.09.2019
1123 Clouds 18 1015 55 10000 4.6 220 19:18 28.09.2019
1124 Clouds 19 1015 55 10000 7.7 220 18:42 28.09.2019
1125 Clouds 19 1015 55 10000 7.7 220 18:22 28.09.2019
1126 Clouds 19 1015 55 10000 7.7 230 17:59 28.09.2019
1127 Clouds 19 1015 55 10000 7.7 230 17:59 28.09.2019
1128 Clouds 19 1015 52 10000 8.2 220 17:41 28.09.2019
1129 Clouds 19 1015 52 10000 8.2 220 17:22 28.09.2019
1130 Clouds 19 1015 55 10000 6.7 230 16:57 28.09.2019
1131 Clouds 19 1015 55 10000 7.2 220 16:38 28.09.2019
1132 Clouds 20 1015 55 10000 7.2 220 16:20 28.09.2019
1133 Clouds 19 1016 55 10000 6.7 230 15:40 28.09.2019
1134 Clouds 19 1016 55 10000 6.7 230 15:22 28.09.2019
1135 Clouds 19 1016 55 10000 6.2 230 14:56 28.09.2019
1136 Clouds 18 1016 55 10000 8.2 230 14:37 28.09.2019
1137 Clouds 18 1016 59 10000 8.2 230 14:19 28.09.2019
1138 Clouds 18 1016 59 10000 8.2 230 13:56 28.09.2019
1139 Clouds 18 1017 63 10000 7.2 240 13:37 28.09.2019
1140 Clouds 18 1017 63 10000 7.2 240 13:19 28.09.2019
1141 Clouds 17 1016 68 10000 4.6 220 12:39 28.09.2019
1142 Clouds 17 1016 68 10000 4.6 220 12:19 28.09.2019
1143 Clouds 16 1016 67 10000 7.7 220 11:43 28.09.2019
1144 Clouds 16 1016 67 10000 7.7 220 11:21 28.09.2019
1145 Clouds 15 1016 72 10000 6.7 230 10:59 28.09.2019
1146 Clouds 15 1016 72 10000 5.7 220 10:39 28.09.2019
1147 Clouds 15 1016 72 10000 5.7 220 10:19 28.09.2019
1148 Clouds 14 1015 77 10000 4.6 220 09:42 28.09.2019
1149 Clouds 14 1015 77 10000 4.6 220 09:23 28.09.2019
1150 Clouds 14 1016 87 10000 5.1 220 08:55 28.09.2019
1151 Clouds 14 1016 87 10000 5.1 230 08:37 28.09.2019
1152 Clouds 14 1015 87 10000 5.1 220 08:18 28.09.2019
1153 Clouds 14 1015 87 10000 4.6 230 07:43 28.09.2019
1154 Clouds 13 1015 87 10000 4.6 230 07:20 28.09.2019
1155 Clouds 13 1015 76 10000 5.7 210 06:52 28.09.2019
1156 Clouds 13 1015 82 10000 5.7 210 06:30 28.09.2019
1157 Clouds 13 1014 82 10000 5.1 210 05:43 28.09.2019
1158 Clouds 13 1014 82 10000 5.1 210 05:20 28.09.2019
1159 Clouds 13 1014 82 10000 4.6 210 04:38 28.09.2019
1160 Clear 13 1014 82 10000 4.6 210 03:55 28.09.2019
1161 Clouds 14 1014 82 10000 5.1 220 03:21 28.09.2019
1162 Clouds 14 1015 87 10000 4.1 240 02:45 28.09.2019
1163 Clouds 14 1014 87 10000 4.1 230 02:27 28.09.2019
1164 Rain 14 1014 87 10000 4.6 240 01:48 28.09.2019
1165 Rain 14 1013 77 10000 5.1 230 01:26 28.09.2019
1166 Rain 14 1013 77 10000 4.6 210 00:52 28.09.2019
1167 Rain 14 1013 77 10000 4.6 210 00:31 28.09.2019
1168 Clear 15 1013 72 10000 4.6 220 23:58 27.09.2019
1169 Clouds 15 1013 72 10000 5.1 220 23:37 27.09.2019
1170 Clouds 15 1013 72 10000 5.1 220 23:19 27.09.2019
1171 Clear 15 1012 77 10000 5.1 220 22:45 27.09.2019
1172 Clear 15 1012 77 10000 5.1 220 22:45 27.09.2019
1173 Clear 15 1012 72 10000 5.1 220 22:19 27.09.2019
1174 Clear 15 1013 82 10000 3.6 230 21:57 27.09.2019
1175 Clear 16 1012 72 10000 5.7 220 21:37 27.09.2019
1176 Clear 16 1012 72 10000 5.7 220 21:19 27.09.2019
1177 Clear 16 1012 72 10000 4.1 210 20:56 27.09.2019
1178 Clear 16 1011 72 10000 5.1 210 20:38 27.09.2019
1179 Clear 16 1011 72 10000 5.1 210 20:19 27.09.2019
1180 Clear 17 1011 72 10000 4.6 220 19:56 27.09.2019
1181 Clear 17 1011 68 10000 5.1 210 19:37 27.09.2019
1182 Rain 17 1011 68 10000 5.1 230 19:18 27.09.2019
1183 Rain 17 1011 77 10000 4.1 210 18:40 27.09.2019
1184 Rain 17 1011 77 10000 4.1 210 18:22 27.09.2019
1185 Rain 18 1011 77 10000 7.2 230 17:56 27.09.2019
1186 Clouds 19 1010 56 10000 6.7 230 17:37 27.09.2019
1187 Clouds 19 1010 56 10000 6.7 230 17:18 27.09.2019
1188 Clouds 19 1011 59 10000 6.2 230 16:57 27.09.2019
1189 Clouds 19 1011 59 10000 6.2 230 16:56 27.09.2019
1190 Clouds 19 1011 56 10000 8.7 220 16:37 27.09.2019
1191 Clouds 20 1011 56 10000 8.7 220 16:18 27.09.2019
1192 Rain 19 1011 59 10000 5.7 210 15:45 27.09.2019
1193 Clouds 19 1011 59 10000 5.7 210 15:21 27.09.2019
1194 Rain 19 1011 60 10000 7.2 220 14:57 27.09.2019
1195 Clouds 19 1011 63 10000 6.2 220 14:39 27.09.2019
1196 Clouds 19 1011 63 10000 6.2 220 14:20 27.09.2019
1197 Clouds 19 1011 63 10000 6.2 240 13:57 27.09.2019
1198 Clouds 18 1011 68 10000 7.2 230 13:39 27.09.2019
1199 Clouds 18 1011 68 10000 7.2 230 13:20 27.09.2019
1200 Clouds 18 1011 68 10000 5.7 230 12:52 27.09.2019
1201 Clouds 18 1011 72 10000 6.7 220 12:23 27.09.2019
1202 Clouds 17 1011 72 10000 5.7 210 11:58 27.09.2019
1203 Clouds 17 1011 77 10000 5.1 220 11:38 27.09.2019
1204 Clouds 16 1011 77 10000 5.1 220 11:19 27.09.2019
1205 Clouds 16 1011 77 10000 4.6 210 10:43 27.09.2019
1206 Clouds 15 1011 82 10000 3.6 220 10:22 27.09.2019
1207 Clear 15 1011 87 10000 4.6 200 09:58 27.09.2019
1208 Clear 14 1011 87 10000 4.6 200 09:39 27.09.2019
1209 Clear 14 1011 82 10000 3.6 220 09:19 27.09.2019
1210 Clear 14 1011 87 10000 3.1 220 08:41 27.09.2019
1211 Clear 14 1011 87 10000 3.1 220 08:21 27.09.2019
1212 Clouds 13 1011 87 10000 4.1 220 07:55 27.09.2019
1213 Clear 13 1011 87 10000 3.1 210 07:37 27.09.2019
1214 Clear 13 1011 87 10000 3.1 210 07:18 27.09.2019
1215 Clouds 14 1011 87 10000 4.6 210 06:40 27.09.2019
1216 Clouds 13 1011 93 10000 3.1 220 06:21 27.09.2019
1217 Clouds 14 1011 93 10000 2.6 210 05:45 27.09.2019
1218 Clouds 14 1011 87 10000 3.1 220 05:26 27.09.2019
1219 Rain 14 1011 87 10000 4.1 210 03:39 27.09.2019
1220 Rain 15 1011 93 4400 4.1 260 01:56 27.09.2019
1221 Rain 15 1011 93 4000 3.1 260 01:31 27.09.2019
1222 Rain 16 1011 93 5000 1 0 00:41 27.09.2019
1223 Drizzle 16 1011 93 4200 2.6 330 23:58 26.09.2019
1224 Rain 16 1011 88 5000 4.1 280 23:40 26.09.2019
1225 Rain 16 1011 88 5000 4.1 280 23:20 26.09.2019
1226 Mist 17 1011 72 10000 8.2 220 22:58 26.09.2019
1227 Mist 17 1011 72 10000 7.2 210 22:40 26.09.2019
1228 Mist 17 1011 72 10000 7.2 210 22:18 26.09.2019
1229 Mist 18 1010 72 10000 7.7 200 21:59 26.09.2019
1230 Clouds 18 1010 68 10000 9.3 200 21:38 26.09.2019
1231 Clouds 18 1010 68 10000 9.3 200 21:38 26.09.2019
1232 Clouds 18 1010 68 10000 9.3 200 21:20 26.09.2019
1233 Rain 18 1010 64 10000 8.2 200 20:59 26.09.2019
1234 Rain 19 1010 64 10000 7.7 200 20:40 26.09.2019
1235 Rain 19 1010 64 10000 7.7 200 20:21 26.09.2019
1236 Clouds 19 1010 64 10000 6.7 200 19:59 26.09.2019
1237 Clouds 19 1010 68 10000 7.7 200 19:40 26.09.2019
1238 Clouds 19 1011 68 10000 6.7 210 19:18 26.09.2019
1239 Clouds 19 1011 68 10000 6.7 210 18:57 26.09.2019
1240 Clouds 19 1010 68 10000 8.2 200 18:37 26.09.2019
1241 Clouds 19 1010 68 10000 9.3 210 18:19 26.09.2019
1242 Clouds 19 1010 68 10000 7.7 210 17:38 26.09.2019
1243 Clouds 19 1010 68 10000 7.7 210 17:38 26.09.2019
1244 Clouds 20 1010 64 10000 6.7 210 17:19 26.09.2019
1245 Clouds 20 1010 64 10000 6.7 210 16:58 26.09.2019
1246 Clouds 20 1010 64 10000 6.7 210 16:39 26.09.2019
1247 Clouds 20 1010 64 10000 6.7 210 16:20 26.09.2019
1248 Clouds 20 1010 68 10000 7.2 210 15:57 26.09.2019
1249 Clouds 20 1010 68 10000 6.7 210 15:37 26.09.2019
1250 Clouds 20 1010 68 10000 6.7 210 15:18 26.09.2019
1251 Clouds 20 1010 68 10000 7.2 220 15:18 26.09.2019
1252 Clouds 20 1010 68 10000 7.2 220 14:55 26.09.2019
1253 Clouds 20 1011 68 10000 6.7 210 14:37 26.09.2019
1254 Clouds 20 1011 68 10000 6.7 210 14:18 26.09.2019
1255 Clouds 20 1011 72 10000 6.7 230 13:40 26.09.2019
1256 Clouds 20 1011 72 10000 6.7 230 13:20 26.09.2019
1257 Clouds 19 1011 72 10000 6.7 210 12:56 26.09.2019
1258 Rain 19 1011 82 10000 4.6 220 12:38 26.09.2019
1259 Rain 19 1011 82 10000 4.6 220 12:19 26.09.2019
1260 Rain 18 1010 82 10000 5.7 210 11:42 26.09.2019
1261 Drizzle 18 1011 93 6000 5.1 230 11:21 26.09.2019
1262 Clouds 17 1010 88 10000 5.7 210 10:56 26.09.2019
1263 Clouds 17 1010 88 10000 5.7 210 10:56 26.09.2019
1264 Clouds 17 1010 88 10000 5.7 210 10:56 26.09.2019
1265 Clouds 17 1010 88 10000 5.7 210 10:56 26.09.2019
1266 Rain 17 1010 88 10000 5.7 210 10:38 26.09.2019
1267 Drizzle 17 1010 88 10000 6.2 190 10:19 26.09.2019
1268 Drizzle 17 1009 88 10000 5.1 190 09:44 26.09.2019
1269 Drizzle 16 1009 88 10000 5.1 190 09:26 26.09.2019
1270 Drizzle 16 1009 88 4200 4.6 200 08:57 26.09.2019
1271 Clouds 16 1009 88 10000 4.6 200 08:39 26.09.2019
1272 Clouds 16 1009 88 10000 4.6 200 08:21 26.09.2019
1273 Clouds 16 1009 88 10000 4.1 200 07:43 26.09.2019
1274 Clouds 16 1009 88 10000 4.1 200 07:21 26.09.2019
1275 Drizzle 16 1010 100 10000 4.1 220 06:44 26.09.2019
1276 Drizzle 16 1010 100 10000 4.1 220 06:25 26.09.2019
1277 Clouds 16 1009 87 10000 4.6 210 05:44 26.09.2019
1278 Clouds 16 1009 87 10000 4.6 210 05:25 26.09.2019
1279 Clouds 16 1009 93 10000 4.1 210 02:53 26.09.2019
1280 Drizzle 16 1009 93 4600 3.1 200 01:54 26.09.2019
1281 Drizzle 16 1009 93 4600 3.1 200 01:54 26.09.2019
1282 Drizzle 16 1009 93 7000 4.1 210 01:29 26.09.2019
1283 Drizzle 16 1009 100 7000 3.6 220 00:56 26.09.2019
1284 Drizzle 16 1009 100 10000 3.1 220 00:37 26.09.2019
1285 Drizzle 16 1009 87 10000 4.1 210 00:19 26.09.2019
1286 Drizzle 16 1008 87 10000 3.1 200 23:42 25.09.2019
1287 Drizzle 16 1008 87 10000 3.1 200 23:18 25.09.2019
1288 Rain 16 1009 93 10000 3.1 230 22:42 25.09.2019
1289 Rain 16 1009 93 10000 3.1 230 22:21 25.09.2019
1290 Rain 16 1009 93 10000 3.1 230 21:58 25.09.2019
1291 Rain 16 1008 82 10000 2.6 230 21:39 25.09.2019
1292 Rain 16 1008 82 10000 2.6 230 21:19 25.09.2019
1293 Rain 16 1008 82 10000 3.6 230 20:58 25.09.2019
1294 Rain 16 1008 77 10000 3.6 250 20:40 25.09.2019
1295 Rain 16 1008 77 10000 3.6 250 20:22 25.09.2019
1296 Rain 17 1008 72 10000 5.1 230 19:59 25.09.2019
1297 Clouds 17 1008 68 10000 3.6 230 19:38 25.09.2019
1298 Clouds 17 1007 63 10000 5.1 220 19:19 25.09.2019
1299 Clouds 18 1007 63 10000 4.6 220 18:56 25.09.2019
1300 Clouds 18 1007 63 10000 4.6 210 18:37 25.09.2019
1301 Rain 18 1007 63 10000 4.6 210 18:18 25.09.2019
1302 Clouds 19 1007 63 10000 4.6 210 17:40 25.09.2019
1303 Clouds 19 1007 63 10000 4.6 210 17:20 25.09.2019
1304 Clouds 18 1007 68 10000 5.7 210 16:56 25.09.2019
1305 Clouds 18 1007 72 10000 6.2 210 16:37 25.09.2019
1306 Clouds 18 1007 72 10000 6.2 210 16:19 25.09.2019
1307 Clouds 18 1008 72 10000 8.2 210 15:42 25.09.2019
1308 Clouds 18 1008 72 10000 8.2 210 15:23 25.09.2019
1309 Clouds 18 1008 72 10000 5.7 220 14:59 25.09.2019
1310 Clouds 18 1008 72 10000 5.7 220 14:41 25.09.2019
1311 Clouds 17 1008 77 10000 5.7 230 14:21 25.09.2019
1312 Clouds 17 1008 77 10000 5.7 230 13:56 25.09.2019
1313 Clouds 17 1008 77 10000 6.2 210 13:38 25.09.2019
1314 Clouds 16 1008 87 10000 5.7 210 13:19 25.09.2019
1315 Clouds 16 1008 87 10000 5.1 210 12:42 25.09.2019
1316 Clouds 16 1008 87 10000 5.1 210 12:24 25.09.2019
1317 Rain 15 1008 87 10000 5.1 210 11:59 25.09.2019
1318 Rain 15 1008 87 10000 5.1 210 11:59 25.09.2019
1319 Drizzle 15 1008 87 10000 4.1 210 11:40 25.09.2019
1320 Drizzle 15 1008 87 10000 4.1 210 11:19 25.09.2019
1321 Drizzle 14 1007 93 10000 4.1 200 10:46 25.09.2019
1322 Rain 14 1007 93 6000 5.7 210 10:26 25.09.2019
1323 Rain 14 1007 93 10000 4.6 200 09:59 25.09.2019
1324 Rain 14 1007 93 10000 4.6 200 09:40 25.09.2019
1325 Drizzle 14 1007 87 10000 4.6 190 09:22 25.09.2019
1326 Drizzle 14 1007 87 5000 4.6 210 08:56 25.09.2019
1327 Rain 14 1007 87 10000 6.2 210 08:37 25.09.2019
1328 Rain 13 1007 87 10000 6.2 210 08:19 25.09.2019
1329 Rain 13 1007 93 10000 4.6 220 07:40 25.09.2019
1330 Rain 13 1007 93 10000 4.6 220 07:22 25.09.2019
1331 Clouds 14 1007 93 10000 5.1 220 06:52 25.09.2019
1332 Clouds 14 1007 82 10000 5.7 200 06:32 25.09.2019
1333 Clouds 13 1007 82 10000 4.1 200 05:43 25.09.2019
1334 Clouds 13 1007 82 10000 5.1 200 04:58 25.09.2019
1335 Clouds 14 1008 82 10000 6.7 210 02:32 25.09.2019
1336 Clear 14 1008 82 10000 3.6 220 01:29 25.09.2019
1337 Clear 14 1008 82 10000 3.6 210 00:37 25.09.2019
1338 Clear 14 1008 82 10000 3.6 210 00:19 25.09.2019
1339 Clouds 14 1008 87 10000 2.6 240 23:41 24.09.2019
1340 Clouds 14 1008 87 10000 2.6 240 23:22 24.09.2019
1341 Clear 14 1008 82 10000 2.1 230 22:56 24.09.2019
1342 Clear 14 1008 87 10000 2.1 190 22:38 24.09.2019
1343 Rain 14 1007 87 10000 2.1 250 22:18 24.09.2019
1344 Rain 15 1007 87 10000 2.1 250 21:55 24.09.2019
1345 Rain 15 1008 87 10000 4.1 240 21:36 24.09.2019
1346 Rain 15 1008 87 10000 4.1 240 21:18 24.09.2019
1347 Rain 15 1007 93 10000 1 240 20:55 24.09.2019
1348 Rain 16 1006 93 10000 2.1 240 20:37 24.09.2019
1349 Rain 16 1006 88 10000 3.6 250 20:18 24.09.2019
1350 Rain 17 1006 93 10000 3.1 240 19:42 24.09.2019
1351 Rain 17 1006 93 10000 3.1 240 19:19 24.09.2019
1352 Rain 17 1006 93 10000 3.1 240 19:19 24.09.2019
1353 Rain 17 1006 87 2600 7.2 280 18:57 24.09.2019
1354 Rain 17 1005 72 10000 2.1 240 18:39 24.09.2019
1355 Rain 18 1005 72 10000 2.1 240 18:20 24.09.2019
1356 Rain 19 1005 77 10000 3.6 240 17:56 24.09.2019
1357 Clouds 19 1005 82 10000 4.1 220 17:37 24.09.2019
1358 Clouds 19 1005 82 10000 4.1 220 17:37 24.09.2019
1359 Clouds 19 1005 88 10000 3.6 200 17:19 24.09.2019
1360 Clouds 18 1005 93 10000 3.6 190 16:42 24.09.2019
1361 Clouds 18 1005 93 10000 3.6 190 16:21 24.09.2019
1362 Rain 17 1005 93 10000 4.1 180 15:58 24.09.2019
1363 Drizzle 17 1005 93 10000 3.6 190 15:40 24.09.2019
1364 Drizzle 16 1005 93 10000 3.6 190 15:21 24.09.2019
1365 Drizzle 16 1006 93 10000 6.2 170 14:40 24.09.2019
1366 Rain 16 1006 93 9000 6.2 170 14:19 24.09.2019
1367 Rain 16 1006 93 9000 6.2 170 13:45 24.09.2019
1368 Rain 15 1006 93 10000 6.2 160 13:24 24.09.2019
1369 Drizzle 15 1007 93 7000 4.6 160 12:59 24.09.2019
1370 Drizzle 15 1008 87 4100 6.2 170 12:39 24.09.2019
1371 Drizzle 15 1008 93 6000 3.6 190 12:18 24.09.2019
1372 Drizzle 15 1008 87 10000 5.1 200 11:43 24.09.2019
1373 Drizzle 15 1008 87 10000 5.1 200 11:22 24.09.2019
1374 Rain 15 1009 82 10000 6.2 200 10:57 24.09.2019
1375 Rain 15 1008 87 10000 5.7 190 10:37 24.09.2019
1376 Rain 16 1008 87 10000 5.7 190 10:19 24.09.2019
1377 Drizzle 15 1008 77 10000 6.2 150 09:46 24.09.2019
1378 Drizzle 15 1008 77 10000 6.2 150 09:27 24.09.2019
1379 Rain 15 1009 77 10000 6.2 150 08:57 24.09.2019
1380 Rain 15 1009 77 10000 6.2 150 08:57 24.09.2019
1381 Rain 15 1009 77 10000 5.1 160 08:38 24.09.2019
1382 Rain 15 1009 77 10000 5.1 160 08:20 24.09.2019
1383 Clear 15 1010 77 10000 6.2 170 07:55 24.09.2019
1384 Clear 15 1010 77 10000 5.7 170 07:36 24.09.2019
1385 Clear 15 1010 77 10000 5.7 170 07:18 24.09.2019
1386 Clear 15 1011 77 10000 3.6 150 06:36 24.09.2019
1387 Clouds 15 1011 77 10000 3.6 150 05:52 24.09.2019
1388 Clouds 15 1012 77 10000 3.6 150 05:20 24.09.2019
1389 Clouds 15 1013 77 10000 4.1 160 03:45 24.09.2019
1390 Clouds 15 1013 77 10000 4.1 170 03:20 24.09.2019
1391 Clear 15 1014 82 10000 4.1 180 02:43 24.09.2019
1392 Clear 15 1014 82 10000 4.1 180 01:40 24.09.2019
1393 Clouds 16 1015 77 10000 3.6 180 00:40 24.09.2019
1394 Clouds 16 1015 77 10000 3.6 180 00:21 24.09.2019
1395 Clouds 16 1016 82 10000 3.6 200 23:41 23.09.2019
1396 Clouds 16 1016 82 10000 3.6 200 23:22 23.09.2019
1397 Clear 17 1015 68 10000 4.6 190 22:40 23.09.2019
1398 Clear 17 1015 68 10000 4.6 190 22:21 23.09.2019
1399 Clear 17 1015 63 10000 5.7 200 21:59 23.09.2019
1400 Clouds 17 1015 63 10000 5.7 210 21:41 23.09.2019
1401 Rain 18 1015 68 10000 4.6 220 21:20 23.09.2019
1402 Clouds 18 1015 63 10000 5.7 210 21:20 23.09.2019
1403 Rain 18 1015 68 10000 4.6 220 20:58 23.09.2019
1404 Rain 18 1015 52 10000 5.1 170 20:39 23.09.2019
1405 Rain 19 1015 52 10000 5.1 170 20:18 23.09.2019
1406 Rain 19 1015 52 10000 5.1 170 20:18 23.09.2019
1407 Rain 19 1015 49 10000 6.7 180 19:40 23.09.2019
1408 Rain 19 1015 59 10000 3.6 180 19:22 23.09.2019
1409 Rain 19 1015 59 10000 3.6 180 19:22 23.09.2019
1410 Rain 19 1015 59 10000 3.6 180 19:22 23.09.2019
1411 Clear 20 1015 49 10000 5.7 180 18:59 23.09.2019
1412 Clear 20 1015 49 10000 5.7 180 18:41 23.09.2019
1413 Clear 20 1015 49 10000 5.1 190 18:19 23.09.2019
1414 Clear 21 1015 49 10000 5.1 190 17:57 23.09.2019
1415 Clear 21 1015 49 10000 5.7 190 17:39 23.09.2019
1416 Clouds 21 1015 49 10000 4.6 190 17:20 23.09.2019
1417 Clouds 21 1015 49 10000 4.6 190 16:57 23.09.2019
1418 Clear 21 1015 49 10000 5.1 180 16:36 23.09.2019
1419 Clear 21 1015 49 10000 5.1 180 16:18 23.09.2019
1420 Clouds 21 1015 46 10000 4.6 210 15:56 23.09.2019
1421 Clouds 21 1016 49 10000 5.1 190 15:38 23.09.2019
1422 Clouds 21 1016 49 10000 4.1 210 15:18 23.09.2019
1423 Clouds 20 1016 49 10000 4.1 240 14:40 23.09.2019
1424 Clouds 20 1016 49 10000 4.1 240 14:20 23.09.2019
1425 Clouds 20 1016 49 10000 4.1 200 13:58 23.09.2019
1426 Clouds 20 1016 52 10000 3.6 230 13:38 23.09.2019
1427 Clouds 20 1016 52 10000 3.6 230 13:18 23.09.2019
1428 Clouds 20 1016 52 10000 3.6 230 13:18 23.09.2019
1429 Clear 19 1016 55 10000 3.1 210 12:54 23.09.2019
1430 Clouds 19 1016 59 10000 4.6 220 12:36 23.09.2019
1431 Clouds 18 1016 68 10000 4.1 230 12:18 23.09.2019
1432 Clouds 17 1016 68 10000 4.6 230 11:43 23.09.2019
1433 Clouds 17 1016 68 10000 4.6 230 11:24 23.09.2019
1434 Clouds 16 1016 72 10000 4.6 230 10:49 23.09.2019
1435 Clouds 15 1016 77 10000 4.1 230 10:22 23.09.2019
1436 Clouds 15 1016 82 10000 3.6 250 10:22 23.09.2019
1437 Clouds 15 1016 77 10000 4.1 230 09:59 23.09.2019
1438 Clear 14 1016 82 10000 3.6 230 09:38 23.09.2019
1439 Clear 14 1016 82 10000 3.6 230 09:20 23.09.2019
1440 Clouds 13 1015 87 10000 2.6 230 08:48 23.09.2019
1441 Clouds 13 1015 87 10000 2.6 230 08:29 23.09.2019
1442 Clouds 13 1015 93 10000 3.9 233.515 07:58 23.09.2019
1443 Clouds 13 1015 93 10000 3.9 233.515 07:58 23.09.2019
1444 Clouds 13 1015 93 10000 3.9 233.515 07:58 23.09.2019
1445 Clouds 14 1014 82 10000 3.6 240 07:30 23.09.2019
1446 Clouds 14 1014 82 10000 3.6 220 06:42 23.09.2019
1447 Clouds 14 1014 87 10000 4.01 234.26 05:56 23.09.2019
1448 Clouds 14 1013 82 10000 3.6 220 05:22 23.09.2019
1449 Clouds 14 1013 82 10000 3.6 200 04:54 23.09.2019
1450 Clouds 13 1013 87 10000 4.01 234.26 03:34 23.09.2019
1451 Clear 14 1012 87 10000 4.4 228.47 01:19 23.09.2019
1452 Clear 15 1011 87 10000 4.1 210 00:23 23.09.2019
1453 Clouds 15 1011 87 10000 4.6 190 23:57 22.09.2019
1454 Clouds 15 1011 87 10000 4.6 190 23:57 22.09.2019
1455 Clouds 15 1011 93 10000 5.22 206.987 23:33 22.09.2019
1456 Clouds 15 1011 100 10000 5.22 206.987 22:59 22.09.2019
1457 Clouds 15 1011 93 10000 3.1 180 22:41 22.09.2019
1458 Clouds 15 1011 93 10000 3.1 180 22:23 22.09.2019
1459 Clouds 16 1011 93 10000 3.6 180 21:55 22.09.2019
1460 Clouds 16 1010 93 10000 3.6 190 21:37 22.09.2019
1461 Clouds 16 1010 93 10000 3.6 190 21:37 22.09.2019
1462 Clouds 16 1010 93 10000 3.6 190 21:19 22.09.2019
1463 Clouds 16 1010 88 10000 4.6 170 20:42 22.09.2019
1464 Clouds 16 1010 88 10000 4.6 170 20:24 22.09.2019
1465 Clouds 16 1010 88 10000 4.6 170 19:56 22.09.2019
1466 Clouds 16 1009 88 10000 3.1 180 19:38 22.09.2019
1467 Clouds 16 1009 88 10000 3.1 180 19:19 22.09.2019
1468 Clouds 17 1009 88 10000 4.1 190 18:56 22.09.2019
1469 Clouds 17 1009 88 10000 4.1 190 18:56 22.09.2019
1470 Clouds 17 1009 88 10000 5.1 200 18:37 22.09.2019
1471 Clouds 17 1009 88 10000 5.1 200 18:37 22.09.2019
1472 Clouds 17 1009 88 10000 4.6 200 18:18 22.09.2019
1473 Rain 16 1009 88 10000 3.6 200 17:42 22.09.2019
1474 Rain 16 1009 88 10000 3.6 200 17:24 22.09.2019
1475 Rain 16 1009 93 10000 3.1 210 16:56 22.09.2019
1476 Rain 16 1009 88 10000 2.6 200 16:37 22.09.2019
1477 Rain 16 1009 88 10000 4.1 210 16:18 22.09.2019
1478 Rain 16 1009 88 10000 4.1 210 15:43 22.09.2019
1479 Rain 16 1009 88 10000 3.6 220 15:24 22.09.2019
1480 Rain 16 1008 88 10000 5.1 230 14:54 22.09.2019
1481 Rain 17 1008 93 3200 6.2 240 14:36 22.09.2019
1482 Rain 17 1007 88 3000 6.7 210 14:18 22.09.2019
1483 Rain 17 1007 88 3000 6.7 210 13:41 22.09.2019
1484 Rain 19 1007 77 10000 6.2 200 13:23 22.09.2019
1485 Rain 20 1007 64 10000 4.1 180 12:56 22.09.2019
1486 Clouds 21 1007 60 10000 5.1 180 12:38 22.09.2019
1487 Clouds 21 1007 60 10000 6.2 190 12:18 22.09.2019
1488 Clouds 21 1007 60 10000 6.2 190 11:43 22.09.2019
1489 Clear 21 1007 60 10000 6.7 180 11:25 22.09.2019
1490 Clear 21 1007 60 10000 6.2 170 10:57 22.09.2019
1491 Clouds 20 1007 60 10000 3.6 170 10:39 22.09.2019
1492 Clouds 20 1007 60 10000 3.6 170 10:20 22.09.2019
1493 Clouds 20 1007 64 10000 4.1 150 09:43 22.09.2019
1494 Clouds 20 1007 64 10000 4.1 150 09:43 22.09.2019
1495 Clear 19 1007 64 10000 4.6 160 09:21 22.09.2019
1496 Clear 18 1007 68 10000 4.1 160 08:56 22.09.2019
1497 Clear 18 1007 64 10000 4.1 160 08:38 22.09.2019
1498 Clear 18 1007 64 10000 4.1 160 08:38 22.09.2019
1499 Clear 18 1007 64 10000 3.6 160 08:19 22.09.2019
1500 Clear 18 1007 64 10000 3.6 160 07:44 22.09.2019
1501 Clear 18 1007 64 10000 3.6 160 07:25 22.09.2019
1502 Clear 18 1007 68 10000 2.6 150 06:58 22.09.2019
1503 Clear 18 1007 63 10000 3.1 130 06:34 22.09.2019
1504 Clear 19 1007 60 10000 3.1 150 03:56 22.09.2019
1505 Clear 19 1007 60 10000 1.5 0 02:44 22.09.2019
1506 Clear 20 1007 60 10000 1 0 02:24 22.09.2019
1507 Clear 19 1008 63 10000 1.5 90 01:38 22.09.2019
1508 Clear 20 1008 63 10000 1.5 70 00:46 22.09.2019
1509 Clear 20 1008 63 10000 1.5 70 00:27 22.09.2019
1510 Clear 20 1008 63 10000 2.6 60 23:51 21.09.2019
1511 Clear 20 1008 63 10000 2.6 60 23:33 21.09.2019
1512 Clear 21 1009 60 10000 3.1 80 22:46 21.09.2019
1513 Clear 21 1009 60 10000 3.1 80 22:25 21.09.2019
1514 Clear 21 1009 56 10000 3.1 90 21:59 21.09.2019
1515 Clear 21 1009 56 10000 3.1 90 21:59 21.09.2019
1516 Clear 22 1009 56 10000 3.1 90 21:41 21.09.2019
1517 Clear 22 1009 56 10000 3.1 90 21:19 21.09.2019
1518 Clear 22 1009 53 10000 3.1 80 20:56 21.09.2019
1519 Clear 23 1009 49 10000 2.6 100 20:36 21.09.2019
1520 Clear 25 1009 41 10000 3.1 110 20:18 21.09.2019
1521 Clear 26 1009 39 10000 4.1 110 19:43 21.09.2019
1522 Clear 27 1009 39 10000 4.1 110 19:19 21.09.2019
1523 Clear 27 1009 37 10000 4.6 140 18:40 21.09.2019
1524 Clear 28 1009 37 10000 4.6 140 18:21 21.09.2019
1525 Clear 28 1010 37 10000 5.7 150 17:43 21.09.2019
1526 Clear 28 1010 37 10000 5.7 150 17:23 21.09.2019
1527 Clear 28 1011 37 10000 5.7 150 16:57 21.09.2019
1528 Clear 28 1011 37 10000 5.7 160 16:38 21.09.2019
1529 Clear 27 1011 37 10000 5.7 160 16:19 21.09.2019
1530 Clear 27 1011 39 10000 4.6 140 15:44 21.09.2019
1531 Clear 26 1012 39 10000 5.1 140 15:22 21.09.2019
1532 Clear 26 1012 39 10000 4.6 130 14:49 21.09.2019
1533 Clear 26 1012 39 10000 4.6 140 14:31 21.09.2019
1534 Clear 25 1013 41 10000 4.1 130 13:55 21.09.2019
1535 Clear 24 1013 44 10000 3.6 120 13:36 21.09.2019
1536 Clear 23 1014 43 10000 4.1 110 13:18 21.09.2019
1537 Clear 23 1014 43 10000 4.1 110 12:55 21.09.2019
1538 Clear 22 1014 46 10000 3.6 140 12:36 21.09.2019
1539 Clear 22 1014 46 10000 3.6 140 12:18 21.09.2019
1540 Clear 19 1015 48 10000 2.6 140 11:42 21.09.2019
1541 Clear 19 1015 48 10000 2.6 140 11:23 21.09.2019
1542 Clear 17 1015 48 10000 2.1 100 10:45 21.09.2019
1543 Clear 16 1015 48 10000 2.1 100 10:25 21.09.2019
1544 Clear 15 1015 51 10000 2.1 80 09:59 21.09.2019
1545 Clear 14 1015 54 10000 2.1 60 09:39 21.09.2019
1546 Clear 13 1015 54 10000 2.1 60 09:20 21.09.2019
1547 Clear 12 1015 62 10000 2.1 60 08:52 21.09.2019
1548 Clear 11 1015 61 10000 2.6 50 08:28 21.09.2019
1549 Clear 11 1015 57 10000 2.6 50 07:42 21.09.2019
1550 Clear 11 1015 57 10000 2.6 50 07:24 21.09.2019
1551 Clear 11 1015 57 10000 2.6 50 06:58 21.09.2019
1552 Clear 11 1015 53 10000 2.6 50 06:33 21.09.2019
1553 Clear 11 1016 53 10000 2.1 30 05:36 21.09.2019
1554 Clear 12 1016 50 10000 2.6 40 04:36 21.09.2019
1555 Clear 13 1017 46 10000 2.1 30 03:22 21.09.2019
1556 Clear 14 1017 46 10000 1 0 02:21 21.09.2019
1557 Clear 14 1018 43 10000 2.6 60 01:46 21.09.2019
1558 Clear 15 1018 40 10000 2.6 60 00:51 21.09.2019
1559 Clear 15 1018 35 10000 2.6 70 00:20 21.09.2019
1560 Clear 16 1018 41 10000 3.6 80 23:46 20.09.2019
1561 Clear 16 1018 41 10000 3.6 80 23:28 20.09.2019
1562 Clear 16 1019 38 10000 4.1 60 22:42 20.09.2019
1563 Clear 17 1019 36 10000 4.6 60 22:24 20.09.2019
1564 Clear 17 1019 35 10000 4.6 60 21:57 20.09.2019
1565 Clear 17 1019 35 10000 4.1 60 21:38 20.09.2019
1566 Clear 17 1019 29 10000 4.1 60 21:20 20.09.2019
1567 Clear 19 1019 27 10000 4.1 60 20:57 20.09.2019
1568 Clear 19 1019 25 10000 4.1 70 20:38 20.09.2019
1569 Clear 20 1019 25 10000 4.1 70 20:19 20.09.2019
1570 Clear 22 1019 18 10000 6.2 70 19:45 20.09.2019
1571 Clear 22 1019 18 10000 6.2 70 19:26 20.09.2019
1572 Clear 23 1019 18 10000 6.7 80 18:58 20.09.2019
1573 Clear 23 1020 17 10000 7.2 80 18:38 20.09.2019
1574 Clear 23 1020 17 10000 7.2 80 18:18 20.09.2019
1575 Clear 23 1020 19 10000 7.7 70 17:46 20.09.2019
1576 Clear 23 1020 17 10000 8.2 70 17:27 20.09.2019
1577 Clear 24 1021 17 10000 7.2 80 16:54 20.09.2019
1578 -273 0 0 0 0 0 16:54 20.09.2019
1579 Clear 23 1021 19 10000 7.2 80 16:36 20.09.2019
1580 Clear 23 1021 22 10000 6.7 80 16:18 20.09.2019
1581 Clear 23 1022 20 10000 7.2 80 15:41 20.09.2019
1582 Clear 22 1022 20 10000 7.2 80 15:22 20.09.2019
1583 Clear 21 1023 19 10000 7.7 90 14:44 20.09.2019
1584 Clear 21 1023 19 10000 7.7 90 14:20 20.09.2019
1585 Clear 21 1023 22 10000 6.7 80 14:00 20.09.2019
1586 Clear 19 1024 32 10000 7.2 60 13:40 20.09.2019
1587 Clear 19 1024 32 10000 7.2 60 13:21 20.09.2019
1588 Clear 18 1024 34 10000 6.7 70 12:41 20.09.2019
1589 Clear 18 1024 34 10000 6.7 70 12:22 20.09.2019
1590 Clear 17 1024 36 10000 6.7 90 11:51 20.09.2019
1591 Clear 16 1025 41 10000 7.2 70 11:26 20.09.2019
1592 Clear 15 1025 44 10000 6.2 70 10:59 20.09.2019
1593 Clear 15 1025 44 10000 6.2 70 10:41 20.09.2019
1594 Clear 13 1025 47 10000 5.7 60 10:22 20.09.2019
1595 Clear 12 1025 57 10000 4.6 40 09:38 20.09.2019
1596 Clear 11 1025 57 10000 4.6 40 09:19 20.09.2019
1597 Clear 10 1025 66 10000 3.6 30 08:48 20.09.2019
1598 Clear 9 1025 66 10000 3.6 30 08:29 20.09.2019
1599 Clear 9 1025 66 10000 2.1 20 07:59 20.09.2019
1600 Clear 9 1025 66 10000 2.1 20 07:40 20.09.2019
1601 Clear 9 1025 66 10000 2.1 20 07:22 20.09.2019
1602 Clear 9 1026 66 10000 3.6 30 06:43 20.09.2019
1603 Clear 9 1026 66 10000 3.6 30 06:19 20.09.2019
1604 Clear 10 1026 61 10000 3.6 20 04:58 20.09.2019
1605 Clear 11 1027 62 10000 3.1 20 03:29 20.09.2019
1606 Clear 11 1027 62 10000 3.1 20 03:29 20.09.2019
1607 Clear 12 1027 58 10000 3.1 30 02:39 20.09.2019
1608 Clear 12 1027 58 10000 3.1 40 01:43 20.09.2019
1609 Clear 13 1027 58 10000 4.1 40 00:44 20.09.2019
1610 Clear 14 1028 54 10000 4.1 30 23:59 19.09.2019
1611 Clear 14 1028 54 10000 4.6 20 23:41 19.09.2019
1612 Clear 14 1028 54 10000 4.6 20 23:18 19.09.2019
1613 Clear 14 1027 51 10000 4.1 20 22:41 19.09.2019
1614 Clear 15 1027 51 10000 4.1 20 22:23 19.09.2019
1615 Clear 15 1027 51 10000 3.6 20 21:58 19.09.2019
1616 Clear 15 1027 48 10000 3.6 20 21:39 19.09.2019
1617 Clear 16 1027 44 10000 3.6 20 21:20 19.09.2019
1618 Clear 16 1027 44 10000 3.6 20 20:59 19.09.2019
1619 Clear 16 1027 39 10000 4.6 40 20:40 19.09.2019
1620 Clear 17 1027 39 10000 4.6 40 20:19 19.09.2019
1621 Clear 17 1027 36 10000 5.7 30 19:55 19.09.2019
1622 Clear 18 1027 34 10000 6.2 30 19:37 19.09.2019
1623 Clear 19 1027 32 10000 6.7 40 19:18 19.09.2019
1624 Clear 19 1027 32 10000 7.2 30 18:42 19.09.2019
1625 Clear 19 1027 32 10000 7.2 30 18:24 19.09.2019
1626 Clear 19 1027 32 10000 6.7 50 17:44 19.09.2019
1627 Clear 20 1027 32 10000 6.7 50 17:25 19.09.2019
1628 Clear 20 1027 32 10000 6.7 40 16:59 19.09.2019
1629 Clear 20 1027 32 10000 7.2 50 16:40 19.09.2019
1630 Clear 20 1027 32 10000 7.2 50 16:20 19.09.2019
1631 Clear 19 1028 37 10000 6.2 30 15:55 19.09.2019
1632 Clear 19 1028 37 10000 6.2 30 15:55 19.09.2019
1633 Clear 19 1028 37 10000 6.2 30 15:55 19.09.2019
1634 Clear 19 1028 37 10000 6.2 30 15:55 19.09.2019
1635 Clear 19 1028 37 10000 6.2 30 15:55 19.09.2019
1636 Clear 19 1028 39 10000 6.7 40 15:36 19.09.2019
1637 Clear 19 1028 39 10000 6.7 40 15:18 19.09.2019
1638 Clear 18 1028 39 10000 6.2 50 14:41 19.09.2019
1639 Clear 18 1028 39 10000 6.2 50 14:22 19.09.2019
1640 Clear 18 1029 42 10000 6.7 50 13:58 19.09.2019
1641 Clear 18 1029 45 10000 7.2 30 13:38 19.09.2019
1642 Clear 17 1029 45 10000 7.2 30 13:18 19.09.2019
1643 Clear 17 1029 51 10000 7.2 40 12:38 19.09.2019
1644 Clear 16 1029 51 10000 7.2 40 12:18 19.09.2019
1645 Clear 16 1029 51 10000 7.2 40 11:56 19.09.2019
1646 Clear 15 1029 58 10000 6.7 30 11:37 19.09.2019
1647 Clear 15 1029 58 10000 6.7 30 11:18 19.09.2019
1648 Clear 14 1029 62 10000 6.7 40 10:40 19.09.2019
1649 Clear 13 1029 62 10000 6.7 40 10:21 19.09.2019
1650 Clear 12 1029 71 10000 5.1 30 09:58 19.09.2019
1651 Clear 12 1028 71 10000 4.6 20 09:40 19.09.2019
1652 Clear 11 1028 71 10000 4.6 20 09:20 19.09.2019
1653 Clear 10 1028 76 10000 2.6 20 08:51 19.09.2019
1654 Clear 10 1028 81 10000 3.1 20 08:27 19.09.2019
1655 Clear 10 1028 76 10000 2.6 20 07:46 19.09.2019
1656 Clear 10 1028 76 10000 2.6 20 07:46 19.09.2019
1657 Clear 10 1028 76 10000 2.6 20 07:25 19.09.2019
1658 Clear 10 1027 76 10000 4.1 20 06:59 19.09.2019
1659 Clear 10 1027 76 10000 3.6 20 06:40 19.09.2019
1660 Clear 10 1027 76 10000 3.6 20 06:21 19.09.2019
1661 Clear 10 1027 76 10000 3.6 10 05:50 19.09.2019
1662 Clear 11 1027 71 10000 4.1 10 04:23 19.09.2019
1663 Clear 11 1027 66 10000 4.6 20 03:21 19.09.2019
1664 Clear 12 1027 62 10000 4.1 20 01:45 19.09.2019
1665 Clear 12 1027 62 10000 4.1 20 01:20 19.09.2019
1666 Clear 13 1027 58 10000 4.1 10 00:45 19.09.2019
1667 Clear 13 1027 58 10000 4.1 10 00:24 19.09.2019
1668 Clear 14 1027 54 10000 3.6 10 23:39 18.09.2019
1669 Clear 14 1026 50 10000 3.1 20 23:20 18.09.2019
1670 Clear 14 1027 54 10000 3.6 10 23:20 18.09.2019
1671 Clear 15 1026 47 10000 3.6 10 22:43 18.09.2019
1672 Clear 15 1026 47 10000 3.6 10 22:20 18.09.2019
1673 Clear 15 1026 47 10000 3.1 20 21:58 18.09.2019
1674 Clear 15 1026 47 10000 2.1 30 21:40 18.09.2019
1675 Clear 15 1026 47 10000 2.1 30 21:40 18.09.2019
1676 Clear 16 1026 44 10000 3.1 30 21:19 18.09.2019
1677 Clear 16 1026 44 10000 3.1 30 20:58 18.09.2019
1678 Clear 16 1025 42 10000 4.1 30 20:40 18.09.2019
1679 Clear 16 1025 42 10000 4.1 30 20:22 18.09.2019
1680 Clear 17 1025 39 10000 5.7 30 19:57 18.09.2019
1681 Clear 18 1025 39 10000 6.2 30 19:38 18.09.2019
1682 Clear 18 1025 37 10000 6.7 30 19:19 18.09.2019
1683 Clear 18 1025 37 10000 6.7 30 19:19 18.09.2019
1684 Clear 18 1025 37 10000 6.7 30 18:56 18.09.2019
1685 Clear 19 1025 37 10000 6.2 30 18:37 18.09.2019
1686 Clear 19 1025 39 10000 5.1 20 18:19 18.09.2019
1687 Clear 19 1025 37 10000 6.2 30 18:19 18.09.2019
1688 Clear 19 1025 39 10000 5.1 20 17:57 18.09.2019
1689 Clear 19 1025 39 10000 5.1 20 17:57 18.09.2019
1690 Clear 19 1025 37 10000 6.7 20 17:39 18.09.2019
1691 Clear 19 1025 37 10000 6.7 20 17:19 18.09.2019
1692 Clear 20 1025 37 10000 6.7 20 16:56 18.09.2019
1693 Clear 20 1025 37 10000 6.7 20 16:56 18.09.2019
1694 Clear 19 1025 37 10000 6.7 30 16:37 18.09.2019
1695 Clear 19 1025 37 10000 6.7 30 16:18 18.09.2019
1696 Clear 19 1025 37 10000 6.7 20 15:55 18.09.2019
1697 Clear 19 1025 37 10000 6.7 20 15:37 18.09.2019
1698 Clear 19 1026 39 10000 6.2 20 15:18 18.09.2019
1699 Clear 19 1026 39 10000 6.2 20 14:57 18.09.2019
1700 Clear 18 1026 42 10000 7.2 30 14:38 18.09.2019
1701 Clear 18 1026 42 10000 7.2 30 14:20 18.09.2019
1702 Clear 17 1026 45 10000 6.7 40 13:43 18.09.2019
1703 Clear 17 1026 45 10000 6.7 40 13:19 18.09.2019
1704 Clear 17 1026 45 10000 7.2 30 13:19 18.09.2019
1705 Clear 17 1026 45 10000 7.2 30 12:55 18.09.2019
1706 Clear 16 1026 45 10000 7.7 50 12:37 18.09.2019
1707 Clear 16 1026 51 10000 6.7 40 12:18 18.09.2019
1708 Clear 15 1027 51 10000 6.7 40 11:39 18.09.2019
1709 Clear 14 1027 58 10000 7.2 50 11:19 18.09.2019
1710 Clear 14 1026 62 10000 5.7 40 10:41 18.09.2019
1711 Clear 13 1026 62 10000 5.7 40 10:22 18.09.2019
1712 Clear 12 1026 62 10000 5.7 30 09:59 18.09.2019
1713 Clear 12 1026 66 10000 4.6 20 09:41 18.09.2019
1714 Clear 11 1026 66 10000 4.6 20 09:22 18.09.2019
1715 Clear 10 1026 71 10000 4.6 20 08:55 18.09.2019
1716 Clear 10 1025 71 10000 3.6 20 08:37 18.09.2019
1717 Clear 10 1025 71 10000 3.6 20 08:18 18.09.2019
1718 Clear 10 1025 71 10000 5.1 360 07:41 18.09.2019
1719 Clear 10 1025 71 10000 5.1 360 07:23 18.09.2019
1720 Clear 10 1025 71 10000 4.1 360 06:42 18.09.2019
1721 Clear 10 1025 76 10000 3.6 20 05:58 18.09.2019
1722 Clear 11 1025 71 10000 3.6 10 05:26 18.09.2019
1723 Clear 12 1025 66 10000 4.1 20 03:38 18.09.2019
1724 Clear 12 1024 62 10000 4.1 20 02:40 18.09.2019
1725 Clear 13 1024 62 10000 5.7 20 01:37 18.09.2019
1726 Clear 14 1023 62 10000 7.7 40 00:51 18.09.2019
1727 Clear 14 1023 62 10000 7.7 40 00:29 18.09.2019
1728 Clear 15 1024 62 10000 5.1 20 23:47 17.09.2019
1729 Clear 15 1024 58 10000 6.2 20 23:47 17.09.2019
1730 Clear 15 1024 62 10000 5.1 20 23:24 17.09.2019
1731 Clear 16 1023 59 10000 5.1 10 22:56 17.09.2019
1732 Clear 15 1023 59 10000 5.1 10 22:56 17.09.2019
1733 Clear 16 1023 59 10000 4.6 10 22:37 17.09.2019
1734 Clear 16 1023 59 10000 4.6 10 22:19 17.09.2019
1735 Clear 17 1023 55 10000 3.1 360 21:54 17.09.2019
1736 Clear 17 1023 55 10000 3.1 360 21:54 17.09.2019
1737 Clear 17 1022 52 10000 3.1 20 21:36 17.09.2019
1738 Clear 18 1022 52 10000 3.6 20 21:18 17.09.2019
1739 Clear 18 1022 52 10000 3.6 20 20:55 17.09.2019
1740 Clear 18 1022 52 10000 3.6 20 20:55 17.09.2019
1741 Clear 18 1022 48 10000 4.1 30 20:37 17.09.2019
1742 Clear 19 1022 48 10000 4.1 30 20:37 17.09.2019
1743 Clear 19 1022 48 10000 4.1 30 20:19 17.09.2019
1744 Clear 19 1022 48 10000 4.1 30 20:19 17.09.2019
1745 Clear 20 1022 43 10000 5.1 20 19:40 17.09.2019
1746 Clear 21 1022 43 10000 5.1 20 19:20 17.09.2019
1747 Clear 21 1022 43 10000 5.1 20 18:59 17.09.2019
1748 Clear 21 1021 43 10000 5.1 360 18:41 17.09.2019
1749 Clear 22 1021 40 10000 4.6 20 18:22 17.09.2019
1750 Clear 22 1021 40 10000 4.6 20 17:55 17.09.2019
1751 Clear 22 1021 43 10000 5.1 360 17:37 17.09.2019
1752 Clear 22 1021 43 10000 5.1 360 17:18 17.09.2019
1753 Clear 22 1022 43 10000 4.1 350 16:41 17.09.2019
1754 Clear 22 1022 43 10000 4.1 350 16:41 17.09.2019
1755 Clear 22 1022 43 10000 4.1 350 16:41 17.09.2019
1756 Clear 22 1022 43 10000 4.1 350 16:22 17.09.2019
1757 Clouds 22 1022 46 10000 3.1 360 15:58 17.09.2019
1758 Clouds 22 1022 46 10000 5.7 20 15:38 17.09.2019
1759 Clouds 22 1022 46 10000 5.7 20 15:19 17.09.2019
1760 Clouds 21 1022 49 10000 3.1 360 14:56 17.09.2019
1761 Clouds 21 1022 52 10000 3.6 10 14:37 17.09.2019
1762 Clouds 21 1022 52 10000 4.1 20 14:19 17.09.2019
1763 Clouds 20 1023 56 10000 3.6 360 13:42 17.09.2019
1764 Clouds 20 1023 56 10000 3.6 360 13:23 17.09.2019
1765 Clouds 20 1023 60 10000 4.6 40 12:56 17.09.2019
1766 Clouds 20 1023 60 10000 4.6 40 12:56 17.09.2019
1767 Clouds 19 1023 63 10000 4.6 30 12:37 17.09.2019
1768 Clouds 19 1023 77 10000 3.6 10 12:18 17.09.2019
1769 Clouds 19 1023 77 10000 3.1 10 11:42 17.09.2019
1770 Clouds 19 1023 77 10000 3.1 10 11:24 17.09.2019
1771 Clouds 18 1022 77 10000 3.6 360 10:55 17.09.2019
1772 Clouds 18 1022 82 10000 3.1 30 10:37 17.09.2019
1773 Clouds 17 1022 88 10000 2.6 10 10:18 17.09.2019
1774 Clouds 17 1022 88 10000 2.6 360 09:41 17.09.2019
1775 Clouds 17 1022 88 10000 2.6 360 09:21 17.09.2019
1776 Clouds 16 1022 82 10000 3.1 360 08:50 17.09.2019
1777 Clouds 16 1021 82 10000 2.6 10 08:32 17.09.2019
1778 Clouds 16 1021 82 10000 2.1 360 07:59 17.09.2019
1779 Clouds 16 1021 82 10000 2.1 360 07:39 17.09.2019
1780 Clouds 16 1021 82 10000 2.1 360 07:21 17.09.2019
1781 Clouds 16 1021 82 10000 2.1 350 06:47 17.09.2019
1782 Clouds 16 1021 82 10000 2.1 340 06:23 17.09.2019
1783 Clouds 16 1021 82 10000 1.5 320 05:49 17.09.2019
1784 Clouds 16 1021 87 10000 2.74 31.387 04:31 17.09.2019
1785 Clouds 16 1021 82 10000 3.1 340 02:58 17.09.2019
1786 Clouds 16 1021 82 10000 3.1 340 02:39 17.09.2019
1787 Clouds 17 1021 82 10000 4.1 360 01:29 17.09.2019
1788 Clouds 17 1021 82 10000 2.6 330 00:40 17.09.2019
1789 Clear 18 1021 77 10000 2.6 340 23:40 16.09.2019
1790 Clear 18 1021 77 10000 2.6 340 23:19 16.09.2019
1791 Clear 18 1021 72 10000 3.6 330 22:56 16.09.2019
1792 Clear 18 1021 72 10000 3.6 330 22:56 16.09.2019
1793 Clear 19 1021 68 10000 3.1 330 22:38 16.09.2019
1794 Clear 19 1021 68 10000 3.1 330 22:20 16.09.2019
1795 Clear 20 1021 68 10000 3.6 340 21:55 16.09.2019
1796 Clear 20 1020 64 10000 4.1 340 21:37 16.09.2019
1797 Clear 20 1020 64 10000 4.1 340 21:18 16.09.2019
1798 Clear 22 1020 60 10000 5.1 340 20:40 16.09.2019
1799 Clear 22 1020 60 10000 5.1 340 20:22 16.09.2019
1800 Clouds 23 1019 57 10000 4.6 350 19:57 16.09.2019
1801 Clear 24 1019 50 10000 3.1 310 19:39 16.09.2019
1802 Clear 25 1019 44 10000 3.1 300 19:19 16.09.2019
1803 Clear 25 1019 44 10000 3.1 300 18:47 16.09.2019
1804 Clear 26 1019 44 10000 2.1 310 18:29 16.09.2019
1805 Clear 26 1019 47 10000 3.1 320 17:59 16.09.2019
1806 Clear 27 1020 42 10000 2.6 310 17:41 16.09.2019
1807 Clear 27 1020 42 10000 2.6 310 17:22 16.09.2019
1808 Clear 27 1020 41 10000 3.1 310 16:55 16.09.2019
1809 Clear 27 1020 41 10000 2.1 320 16:37 16.09.2019
1810 Clear 27 1020 39 10000 2.6 300 16:18 16.09.2019
1811 Clear 27 1020 39 10000 2.6 300 15:55 16.09.2019
1812 Clear 27 1020 39 10000 2.6 300 15:55 16.09.2019
1813 Clear 26 1021 36 10000 1.5 0 15:37 16.09.2019
1814 Clear 26 1021 36 10000 1.5 0 15:37 16.09.2019
1815 Clear 26 1021 36 10000 1.5 0 15:18 16.09.2019
1816 Clear 25 1021 31 10000 1.5 0 14:43 16.09.2019
1817 Clear 25 1021 31 10000 1.5 0 14:23 16.09.2019
1818 Clear 25 1021 25 10000 1.5 0 13:57 16.09.2019
1819 Clear 24 1022 23 10000 1.5 0 13:38 16.09.2019
1820 Clear 24 1022 23 10000 1.5 0 13:20 16.09.2019
1821 Clear 23 1022 40 10000 2.6 220 12:43 16.09.2019
1822 Clear 22 1022 40 10000 2.6 220 12:24 16.09.2019
1823 Clear 21 1022 46 10000 1.5 250 11:55 16.09.2019
1824 Clear 20 1022 52 10000 1.5 250 11:37 16.09.2019
1825 Clear 20 1022 52 10000 1.5 250 11:19 16.09.2019
1826 Clear 18 1022 67 10000 1.5 0 10:38 16.09.2019
1827 Clear 17 1022 67 10000 1.5 0 10:20 16.09.2019
1828 Clear 16 1022 77 10000 2.17 315.168 09:58 16.09.2019
1829 Clear 15 1022 82 10000 1 0 09:38 16.09.2019
1830 Clear 14 1022 82 10000 1 0 09:19 16.09.2019
1831 Clear 13 1022 87 10000 0.5 360 08:46 16.09.2019
1832 Clear 12 1021 81 10000 1.36 311.293 08:25 16.09.2019
1833 Clear 12 1021 87 10000 1 50 07:56 16.09.2019
1834 Clear 12 1021 87 10000 1.36 311.293 07:37 16.09.2019
1835 Clear 12 1021 81 10000 1 360 07:19 16.09.2019
1836 Clear 12 1021 81 10000 2.1 350 06:45 16.09.2019
1837 Clear 12 1021 81 10000 2.1 350 06:26 16.09.2019
1838 Clear 13 1022 87 10000 1 350 05:49 16.09.2019
1839 Clear 12 1022 87 10000 1 350 05:29 16.09.2019
1840 Clear 13 1022 82 10000 1 0 04:33 16.09.2019
1841 Clear 13 1022 82 10000 1 0 04:33 16.09.2019
1842 Clear 14 1022 82 10000 0.5 180 02:33 16.09.2019
1843 Clear 17 1023 68 10000 2.1 350 00:44 16.09.2019
1844 Clear 17 1023 68 10000 2.1 350 00:25 16.09.2019
1845 Clear 18 1023 63 10000 2.6 360 23:44 15.09.2019
1846 Clear 18 1022 56 10000 2.6 350 23:21 15.09.2019
1847 Clear 18 1022 56 10000 2.6 350 22:58 15.09.2019
1848 Clear 19 1022 59 10000 3.1 350 22:37 15.09.2019
1849 Clear 19 1022 59 10000 3.1 350 22:18 15.09.2019
1850 Clear 20 1022 56 10000 2.6 340 21:55 15.09.2019
1851 Clear 20 1022 52 10000 1.5 10 21:37 15.09.2019
1852 Clear 20 1022 52 10000 1.5 10 21:18 15.09.2019
1853 Clear 22 1022 38 10000 1.5 10 20:43 15.09.2019
1854 Clear 23 1022 38 10000 1.5 10 20:25 15.09.2019
1855 Clear 25 1022 34 10000 3.1 30 19:47 15.09.2019
1856 Clear 26 1022 34 10000 3.1 30 19:26 15.09.2019
1857 Clear 27 1022 32 10000 2.6 350 18:55 15.09.2019
1858 Clear 27 1022 32 10000 2.1 360 18:36 15.09.2019
1859 Clear 27 1022 32 10000 2.1 360 18:18 15.09.2019
1860 Clear 28 1022 32 10000 1.5 330 17:41 15.09.2019
1861 Clear 27 1022 32 10000 1.5 330 17:22 15.09.2019
1862 Clear 27 1023 32 10000 2.6 360 16:57 15.09.2019
1863 Clear 27 1023 32 10000 1.5 0 16:38 15.09.2019
1864 Clear 27 1023 32 10000 1.5 0 16:20 15.09.2019
1865 Clear 27 1023 34 10000 2.6 20 15:56 15.09.2019
1866 Clear 27 1024 36 10000 1.5 10 15:36 15.09.2019
1867 Clear 26 1024 36 10000 2.6 330 15:18 15.09.2019
1868 Clear 26 1024 36 10000 2.6 330 14:42 15.09.2019
1869 Clear 26 1024 41 10000 2.1 300 14:23 15.09.2019
1870 Clear 26 1025 41 10000 2.6 30 13:55 15.09.2019
1871 Clear 25 1025 38 10000 1.5 360 13:37 15.09.2019
1872 Clear 25 1025 38 10000 1.5 360 13:18 15.09.2019
1873 Clear 24 1025 44 10000 2.1 350 12:40 15.09.2019
1874 Clear 24 1025 44 10000 2.1 350 12:22 15.09.2019
1875 Clear 23 1025 49 10000 1 0 11:54 15.09.2019
1876 Clear 22 1026 52 10000 1 0 11:36 15.09.2019
1877 Clear 21 1025 59 10000 0.5 0 11:18 15.09.2019
1878 Clear 19 1025 59 10000 0.5 0 10:41 15.09.2019
1879 Clear 18 1025 59 10000 0.5 0 10:22 15.09.2019
1880 Clear 17 1025 67 10000 1 10 09:57 15.09.2019
1881 Clear 15 1025 76 10000 1 0 09:36 15.09.2019
1882 Clear 14 1025 81 10000 1 0 09:18 15.09.2019
1883 Clear 12 1025 81 10000 1.02 9.453 08:41 15.09.2019
1884 Clear 12 1025 81 10000 1.02 9.453 08:20 15.09.2019
1885 Clear 11 1025 87 10000 0.5 0 07:48 15.09.2019
1886 Clear 12 1025 87 10000 1.02 9.453 06:59 15.09.2019
1887 Clear 12 1025 87 10000 1.02 9.453 06:33 15.09.2019
1888 Clear 14 1026 76 10000 0.5 360 03:25 15.09.2019
1889 Clear 14 1026 76 10000 0.5 30 02:30 15.09.2019
1890 Clear 15 1026 67 10000 0.5 0 01:38 15.09.2019
1891 Clear 15 1026 67 10000 0.5 0 01:38 15.09.2019
1892 Clear 16 1027 72 10000 1.5 350 00:58 15.09.2019
1893 Clear 16 1027 67 10000 1.5 360 00:39 15.09.2019
1894 Clear 17 1027 67 10000 1.5 360 00:20 15.09.2019
1895 Clear 17 1027 63 10000 1.5 0 23:57 14.09.2019
1896 Clear 17 1027 63 10000 1 0 23:39 14.09.2019
1897 Clear 18 1027 63 10000 1 0 23:21 14.09.2019
1898 Clear 18 1027 59 10000 1 0 22:58 14.09.2019
1899 Clear 19 1027 56 10000 2.6 20 22:39 14.09.2019
1900 Clear 19 1027 56 10000 2.6 20 22:19 14.09.2019
1901 Clear 20 1027 56 10000 2.6 10 21:40 14.09.2019
1902 Clear 20 1027 56 10000 2.6 10 21:22 14.09.2019
1903 Clear 21 1027 53 10000 2.6 20 20:59 14.09.2019
1904 Clear 22 1027 49 10000 3.1 20 20:40 14.09.2019
1905 Clear 22 1027 49 10000 3.1 20 20:22 14.09.2019
1906 Clear 23 1027 47 10000 4.1 40 19:52 14.09.2019
1907 Clear 24 1027 41 10000 4.6 40 19:23 14.09.2019
1908 Clear 25 1027 41 10000 4.6 50 18:59 14.09.2019
1909 Clear 25 1027 39 10000 3.6 40 18:40 14.09.2019
1910 Clear 26 1027 39 10000 4.1 40 18:21 14.09.2019
1911 Clear 26 1027 39 10000 4.1 40 17:58 14.09.2019
1912 Clear 26 1027 39 10000 4.1 50 17:39 14.09.2019
1913 Clear 26 1027 39 10000 4.1 50 17:21 14.09.2019
1914 Clear 26 1028 41 10000 4.1 50 16:43 14.09.2019
1915 Clear 26 1028 41 10000 4.1 50 16:21 14.09.2019
1916 Clear 25 1029 44 10000 5.1 60 15:43 14.09.2019
1917 Clear 25 1029 44 10000 5.1 60 15:24 14.09.2019
1918 Clear 24 1029 47 10000 4.6 70 14:59 14.09.2019
1919 Clouds 24 1029 50 10000 5.1 60 14:40 14.09.2019
1920 Clouds 24 1029 50 10000 5.1 60 14:19 14.09.2019
1921 Clouds 24 1029 50 10000 5.1 60 14:19 14.09.2019
1922 Clouds 24 1029 50 10000 5.1 60 14:19 14.09.2019
1923 Clouds 23 1030 56 10000 3.6 30 13:47 14.09.2019
1924 Clear 22 1031 64 10000 2.6 40 13:22 14.09.2019
1925 Clear 22 1031 64 10000 2.6 40 12:48 14.09.2019
1926 Clear 21 1031 64 10000 3.1 40 12:26 14.09.2019
1927 Clear 19 1031 72 10000 2.6 20 11:43 14.09.2019
1928 Clear 18 1031 72 10000 2.6 20 11:21 14.09.2019
1929 Clear 18 1031 77 10000 3.6 20 10:58 14.09.2019
1930 Clear 18 1031 77 10000 3.6 20 10:58 14.09.2019
1931 Clear 17 1031 77 10000 2.6 360 10:37 14.09.2019
1932 Clear 17 1031 77 10000 2.6 360 10:18 14.09.2019
1933 Clear 16 1032 82 10000 1.5 360 09:56 14.09.2019
1934 Clear 15 1032 87 10000 3.1 20 09:38 14.09.2019
1935 Clear 15 1032 87 10000 3.1 20 09:18 14.09.2019
1936 Clear 14 1031 87 10000 3.1 10 08:44 14.09.2019
1937 Clear 13 1031 87 10000 3.1 10 08:23 14.09.2019
1938 Clear 13 1031 87 10000 3.1 360 07:45 14.09.2019
1939 Clear 13 1031 87 10000 3.1 360 07:27 14.09.2019
1940 Clear 13 1031 93 10000 1.5 360 06:40 14.09.2019
1941 Clear 14 1031 93 10000 1.5 360 06:18 14.09.2019
1942 Clear 15 1031 82 10000 3.1 20 04:55 14.09.2019
1943 Clear 16 1032 77 10000 4.1 10 03:43 14.09.2019
1944 Clear 16 1032 82 10000 3.1 10 02:52 14.09.2019
1945 Clear 16 1032 87 10000 3.1 10 01:50 14.09.2019
1946 Clear 16 1032 87 10000 2.6 10 01:22 14.09.2019
1947 Clear 16 1032 87 10000 2.1 10 00:57 14.09.2019
1948 Clear 16 1032 88 10000 2.1 30 00:37 14.09.2019
1949 Clear 17 1032 82 10000 2.1 30 00:19 14.09.2019
1950 Clear 17 1032 82 10000 1.5 40 23:38 13.09.2019
1951 Clear 18 1032 82 10000 1.5 40 23:19 13.09.2019
1952 Clear 18 1032 82 10000 1.5 40 23:19 13.09.2019
1953 Clear 18 1032 77 10000 2.1 30 22:56 13.09.2019
1954 Clear 18 1032 77 10000 2.1 20 22:38 13.09.2019
1955 Clear 18 1032 77 10000 2.1 20 22:38 13.09.2019
1956 Clear 18 1032 77 10000 2.1 20 22:19 13.09.2019
1957 Clear 19 1032 72 10000 2.6 20 21:41 13.09.2019
1958 Clear 19 1032 72 10000 2.6 20 21:20 13.09.2019
1959 Clear 20 1032 68 10000 2.1 20 20:59 13.09.2019
1960 Clear 21 1032 68 10000 3.6 40 20:40 13.09.2019
1961 Clear 21 1032 64 10000 3.1 10 20:21 13.09.2019
1962 Clear 21 1032 64 10000 3.1 10 19:56 13.09.2019
1963 Clouds 22 1032 64 10000 3.6 20 19:38 13.09.2019
1964 Clouds 22 1032 64 10000 4.1 20 19:19 13.09.2019
1965 Clouds 22 1032 64 10000 4.1 20 18:56 13.09.2019
1966 Clouds 23 1032 56 10000 3.6 360 18:37 13.09.2019
1967 Clouds 23 1032 56 10000 4.6 20 18:18 13.09.2019
1968 Clouds 23 1032 53 10000 3.6 10 17:39 13.09.2019
1969 Clouds 23 1032 53 10000 4.6 30 17:19 13.09.2019
1970 Clouds 23 1032 50 10000 2.6 0 16:42 13.09.2019
1971 Clouds 23 1032 50 10000 2.6 0 16:21 13.09.2019
1972 Clouds 23 1032 53 10000 3.1 60 15:58 13.09.2019
1973 Clouds 23 1032 60 10000 2.1 0 15:39 13.09.2019
1974 Clouds 23 1032 60 10000 2.1 0 15:20 13.09.2019
1975 Clouds 22 1033 64 10000 1.5 0 14:44 13.09.2019
1976 Clouds 21 1033 64 10000 1.5 0 14:22 13.09.2019
1977 Clouds 21 1033 68 10000 2.1 330 13:56 13.09.2019
1978 Clouds 21 1033 72 10000 1.5 350 13:37 13.09.2019
1979 Clouds 20 1033 72 10000 1.5 350 13:19 13.09.2019
1980 Clouds 20 1034 72 10000 1.5 330 12:41 13.09.2019
1981 Clouds 19 1034 72 10000 1.5 330 12:23 13.09.2019
1982 Clouds 19 1034 77 10000 2.1 340 11:56 13.09.2019
1983 Clouds 18 1034 77 10000 2.6 330 11:20 13.09.2019
1984 Clouds 18 1033 82 10000 2.6 330 10:41 13.09.2019
1985 Clouds 17 1033 82 10000 2.1 340 10:20 13.09.2019
1986 Clouds 17 1033 88 10000 2.6 320 09:47 13.09.2019
1987 Clouds 16 1033 88 10000 2.6 320 09:25 13.09.2019
1988 Clouds 16 1033 88 10000 3.1 330 08:59 13.09.2019
1989 Clouds 16 1032 87 10000 1.5 340 08:41 13.09.2019
1990 Clouds 16 1032 87 10000 1.5 340 08:21 13.09.2019
1991 Clouds 16 1032 93 10000 1 360 07:56 13.09.2019
1992 Clouds 16 1032 93 10000 1.5 360 07:38 13.09.2019
1993 Clouds 15 1032 87 10000 1 10 06:49 13.09.2019
1994 Fog 14 1032 87 10000 1 0 05:50 13.09.2019
1995 Fog 14 1032 87 10000 1 0 05:19 13.09.2019
1996 Fog 15 1032 88 10000 0.5 330 03:42 13.09.2019
1997 Fog 16 1032 88 10000 1 310 02:50 13.09.2019
1998 Mist 16 1032 82 10000 1 0 02:19 13.09.2019
1999 Clouds 17 1032 77 10000 1 0 01:35 13.09.2019
2000 Clouds 17 1032 77 10000 1 0 01:35 13.09.2019
2001 Clouds 17 1032 77 10000 1 0 01:35 13.09.2019
2002 Clouds 18 1032 77 10000 1 0 00:59 13.09.2019
2003 Clouds 18 1032 82 10000 1.5 300 00:33 13.09.2019
2004 Clouds 19 1032 77 10000 2.6 310 23:46 12.09.2019
2005 Clouds 20 1032 77 10000 3.1 320 23:22 12.09.2019
2006 -273 0 0 0 0 0 22:56 12.09.2019
2007 Clouds 20 1032 73 10000 3.1 320 22:37 12.09.2019
2008 Clouds 20 1031 68 10000 2.6 330 22:18 12.09.2019
2009 Clouds 20 1031 68 10000 2.6 330 21:54 12.09.2019
2010 Clouds 21 1031 68 10000 2.6 330 21:36 12.09.2019
2011 Clouds 21 1031 68 10000 2.6 330 21:18 12.09.2019
2012 Clouds 22 1031 60 10000 1 20 20:41 12.09.2019
2013 Clouds 22 1031 60 10000 1 20 20:21 12.09.2019
2014 Clouds 22 1031 64 10000 1.5 40 19:57 12.09.2019
2015 Clouds 23 1031 60 10000 1.26 277.808 19:37 12.09.2019
2016 Clouds 23 1031 60 10000 1 0 19:19 12.09.2019
2017 Clouds 23 1031 60 10000 1 0 19:19 12.09.2019
2018 Clouds 23 1031 60 10000 1.26 277.808 19:19 12.09.2019
2019 Clouds 23 1031 60 10000 1 0 19:19 12.09.2019
2020 Clouds 23 1030 60 10000 1 0 18:39 12.09.2019
2021 Clouds 23 1030 60 10000 1 0 18:21 12.09.2019
2022 Clouds 23 1031 60 10000 1.5 0 18:00 12.09.2019
2023 Clouds 24 1031 60 10000 1.5 310 17:39 12.09.2019
2024 Clouds 24 1031 60 10000 1.5 310 17:39 12.09.2019
2025 Clouds 24 1031 60 10000 2.6 300 17:20 12.09.2019
2026 Clouds 24 1031 60 10000 2.6 300 17:20 12.09.2019
2027 Clouds 24 1031 60 10000 2.6 300 16:55 12.09.2019
2028 Clouds 24 1031 60 10000 2.6 260 16:36 12.09.2019
2029 Clouds 23 1031 60 10000 2.6 270 16:18 12.09.2019
2030 Clouds 23 1031 60 10000 3.1 250 15:39 12.09.2019
2031 Clouds 23 1031 60 10000 3.1 250 15:21 12.09.2019
2032 Clouds 23 1031 64 10000 3.6 260 14:45 12.09.2019
2033 Clouds 23 1031 64 10000 2.1 0 14:21 12.09.2019
2034 Clouds 22 1031 64 10000 3.1 280 13:55 12.09.2019
2035 Clouds 22 1031 64 10000 4.1 270 13:37 12.09.2019
2036 Clouds 21 1031 64 10000 3.6 270 13:18 12.09.2019
2037 Clouds 21 1031 68 10000 3.6 280 12:43 12.09.2019
2038 Clouds 21 1031 68 10000 3.6 280 12:19 12.09.2019
2039 -273 0 0 0 0 0 11:55 12.09.2019
2040 Clouds 20 1031 72 10000 2.6 250 11:37 12.09.2019
2041 Clouds 20 1031 72 10000 3.1 270 11:19 12.09.2019
2042 Clouds 19 1030 77 10000 4.1 270 10:44 12.09.2019
2043 Clouds 19 1030 77 10000 4.1 270 10:24 12.09.2019
2044 Clouds 18 1030 82 10000 3.1 260 09:44 12.09.2019
2045 Clouds 17 1030 82 10000 3.1 260 09:23 12.09.2019
2046 Clouds 17 1029 82 10000 3.1 240 08:58 12.09.2019
2047 Clouds 16 1029 82 10000 2.6 240 08:40 12.09.2019
2048 Clouds 16 1029 82 10000 2.6 240 08:21 12.09.2019
2049 Clouds 16 1029 77 10000 3.1 240 07:39 12.09.2019
2050 Clouds 16 1028 77 10000 3.6 250 07:19 12.09.2019
2051 Clouds 15 1028 77 10000 2.6 250 06:50 12.09.2019
2052 Clouds 15 1028 77 10000 3.1 240 06:19 12.09.2019
2053 Clouds 15 1028 77 10000 3.6 240 05:49 12.09.2019
2054 Clouds 15 1028 77 10000 3.6 240 05:30 12.09.2019
2055 Clouds 16 1028 77 10000 2.1 250 04:35 12.09.2019
2056 Clouds 16 1027 77 10000 2.6 230 02:24 12.09.2019
2057 Clouds 17 1027 72 10000 2.6 230 01:36 12.09.2019
2058 Clouds 17 1027 72 10000 2.6 230 01:18 12.09.2019
2059 Clouds 17 1027 68 10000 3.6 260 00:42 12.09.2019
2060 Clouds 17 1027 68 10000 3.6 260 00:23 12.09.2019
2061 Clear 17 1027 68 10000 2.6 270 23:42 11.09.2019
2062 Clear 18 1027 68 10000 2.6 270 23:22 11.09.2019
2063 Clear 18 1026 68 10000 2.6 260 22:56 11.09.2019
2064 Clear 18 1026 60 10000 2.6 250 22:37 11.09.2019
2065 Clear 19 1026 63 10000 2.6 290 22:19 11.09.2019
2066 Clear 19 1026 56 10000 2.1 290 21:42 11.09.2019
2067 Clear 20 1026 56 10000 2.1 290 21:24 11.09.2019
2068 Clouds 20 1025 49 10000 3.6 260 20:58 11.09.2019
2069 Clouds 21 1025 49 10000 3.6 260 20:39 11.09.2019
2070 Clouds 21 1025 49 10000 3.6 260 20:39 11.09.2019
2071 Clouds 21 1025 49 10000 3.6 260 20:19 11.09.2019
2072 Clear 22 1025 43 10000 3.6 270 19:58 11.09.2019
2073 Clear 23 1025 41 10000 4.6 250 19:39 11.09.2019
2074 Clear 23 1025 41 10000 4.6 250 19:21 11.09.2019
2075 Clouds 23 1025 38 10000 5.1 260 18:58 11.09.2019
2076 Clear 24 1024 36 10000 4.6 260 18:38 11.09.2019
2077 Clear 24 1024 36 10000 4.6 260 18:19 11.09.2019
2078 Clear 24 1024 36 10000 5.1 250 17:56 11.09.2019
2079 Clear 24 1024 29 10000 4.1 250 17:38 11.09.2019
2080 Clear 24 1024 29 10000 4.1 250 17:19 11.09.2019
2081 Clear 24 1024 31 10000 5.1 250 16:48 11.09.2019
2082 Clear 24 1024 33 10000 4.1 220 16:25 11.09.2019
2083 Clear 24 1024 33 10000 4.1 220 16:25 11.09.2019
2084 Clear 24 1024 36 10000 5.7 230 15:59 11.09.2019
2085 Clear 23 1024 38 10000 5.1 260 15:40 11.09.2019
2086 Clear 23 1024 38 10000 5.1 260 15:19 11.09.2019
2087 Clear 23 1025 38 10000 5.7 250 14:55 11.09.2019
2088 Clouds 22 1025 43 10000 5.7 240 14:36 11.09.2019
2089 Clouds 22 1025 43 10000 5.7 240 14:18 11.09.2019
2090 Clear 21 1025 52 10000 4.6 220 13:38 11.09.2019
2091 Clear 21 1025 52 10000 4.6 220 13:20 11.09.2019
2092 Clear 20 1025 55 10000 4.1 220 12:59 11.09.2019
2093 Clear 19 1025 55 10000 4.1 230 12:38 11.09.2019
2094 Clear 19 1025 55 10000 4.1 230 12:20 11.09.2019
2095 Clear 18 1025 67 10000 3.1 250 11:39 11.09.2019
2096 Clear 17 1025 67 10000 3.1 250 11:21 11.09.2019
2097 Clear 16 1025 72 10000 3.6 250 10:57 11.09.2019
2098 Clear 15 1025 77 10000 2.6 260 10:39 11.09.2019
2099 Clear 15 1025 77 10000 2.6 260 10:20 11.09.2019
2100 Clear 14 1024 82 10000 1 0 09:40 11.09.2019
2101 Clear 13 1024 82 10000 1 0 09:20 11.09.2019
2102 Clouds 13 1024 76 10000 1.5 230 08:56 11.09.2019
2103 Clear 12 1023 82 10000 1 230 08:38 11.09.2019
2104 Clear 12 1023 82 10000 1 230 08:20 11.09.2019
2105 Clear 12 1023 82 10000 1.5 200 07:40 11.09.2019
2106 Clear 12 1023 82 10000 1.5 200 07:22 11.09.2019
2107 Clear 12 1023 76 10000 1 0 06:48 11.09.2019
2108 Clear 12 1023 76 10000 1.5 210 06:30 11.09.2019
2109 Clear 12 1023 76 10000 1.5 0 05:37 11.09.2019
2110 Clear 12 1023 76 10000 1.28 270.312 05:19 11.09.2019
2111 Clear 11 1022 71 10000 1.28 270.312 04:39 11.09.2019
2112 Clear 11 1023 76 10000 0.5 0 03:32 11.09.2019
2113 Clear 12 1022 71 10000 0.5 0 02:42 11.09.2019
2114 Clear 12 1022 66 10000 0.5 0 01:53 11.09.2019
2115 Clear 13 1022 66 10000 1.5 0 00:52 11.09.2019
2116 Clear 13 1022 58 10000 1.5 340 00:21 11.09.2019
2117 -273 0 0 0 0 0 23:55 10.09.2019
2118 Clear 14 1022 55 10000 2.6 340 23:36 10.09.2019
2119 Clear 14 1022 55 10000 2.6 340 23:18 10.09.2019
2120 Clear 15 1021 55 10000 3.1 340 22:41 10.09.2019
2121 Clear 16 1020 55 10000 1.5 350 22:19 10.09.2019
2122 Clear 16 1020 55 10000 1.5 350 22:19 10.09.2019
2123 Clear 16 1020 55 10000 1.5 350 21:55 10.09.2019
2124 Clear 16 1020 45 10000 1 360 21:37 10.09.2019
2125 Clear 16 1020 45 10000 1 360 21:19 10.09.2019
2126 Clear 18 1020 42 10000 1.5 0 20:57 10.09.2019
2127 Clear 19 1020 40 10000 1.5 350 20:38 10.09.2019
2128 Clear 20 1019 35 10000 3.1 340 20:20 10.09.2019
2129 Clear 20 1019 35 10000 3.1 340 19:56 10.09.2019
2130 Clear 20 1019 35 10000 3.1 340 19:56 10.09.2019
2131 Clear 21 1019 33 10000 3.1 350 19:37 10.09.2019
2132 Clear 21 1019 33 10000 3.1 350 19:19 10.09.2019
2133 Clear 22 1019 33 10000 1.5 340 18:55 10.09.2019
2134 Clear 22 1019 33 10000 2.1 350 18:37 10.09.2019
2135 Clear 22 1019 33 10000 2.1 350 18:18 10.09.2019
2136 Clear 22 1018 33 10000 3.1 20 17:43 10.09.2019
2137 Clear 22 1018 33 10000 3.1 20 17:22 10.09.2019
2138 Clear 22 1018 33 10000 2.6 30 16:58 10.09.2019
2139 Clear 22 1018 31 10000 2.1 0 16:39 10.09.2019
2140 Clear 22 1018 31 10000 2.1 0 16:21 10.09.2019
2141 Clear 22 1018 33 10000 2.6 340 15:58 10.09.2019
2142 Clear 22 1019 33 10000 2.1 330 15:39 10.09.2019
2143 Clear 22 1019 33 10000 2.1 330 15:20 10.09.2019
2144 Clear 21 1019 30 10000 1.5 0 14:41 10.09.2019
2145 Clear 22 1019 30 10000 1.5 0 14:23 10.09.2019
2146 Clear 21 1018 35 10000 1.5 0 13:56 10.09.2019
2147 Clear 21 1018 37 10000 3.1 0 13:37 10.09.2019
2148 Clear 21 1018 37 10000 3.1 0 13:19 10.09.2019
2149 Clear 20 1018 42 10000 3.1 20 12:43 10.09.2019
2150 Clear 20 1018 42 10000 3.1 20 12:43 10.09.2019
2151 Clear 20 1018 42 10000 3.1 20 12:24 10.09.2019
2152 Clear 19 1018 48 10000 2.6 20 11:57 10.09.2019
2153 Clear 18 1017 55 10000 2.1 360 11:39 10.09.2019
2154 Clear 17 1017 59 10000 2.1 350 11:20 10.09.2019
2155 Clear 16 1017 62 10000 2.6 10 10:42 10.09.2019
2156 Clear 14 1017 67 10000 1.5 0 10:19 10.09.2019
2157 Clear 14 1017 67 10000 1.5 0 09:56 10.09.2019
2158 Clear 13 1016 71 10000 2.24 45.562 09:37 10.09.2019
2159 Clear 11 1016 76 10000 1 340 09:18 10.09.2019
2160 Clear 9 1016 81 10000 1.5 50 08:44 10.09.2019
2161 Clear 9 1015 76 10000 1 0 08:26 10.09.2019
2162 Clear 9 1015 81 10000 1.5 350 07:45 10.09.2019
2163 Clear 9 1015 81 10000 1.5 350 07:26 10.09.2019
2164 Clear 9 1014 71 10000 1.32 28.839 06:53 10.09.2019
2165 Clear 9 1014 71 10000 1.32 28.839 06:35 10.09.2019
2166 Clear 10 1014 71 10000 1 0 05:27 10.09.2019
2167 Clear 11 1014 66 10000 1.5 10 03:57 10.09.2019
2168 Clear 12 1014 58 10000 2.1 260 02:23 10.09.2019
2169 Clear 12 1014 58 10000 2.1 260 02:23 10.09.2019
2170 Clear 12 1014 58 10000 2.1 260 01:58 10.09.2019
2171 Clear 12 1014 58 10000 2.1 260 01:58 10.09.2019
2172 Clear 12 1014 58 10000 2.1 260 01:58 10.09.2019
2173 Clear 13 1014 58 10000 3.6 260 01:40 10.09.2019
2174 Clear 13 1013 58 10000 4.1 250 01:20 10.09.2019
2175 Clear 14 1013 58 10000 2.1 70 00:25 10.09.2019
2176 Clear 14 1013 55 10000 1.5 90 23:48 09.09.2019
2177 Clear 14 1013 55 10000 1.5 90 23:20 09.09.2019
2178 Clear 15 1013 51 10000 1.5 80 22:57 09.09.2019
2179 Clear 15 1013 51 10000 1.5 80 22:39 09.09.2019
2180 Clear 15 1013 45 10000 0.46 171.034 22:20 09.09.2019
2181 Clear 15 1013 45 10000 0.46 171.034 21:58 09.09.2019
2182 Clear 16 1013 45 10000 0.5 0 21:39 09.09.2019
2183 Clear 16 1013 45 10000 0.5 0 21:20 09.09.2019
2184 Clear 16 1013 48 10000 1.5 240 20:57 09.09.2019
2185 Clear 17 1012 45 10000 3.1 240 20:37 09.09.2019
2186 Clear 17 1012 42 10000 3.6 210 20:19 09.09.2019
2187 Clear 17 1012 42 10000 3.6 210 19:58 09.09.2019
2188 Clear 18 1013 48 10000 2.1 260 19:39 09.09.2019
2189 Clear 18 1012 39 10000 2.6 200 19:20 09.09.2019
2190 Clear 18 1012 39 10000 3.1 210 18:58 09.09.2019
2191 Clear 18 1012 39 10000 3.1 210 18:40 09.09.2019
2192 Clear 18 1012 39 10000 3.1 210 18:21 09.09.2019
2193 Clear 19 1012 37 10000 2.6 220 17:58 09.09.2019
2194 Clear 19 1013 34 10000 2.6 230 17:40 09.09.2019
2195 Clear 19 1013 34 10000 2.6 230 17:21 09.09.2019
2196 Clear 19 1013 39 10000 2.6 230 17:21 09.09.2019
2197 Clear 19 1013 39 10000 2.6 230 16:56 09.09.2019
2198 Clear 19 1013 37 10000 4.6 210 16:38 09.09.2019
2199 Clear 19 1013 37 10000 4.6 210 16:38 09.09.2019
2200 Clear 19 1013 34 10000 4.6 210 16:19 09.09.2019
2201 Clear 19 1013 34 10000 4.6 210 15:56 09.09.2019
2202 Clear 19 1013 34 10000 4.6 210 15:56 09.09.2019
2203 Clear 19 1014 39 10000 4.6 200 15:37 09.09.2019
2204 Clear 19 1014 39 10000 4.6 200 15:37 09.09.2019
2205 Clear 19 1014 39 10000 4.6 200 15:18 09.09.2019
2206 Clear 19 1014 39 10000 5.7 190 14:55 09.09.2019
2207 Clear 19 1014 42 10000 5.7 180 14:37 09.09.2019
2208 Clouds 18 1015 45 10000 4.6 200 14:19 09.09.2019
2209 Clear 18 1015 45 10000 5.1 180 13:44 09.09.2019
2210 Clear 17 1016 48 10000 4.6 170 13:20 09.09.2019
2211 Clear 17 1016 48 10000 4.6 170 12:58 09.09.2019
2212 Clear 17 1016 51 10000 4.1 180 12:38 09.09.2019
2213 Clear 16 1016 55 10000 4.1 170 12:20 09.09.2019
2214 Clear 15 1017 67 10000 3.1 150 11:47 09.09.2019
2215 Clear 15 1017 67 10000 3.1 150 11:47 09.09.2019
2216 Clear 14 1017 67 10000 3.1 150 11:23 09.09.2019
2217 Clear 13 1017 71 10000 3.1 130 10:59 09.09.2019
2218 Clouds 12 1017 76 10000 2.1 120 10:41 09.09.2019
2219 Clouds 12 1017 76 10000 2.1 120 10:41 09.09.2019
2220 Clear 11 1017 81 10000 2.1 100 10:20 09.09.2019
2221 Clear 11 1017 81 10000 2.1 100 09:57 09.09.2019
2222 Clear 11 1017 81 10000 2.1 100 09:57 09.09.2019
2223 Clear 10 1018 87 10000 1.5 40 09:38 09.09.2019
2224 Clear 9 1018 87 10000 1.5 40 09:19 09.09.2019
2225 Clear 8 1018 87 10000 1.5 40 08:39 09.09.2019
2226 Clear 8 1018 87 10000 1.5 40 08:39 09.09.2019
2227 Clear 7 1018 87 10000 1 0 08:20 09.09.2019
2228 Clear 7 1018 87 10000 1 0 08:20 09.09.2019
2229 Clear 8 1018 87 10000 1.5 40 08:20 09.09.2019
2230 Clear 7 1018 93 10000 1 0 07:46 09.09.2019
2231 Clear 7 1018 93 10000 1 0 07:23 09.09.2019
2232 Clouds 7 1018 93 10000 1 340 06:57 09.09.2019
2233 Clear 7 1018 93 10000 1 50 06:36 09.09.2019
2234 Clear 6 1019 87 10000 1.5 10 04:56 09.09.2019
2235 Clear 8 1020 81 10000 1 0 02:59 09.09.2019
2236 Clear 8 1020 81 10000 1.5 320 02:38 09.09.2019
2237 Clear 10 1020 71 10000 0.5 0 00:43 09.09.2019
2238 Clear 10 1020 71 10000 0.5 0 00:22 09.09.2019
2239 Clear 11 1021 62 10000 2.1 10 23:45 08.09.2019
2240 Clear 11 1021 62 10000 2.6 350 23:24 08.09.2019
2241 Clear 12 1021 62 10000 2.6 350 22:57 08.09.2019
2242 Clear 12 1021 62 10000 2.6 350 22:38 08.09.2019
2243 Clear 12 1021 62 10000 2.6 350 22:19 08.09.2019
2244 Clear 13 1020 62 10000 3.1 330 21:42 08.09.2019
2245 Clear 13 1020 62 10000 3.1 330 21:23 08.09.2019
2246 Clear 14 1020 58 10000 4.1 330 20:59 08.09.2019
2247 Clear 15 1020 51 10000 3.1 330 20:40 08.09.2019
2248 Clear 15 1020 51 10000 3.1 330 20:21 08.09.2019
2249 Clear 16 1020 51 10000 4.1 320 19:59 08.09.2019
2250 Clear 16 1020 48 10000 4.1 330 19:38 08.09.2019
2251 Clear 17 1020 48 10000 4.1 330 19:20 08.09.2019
2252 Clear 17 1020 45 10000 4.6 340 18:57 08.09.2019
2253 Clear 17 1020 45 10000 4.1 340 18:38 08.09.2019
2254 Clear 18 1020 51 10000 4.1 330 18:18 08.09.2019
2255 Clear 18 1020 51 10000 4.1 330 17:56 08.09.2019
2256 Clear 18 1020 45 10000 3.6 340 17:36 08.09.2019
2257 Clear 17 1020 45 10000 4.1 350 17:18 08.09.2019
2258 Clear 18 1020 48 10000 3.6 10 16:44 08.09.2019
2259 Clear 18 1020 48 10000 3.6 10 16:22 08.09.2019
2260 Clouds 18 1021 51 10000 5.7 20 15:58 08.09.2019
2261 Clouds 18 1020 42 10000 3.1 20 15:40 08.09.2019
2262 Rain 18 1021 39 10000 3.1 340 15:21 08.09.2019
2263 Rain 18 1021 39 10000 3.1 340 14:57 08.09.2019
2264 Rain 18 1021 39 10000 3.1 340 14:57 08.09.2019
2265 Clouds 18 1021 48 10000 4.1 310 14:38 08.09.2019
2266 Clouds 17 1021 48 10000 4.1 340 14:20 08.09.2019
2267 Clouds 17 1021 48 10000 4.1 340 13:56 08.09.2019
2268 Rain 17 1021 48 10000 3.6 350 13:37 08.09.2019
2269 Clouds 16 1021 45 10000 4.1 340 13:19 08.09.2019
2270 Clouds 16 1022 48 10000 3.6 340 12:42 08.09.2019
2271 Clouds 16 1022 48 10000 3.6 340 12:42 08.09.2019
2272 Clouds 16 1022 48 10000 3.6 340 12:23 08.09.2019
2273 Clear 16 1022 59 10000 4.1 350 11:58 08.09.2019
2274 Clear 15 1022 59 10000 4.6 340 11:39 08.09.2019
2275 Clear 15 1022 59 10000 4.6 340 11:20 08.09.2019
2276 Clear 14 1022 62 10000 3.1 340 10:58 08.09.2019
2277 Clear 14 1022 67 10000 4.1 330 10:39 08.09.2019
2278 Clear 14 1022 67 10000 4.1 330 10:21 08.09.2019
2279 Rain 11 1022 76 10000 3.1 320 09:38 08.09.2019
2280 Rain 11 1022 76 10000 3.1 320 09:20 08.09.2019
2281 Clear 10 1022 81 10000 2.6 320 08:56 08.09.2019
2282 Clear 10 1022 81 10000 2.6 320 08:56 08.09.2019
2283 Clear 10 1022 76 10000 1.5 310 08:38 08.09.2019
2284 Clear 10 1022 76 10000 1.5 310 08:38 08.09.2019
2285 Clouds 9 1022 76 10000 1.5 290 08:18 08.09.2019
2286 Clouds 9 1022 76 10000 1.5 290 08:18 08.09.2019
2287 Clouds 9 1022 81 10000 1 0 07:39 08.09.2019
2288 Clouds 9 1022 81 10000 1 0 07:21 08.09.2019
2289 Clouds 9 1022 81 10000 1 0 06:53 08.09.2019
2290 Clouds 9 1022 81 10000 1 0 06:53 08.09.2019
2291 Clouds 9 1022 81 10000 2.1 290 06:32 08.09.2019
2292 Clouds 9 1022 81 10000 1.5 310 05:38 08.09.2019
2293 Clouds 10 1022 81 10000 2.1 290 04:18 08.09.2019
2294 Clear 11 1022 76 10000 2.6 320 02:59 08.09.2019
2295 Clear 11 1023 76 10000 2.1 320 02:29 08.09.2019
2296 Clear 12 1022 76 10000 3.1 330 01:52 08.09.2019
2297 Clear 12 1022 76 10000 2.6 340 01:22 08.09.2019
2298 Clouds 13 1023 71 10000 2.6 330 00:45 08.09.2019
2299 Clouds 13 1023 71 10000 2.6 330 00:27 08.09.2019
2300 Clear 13 1023 71 10000 4.1 340 23:39 07.09.2019
2301 Clear 13 1023 71 10000 4.1 340 23:21 07.09.2019
2302 Clear 13 1022 71 10000 3.6 340 22:58 07.09.2019
2303 Clear 14 1022 67 10000 3.6 340 22:40 07.09.2019
2304 Clear 14 1022 62 10000 3.6 340 22:22 07.09.2019
2305 Clear 14 1022 62 10000 3.6 350 21:45 07.09.2019
2306 Clear 14 1022 62 10000 3.6 350 21:26 07.09.2019
2307 Clear 15 1022 62 10000 2.1 350 20:59 07.09.2019
2308 Clouds 15 1021 59 10000 3.6 360 20:39 07.09.2019
2309 Rain 16 1021 55 10000 6.2 360 20:20 07.09.2019
2310 Rain 16 1021 55 10000 6.2 360 19:55 07.09.2019
2311 Rain 17 1021 52 10000 3.6 350 19:37 07.09.2019
2312 Clouds 17 1021 52 10000 3.1 360 19:19 07.09.2019
2313 Clouds 17 1021 52 10000 3.1 360 18:56 07.09.2019
2314 Clouds 18 1021 52 10000 5.1 360 18:37 07.09.2019
2315 Rain 18 1020 52 10000 3.6 320 18:18 07.09.2019
2316 Rain 18 1020 52 10000 3.6 320 17:56 07.09.2019
2317 Rain 18 1020 52 10000 3.6 350 17:38 07.09.2019
2318 Rain 18 1020 52 10000 3.6 350 17:38 07.09.2019
2319 Rain 18 1020 52 10000 3.6 350 17:18 07.09.2019
2320 Clear 19 1020 42 10000 4.1 330 16:43 07.09.2019
2321 Clear 19 1020 42 10000 4.1 330 16:43 07.09.2019
2322 Clear 19 1020 42 10000 4.1 330 16:23 07.09.2019
2323 Clear 19 1020 42 10000 5.7 340 15:57 07.09.2019
2324 Clear 19 1020 42 10000 5.1 300 15:38 07.09.2019
2325 Clear 19 1020 42 10000 5.1 300 15:20 07.09.2019
2326 Clear 19 1021 48 10000 4.6 320 14:55 07.09.2019
2327 Clear 18 1021 45 10000 5.1 330 14:55 07.09.2019
2328 Clear 19 1021 48 10000 4.6 320 14:55 07.09.2019
2329 Clear 18 1021 45 10000 5.1 330 14:36 07.09.2019
2330 Rain 18 1021 45 10000 4.6 340 14:18 07.09.2019
2331 Rain 18 1021 52 10000 4.6 310 13:44 07.09.2019
2332 Clouds 18 1021 59 10000 3.6 330 13:25 07.09.2019
2333 Clouds 18 1021 59 10000 3.1 320 12:54 07.09.2019
2334 Clouds 17 1021 59 10000 3.1 320 12:36 07.09.2019
2335 Clouds 17 1021 63 10000 3.1 330 12:18 07.09.2019
2336 Clouds 17 1021 67 10000 2.6 340 11:40 07.09.2019
2337 Clouds 17 1021 67 10000 2.6 340 11:21 07.09.2019
2338 Clouds 16 1021 77 10000 2.1 320 10:41 07.09.2019
2339 Clouds 16 1021 77 10000 2.1 320 10:23 07.09.2019
2340 Clouds 15 1020 82 10000 2.1 280 09:59 07.09.2019
2341 Clouds 14 1020 87 10000 2.6 270 09:40 07.09.2019
2342 Clouds 14 1020 87 10000 2.6 270 09:21 07.09.2019
2343 Clouds 13 1020 93 10000 1 0 08:49 07.09.2019
2344 Clouds 13 1020 93 10000 1 0 08:30 07.09.2019
2345 Clouds 13 1020 93 10000 2.6 250 07:57 07.09.2019
2346 Clouds 13 1020 87 10000 1.5 270 07:38 07.09.2019
2347 Clouds 13 1020 87 10000 1.5 270 07:20 07.09.2019
2348 Drizzle 13 1020 93 7000 2.1 240 06:42 07.09.2019
2349 Drizzle 13 1020 82 10000 3.6 240 05:39 07.09.2019
2350 Rain 13 1021 82 10000 2.1 240 04:26 07.09.2019
2351 Clear 13 1021 72 10000 3.1 250 03:41 07.09.2019
2352 Clear 14 1021 67 10000 3.1 260 02:22 07.09.2019
2353 Clouds 15 1022 67 10000 2.1 270 01:29 07.09.2019
2354 Clouds 15 1022 67 10000 3.1 280 00:54 07.09.2019
2355 Clouds 15 1022 67 10000 2.6 310 00:23 07.09.2019
2356 Clear 15 1022 67 10000 3.1 280 23:59 06.09.2019
2357 Clear 15 1022 67 10000 2.6 290 23:38 06.09.2019
2358 Clear 16 1022 67 10000 2.6 290 23:19 06.09.2019
2359 Clear 16 1022 67 10000 1 0 22:56 06.09.2019
2360 Clear 16 1022 67 10000 2.1 290 22:36 06.09.2019
2361 Clear 16 1022 67 10000 3.1 300 22:18 06.09.2019
2362 Clear 16 1022 67 10000 3.1 300 22:18 06.09.2019
2363 Clear 16 1022 67 10000 3.1 300 21:55 06.09.2019
2364 Rain 16 1022 63 10000 2.6 320 21:36 06.09.2019
2365 Rain 16 1022 63 10000 2.6 310 21:18 06.09.2019
2366 Rain 18 1022 48 10000 3.6 300 20:41 06.09.2019
2367 Rain 18 1022 48 10000 3.6 300 20:22 06.09.2019
2368 Clear 19 1022 48 10000 4.1 320 19:59 06.09.2019
2369 Clear 19 1022 45 10000 3.6 320 19:41 06.09.2019
2370 Clear 19 1022 45 10000 3.6 320 19:41 06.09.2019
2371 Clear 20 1022 37 10000 4.1 290 19:21 06.09.2019
2372 Clear 20 1022 37 10000 3.6 300 18:56 06.09.2019
2373 Clear 20 1022 37 10000 3.6 300 18:37 06.09.2019
2374 Clear 20 1022 37 10000 3.6 300 18:19 06.09.2019
2375 Clear 21 1023 37 10000 2.6 280 17:40 06.09.2019
2376 Clear 22 1023 37 10000 2.6 280 17:20 06.09.2019
2377 Clear 21 1023 37 10000 3.6 270 16:56 06.09.2019
2378 Clear 21 1024 37 10000 4.1 240 16:38 06.09.2019
2379 Clear 21 1024 37 10000 3.6 270 16:18 06.09.2019
2380 Clear 21 1024 37 10000 3.6 270 16:18 06.09.2019
2381 Clear 21 1024 40 10000 3.1 210 15:41 06.09.2019
2382 Clear 20 1024 40 10000 3.1 210 15:22 06.09.2019
2383 Clear 20 1025 39 10000 1.5 0 14:47 06.09.2019
2384 Clear 19 1025 39 10000 2.6 280 14:20 06.09.2019
2385 Clear 19 1026 42 10000 2.1 280 13:44 06.09.2019
2386 Clear 18 1026 42 10000 1.5 0 13:24 06.09.2019
2387 Clear 18 1026 42 10000 1.5 0 12:59 06.09.2019
2388 Clear 18 1026 42 10000 1.5 0 12:59 06.09.2019
2389 Clear 18 1026 45 10000 1.5 0 12:37 06.09.2019
2390 Clear 17 1026 45 10000 1.5 0 12:18 06.09.2019
2391 Clear 16 1027 51 10000 1.5 290 11:41 06.09.2019
2392 Clear 16 1027 51 10000 1.5 290 11:23 06.09.2019
2393 Clear 15 1027 54 10000 1.5 0 10:58 06.09.2019
2394 Clear 14 1027 62 10000 1 0 10:39 06.09.2019
2395 Clear 13 1027 62 10000 1 0 10:21 06.09.2019
2396 Clear 11 1027 76 10000 2.39 275.895 09:40 06.09.2019
2397 Clear 9 1027 81 10000 1 60 09:21 06.09.2019
2398 Clear 9 1027 81 10000 1 60 08:57 06.09.2019
2399 Clear 7 1027 81 10000 1 320 08:38 06.09.2019
2400 Clear 8 1027 81 10000 1 320 08:38 06.09.2019
2401 Clear 6 1027 87 10000 1 20 08:20 06.09.2019
2402 Clear 6 1027 87 10000 1 20 08:20 06.09.2019
2403 Clear 6 1027 87 10000 0.5 0 07:45 06.09.2019
2404 Clear 6 1027 87 10000 0.5 0 07:27 06.09.2019
2405 Clear 6 1027 87 10000 1 0 06:56 06.09.2019
2406 Clear 7 1027 81 10000 1 0 06:19 06.09.2019
2407 Clear 7 1027 81 10000 0.5 350 05:41 06.09.2019
2408 Clear 7 1027 81 10000 1 0 04:45 06.09.2019
2409 Clear 8 1027 75 10000 0.5 360 03:52 06.09.2019
2410 Clear 10 1028 66 10000 1.5 340 01:54 06.09.2019
2411 Clear 11 1028 62 10000 2.6 330 00:44 06.09.2019
2412 -273 0 0 0 0 0 23:55 05.09.2019
2413 Clear 12 1027 58 10000 3.1 330 23:37 05.09.2019
2414 Clear 12 1027 58 10000 2.6 330 23:18 05.09.2019
2415 Clear 13 1027 54 10000 3.1 330 22:42 05.09.2019
2416 Clear 13 1027 54 10000 3.1 330 22:24 05.09.2019
2417 Clear 14 1027 51 10000 3.6 330 21:56 05.09.2019
2418 Clear 14 1026 51 10000 4.6 330 21:37 05.09.2019
2419 Clear 15 1026 48 10000 3.6 330 21:19 05.09.2019
2420 Clear 15 1026 48 10000 3.6 330 20:57 05.09.2019
2421 Clear 16 1026 45 10000 3.1 340 20:37 05.09.2019
2422 Clear 16 1026 45 10000 3.1 340 20:19 05.09.2019
2423 Clear 16 1026 45 10000 3.1 340 20:19 05.09.2019
2424 Clear 17 1026 45 10000 4.1 340 19:55 05.09.2019
2425 Clear 17 1025 42 10000 5.1 350 19:36 05.09.2019
2426 Clear 17 1025 42 10000 4.6 340 19:18 05.09.2019
2427 Clear 18 1025 39 10000 4.6 320 18:40 05.09.2019
2428 Clear 18 1025 39 10000 5.1 340 18:20 05.09.2019
2429 Clear 18 1025 39 10000 5.1 340 17:56 05.09.2019
2430 Clear 18 1025 42 10000 4.6 340 17:38 05.09.2019
2431 Clear 18 1025 42 10000 4.6 340 17:20 05.09.2019
2432 Clouds 18 1025 48 10000 5.1 340 16:42 05.09.2019
2433 Clouds 18 1025 48 10000 5.1 340 16:21 05.09.2019
2434 Clouds 17 1025 48 10000 4.1 330 15:58 05.09.2019
2435 Clear 17 1025 45 10000 4.1 320 15:39 05.09.2019
2436 Clear 18 1025 45 10000 4.1 320 15:19 05.09.2019
2437 Clear 17 1025 51 10000 5.1 330 14:55 05.09.2019
2438 Clear 18 1025 55 10000 7.7 340 14:37 05.09.2019
2439 Clear 18 1025 55 10000 7.7 340 14:37 05.09.2019
2440 Clouds 18 1024 45 10000 3.6 320 14:18 05.09.2019
2441 Clouds 18 1024 48 10000 3.6 340 13:41 05.09.2019
2442 Clouds 18 1024 52 10000 3.1 340 13:19 05.09.2019
2443 Clouds 17 1024 52 10000 4.1 350 12:42 05.09.2019
2444 Clouds 17 1024 52 10000 4.1 350 12:24 05.09.2019
2445 Clouds 17 1024 55 10000 4.6 350 11:56 05.09.2019
2446 Clouds 17 1024 59 10000 3.6 350 11:37 05.09.2019
2447 Clouds 16 1024 59 10000 3.6 350 11:18 05.09.2019
2448 Clouds 16 1023 72 10000 4.6 330 10:40 05.09.2019
2449 Clouds 15 1023 72 10000 4.6 330 10:20 05.09.2019
2450 Clear 14 1023 72 10000 3.1 330 09:57 05.09.2019
2451 Clouds 14 1022 76 10000 2.6 290 09:38 05.09.2019
2452 Clouds 13 1022 82 10000 2.6 270 09:18 05.09.2019
2453 Clouds 13 1022 82 10000 2.6 270 09:18 05.09.2019
2454 Clouds 12 1022 87 10000 2.1 280 08:43 05.09.2019
2455 Clouds 11 1022 87 10000 2.1 280 08:24 05.09.2019
2456 Clouds 10 1021 87 10000 2.1 270 07:44 05.09.2019
2457 Clouds 10 1021 87 10000 2.1 270 07:25 05.09.2019
2458 Clear 11 1020 87 10000 1.5 250 06:52 05.09.2019
2459 Clear 11 1020 81 10000 1.5 260 06:29 05.09.2019
2460 Clear 11 1020 81 10000 2.1 260 05:49 05.09.2019
2461 Clear 11 1020 81 10000 2.1 260 05:30 05.09.2019
2462 Clear 11 1019 76 10000 3.6 250 04:47 05.09.2019
2463 Clear 11 1019 76 10000 3.1 250 04:19 05.09.2019
2464 Clear 11 1020 76 10000 2.6 240 03:27 05.09.2019
2465 Clear 12 1019 76 10000 3.1 250 02:44 05.09.2019
2466 Clear 12 1019 76 10000 2.6 250 02:18 05.09.2019
2467 Clear 12 1019 66 10000 1.5 230 01:26 05.09.2019
2468 Clouds 13 1019 67 10000 0.5 0 00:42 05.09.2019
2469 Clear 13 1019 62 10000 1.5 290 00:20 05.09.2019
2470 Clear 13 1019 62 10000 2.1 300 23:46 04.09.2019
2471 Clear 13 1019 62 10000 2.1 300 23:46 04.09.2019
2472 Clear 14 1019 62 10000 2.1 300 23:23 04.09.2019
2473 Clear 14 1019 59 10000 4.1 290 22:59 04.09.2019
2474 Clear 15 1019 55 10000 3.6 290 22:38 04.09.2019
2475 Clear 15 1019 55 10000 3.6 290 22:18 04.09.2019
2476 Clear 16 1019 48 10000 3.6 290 21:39 04.09.2019
2477 Clear 16 1019 48 10000 3.6 290 21:39 04.09.2019
2478 Clear 16 1018 42 10000 4.1 290 21:20 04.09.2019
2479 Clear 17 1018 42 10000 4.1 290 20:56 04.09.2019
2480 Clear 17 1018 39 10000 5.7 290 20:38 04.09.2019
2481 Clear 18 1018 39 10000 5.7 290 20:18 04.09.2019
2482 Clouds 19 1018 45 10000 5.1 290 19:56 04.09.2019
2483 Clouds 19 1017 56 10000 4.1 290 19:37 04.09.2019
2484 Clouds 20 1017 60 10000 4.1 290 19:19 04.09.2019
2485 Clouds 20 1017 64 10000 4.1 280 18:38 04.09.2019
2486 Clouds 20 1018 68 10000 4.6 270 18:19 04.09.2019
2487 Clouds 20 1018 68 10000 5.1 270 17:42 04.09.2019
2488 Clouds 20 1018 68 10000 5.1 270 17:42 04.09.2019
2489 Clouds 20 1018 68 10000 5.1 270 17:23 04.09.2019
2490 Clouds 19 1017 68 10000 6.2 290 16:58 04.09.2019
2491 Clear 19 1017 64 10000 5.1 290 16:40 04.09.2019
2492 Clear 20 1017 49 10000 5.7 280 16:22 04.09.2019
2493 Clear 21 1017 49 10000 5.7 280 15:56 04.09.2019
2494 Clear 22 1016 41 10000 6.2 260 15:38 04.09.2019
2495 Clear 22 1016 41 10000 6.2 260 15:20 04.09.2019
2496 -273 0 0 0 0 0 14:55 04.09.2019
2497 Clear 23 1017 41 10000 4.6 240 14:36 04.09.2019
2498 Clear 24 1017 41 10000 4.6 240 14:18 04.09.2019
2499 Clear 24 1018 43 10000 6.2 250 13:40 04.09.2019
2500 Clouds 23 1018 46 10000 5.1 240 13:21 04.09.2019
2501 Clouds 23 1018 46 10000 5.1 240 12:57 04.09.2019
2502 Clouds 22 1018 49 10000 5.1 220 12:37 04.09.2019
2503 Clear 22 1018 52 10000 3.1 230 12:19 04.09.2019
2504 Clear 21 1019 52 10000 2.1 0 11:41 04.09.2019
2505 Clear 20 1019 60 10000 2.1 220 11:21 04.09.2019
2506 Clear 20 1019 60 10000 2.1 220 10:59 04.09.2019
2507 Clear 20 1019 60 10000 2.1 220 10:59 04.09.2019
2508 Clear 19 1019 68 10000 1 0 10:41 04.09.2019
2509 Clear 18 1019 68 10000 1 0 10:23 04.09.2019
2510 Clear 16 1019 77 10000 3.88 251.976 09:47 04.09.2019
2511 Clear 15 1019 77 10000 1.77 233.946 09:27 04.09.2019
2512 Clear 13 1020 82 10000 0.5 0 08:59 04.09.2019
2513 Clear 12 1020 87 10000 1.5 340 08:40 04.09.2019
2514 Fog 11 1020 81 10000 1.5 10 08:21 04.09.2019
2515 Fog 11 1020 93 10000 2.1 360 07:49 04.09.2019
2516 Fog 11 1020 93 10000 2.1 360 07:29 04.09.2019
2517 Fog 11 1020 87 10000 1.5 50 06:40 04.09.2019
2518 Fog 11 1021 81 10000 1.5 10 05:51 04.09.2019
2519 Clear 12 1021 87 10000 1 0 04:52 04.09.2019
2520 Clear 12 1022 87 10000 1.5 360 04:18 04.09.2019
2521 Clear 13 1023 76 10000 1.5 350 01:39 04.09.2019
2522 Clear 14 1023 77 10000 1 360 00:54 04.09.2019
2523 Clear 14 1023 77 10000 1 360 00:33 04.09.2019
2524 Clear 15 1023 72 10000 1 360 23:56 03.09.2019
2525 Clear 16 1024 72 10000 1.5 10 23:38 03.09.2019
2526 Clear 16 1024 67 10000 1.5 360 23:19 03.09.2019
2527 Clear 16 1024 63 10000 2.1 10 22:40 03.09.2019
2528 Clear 17 1024 63 10000 2.1 10 22:22 03.09.2019
2529 Clear 17 1024 63 10000 2.6 360 21:56 03.09.2019
2530 Clear 18 1024 59 10000 3.1 350 21:38 03.09.2019
2531 Clear 18 1024 59 10000 3.1 350 21:20 03.09.2019
2532 Clear 20 1023 52 10000 4.1 360 20:43 03.09.2019
2533 Clear 21 1023 49 10000 3.1 320 20:24 03.09.2019
2534 Clear 20 1023 52 10000 4.1 360 20:24 03.09.2019
2535 Clear 21 1023 49 10000 3.1 320 19:57 03.09.2019
2536 Clear 22 1023 46 10000 3.1 320 19:38 03.09.2019
2537 Clear 22 1023 43 10000 3.6 310 19:19 03.09.2019
2538 Clear 23 1023 43 10000 3.6 310 18:56 03.09.2019
2539 Clear 23 1023 43 10000 3.1 330 18:38 03.09.2019
2540 Clear 24 1024 41 10000 2.6 0 18:18 03.09.2019
2541 Clear 24 1024 40 10000 3.1 260 17:42 03.09.2019
2542 Clear 24 1024 40 10000 3.1 260 17:21 03.09.2019
2543 Clear 23 1024 43 10000 3.1 270 16:59 03.09.2019
2544 Clear 23 1025 40 10000 2.6 250 16:41 03.09.2019
2545 Clear 23 1025 40 10000 2.6 250 16:22 03.09.2019
2546 Clouds 23 1025 46 10000 2.1 260 15:42 03.09.2019
2547 Clouds 23 1025 46 10000 2.1 260 15:42 03.09.2019
2548 Clouds 23 1025 46 10000 2.1 260 15:22 03.09.2019
2549 Clouds 22 1026 46 10000 3.1 280 14:59 03.09.2019
2550 Clouds 22 1026 46 10000 2.6 0 14:41 03.09.2019
2551 Clouds 22 1026 46 10000 2.6 0 14:21 03.09.2019
2552 Clouds 22 1026 49 10000 2.6 300 13:58 03.09.2019
2553 Clouds 21 1026 49 10000 3.1 210 13:38 03.09.2019
2554 Clouds 21 1026 52 10000 2.6 310 13:20 03.09.2019
2555 Clouds 21 1026 52 10000 2.6 310 13:20 03.09.2019
2556 Clouds 21 1026 52 10000 2.6 310 12:57 03.09.2019
2557 Clouds 20 1027 55 10000 3.6 320 12:39 03.09.2019
2558 Clouds 20 1027 55 10000 3.6 320 12:21 03.09.2019
2559 Clear 19 1027 59 10000 2.6 260 11:43 03.09.2019
2560 Clear 18 1027 63 10000 2.6 240 11:23 03.09.2019
2561 Clear 18 1027 63 10000 2.6 240 11:23 03.09.2019
2562 Clear 18 1027 63 10000 2.6 240 10:58 03.09.2019
2563 Clear 17 1027 72 10000 2.6 250 10:39 03.09.2019
2564 Clear 17 1027 72 10000 2.6 250 10:20 03.09.2019
2565 Clear 15 1027 72 10000 1 0 09:48 03.09.2019
2566 Clear 15 1027 72 10000 1 0 09:48 03.09.2019
2567 Clear 14 1027 72 10000 1 0 09:30 03.09.2019
2568 Clear 13 1026 76 10000 1.44 273.547 08:57 03.09.2019
2569 Clear 12 1026 76 10000 1.44 273.547 08:37 03.09.2019
2570 Clear 11 1026 76 10000 1.44 273.547 08:19 03.09.2019
2571 Clear 10 1026 87 10000 1 20 07:42 03.09.2019
2572 Clear 10 1026 87 10000 1 20 07:23 03.09.2019
2573 Clear 10 1026 81 10000 0.5 20 06:45 03.09.2019
2574 Clear 10 1026 81 10000 0.5 20 06:27 03.09.2019
2575 Clear 11 1026 76 10000 1.5 350 03:44 03.09.2019
2576 Clear 12 1026 71 10000 1 0 02:47 03.09.2019
2577 Clear 12 1026 71 10000 1 0 02:26 03.09.2019
2578 Clear 12 1026 66 10000 0.5 10 01:52 03.09.2019
2579 Clear 13 1026 66 10000 0.5 10 01:33 03.09.2019
2580 Clear 13 1026 62 10000 1.54 312.583 00:56 03.09.2019
2581 Clear 14 1026 55 10000 1 340 00:26 03.09.2019
2582 Clear 14 1026 55 10000 1.5 320 23:41 02.09.2019
2583 Clear 14 1026 55 10000 1.5 320 23:20 02.09.2019
2584 Clear 15 1026 51 10000 2.6 340 22:57 02.09.2019
2585 Clear 15 1025 48 10000 3.6 330 22:39 02.09.2019
2586 Clear 16 1025 39 10000 1.5 310 22:21 02.09.2019
2587 Clear 17 1025 39 10000 1.5 310 21:58 02.09.2019
2588 Clear 17 1025 39 10000 1.5 320 21:40 02.09.2019
2589 Clear 18 1025 34 10000 1.5 0 21:20 02.09.2019
2590 Clear 19 1025 34 10000 1.5 0 20:59 02.09.2019
2591 Clear 20 1024 32 10000 2.6 290 20:40 02.09.2019
2592 Clear 20 1024 30 10000 2.6 310 20:19 02.09.2019
2593 Clear 21 1024 30 10000 2.6 310 19:57 02.09.2019
2594 Clear 21 1024 30 10000 2.1 310 19:39 02.09.2019
2595 Clear 22 1024 33 10000 2.1 10 19:20 02.09.2019
2596 Clear 22 1024 33 10000 3.6 10 18:41 02.09.2019
2597 Clear 22 1024 31 10000 2.1 320 18:22 02.09.2019
2598 Clear 22 1024 33 10000 3.6 320 17:58 02.09.2019
2599 Clear 22 1024 33 10000 3.6 320 17:39 02.09.2019
2600 Clouds 23 1024 33 10000 1.5 0 17:21 02.09.2019
2601 Clear 23 1024 33 10000 3.6 320 17:21 02.09.2019
2602 Clouds 22 1024 33 10000 1.5 0 16:58 02.09.2019
2603 Clear 22 1025 33 10000 1.5 0 16:38 02.09.2019
2604 Clear 22 1025 35 10000 2.6 0 16:20 02.09.2019
2605 Clear 22 1025 35 10000 2.6 10 15:45 02.09.2019
2606 Clear 22 1025 35 10000 2.6 10 15:22 02.09.2019
2607 Clear 22 1025 40 10000 3.6 350 14:57 02.09.2019
2608 Clear 22 1025 40 10000 3.6 350 14:57 02.09.2019
2609 Clear 21 1025 35 10000 1.5 0 14:38 02.09.2019
2610 Clear 21 1025 35 10000 1.5 0 14:20 02.09.2019
2611 -273 0 0 0 0 0 13:55 02.09.2019
2612 Clear 20 1025 40 10000 3.1 340 13:55 02.09.2019
2613 Clear 20 1025 40 10000 3.1 340 13:36 02.09.2019
2614 Clear 20 1025 40 10000 3.1 340 13:36 02.09.2019
2615 Clear 20 1025 42 10000 2.6 350 13:18 02.09.2019
2616 Clouds 20 1025 45 10000 2.6 340 12:43 02.09.2019
2617 Clouds 19 1025 45 10000 2.6 340 12:24 02.09.2019
2618 Clear 19 1025 55 10000 2.1 320 11:58 02.09.2019
2619 Clear 19 1025 55 10000 1 0 11:38 02.09.2019
2620 Clear 18 1025 59 10000 1.5 350 11:20 02.09.2019
2621 Clear 17 1025 59 10000 1.5 350 10:56 02.09.2019
2622 Clear 16 1025 63 10000 1 0 10:37 02.09.2019
2623 Clear 16 1025 63 10000 1 0 10:19 02.09.2019
2624 Clear 14 1025 71 10000 1 0 09:45 02.09.2019
2625 Clear 13 1024 81 10000 1.68 319.199 09:22 02.09.2019
2626 Clear 11 1024 81 10000 1 20 08:45 02.09.2019
2627 Clear 11 1024 81 10000 1 20 08:45 02.09.2019
2628 Clear 10 1024 81 10000 1 20 08:23 02.09.2019
2629 Clear 10 1024 81 10000 1 10 07:58 02.09.2019
2630 Clear 9 1023 81 10000 1 0 07:40 02.09.2019
2631 Clear 9 1023 81 10000 1 0 07:21 02.09.2019
2632 Clear 9 1023 81 10000 1.68 319.199 06:44 02.09.2019
2633 Clear 9 1023 81 10000 1.79 303.583 06:22 02.09.2019
2634 Clear 9 1023 76 10000 1.79 303.583 05:44 02.09.2019
2635 Clear 10 1023 76 10000 1.79 303.583 05:18 02.09.2019
2636 Clear 12 1023 71 10000 1 0 02:59 02.09.2019
2637 Clear 13 1022 62 10000 1 0 01:45 02.09.2019
2638 Clear 14 1022 58 10000 2.6 320 00:47 02.09.2019
2639 Clear 14 1022 58 10000 2.6 320 00:28 02.09.2019
2640 Clear 15 1021 51 10000 2.6 330 23:43 01.09.2019
2641 Clear 15 1021 51 10000 2.6 330 23:22 01.09.2019
2642 Clear 16 1021 51 10000 2.1 330 22:58 01.09.2019
2643 Clear 16 1021 51 10000 3.6 330 22:39 01.09.2019
2644 Clear 17 1020 48 10000 3.1 330 22:19 01.09.2019
2645 Clear 17 1020 48 10000 3.1 330 21:57 01.09.2019
2646 Clear 18 1020 45 10000 4.1 330 21:38 01.09.2019
2647 Clear 18 1020 45 10000 4.1 330 21:20 01.09.2019
2648 Clear 19 1019 45 10000 3.1 330 20:56 01.09.2019
2649 Clear 19 1019 42 10000 5.1 330 20:36 01.09.2019
2650 Clear 20 1018 40 10000 5.1 330 20:18 01.09.2019
2651 Clear 20 1018 40 10000 5.1 330 20:18 01.09.2019
2652 Clear 20 1018 40 10000 5.1 330 19:56 01.09.2019
2653 Clear 21 1018 40 10000 3.6 310 19:37 01.09.2019
2654 Clear 21 1018 37 10000 3.6 300 19:18 01.09.2019
2655 Clear 22 1017 35 10000 4.1 310 18:43 01.09.2019
2656 Clear 22 1017 35 10000 4.1 310 18:25 01.09.2019
2657 Clear 22 1017 33 10000 2.6 0 17:55 01.09.2019
2658 Clear 23 1017 33 10000 2.6 0 17:37 01.09.2019
2659 Clear 22 1017 35 10000 2.6 260 17:18 01.09.2019
2660 Clear 22 1018 37 10000 2.6 320 16:39 01.09.2019
2661 Clear 23 1018 37 10000 3.6 340 16:19 01.09.2019
2662 Clear 22 1018 35 10000 3.1 300 15:48 01.09.2019
2663 Clear 22 1018 35 10000 3.1 300 15:29 01.09.2019
2664 Clear 22 1018 40 10000 2.1 310 14:59 01.09.2019
2665 Clouds 21 1018 43 10000 2.6 260 14:40 01.09.2019
2666 Clouds 21 1018 43 10000 2.6 260 14:20 01.09.2019
2667 Clouds 21 1018 45 10000 4.1 340 13:54 01.09.2019
2668 Clouds 21 1018 45 10000 4.1 340 13:54 01.09.2019
2669 Clouds 21 1018 45 10000 2.1 320 13:36 01.09.2019
2670 Clouds 20 1018 52 10000 1.5 230 13:18 01.09.2019
2671 Clouds 20 1018 59 10000 3.1 300 12:41 01.09.2019
2672 Clouds 19 1018 59 10000 3.1 300 12:22 01.09.2019
2673 Clear 18 1018 72 10000 2.6 290 11:41 01.09.2019
2674 Clear 18 1018 72 10000 2.6 290 11:41 01.09.2019
2675 Clear 18 1018 72 10000 2.6 290 11:20 01.09.2019
2676 Clear 17 1018 72 10000 2.6 320 10:59 01.09.2019
2677 Clear 17 1017 77 10000 2.6 290 10:41 01.09.2019
2678 Clear 16 1017 77 10000 2.6 290 10:21 01.09.2019
2679 Clear 15 1016 72 10000 2.6 290 09:43 01.09.2019
2680 Clear 15 1016 72 10000 2.6 290 09:25 01.09.2019
2681 Clear 15 1016 82 10000 2.6 260 08:44 01.09.2019
2682 Clear 15 1016 82 10000 2.6 260 08:24 01.09.2019
2683 Clear 15 1016 77 10000 1.5 0 07:56 01.09.2019
2684 Clear 15 1016 82 10000 2.1 270 07:38 01.09.2019
2685 Clear 15 1016 82 10000 2.1 270 07:38 01.09.2019
2686 Clouds 15 1015 77 10000 2.6 280 06:51 01.09.2019
2687 Clouds 15 1015 77 10000 2.6 280 06:28 01.09.2019
2688 Rain 16 1015 77 10000 2.1 280 05:56 01.09.2019
2689 Clouds 16 1015 72 10000 3.1 300 04:32 01.09.2019
2690 Rain 17 1015 72 10000 4.1 280 03:42 01.09.2019
2691 Clouds 17 1015 72 10000 3.6 300 02:58 01.09.2019
2692 Rain 17 1015 72 10000 4.1 300 02:28 01.09.2019
2693 Clear 17 1015 72 10000 3.6 290 01:51 01.09.2019
2694 Clear 17 1015 72 10000 3.6 290 01:51 01.09.2019
2695 Clear 17 1014 72 10000 2.1 320 01:24 01.09.2019
2696 Clear 17 1014 68 10000 3.1 290 00:46 01.09.2019
2697 Clear 18 1014 68 10000 3.1 290 00:23 01.09.2019
2698 Clear 18 1014 63 10000 2.6 290 23:55 31.08.2019
2699 Clear 18 1014 63 10000 3.1 300 23:36 31.08.2019
2700 Clear 19 1014 60 10000 3.1 290 23:18 31.08.2019
2701 Clear 19 1013 56 10000 3.6 290 22:44 31.08.2019
2702 Clear 20 1013 56 10000 3.6 290 22:25 31.08.2019
2703 Clear 20 1013 60 10000 3.6 290 21:58 31.08.2019
2704 Clear 21 1013 56 10000 3.6 290 21:39 31.08.2019
2705 Clear 21 1013 56 10000 3.6 290 21:39 31.08.2019
2706 Clear 21 1013 56 10000 3.6 290 21:20 31.08.2019
2707 Clear 22 1012 56 10000 5.1 290 20:49 31.08.2019
2708 Clear 23 1012 53 10000 4.6 290 20:31 31.08.2019
2709 Clear 24 1011 50 10000 5.7 290 19:57 31.08.2019
2710 Clear 25 1010 50 10000 4.6 310 19:39 31.08.2019
2711 Clear 26 1010 44 10000 5.7 300 19:21 31.08.2019
2712 Clear 26 1010 44 10000 5.7 300 19:21 31.08.2019
2713 Clear 27 1009 39 10000 5.1 310 18:40 31.08.2019
2714 Clear 28 1009 37 10000 5.7 230 18:21 31.08.2019
2715 Clear 29 1009 37 10000 5.7 230 17:58 31.08.2019
2716 Clear 29 1009 37 10000 4.6 230 17:37 31.08.2019
2717 Clear 29 1009 37 10000 4.6 230 17:19 31.08.2019
2718 Clear 30 1009 37 10000 5.1 220 16:59 31.08.2019
2719 Clear 30 1010 37 10000 5.1 240 16:41 31.08.2019
2720 Clear 30 1010 37 10000 5.1 240 16:21 31.08.2019
2721 Clear 31 1010 35 10000 6.2 220 15:59 31.08.2019
2722 Clear 30 1010 40 10000 4.6 250 15:38 31.08.2019
2723 Clear 30 1010 40 10000 4.6 250 15:18 31.08.2019
2724 Clear 30 1011 39 10000 5.1 230 14:41 31.08.2019
2725 Clear 30 1011 39 10000 5.1 230 14:22 31.08.2019
2726 Clear 29 1012 42 10000 3.6 200 13:42 31.08.2019
2727 Clear 29 1012 42 10000 3.6 200 13:23 31.08.2019
2728 Clear 29 1012 42 10000 3.6 200 13:23 31.08.2019
2729 Clear 28 1012 44 10000 4.1 210 12:59 31.08.2019
2730 Clear 28 1012 44 10000 4.1 210 12:59 31.08.2019
2731 Clear 27 1012 44 10000 4.1 190 12:40 31.08.2019
2732 Clear 26 1012 44 10000 3.6 180 12:21 31.08.2019
2733 Clear 26 1012 44 10000 3.6 180 12:21 31.08.2019
2734 Clear 25 1012 44 10000 3.6 180 11:58 31.08.2019
2735 Clear 25 1012 47 10000 3.1 160 11:40 31.08.2019
2736 Clear 24 1012 47 10000 3.1 160 11:22 31.08.2019
2737 Clear 22 1013 46 10000 1 0 10:43 31.08.2019
2738 Clear 21 1013 46 10000 1 0 10:20 31.08.2019
2739 Clear 20 1013 49 10000 1.5 80 10:00 31.08.2019
2740 Clear 19 1013 55 10000 2.1 50 09:39 31.08.2019
2741 Clear 18 1013 55 10000 2.1 50 09:21 31.08.2019
2742 Clear 17 1014 59 10000 2.1 30 08:45 31.08.2019
2743 Clear 16 1014 59 10000 2.1 30 08:27 31.08.2019
2744 Clear 15 1014 62 10000 2.1 10 07:43 31.08.2019
2745 Clear 15 1014 62 10000 2.1 20 07:23 31.08.2019
2746 Clear 15 1015 62 10000 2.1 20 06:56 31.08.2019
2747 Clear 15 1015 62 10000 1.5 10 06:23 31.08.2019
2748 Clear 16 1016 62 10000 1.5 20 05:49 31.08.2019
2749 Clear 16 1016 62 10000 1.5 20 05:27 31.08.2019
2750 Clear 16 1016 59 10000 1 20 04:28 31.08.2019
2751 Clear 17 1017 63 10000 2.1 20 03:42 31.08.2019
2752 Clear 17 1018 55 10000 1 0 02:20 31.08.2019
2753 Clear 17 1019 48 10000 1.5 40 01:47 31.08.2019
2754 Clear 18 1019 48 10000 1 0 01:28 31.08.2019
2755 Clear 19 1019 48 10000 1 0 00:45 31.08.2019
2756 Clear 19 1019 45 10000 1 0 00:27 31.08.2019
2757 Clear 19 1019 45 10000 1 0 00:27 31.08.2019
2758 Clear 19 1019 48 10000 3.1 60 23:48 30.08.2019
2759 Clear 19 1020 45 10000 1.5 20 23:19 30.08.2019
2760 Clear 19 1020 45 10000 1.5 20 23:19 30.08.2019
2761 Clear 19 1020 45 10000 1.5 20 22:58 30.08.2019
2762 Clear 20 1020 43 10000 2.6 30 22:38 30.08.2019
2763 Clear 21 1020 43 10000 2.6 30 22:19 30.08.2019
2764 Clear 20 1020 43 10000 2.6 30 21:56 30.08.2019
2765 Clear 22 1020 43 10000 3.1 40 21:36 30.08.2019
2766 Clear 22 1020 43 10000 3.1 40 21:18 30.08.2019
2767 Clear 23 1020 41 10000 2.1 20 20:55 30.08.2019
2768 Clear 24 1020 38 10000 2.1 360 20:37 30.08.2019
2769 Clear 25 1020 36 10000 2.1 30 20:18 30.08.2019
2770 Clear 26 1020 32 10000 1 0 19:41 30.08.2019
2771 Clear 26 1020 34 10000 1.5 10 19:22 30.08.2019
2772 Clear 26 1020 34 10000 1.5 10 18:59 30.08.2019
2773 Clear 27 1020 36 10000 1.5 100 18:41 30.08.2019
2774 Clear 27 1020 36 10000 1.5 100 18:23 30.08.2019
2775 Clear 27 1021 36 10000 1 0 17:56 30.08.2019
2776 Clear 27 1021 34 10000 1 0 17:38 30.08.2019
2777 Clear 27 1021 34 10000 1 0 17:19 30.08.2019
2778 Clear 27 1021 32 10000 1.5 0 16:48 30.08.2019
2779 Clear 27 1021 32 10000 1 0 16:29 30.08.2019
2780 Clear 27 1022 34 10000 1.5 0 15:58 30.08.2019
2781 Clear 26 1022 33 10000 1.5 70 15:38 30.08.2019
2782 Clear 26 1022 33 10000 1.5 70 15:19 30.08.2019
2783 Clear 26 1022 33 10000 1.5 70 15:19 30.08.2019
2784 Clear 25 1023 38 10000 1.5 0 14:44 30.08.2019
2785 Clear 25 1023 38 10000 1.5 0 14:25 30.08.2019
2786 Clear 24 1023 43 10000 1.5 0 13:56 30.08.2019
2787 Clear 24 1023 43 10000 1.5 0 13:37 30.08.2019
2788 Clear 23 1024 40 10000 1.5 0 13:19 30.08.2019
2789 Clear 23 1024 43 10000 2.1 110 12:42 30.08.2019
2790 Clear 23 1024 43 10000 2.1 110 12:42 30.08.2019
2791 Clear 22 1024 46 10000 1 0 12:23 30.08.2019
2792 Clear 22 1024 52 10000 1.5 0 11:55 30.08.2019
2793 Clear 21 1024 52 10000 1.5 0 11:37 30.08.2019
2794 Clear 20 1024 59 10000 1.5 0 11:18 30.08.2019
2795 Clear 19 1024 63 10000 1 0 10:37 30.08.2019
2796 Clear 18 1024 63 10000 1 0 10:19 30.08.2019
2797 Clear 17 1024 77 10000 1.5 0 09:42 30.08.2019
2798 Clear 16 1024 77 10000 1.5 0 09:20 30.08.2019
2799 Clear 16 1024 76 10000 1.5 350 09:20 30.08.2019
2800 Clear 15 1024 76 10000 1.5 350 09:00 30.08.2019
2801 Clear 14 1024 81 10000 0.5 340 08:41 30.08.2019
2802 Clear 12 1024 81 10000 0.5 340 08:22 30.08.2019
2803 Clear 11 1024 81 10000 1.5 350 07:45 30.08.2019
2804 Clear 11 1024 81 10000 1.5 350 07:25 30.08.2019
2805 Clear 11 1023 81 10000 1.5 20 06:49 30.08.2019
2806 Clear 12 1023 81 10000 1.5 20 06:30 30.08.2019
2807 Clear 12 1024 76 10000 1.5 360 05:59 30.08.2019
2808 Clear 12 1023 76 10000 2.1 340 04:59 30.08.2019
2809 Clear 13 1023 76 10000 1 340 03:55 30.08.2019
2810 Clear 13 1023 71 10000 1.99 30.524 03:34 30.08.2019
2811 Clear 14 1024 67 10000 1.99 30.524 02:35 30.08.2019
2812 Clear 15 1024 59 10000 2.1 350 01:40 30.08.2019
2813 Clear 16 1023 55 10000 2.6 360 00:46 30.08.2019
2814 Clear 16 1023 55 10000 2.6 360 00:18 30.08.2019
2815 Clear 17 1023 55 10000 3.1 360 23:46 29.08.2019
2816 Clear 17 1023 55 10000 3.1 360 23:21 29.08.2019
2817 Clear 17 1023 55 10000 3.1 360 23:21 29.08.2019
2818 Clear 17 1023 55 10000 3.1 360 23:21 29.08.2019
2819 Clear 18 1022 55 10000 1.5 340 22:45 29.08.2019
2820 Clear 18 1022 55 10000 1.5 340 22:27 29.08.2019
2821 Clear 18 1022 52 10000 2.1 340 21:58 29.08.2019
2822 Clear 19 1022 49 10000 2.6 330 21:40 29.08.2019
2823 Clear 20 1022 49 10000 2.6 330 21:21 29.08.2019
2824 Clear 21 1021 46 10000 2.6 330 20:58 29.08.2019
2825 Clear 22 1021 43 10000 2.6 330 20:39 29.08.2019
2826 Clouds 23 1021 41 10000 2.1 320 20:19 29.08.2019
2827 Clear 24 1021 41 10000 1.5 300 19:47 29.08.2019
2828 Clear 24 1021 41 10000 2.1 310 19:26 29.08.2019
2829 Clear 24 1021 41 10000 2.6 290 18:58 29.08.2019
2830 Clear 24 1021 41 10000 2.6 290 18:40 29.08.2019
2831 Clear 25 1021 41 10000 3.6 290 18:19 29.08.2019
2832 Clear 25 1021 44 10000 3.1 0 17:56 29.08.2019
2833 Clear 24 1021 44 10000 3.1 0 17:36 29.08.2019
2834 Clear 24 1021 44 10000 4.1 240 17:18 29.08.2019
2835 Clouds 24 1021 46 10000 2.6 300 16:42 29.08.2019
2836 Clouds 24 1022 56 10000 2.6 300 16:23 29.08.2019
2837 Clouds 24 1022 56 10000 2.6 300 15:54 29.08.2019
2838 Clouds 23 1022 56 10000 2.6 290 15:36 29.08.2019
2839 Clouds 23 1022 56 10000 2.1 280 15:18 29.08.2019
2840 Clouds 22 1022 64 10000 3.6 330 14:42 29.08.2019
2841 Clouds 22 1022 60 10000 4.1 260 14:21 29.08.2019
2842 Clouds 21 1022 60 10000 4.1 260 13:57 29.08.2019
2843 Clouds 21 1022 64 10000 3.6 260 13:39 29.08.2019
2844 Clouds 21 1022 68 10000 3.1 280 13:19 29.08.2019
2845 Clouds 21 1022 68 10000 3.1 280 12:57 29.08.2019
2846 Clouds 20 1022 68 10000 3.1 280 12:38 29.08.2019
2847 Clouds 20 1021 68 10000 3.6 270 12:20 29.08.2019
2848 Clouds 20 1021 68 10000 3.6 270 11:57 29.08.2019
2849 Clouds 20 1021 68 10000 3.6 280 11:36 29.08.2019
2850 Clouds 20 1021 68 10000 3.6 270 11:18 29.08.2019
2851 Clouds 19 1020 72 10000 3.1 290 10:42 29.08.2019
2852 Clouds 19 1020 72 10000 3.1 290 10:23 29.08.2019
2853 Clouds 19 1020 77 10000 2.1 280 09:42 29.08.2019
2854 Clouds 19 1020 77 10000 2.1 280 09:21 29.08.2019
2855 Clouds 18 1020 77 10000 3.1 280 08:58 29.08.2019
2856 Clouds 18 1019 77 10000 2.6 260 08:39 29.08.2019
2857 Clouds 17 1019 77 10000 2.6 260 08:21 29.08.2019
2858 Clouds 18 1019 77 10000 3.1 260 07:48 29.08.2019
2859 Clouds 18 1019 77 10000 3.1 260 07:26 29.08.2019
2860 Clouds 18 1018 82 10000 1.5 240 06:47 29.08.2019
2861 Clouds 18 1018 82 10000 1.5 240 06:28 29.08.2019
2862 Clouds 18 1018 82 10000 2.1 250 05:41 29.08.2019
2863 Clouds 18 1018 82 10000 2.6 250 04:50 29.08.2019
2864 Clouds 18 1018 82 10000 2.6 250 04:29 29.08.2019
2865 Clear 18 1017 77 10000 2.6 250 02:49 29.08.2019
2866 Clear 19 1018 73 10000 2.1 270 01:49 29.08.2019
2867 Clear 19 1018 73 10000 2.6 240 01:30 29.08.2019
2868 Clouds 20 1017 73 10000 3.6 250 00:40 29.08.2019
2869 Clear 20 1017 68 10000 3.1 270 00:20 29.08.2019
2870 Clear 20 1017 73 10000 1.5 0 23:44 28.08.2019
2871 Clear 20 1017 73 10000 1.5 0 23:25 28.08.2019
2872 Clear 21 1016 73 10000 1 0 22:59 28.08.2019
2873 Clear 21 1016 73 10000 1.5 320 22:39 28.08.2019
2874 Clear 22 1016 73 10000 1.5 330 22:18 28.08.2019
2875 Clear 22 1016 73 10000 1.5 330 21:57 28.08.2019
2876 Clear 22 1016 69 10000 2.1 320 21:39 28.08.2019
2877 Clear 22 1016 69 10000 2.1 320 21:20 28.08.2019
2878 Clear 23 1015 64 10000 3.1 310 20:42 28.08.2019
2879 Clear 24 1015 64 10000 3.1 310 20:24 28.08.2019
2880 Clear 25 1015 64 10000 4.6 300 19:57 28.08.2019
2881 Clear 25 1014 48 10000 4.1 240 19:39 28.08.2019
2882 Clear 26 1014 48 10000 5.1 230 19:20 28.08.2019
2883 Clear 27 1014 48 10000 4.1 240 18:42 28.08.2019
2884 Clear 27 1014 48 10000 4.1 240 18:22 28.08.2019
2885 Clear 28 1014 45 10000 3.6 240 17:57 28.08.2019
2886 Clear 28 1014 45 10000 4.1 240 17:37 28.08.2019
2887 Clear 28 1014 45 10000 4.1 240 17:19 28.08.2019
2888 Clouds 29 1015 45 10000 5.7 210 16:43 28.08.2019
2889 Clear 28 1015 45 10000 5.7 250 16:19 28.08.2019
2890 Clear 28 1015 45 10000 5.7 250 15:58 28.08.2019
2891 Clear 28 1015 42 10000 5.1 230 15:37 28.08.2019
2892 Clear 28 1015 45 10000 5.1 200 15:18 28.08.2019
2893 Clear 28 1015 45 10000 5.1 200 14:56 28.08.2019
2894 Clear 28 1015 42 10000 4.6 210 14:37 28.08.2019
2895 Clear 28 1015 42 10000 5.1 200 14:19 28.08.2019
2896 Clear 28 1015 48 10000 4.1 190 13:56 28.08.2019
2897 Clear 28 1015 48 10000 4.1 190 13:37 28.08.2019
2898 Clear 27 1015 51 10000 4.1 220 13:18 28.08.2019
2899 Clear 27 1015 51 10000 2.6 210 12:41 28.08.2019
2900 Clear 26 1015 51 10000 2.6 210 12:23 28.08.2019
2901 Clear 25 1015 60 10000 2.1 230 11:42 28.08.2019
2902 Clear 24 1015 60 10000 2.1 230 11:23 28.08.2019
2903 Clear 24 1015 64 10000 1.5 200 10:59 28.08.2019
2904 Clear 23 1015 64 10000 1 0 10:41 28.08.2019
2905 Clear 22 1015 64 10000 1 0 10:21 28.08.2019
2906 Clear 21 1015 68 10000 1 160 09:58 28.08.2019
2907 Clear 20 1016 68 10000 1 0 09:39 28.08.2019
2908 Clear 20 1016 68 10000 1 0 09:18 28.08.2019
2909 Clear 19 1015 77 10000 1 150 08:39 28.08.2019
2910 Clouds 18 1015 72 10000 1.5 230 08:20 28.08.2019
2911 Clear 18 1015 77 10000 2.59 236.255 07:40 28.08.2019
2912 Clear 18 1015 77 10000 2.59 236.255 07:22 28.08.2019
2913 Clouds 18 1015 77 10000 1 190 06:51 28.08.2019
2914 Clear 18 1015 72 10000 1 350 06:32 28.08.2019
2915 Clear 18 1015 68 10000 0.5 0 05:42 28.08.2019
2916 Clear 20 1015 64 10000 2.1 150 02:48 28.08.2019
2917 Clear 21 1015 60 10000 2.6 230 01:32 28.08.2019
2918 Clear 21 1015 57 10000 3.1 260 00:55 28.08.2019
2919 Thunderstorm 22 1015 53 10000 3.1 240 00:37 28.08.2019
2920 Clear 23 1014 57 10000 4.6 240 23:59 27.08.2019
2921 Rain 24 1014 57 10000 3.1 230 23:39 27.08.2019
2922 Rain 24 1014 57 10000 3.1 230 23:21 27.08.2019
2923 Thunderstorm 24 1015 53 10000 1.5 200 22:43 27.08.2019
2924 Thunderstorm 24 1015 53 10000 1.5 200 22:23 27.08.2019
2925 Thunderstorm 26 1014 42 10000 4.1 230 21:57 27.08.2019
2926 Rain 26 1014 39 10000 5.7 250 21:39 27.08.2019
2927 Rain 26 1014 39 10000 5.7 250 21:21 27.08.2019
2928 Clouds 27 1013 37 10000 4.6 250 20:59 27.08.2019
2929 Thunderstorm 28 1013 40 10000 4.6 240 20:40 27.08.2019
2930 Rain 28 1012 37 10000 2.1 220 20:20 27.08.2019
2931 Thunderstorm 29 1012 35 10000 2.6 190 19:57 27.08.2019
2932 Thunderstorm 30 1012 35 10000 2.6 190 19:39 27.08.2019
2933 Thunderstorm 30 1012 35 10000 2.6 190 19:20 27.08.2019
2934 Clear 31 1013 33 10000 3.6 190 18:42 27.08.2019
2935 Clear 32 1013 33 10000 2.6 180 18:19 27.08.2019
2936 Clear 32 1013 33 10000 2.6 180 17:59 27.08.2019
2937 Rain 32 1013 33 10000 2.6 180 17:41 27.08.2019
2938 Rain 32 1013 33 10000 2.6 180 17:22 27.08.2019
2939 Clear 32 1013 31 10000 2.6 220 16:47 27.08.2019
2940 Clear 32 1013 31 10000 3.6 170 16:28 27.08.2019
2941 Clear 32 1013 33 10000 3.6 150 15:58 27.08.2019
2942 Clear 32 1013 33 10000 3.6 150 15:39 27.08.2019
2943 Clear 32 1013 38 10000 1.5 0 15:20 27.08.2019
2944 Clear 31 1013 38 10000 1.5 0 14:55 27.08.2019
2945 Clear 31 1014 42 10000 1.5 0 14:37 27.08.2019
2946 Clear 30 1014 45 10000 3.6 150 14:18 27.08.2019
2947 Clear 29 1014 45 10000 2.1 150 13:41 27.08.2019
2948 Clear 29 1014 45 10000 2.1 150 13:21 27.08.2019
2949 Clear 28 1014 51 10000 1.5 60 12:55 27.08.2019
2950 Clear 28 1014 51 10000 1.5 60 12:36 27.08.2019
2951 Clear 27 1015 50 10000 1.5 70 12:18 27.08.2019
2952 Clear 26 1015 53 10000 1.5 100 11:42 27.08.2019
2953 Clear 25 1015 53 10000 1.5 100 11:22 27.08.2019
2954 Clear 23 1015 60 10000 1.5 40 10:41 27.08.2019
2955 Clear 23 1015 60 10000 1.5 40 10:20 27.08.2019
2956 Clear 22 1015 64 10000 1 0 09:57 27.08.2019
2957 Clear 21 1014 72 10000 1.5 60 09:38 27.08.2019
2958 Clear 20 1014 72 10000 1.5 60 09:19 27.08.2019
2959 Clear 18 1014 72 10000 1 30 08:46 27.08.2019
2960 Clear 17 1014 72 10000 0.5 0 08:26 27.08.2019
2961 Clear 18 1014 72 10000 0.5 0 07:59 27.08.2019
2962 Clear 17 1014 72 10000 2.1 20 07:37 27.08.2019
2963 Clear 17 1014 72 10000 2.1 20 07:19 27.08.2019
2964 Clear 17 1014 72 10000 1.5 10 06:50 27.08.2019
2965 Clear 18 1014 72 10000 1.5 10 06:50 27.08.2019
2966 Clear 17 1014 72 10000 1.5 10 06:21 27.08.2019
2967 Clear 18 1014 68 10000 2.1 30 05:29 27.08.2019
2968 Clear 18 1015 68 10000 1 0 04:28 27.08.2019
2969 Clear 19 1015 72 10000 1.5 10 03:32 27.08.2019
2970 Clear 20 1015 60 10000 0.5 10 02:22 27.08.2019
2971 Clear 20 1015 60 10000 2.1 360 01:34 27.08.2019
2972 Clear 21 1015 60 10000 2.1 360 00:50 27.08.2019
2973 Clear 22 1015 53 10000 1.5 0 00:29 27.08.2019
2974 Clear 22 1015 50 10000 2.1 10 23:59 26.08.2019
2975 Clear 23 1015 50 10000 2.6 360 23:37 26.08.2019
2976 Clear 23 1015 47 10000 2.6 10 23:19 26.08.2019
2977 Clear 24 1015 42 10000 2.6 20 22:38 26.08.2019
2978 Clear 24 1015 42 10000 2.6 20 22:19 26.08.2019
2979 Clear 25 1015 37 10000 2.1 360 21:57 26.08.2019
2980 Clear 26 1015 37 10000 2.1 360 21:37 26.08.2019
2981 Clear 27 1014 33 10000 2.1 20 21:18 26.08.2019
2982 Clear 28 1014 35 10000 2.6 40 20:54 26.08.2019
2983 Clear 29 1014 35 10000 2.6 40 20:36 26.08.2019
2984 Clear 30 1014 31 10000 2.6 50 20:18 26.08.2019
2985 Clear 31 1015 31 10000 2.6 60 19:42 26.08.2019
2986 Clear 32 1015 25 10000 2.1 20 19:19 26.08.2019
2987 Clear 32 1015 25 10000 2.1 20 19:19 26.08.2019
2988 Clear 32 1015 25 10000 2.1 20 19:19 26.08.2019
2989 Clear 32 1015 27 10000 1.5 0 18:58 26.08.2019
2990 Clear 32 1015 27 10000 1.5 0 18:38 26.08.2019
2991 Clear 33 1015 22 10000 1.5 0 18:19 26.08.2019
2992 Clear 32 1016 26 10000 1 0 17:44 26.08.2019
2993 Clear 33 1016 29 10000 3.1 50 17:20 26.08.2019
2994 Clear 33 1016 29 10000 2.1 0 16:57 26.08.2019
2995 Clear 33 1016 29 10000 2.1 0 16:39 26.08.2019
2996 Clear 32 1016 27 10000 2.1 0 16:18 26.08.2019
2997 Clear 32 1016 29 10000 1.5 0 15:55 26.08.2019
2998 Clear 32 1016 29 10000 1.5 0 15:37 26.08.2019
2999 Clear 32 1017 31 10000 2.6 70 15:18 26.08.2019
3000 Clear 32 1017 33 10000 3.1 40 14:43 26.08.2019
3001 Clear 31 1017 33 10000 2.6 30 14:23 26.08.2019
3002 Clear 31 1017 35 10000 2.6 30 13:56 26.08.2019
3003 Clear 31 1017 35 10000 2.6 30 13:36 26.08.2019
3004 Clear 30 1017 37 10000 2.1 50 13:18 26.08.2019
3005 Clear 29 1018 42 10000 1.5 0 12:43 26.08.2019
3006 Clear 29 1018 45 10000 1.5 0 12:22 26.08.2019
3007 Clear 27 1018 47 10000 1 0 11:44 26.08.2019
3008 Clear 27 1018 47 10000 1 0 11:26 26.08.2019
3009 Clear 25 1018 57 10000 0.5 0 10:59 26.08.2019
3010 Clear 25 1018 57 10000 0.5 0 10:41 26.08.2019
3011 Clear 23 1018 60 10000 1 0 10:19 26.08.2019
3012 Clear 22 1018 64 10000 0.5 0 09:47 26.08.2019
3013 Clear 22 1018 64 10000 0.5 0 09:47 26.08.2019
3014 Clear 20 1018 72 10000 0.91 55.205 09:26 26.08.2019
3015 Clear 18 1018 77 10000 1 350 08:59 26.08.2019
3016 Clear 18 1018 77 10000 1 350 08:41 26.08.2019
3017 Clear 16 1018 82 10000 1 30 08:22 26.08.2019
3018 Clear 15 1018 77 10000 0.5 0 07:59 26.08.2019
3019 Clear 15 1018 77 10000 0.5 0 07:38 26.08.2019
3020 Clear 15 1018 77 10000 1.5 10 07:20 26.08.2019
3021 Clear 15 1017 77 10000 1.5 360 06:40 26.08.2019
3022 Clear 16 1018 72 10000 2.1 10 06:21 26.08.2019
3023 Clear 17 1018 72 10000 1 20 05:48 26.08.2019
3024 Clear 17 1018 72 10000 1 350 04:25 26.08.2019
3025 Clear 19 1018 63 10000 0.5 10 02:51 26.08.2019
3026 Clear 20 1018 56 10000 2.1 360 01:27 26.08.2019
3027 Clear 20 1018 56 10000 1.5 350 00:48 26.08.2019
3028 Clear 21 1018 53 10000 1.5 330 00:28 26.08.2019
3029 Clear 22 1018 53 10000 1 0 23:59 25.08.2019
3030 Clear 22 1018 53 10000 1 0 23:40 25.08.2019
3031 Clear 23 1018 53 10000 1.5 10 23:18 25.08.2019
3032 Clear 24 1018 44 10000 1.5 40 22:55 25.08.2019
3033 Clear 24 1018 44 10000 1.5 40 22:37 25.08.2019
3034 Clear 25 1018 44 10000 2.6 40 22:18 25.08.2019
3035 Clear 25 1017 41 10000 2.6 50 21:55 25.08.2019
3036 Clear 27 1017 37 10000 3.1 40 21:37 25.08.2019
3037 Clear 27 1017 37 10000 3.1 40 21:18 25.08.2019
3038 Clear 29 1017 28 10000 2.1 30 20:39 25.08.2019
3039 Clear 30 1017 25 10000 2.6 20 20:19 25.08.2019
3040 Clear 31 1017 27 10000 2.1 30 19:56 25.08.2019
3041 Clear 31 1017 27 10000 2.1 30 19:37 25.08.2019
3042 Clear 31 1017 27 10000 2.1 30 19:18 25.08.2019
3043 Clear 32 1017 27 10000 2.1 30 18:57 25.08.2019
3044 Clear 32 1017 29 10000 2.6 10 18:39 25.08.2019
3045 Clear 32 1017 29 10000 2.6 10 18:19 25.08.2019
3046 Clear 32 1018 29 10000 3.6 10 17:42 25.08.2019
3047 Clear 32 1017 29 10000 2.1 0 17:24 25.08.2019
3048 Clear 32 1017 29 10000 2.1 50 16:45 25.08.2019
3049 Clear 32 1018 29 10000 2.6 0 16:25 25.08.2019
3050 Clear 32 1018 31 10000 2.1 60 15:59 25.08.2019
3051 Clear 32 1018 31 10000 2.1 60 15:41 25.08.2019
3052 Clear 31 1018 33 10000 2.1 40 15:23 25.08.2019
3053 Clouds 31 1018 37 10000 2.1 40 14:42 25.08.2019
3054 Clouds 31 1018 37 10000 2.1 100 14:23 25.08.2019
3055 Clouds 30 1018 42 10000 1 0 13:56 25.08.2019
3056 Clouds 30 1018 42 10000 1 0 13:37 25.08.2019
3057 Clear 29 1018 39 10000 1 0 13:18 25.08.2019
3058 Clear 29 1018 45 10000 1.5 0 12:41 25.08.2019
3059 Clear 28 1019 47 10000 1 0 12:23 25.08.2019
3060 Clear 27 1019 54 10000 1.5 0 11:57 25.08.2019
3061 Clear 27 1019 54 10000 1.5 0 11:37 25.08.2019
3062 Clear 26 1019 57 10000 1 0 11:19 25.08.2019
3063 Clear 25 1018 64 10000 1 0 10:56 25.08.2019
3064 Clear 25 1018 64 10000 1 0 10:37 25.08.2019
3065 Clear 23 1018 68 10000 1 0 10:19 25.08.2019
3066 Clear 21 1018 68 10000 1 0 09:42 25.08.2019
3067 Clear 19 1018 82 10000 1 360 09:24 25.08.2019
3068 Clear 16 1018 82 10000 1 350 08:47 25.08.2019
3069 Clear 16 1018 82 10000 1 350 08:29 25.08.2019
3070 Clear 15 1017 82 10000 0.5 320 07:54 25.08.2019
3071 Clear 15 1017 77 10000 1 20 07:32 25.08.2019
3072 Clear 15 1017 77 10000 1 20 07:32 25.08.2019
3073 Clear 16 1017 82 10000 2.1 360 06:39 25.08.2019
3074 Clear 17 1017 77 10000 1.5 350 05:27 25.08.2019
3075 Clear 17 1017 77 10000 1.5 10 03:48 25.08.2019
3076 Clear 18 1017 72 10000 1 40 02:43 25.08.2019
3077 Clear 18 1017 68 10000 1.5 60 02:20 25.08.2019
3078 Clear 20 1017 64 10000 2.6 40 00:56 25.08.2019
3079 Clear 20 1017 64 10000 2.1 30 00:24 25.08.2019
3080 Clear 21 1017 56 10000 2.1 30 23:59 24.08.2019
3081 Clear 20 1017 56 10000 2.1 30 23:40 24.08.2019
3082 Clear 21 1017 60 10000 2.1 60 23:22 24.08.2019
3083 Clear 22 1017 56 10000 2.6 60 22:54 24.08.2019
3084 Clear 22 1017 56 10000 2.6 60 22:36 24.08.2019
3085 Clear 23 1017 50 10000 2.6 80 22:18 24.08.2019
3086 Clear 24 1017 47 10000 2.6 100 21:42 24.08.2019
3087 Clear 25 1017 47 10000 2.6 90 21:24 24.08.2019
3088 Clear 25 1017 47 10000 2.6 90 21:24 24.08.2019
3089 Clear 26 1017 39 10000 3.1 100 20:59 24.08.2019
3090 Clear 27 1017 39 10000 3.1 100 20:40 24.08.2019
3091 Clear 28 1017 37 10000 2.1 100 20:20 24.08.2019
3092 Clear 29 1017 37 10000 2.1 100 19:59 24.08.2019
3093 Clear 29 1017 37 10000 2.6 100 19:40 24.08.2019
3094 Clear 30 1017 35 10000 2.1 0 19:22 24.08.2019
3095 Clear 30 1017 37 10000 2.6 130 18:56 24.08.2019
3096 Clear 30 1017 37 10000 2.6 130 18:36 24.08.2019
3097 Clear 30 1017 37 10000 2.1 0 18:18 24.08.2019
3098 Clouds 31 1017 35 10000 1.5 0 17:42 24.08.2019
3099 Clouds 31 1017 35 10000 2.1 120 17:23 24.08.2019
3100 Clouds 31 1018 37 10000 2.1 160 16:42 24.08.2019
3101 Clouds 30 1018 37 10000 1.5 130 16:19 24.08.2019
3102 Clear 30 1018 35 10000 2.1 150 15:55 24.08.2019
3103 Clear 30 1018 35 10000 2.1 150 15:37 24.08.2019
3104 Clear 29 1018 35 10000 3.1 140 15:19 24.08.2019
3105 Clear 29 1018 37 10000 3.1 150 14:42 24.08.2019
3106 Clear 29 1018 42 10000 2.6 170 14:20 24.08.2019
3107 Clear 28 1019 45 10000 2.1 130 13:55 24.08.2019
3108 Clear 28 1019 45 10000 2.1 130 13:37 24.08.2019
3109 Clear 27 1019 47 10000 3.1 110 13:18 24.08.2019
3110 Clear 26 1019 47 10000 1.5 100 12:42 24.08.2019
3111 Clouds 26 1019 53 10000 2.1 100 12:24 24.08.2019
3112 Clear 25 1019 56 10000 1.5 60 11:56 24.08.2019
3113 Clear 24 1019 56 10000 1.5 60 11:38 24.08.2019
3114 Clear 23 1019 60 10000 1.5 60 11:18 24.08.2019
3115 Clear 21 1019 60 10000 2.1 60 10:43 24.08.2019
3116 Clear 21 1020 68 10000 2.6 60 10:22 24.08.2019
3117 Clear 20 1019 72 10000 1 0 09:44 24.08.2019
3118 Clear 18 1019 77 10000 1 0 09:20 24.08.2019
3119 Clear 17 1019 82 10000 1 40 08:56 24.08.2019
3120 Clear 16 1019 82 10000 1 40 08:36 24.08.2019
3121 Clear 14 1019 82 10000 1.5 10 08:18 24.08.2019
3122 Clear 14 1019 82 10000 2.1 10 07:41 24.08.2019
3123 Clear 14 1019 82 10000 1.5 30 07:22 24.08.2019
3124 Clear 15 1019 82 10000 1.5 10 06:24 24.08.2019
3125 Clear 15 1019 82 10000 2.1 10 05:40 24.08.2019
3126 Clear 16 1020 77 10000 1.5 360 03:56 24.08.2019
3127 Clear 16 1020 72 10000 1.5 10 03:35 24.08.2019
3128 Clear 17 1020 68 10000 1.5 20 02:25 24.08.2019
3129 Clear 17 1020 63 10000 1.5 360 01:31 24.08.2019
3130 Clear 18 1020 63 10000 1.5 10 00:52 24.08.2019
3131 Clear 19 1021 60 10000 0.5 0 00:25 24.08.2019
3132 Clear 20 1021 56 10000 1.5 360 23:57 23.08.2019
3133 Clear 20 1021 56 10000 1.5 360 23:37 23.08.2019
3134 Clear 20 1021 53 10000 2.1 10 23:18 23.08.2019
3135 Clear 21 1021 53 10000 2.1 360 22:42 23.08.2019
3136 Clear 21 1021 47 10000 2.6 20 22:23 23.08.2019
3137 Clear 23 1021 47 10000 3.1 30 21:40 23.08.2019
3138 Clear 24 1021 44 10000 3.6 40 21:21 23.08.2019
3139 Clear 25 1021 36 10000 3.1 40 20:56 23.08.2019
3140 Clear 26 1021 36 10000 3.1 40 20:38 23.08.2019
3141 Clear 26 1021 39 10000 4.1 50 20:19 23.08.2019
3142 Clouds 27 1021 37 10000 4.1 40 19:43 23.08.2019
3143 Clouds 27 1021 36 10000 3.6 40 19:18 23.08.2019
3144 Clear 28 1021 34 10000 3.6 30 18:46 23.08.2019
3145 Clear 28 1021 39 10000 3.6 40 18:28 23.08.2019
3146 Clear 28 1022 32 10000 3.6 30 17:56 23.08.2019
3147 Clear 28 1022 32 10000 3.6 30 17:38 23.08.2019
3148 Clear 28 1022 34 10000 3.6 60 17:20 23.08.2019
3149 Clear 28 1022 34 10000 2.6 50 16:47 23.08.2019
3150 Clear 28 1022 37 10000 2.1 20 16:29 23.08.2019
3151 Clear 28 1023 36 10000 3.6 60 15:56 23.08.2019
3152 Clear 28 1023 36 10000 3.6 60 15:37 23.08.2019
3153 Clear 27 1023 39 10000 4.1 40 15:19 23.08.2019
3154 Clear 27 1023 39 10000 1.5 0 14:41 23.08.2019
3155 Clear 26 1023 41 10000 2.6 40 14:21 23.08.2019
3156 Clear 27 1023 41 10000 2.6 40 14:21 23.08.2019
3157 Clear 26 1024 44 10000 3.1 60 13:58 23.08.2019
3158 Clear 26 1024 44 10000 3.1 60 13:40 23.08.2019
3159 Clouds 25 1024 47 10000 3.1 40 13:22 23.08.2019
3160 Clear 25 1024 50 10000 3.1 30 12:58 23.08.2019
3161 Clear 24 1024 50 10000 3.1 30 12:39 23.08.2019
3162 Clear 24 1024 49 10000 3.1 30 12:20 23.08.2019
3163 Clear 23 1025 53 10000 3.1 30 11:56 23.08.2019
3164 Clear 23 1025 53 10000 3.1 30 11:37 23.08.2019
3165 Clear 22 1025 60 10000 2.1 350 11:18 23.08.2019
3166 Clear 20 1025 63 10000 2.1 10 10:44 23.08.2019
3167 Clear 19 1025 68 10000 1.5 350 10:23 23.08.2019
3168 Clear 18 1025 67 10000 2.1 350 09:58 23.08.2019
3169 Clear 18 1025 67 10000 2.1 350 09:39 23.08.2019
3170 Clear 17 1025 77 10000 2.1 350 09:20 23.08.2019
3171 Clear 15 1025 76 10000 1.5 350 08:44 23.08.2019
3172 Clouds 13 1025 82 9000 1.5 340 08:20 23.08.2019
3173 Clear 13 1025 82 10000 1.5 350 07:43 23.08.2019
3174 Clouds 13 1025 82 6000 1 20 07:24 23.08.2019
3175 Clouds 13 1025 82 9000 1.5 350 06:59 23.08.2019
3176 Clouds 13 1025 82 9000 1.5 350 06:40 23.08.2019
3177 Clear 13 1025 82 10000 1 10 06:21 23.08.2019
3178 Clear 13 1025 82 10000 1 360 05:43 23.08.2019
3179 Clear 13 1025 76 10000 1 0 05:23 23.08.2019
3180 Clear 15 1026 72 10000 1 20 03:36 23.08.2019
3181 Clear 15 1026 67 10000 2.1 20 02:37 23.08.2019
3182 Clear 16 1026 67 10000 3.6 360 02:18 23.08.2019
3183 Clear 17 1026 63 10000 2.6 350 00:46 23.08.2019
3184 Clear 17 1026 59 10000 4.6 360 00:22 23.08.2019
3185 Clear 18 1025 56 10000 5.1 10 23:53 22.08.2019
3186 Clear 18 1025 56 10000 3.6 360 23:33 22.08.2019
3187 Clear 19 1025 56 10000 1.5 10 22:59 22.08.2019
3188 Clear 19 1025 56 10000 1.5 10 22:41 22.08.2019
3189 Clear 20 1025 52 10000 2.6 60 22:22 22.08.2019
3190 Clear 20 1024 46 10000 2.6 50 21:58 22.08.2019
3191 Clear 21 1024 46 10000 2.6 50 21:40 22.08.2019
3192 Clear 22 1024 43 10000 2.6 50 21:21 22.08.2019
3193 Clear 23 1024 38 10000 1.5 20 20:57 22.08.2019
3194 Clear 24 1024 38 10000 1.5 20 20:39 22.08.2019
3195 Clear 24 1024 36 10000 1.5 330 20:19 22.08.2019
3196 Clear 25 1024 34 10000 2.1 340 19:56 22.08.2019
3197 Clear 25 1024 34 10000 2.1 340 19:37 22.08.2019
3198 Clear 26 1024 36 10000 2.1 20 19:19 22.08.2019
3199 Clear 26 1024 34 10000 2.6 30 18:56 22.08.2019
3200 Clear 26 1024 34 10000 2.6 30 18:38 22.08.2019
3201 Clear 26 1024 36 10000 2.1 360 18:18 22.08.2019
3202 Clear 26 1024 34 10000 3.1 340 17:43 22.08.2019
3203 Clear 26 1025 36 10000 3.1 340 17:24 22.08.2019
3204 Clear 26 1025 36 10000 3.1 340 17:24 22.08.2019
3205 Clear 26 1025 38 10000 3.1 30 16:59 22.08.2019
3206 Clear 26 1025 38 10000 3.1 30 16:40 22.08.2019
3207 Clear 26 1025 38 10000 1.5 300 16:21 22.08.2019
3208 Clear 26 1025 38 10000 1.5 300 16:21 22.08.2019
3209 Clear 26 1025 38 10000 1 0 15:59 22.08.2019
3210 Clear 26 1025 38 10000 1 0 15:40 22.08.2019
3211 Clear 26 1025 38 10000 1 0 15:40 22.08.2019
3212 Clear 26 1025 38 10000 2.1 0 15:21 22.08.2019
3213 Clear 25 1025 41 10000 2.6 0 14:57 22.08.2019
3214 Clear 25 1025 41 10000 2.6 0 14:39 22.08.2019
3215 Clear 25 1026 41 10000 2.1 40 14:18 22.08.2019
3216 -273 0 0 0 0 0 13:56 22.08.2019
3217 Clear 24 1026 41 10000 2.6 50 13:37 22.08.2019
3218 Clear 24 1026 43 10000 2.6 340 13:18 22.08.2019
3219 Clear 23 1026 43 10000 2.1 360 12:40 22.08.2019
3220 Clear 23 1026 49 10000 2.1 340 12:22 22.08.2019
3221 Clear 22 1026 52 10000 2.6 360 11:57 22.08.2019
3222 Clear 21 1026 52 10000 2.6 360 11:39 22.08.2019
3223 Clear 21 1026 55 10000 2.6 360 11:19 22.08.2019
3224 Clear 20 1026 59 10000 2.1 330 10:57 22.08.2019
3225 Clear 19 1026 59 10000 2.1 330 10:37 22.08.2019
3226 Clear 18 1026 72 10000 2.1 330 10:19 22.08.2019
3227 Clear 17 1026 72 10000 2.1 340 09:54 22.08.2019
3228 Clear 16 1026 72 10000 2.1 340 09:36 22.08.2019
3229 Clear 15 1026 72 10000 2.6 350 09:18 22.08.2019
3230 Clear 13 1026 82 10000 1 360 08:41 22.08.2019
3231 Clear 13 1026 82 10000 1 360 08:21 22.08.2019
3232 Clear 11 1025 81 10000 1 360 07:56 22.08.2019
3233 Clear 11 1025 87 10000 1 0 07:38 22.08.2019
3234 Clear 11 1025 87 10000 1 0 07:18 22.08.2019
3235 Clear 11 1025 81 10000 1 0 06:45 22.08.2019
3236 Clear 12 1025 81 10000 0.5 0 06:21 22.08.2019
3237 Clear 12 1025 81 10000 1.5 10 05:26 22.08.2019
3238 Clear 13 1025 76 10000 1.5 10 03:22 22.08.2019
3239 Clear 13 1025 76 10000 2.1 360 02:36 22.08.2019
3240 Clear 15 1025 72 10000 1.5 350 01:36 22.08.2019
3241 Clear 15 1025 67 10000 1 350 00:57 22.08.2019
3242 Clear 15 1025 67 10000 1 350 00:38 22.08.2019
3243 Clear 16 1026 67 10000 2.1 350 00:20 22.08.2019
3244 Clear 16 1025 63 10000 1 360 23:41 21.08.2019
3245 Clear 17 1026 59 10000 1.5 20 23:23 21.08.2019
3246 Clear 17 1026 59 10000 1.5 20 22:58 21.08.2019
3247 Clear 17 1026 55 10000 2.1 20 22:39 21.08.2019
3248 Clear 18 1026 52 10000 2.6 20 22:20 21.08.2019
3249 Clear 19 1025 46 10000 2.1 20 21:56 21.08.2019
3250 Clear 19 1025 46 10000 2.1 20 21:38 21.08.2019
3251 Clear 20 1025 46 10000 2.6 360 21:19 21.08.2019
3252 Clear 21 1025 43 10000 3.1 360 20:56 21.08.2019
3253 Clear 22 1025 43 10000 3.1 360 20:38 21.08.2019
3254 Clear 22 1025 46 10000 1.5 10 20:20 21.08.2019
3255 Clear 23 1025 43 10000 2.1 60 19:43 21.08.2019
3256 Clear 23 1025 40 10000 2.6 0 19:24 21.08.2019
3257 Clear 24 1025 40 10000 2.1 40 18:58 21.08.2019
3258 Clear 24 1025 40 10000 2.1 40 18:39 21.08.2019
3259 Clear 24 1026 40 10000 3.1 40 18:20 21.08.2019
3260 Clear 24 1026 40 10000 3.1 40 17:45 21.08.2019
3261 Clear 24 1026 40 10000 3.1 360 17:23 21.08.2019
3262 Clear 23 1026 40 10000 1.5 0 16:58 21.08.2019
3263 Clear 24 1026 40 10000 1.5 0 16:40 21.08.2019
3264 Clear 24 1026 40 10000 2.6 90 16:20 21.08.2019
3265 Clear 23 1026 40 10000 2.1 0 15:58 21.08.2019
3266 Clear 23 1026 40 10000 2.1 0 15:39 21.08.2019
3267 Clear 23 1026 40 10000 2.6 90 15:20 21.08.2019
3268 Clear 23 1027 43 10000 2.1 50 14:57 21.08.2019
3269 Clear 23 1027 43 10000 2.1 50 14:38 21.08.2019
3270 Clear 22 1027 43 10000 1.5 50 14:19 21.08.2019
3271 Clear 22 1027 43 10000 1.5 50 14:19 21.08.2019
3272 Clear 22 1027 43 10000 2.1 60 13:44 21.08.2019
3273 Clear 21 1028 46 10000 2.1 30 13:21 21.08.2019
3274 Clouds 21 1028 46 10000 2.1 50 12:59 21.08.2019
3275 Clouds 21 1028 46 10000 2.1 50 12:40 21.08.2019
3276 Clouds 20 1028 52 10000 1.5 60 12:21 21.08.2019
3277 Clouds 20 1028 55 10000 1.5 0 11:57 21.08.2019
3278 Clouds 20 1028 55 10000 1.5 0 11:39 21.08.2019
3279 Clear 19 1028 59 10000 2.1 70 11:20 21.08.2019
3280 Clear 18 1028 63 10000 3.1 50 10:56 21.08.2019
3281 Clear 18 1028 63 10000 3.1 50 10:37 21.08.2019
3282 Clear 17 1029 72 10000 1.5 0 10:19 21.08.2019
3283 Clear 15 1029 77 10000 1.5 20 09:42 21.08.2019
3284 Clear 14 1028 82 10000 2.1 360 09:23 21.08.2019
3285 Clear 14 1028 82 10000 2.1 360 08:59 21.08.2019
3286 Clear 12 1028 81 10000 1.5 360 08:41 21.08.2019
3287 Clear 12 1028 87 10000 2.1 350 08:21 21.08.2019
3288 Clear 10 1028 87 10000 1.5 360 07:40 21.08.2019
3289 Clear 10 1028 87 10000 1 10 07:21 21.08.2019
3290 Clear 10 1028 87 10000 1.5 360 06:49 21.08.2019
3291 Clear 11 1027 87 10000 1.5 360 06:22 21.08.2019
3292 Clear 11 1028 81 10000 1.5 360 05:42 21.08.2019
3293 Clear 11 1028 81 10000 1.5 10 05:23 21.08.2019
3294 Clear 12 1028 87 10000 1.5 340 03:39 21.08.2019
3295 Clear 13 1028 76 10000 1 50 01:50 21.08.2019
3296 Clear 14 1028 72 10000 1.5 350 01:22 21.08.2019
3297 Clear 14 1027 72 10000 1.5 350 00:37 21.08.2019
3298 Clear 15 1027 67 10000 1.5 360 00:18 21.08.2019
3299 Clear 15 1027 67 10000 1.5 350 23:42 20.08.2019
3300 Clear 16 1027 63 10000 2.1 360 23:19 20.08.2019
3301 Clear 16 1027 59 10000 2.1 340 22:56 20.08.2019
3302 Clear 16 1027 59 10000 2.1 340 22:38 20.08.2019
3303 Clear 16 1027 59 10000 2.1 340 22:38 20.08.2019
3304 Clear 17 1026 55 10000 3.1 340 22:20 20.08.2019
3305 Clear 17 1026 55 10000 3.1 340 22:20 20.08.2019
3306 Clear 17 1026 55 10000 3.1 340 22:20 20.08.2019
3307 Clear 17 1026 55 10000 3.1 340 21:57 20.08.2019
3308 Clear 18 1026 55 10000 2.6 330 21:38 20.08.2019
3309 Clear 19 1026 46 10000 3.1 330 21:19 20.08.2019
3310 Clear 20 1025 43 10000 3.1 320 20:56 20.08.2019
3311 Clear 20 1025 43 10000 3.1 320 20:36 20.08.2019
3312 Clear 21 1025 40 10000 3.1 320 20:18 20.08.2019
3313 Clear 22 1025 37 10000 3.6 320 19:39 20.08.2019
3314 Clear 22 1025 37 10000 3.1 320 19:20 20.08.2019
3315 Clear 22 1025 40 10000 2.6 320 18:56 20.08.2019
3316 Clear 22 1025 40 10000 2.6 320 18:38 20.08.2019
3317 Clear 22 1025 38 10000 3.6 310 18:19 20.08.2019
3318 Clear 23 1025 38 10000 3.6 310 17:55 20.08.2019
3319 Clear 22 1025 43 10000 3.1 300 17:37 20.08.2019
3320 Clear 22 1024 40 10000 2.6 320 17:18 20.08.2019
3321 Clear 22 1024 40 10000 4.1 280 16:42 20.08.2019
3322 Clear 23 1024 43 10000 3.6 310 16:23 20.08.2019
3323 Clear 22 1024 46 10000 3.1 270 15:42 20.08.2019
3324 Clear 22 1024 46 10000 3.6 260 15:19 20.08.2019
3325 Clear 22 1024 46 10000 3.6 260 14:58 20.08.2019
3326 Clouds 22 1024 49 10000 3.1 270 14:40 20.08.2019
3327 Clouds 22 1024 49 10000 3.1 270 14:21 20.08.2019
3328 Clouds 22 1024 49 10000 3.1 270 14:21 20.08.2019
3329 Clouds 21 1024 52 10000 3.1 0 13:56 20.08.2019
3330 Clouds 21 1024 52 10000 3.1 280 13:37 20.08.2019
3331 Clouds 21 1024 52 10000 3.6 280 13:19 20.08.2019
3332 Clouds 21 1024 52 10000 3.6 280 12:50 20.08.2019
3333 Clouds 20 1024 60 10000 1.5 0 12:26 20.08.2019
3334 Clouds 20 1024 63 10000 2.1 10 11:58 20.08.2019
3335 Clouds 20 1024 63 10000 2.1 10 11:58 20.08.2019
3336 Clouds 20 1024 63 10000 2.1 10 11:58 20.08.2019
3337 Clouds 19 1024 59 10000 1.5 310 11:38 20.08.2019
3338 Clouds 19 1024 68 10000 1.5 350 11:18 20.08.2019
3339 Clear 18 1023 68 10000 2.1 350 10:56 20.08.2019
3340 Clear 18 1023 68 10000 2.1 350 10:38 20.08.2019
3341 Clear 17 1023 72 10000 1.5 340 10:19 20.08.2019
3342 Clouds 16 1024 72 10000 1.5 0 09:43 20.08.2019
3343 Clouds 14 1023 82 10000 0.5 0 09:25 20.08.2019
3344 Clouds 14 1023 82 10000 0.5 0 08:57 20.08.2019
3345 Clouds 14 1023 82 10000 1 350 08:39 20.08.2019
3346 Clouds 14 1023 82 10000 1 350 08:20 20.08.2019
3347 Clouds 13 1023 82 10000 0.5 310 07:55 20.08.2019
3348 Clouds 13 1023 82 10000 1.4 332.924 07:37 20.08.2019
3349 Clouds 13 1023 82 10000 1.4 332.924 07:18 20.08.2019
3350 Clouds 13 1023 82 10000 1.4 332.924 07:18 20.08.2019
3351 Clear 13 1022 82 10000 1 50 06:28 20.08.2019
3352 Clear 13 1022 87 10000 1 0 05:51 20.08.2019
3353 Clear 13 1022 87 10000 1 0 05:30 20.08.2019
3354 Clear 13 1021 87 10000 1 40 04:18 20.08.2019
3355 Clear 13 1022 82 10000 1 40 02:44 20.08.2019
3356 Clear 14 1022 77 10000 1 360 01:43 20.08.2019
3357 Clear 14 1022 72 10000 1 340 00:59 20.08.2019
3358 Clear 15 1021 72 10000 1 290 00:41 20.08.2019
3359 Clear 15 1021 72 10000 1 290 00:21 20.08.2019
3360 Clear 15 1021 67 10000 1 20 23:40 19.08.2019
3361 Clear 15 1020 67 10000 1 30 23:18 19.08.2019
3362 Clear 16 1020 67 10000 1 30 22:58 19.08.2019
3363 Clear 16 1021 67 10000 1.5 290 22:39 19.08.2019
3364 Clear 16 1020 55 10000 1 350 22:19 19.08.2019
3365 Clear 16 1020 55 10000 1 350 22:19 19.08.2019
3366 Clear 17 1020 52 10000 2.6 320 21:56 19.08.2019
3367 Clear 18 1020 49 10000 2.1 270 21:38 19.08.2019
3368 Clear 18 1020 49 10000 2.1 270 21:19 19.08.2019
3369 Clear 20 1019 40 10000 5.1 260 20:40 19.08.2019
3370 Clear 21 1019 40 10000 4.1 260 20:21 19.08.2019
3371 Clear 21 1019 40 10000 4.1 260 19:59 19.08.2019
3372 Clear 21 1019 40 10000 5.1 240 19:41 19.08.2019
3373 Clear 22 1019 40 10000 5.1 240 19:19 19.08.2019
3374 Clear 22 1019 40 10000 5.1 240 19:19 19.08.2019
3375 Clear 22 1019 40 10000 5.1 240 18:59 19.08.2019
3376 Clear 22 1019 43 10000 4.1 220 18:39 19.08.2019
3377 Clear 22 1019 43 10000 4.1 260 18:21 19.08.2019
3378 Clear 23 1019 43 10000 4.1 260 17:55 19.08.2019
3379 Clear 23 1019 38 10000 5.7 240 17:36 19.08.2019
3380 Clear 23 1019 40 10000 5.1 230 17:18 19.08.2019
3381 Clear 22 1019 40 10000 6.2 260 16:39 19.08.2019
3382 Clear 22 1019 40 10000 6.2 220 16:21 19.08.2019
3383 Clear 22 1019 40 10000 5.7 240 15:56 19.08.2019
3384 Clear 22 1019 40 10000 5.7 240 15:56 19.08.2019
3385 Clear 22 1019 40 10000 5.7 240 15:38 19.08.2019
3386 Clear 22 1019 46 10000 5.7 240 15:19 19.08.2019
3387 Clear 22 1019 46 10000 5.1 230 14:44 19.08.2019
3388 Clear 22 1019 46 10000 5.1 250 14:23 19.08.2019
3389 Clouds 21 1019 46 10000 5.1 240 13:58 19.08.2019
3390 Clouds 21 1019 46 10000 5.1 240 13:40 19.08.2019
3391 Clouds 21 1019 52 10000 5.1 240 13:20 19.08.2019
3392 Clear 20 1018 49 10000 5.1 250 12:58 19.08.2019
3393 Clear 20 1018 49 10000 5.1 250 12:40 19.08.2019
3394 Clouds 20 1018 59 10000 5.1 240 12:20 19.08.2019
3395 Clouds 19 1018 59 10000 5.1 240 11:41 19.08.2019
3396 Clouds 19 1018 63 10000 4.1 260 11:23 19.08.2019
3397 Clouds 18 1018 63 10000 4.1 260 10:58 19.08.2019
3398 Clear 18 1018 72 10000 4.1 230 10:39 19.08.2019
3399 Clear 17 1018 72 10000 4.1 230 10:19 19.08.2019
3400 Clear 16 1017 77 10000 4.6 230 09:54 19.08.2019
3401 Clear 16 1017 77 10000 4.6 230 09:36 19.08.2019
3402 Clear 15 1017 77 10000 3.6 240 09:18 19.08.2019
3403 Clear 14 1017 87 10000 3.1 230 08:42 19.08.2019
3404 Clear 13 1017 87 10000 3.1 220 08:21 19.08.2019
3405 Clear 13 1017 82 10000 2.6 230 07:52 19.08.2019
3406 Clear 13 1017 82 10000 2.6 230 07:34 19.08.2019
3407 Clear 13 1017 82 10000 2.6 230 06:59 19.08.2019
3408 Clear 13 1016 77 10000 2.1 250 06:36 19.08.2019
3409 Clear 13 1016 77 10000 2.1 250 06:36 19.08.2019
3410 Clear 13 1016 72 10000 1.5 270 05:26 19.08.2019
3411 Clear 14 1016 72 10000 2.1 280 04:33 19.08.2019
3412 Clear 14 1015 82 10000 2.76 280.634 03:26 19.08.2019
3413 Clear 14 1015 82 10000 1 300 02:30 19.08.2019
3414 Clear 14 1015 77 10000 0.5 180 01:37 19.08.2019
3415 Clear 14 1014 72 10000 2.78 264.654 00:47 19.08.2019
3416 Clear 15 1013 72 10000 1 280 00:24 19.08.2019
3417 Clear 15 1013 67 10000 1 0 23:56 18.08.2019
3418 Clear 16 1012 63 10000 2.6 320 23:36 18.08.2019
3419 Clear 16 1012 63 10000 2.6 320 23:18 18.08.2019
3420 Clear 17 1012 55 10000 2.6 300 22:40 18.08.2019
3421 Clear 17 1012 60 10000 2.6 290 22:21 18.08.2019
3422 Clear 19 1011 64 10000 1.5 290 21:57 18.08.2019
3423 Clear 19 1011 64 10000 1.5 290 21:39 18.08.2019
3424 Clouds 20 1011 64 10000 1.5 310 21:20 18.08.2019
3425 Clouds 21 1011 64 10000 3.1 320 20:46 18.08.2019
3426 Clouds 21 1011 64 10000 1 0 20:27 18.08.2019
3427 Clouds 21 1011 64 10000 2.6 320 19:59 18.08.2019
3428 Clouds 21 1011 64 10000 2.6 320 19:41 18.08.2019
3429 Clouds 22 1010 60 10000 4.6 230 19:23 18.08.2019
3430 Clouds 22 1010 60 10000 3.6 220 18:56 18.08.2019
3431 Clouds 22 1010 60 10000 3.6 220 18:56 18.08.2019
3432 Clouds 22 1010 60 10000 3.6 220 18:38 18.08.2019
3433 Clouds 22 1010 60 10000 4.1 230 18:20 18.08.2019
3434 Clouds 21 1010 60 10000 4.6 220 17:54 18.08.2019
3435 Clouds 21 1010 60 10000 4.6 220 17:36 18.08.2019
3436 Clouds 21 1010 64 10000 3.1 260 17:18 18.08.2019
3437 Clouds 21 1010 68 10000 4.1 230 16:42 18.08.2019
3438 Clouds 20 1010 72 10000 4.1 250 16:23 18.08.2019
3439 Clouds 20 1010 77 10000 3.6 270 15:59 18.08.2019
3440 Clouds 19 1010 77 10000 3.6 270 15:39 18.08.2019
3441 Clouds 19 1010 77 10000 5.1 260 15:20 18.08.2019
3442 Clouds 19 1010 77 10000 5.1 260 15:20 18.08.2019
3443 Clouds 19 1009 77 10000 4.6 270 14:57 18.08.2019
3444 Clouds 19 1009 77 10000 4.6 270 14:38 18.08.2019
3445 Clouds 19 1008 82 10000 5.1 270 14:19 18.08.2019
3446 Rain 18 1008 88 10000 4.1 260 13:56 18.08.2019
3447 Rain 18 1008 88 10000 4.1 260 13:38 18.08.2019
3448 Rain 18 1008 88 10000 4.1 260 13:19 18.08.2019
3449 Rain 17 1007 93 10000 3.6 270 12:44 18.08.2019
3450 Rain 18 1007 93 3800 3.6 250 12:22 18.08.2019
3451 Rain 19 1006 88 5000 5.7 270 11:55 18.08.2019
3452 Rain 19 1006 88 5000 5.7 270 11:37 18.08.2019
3453 Rain 19 1005 83 10000 7.7 200 11:18 18.08.2019
3454 Rain 19 1005 83 10000 7.2 200 10:41 18.08.2019
3455 Drizzle 20 1004 88 10000 6.7 200 10:22 18.08.2019
3456 Rain 20 1004 88 10000 7.2 200 09:53 18.08.2019
3457 Clouds 20 1004 88 10000 7.7 190 09:24 18.08.2019
3458 Clouds 20 1004 88 10000 7.7 190 08:59 18.08.2019
3459 Clouds 19 1004 88 10000 7.2 190 08:41 18.08.2019
3460 Clouds 19 1004 88 10000 6.2 190 08:23 18.08.2019
3461 Clouds 19 1004 88 10000 5.7 190 07:49 18.08.2019
3462 Clouds 19 1005 88 10000 6.2 190 07:29 18.08.2019
3463 Rain 18 1006 93 10000 4.1 180 05:50 18.08.2019
3464 Drizzle 18 1007 93 10000 3.1 180 04:55 18.08.2019
3465 Rain 18 1008 93 10000 2.6 150 03:43 18.08.2019
3466 Rain 18 1008 100 10000 1.5 0 02:48 18.08.2019
3467 Mist 18 1008 93 10000 1.5 130 02:25 18.08.2019
3468 Drizzle 18 1009 93 10000 1 150 01:47 18.08.2019
3469 Rain 17 1009 93 10000 1.5 180 01:22 18.08.2019
3470 Rain 18 1009 93 10000 1.5 0 00:40 18.08.2019
3471 Rain 18 1009 93 10000 1.5 200 00:19 18.08.2019
3472 Rain 18 1009 93 10000 2.1 230 23:57 17.08.2019
3473 Rain 18 1009 93 10000 2.1 230 23:37 17.08.2019
3474 Rain 18 1010 93 6000 2.1 260 23:19 17.08.2019
3475 Rain 17 1010 93 6000 2.1 260 22:56 17.08.2019
3476 Rain 18 1010 93 9000 1.5 260 22:38 17.08.2019
3477 Rain 18 1009 93 10000 2.6 270 22:20 17.08.2019
3478 Rain 19 1009 93 10000 3.1 260 21:43 17.08.2019
3479 Rain 19 1008 93 10000 2.1 280 21:23 17.08.2019
3480 Drizzle 19 1008 94 6000 4.6 170 20:57 17.08.2019
3481 Drizzle 19 1008 94 6000 4.6 170 20:36 17.08.2019
3482 Rain 19 1008 88 10000 3.6 180 20:18 17.08.2019
3483 Drizzle 19 1008 94 10000 4.1 180 19:43 17.08.2019
3484 Drizzle 19 1008 94 10000 4.1 180 19:43 17.08.2019
3485 Drizzle 20 1009 94 10000 3.6 180 19:24 17.08.2019
3486 Drizzle 20 1009 94 8000 4.1 190 18:55 17.08.2019
3487 Drizzle 20 1009 94 8000 4.1 190 18:37 17.08.2019
3488 Rain 20 1009 94 10000 4.1 200 18:18 17.08.2019
3489 Drizzle 20 1009 94 10000 4.1 190 17:42 17.08.2019
3490 Rain 20 1009 94 10000 3.6 190 17:22 17.08.2019
3491 Rain 20 1009 88 10000 5.1 190 16:57 17.08.2019
3492 Rain 19 1009 88 10000 5.1 190 16:38 17.08.2019
3493 Rain 19 1009 94 10000 4.6 180 16:20 17.08.2019
3494 Rain 19 1010 93 4300 4.6 190 15:54 17.08.2019
3495 Rain 19 1010 93 4300 4.6 190 15:36 17.08.2019
3496 Rain 19 1010 93 4400 4.6 180 15:18 17.08.2019
3497 Rain 19 1010 93 5000 3.6 190 14:40 17.08.2019
3498 Rain 19 1010 93 3900 4.1 190 14:22 17.08.2019
3499 Rain 19 1010 93 10000 5.1 190 13:46 17.08.2019
3500 Rain 19 1010 88 10000 4.6 180 13:21 17.08.2019
3501 Rain 19 1010 88 10000 4.6 180 12:55 17.08.2019
3502 Rain 19 1010 88 10000 4.6 180 12:37 17.08.2019
3503 Rain 18 1010 88 10000 5.1 200 12:18 17.08.2019
3504 Rain 18 1010 82 10000 5.1 200 11:43 17.08.2019
3505 Rain 18 1010 82 10000 5.7 200 11:20 17.08.2019
3506 Rain 18 1010 82 10000 5.1 210 10:55 17.08.2019
3507 Rain 18 1010 82 10000 5.1 210 10:37 17.08.2019
3508 Rain 18 1010 82 10000 5.7 200 10:18 17.08.2019
3509 Rain 18 1010 82 10000 5.1 190 09:43 17.08.2019
3510 Drizzle 18 1010 82 10000 4.6 200 09:25 17.08.2019
3511 Rain 18 1010 82 10000 4.6 190 08:53 17.08.2019
3512 Rain 17 1010 82 10000 4.6 190 08:25 17.08.2019
3513 Drizzle 17 1010 82 10000 3.6 200 07:46 17.08.2019
3514 Drizzle 17 1010 82 10000 2.6 210 07:21 17.08.2019
3515 Drizzle 17 1010 88 10000 3.6 200 06:41 17.08.2019
3516 Rain 18 1010 77 10000 3.1 210 05:30 17.08.2019
3517 Rain 18 1010 68 10000 5.1 210 04:28 17.08.2019
3518 Clear 18 1011 64 10000 4.6 200 03:19 17.08.2019
3519 Rain 19 1011 64 10000 4.1 210 01:42 17.08.2019
3520 Rain 19 1012 63 10000 3.1 220 01:24 17.08.2019
3521 Rain 19 1012 63 10000 3.1 220 00:54 17.08.2019
3522 Rain 20 1012 56 10000 3.6 220 00:28 17.08.2019
3523 Clear 20 1012 56 10000 4.1 230 23:50 16.08.2019
3524 Clear 20 1012 56 10000 4.1 240 23:27 16.08.2019
3525 Clear 20 1012 53 10000 3.1 250 22:56 16.08.2019
3526 Clear 21 1012 53 10000 3.1 250 22:37 16.08.2019
3527 Clear 21 1012 49 10000 5.1 220 22:19 16.08.2019
3528 Clear 21 1012 46 10000 5.7 210 21:40 16.08.2019
3529 Clear 22 1012 49 10000 4.6 210 21:20 16.08.2019
3530 Clear 22 1012 46 10000 4.6 220 20:56 16.08.2019
3531 Clear 22 1012 46 10000 4.6 220 20:37 16.08.2019
3532 Clear 23 1012 47 10000 4.1 200 20:18 16.08.2019
3533 Clear 23 1012 47 10000 5.7 210 19:42 16.08.2019
3534 Clear 23 1013 47 10000 7.2 200 19:22 16.08.2019
3535 Clear 24 1013 47 10000 6.2 220 18:44 16.08.2019
3536 Clear 24 1013 47 10000 5.7 200 18:26 16.08.2019
3537 Clear 24 1013 47 10000 5.7 200 18:26 16.08.2019
3538 Clear 24 1014 47 10000 6.2 200 17:59 16.08.2019
3539 Clear 24 1014 47 10000 6.2 200 17:41 16.08.2019
3540 Clear 24 1014 41 10000 7.2 190 17:23 16.08.2019
3541 Clear 24 1014 41 10000 7.2 190 17:23 16.08.2019
3542 Clear 24 1014 44 10000 6.7 170 16:42 16.08.2019
3543 Clear 24 1015 44 10000 5.7 190 16:22 16.08.2019
3544 Clear 25 1015 44 10000 5.7 190 15:59 16.08.2019
3545 Clear 24 1015 44 10000 5.7 210 15:40 16.08.2019
3546 Clear 24 1016 49 10000 5.1 200 15:21 16.08.2019
3547 Clear 24 1016 49 10000 5.1 200 15:21 16.08.2019
3548 Clouds 24 1016 49 10000 5.1 200 14:58 16.08.2019
3549 Clouds 23 1016 49 10000 5.1 200 14:39 16.08.2019
3550 Clouds 23 1016 49 10000 5.1 200 14:39 16.08.2019
3551 Clouds 23 1017 53 10000 6.2 200 14:19 16.08.2019
3552 Clouds 23 1017 53 10000 6.2 170 13:57 16.08.2019
3553 Clouds 23 1017 53 10000 6.2 170 13:37 16.08.2019
3554 Clouds 22 1017 53 10000 5.7 170 13:18 16.08.2019
3555 Clear 22 1018 56 10000 5.7 170 12:38 16.08.2019
3556 Clear 21 1018 60 10000 5.7 170 12:20 16.08.2019
3557 Clouds 20 1018 64 10000 5.1 180 11:42 16.08.2019
3558 Clear 20 1019 68 10000 4.1 170 11:24 16.08.2019
3559 Clear 18 1019 72 10000 2.1 150 10:45 16.08.2019
3560 Clear 17 1019 77 10000 2.1 140 10:27 16.08.2019
3561 Clear 16 1019 77 10000 2.1 140 09:58 16.08.2019
3562 Clouds 16 1019 82 10000 2.1 180 09:37 16.08.2019
3563 Clouds 15 1019 87 10000 1 0 09:18 16.08.2019
3564 Clear 14 1019 87 10000 1.63 214.374 08:56 16.08.2019
3565 Clear 14 1019 87 10000 1.63 214.374 08:37 16.08.2019
3566 Clear 13 1019 87 10000 1.63 214.374 08:18 16.08.2019
3567 Clear 12 1019 87 10000 1.5 0 07:42 16.08.2019
3568 Clear 12 1019 93 10000 1.63 214.374 07:24 16.08.2019
3569 Clear 12 1019 87 10000 1 220 06:33 16.08.2019
3570 Clear 12 1020 87 10000 1.5 200 05:43 16.08.2019
3571 Clear 13 1020 82 10000 1 240 04:33 16.08.2019
3572 Clear 14 1020 82 10000 0.5 0 03:19 16.08.2019
3573 Clear 15 1020 72 10000 1 0 01:44 16.08.2019
3574 Clear 16 1020 72 10000 1.5 0 01:24 16.08.2019
3575 Clear 16 1020 68 10000 2.1 270 00:43 16.08.2019
3576 Clear 17 1020 68 10000 2.6 280 00:22 16.08.2019
3577 Clouds 18 1020 63 10000 3.6 290 23:46 15.08.2019
3578 Clouds 18 1019 60 10000 4.6 290 23:24 15.08.2019
3579 Clouds 18 1019 60 10000 4.6 290 22:59 15.08.2019
3580 Clouds 19 1019 60 10000 2.6 310 22:40 15.08.2019
3581 Clear 19 1019 56 10000 3.1 280 22:21 15.08.2019
3582 Clear 20 1018 56 10000 5.1 270 21:56 15.08.2019
3583 Clear 20 1018 56 10000 5.1 270 21:38 15.08.2019
3584 Clear 20 1018 52 10000 5.1 260 21:19 15.08.2019
3585 Clear 21 1017 53 10000 5.1 260 20:56 15.08.2019
3586 Clear 21 1017 53 10000 5.1 260 20:38 15.08.2019
3587 Clear 21 1017 49 10000 5.1 280 20:19 15.08.2019
3588 Clear 22 1017 46 10000 5.7 260 19:39 15.08.2019
3589 Clouds 22 1017 49 10000 5.1 270 19:21 15.08.2019
3590 Clouds 22 1017 53 10000 5.7 280 18:55 15.08.2019
3591 Clouds 22 1017 53 10000 5.7 280 18:37 15.08.2019
3592 Rain 22 1017 46 10000 5.7 290 18:18 15.08.2019
3593 Clear 23 1016 49 10000 6.2 290 17:54 15.08.2019
3594 Clear 23 1016 49 10000 6.2 290 17:36 15.08.2019
3595 Clear 23 1016 43 10000 5.7 280 17:18 15.08.2019
3596 Clouds 23 1016 46 10000 6.2 270 16:42 15.08.2019
3597 Clouds 23 1016 49 10000 6.7 260 16:23 15.08.2019
3598 Clouds 23 1016 49 10000 6.2 260 15:55 15.08.2019
3599 Clouds 23 1016 49 10000 6.2 260 15:37 15.08.2019
3600 Rain 22 1016 56 10000 6.7 260 15:18 15.08.2019
3601 Clouds 22 1016 49 10000 6.7 260 14:42 15.08.2019
3602 Clouds 21 1015 60 10000 5.7 260 14:23 15.08.2019
3603 Clouds 21 1015 56 10000 7.2 260 13:57 15.08.2019
3604 Clouds 21 1015 56 10000 7.2 260 13:39 15.08.2019
3605 Rain 20 1015 60 10000 5.7 260 13:20 15.08.2019
3606 Rain 20 1015 64 10000 5.7 250 12:56 15.08.2019
3607 Rain 20 1015 64 10000 5.7 250 12:37 15.08.2019
3608 Clouds 20 1015 64 10000 6.2 250 12:18 15.08.2019
3609 Clouds 19 1015 72 10000 5.1 260 11:57 15.08.2019
3610 Clouds 19 1015 72 10000 5.1 260 11:36 15.08.2019
3611 Clouds 19 1015 72 10000 6.7 260 11:18 15.08.2019
3612 Clouds 18 1015 77 10000 5.7 270 10:39 15.08.2019
3613 Clouds 18 1015 77 10000 5.7 270 10:39 15.08.2019
3614 Clouds 18 1014 77 10000 6.2 270 10:20 15.08.2019
3615 Clouds 17 1014 77 10000 5.1 250 09:55 15.08.2019
3616 Clouds 17 1014 77 10000 5.1 250 09:37 15.08.2019
3617 Clouds 17 1014 77 10000 5.1 260 09:18 15.08.2019
3618 Rain 17 1014 82 10000 5.7 260 08:37 15.08.2019
3619 Drizzle 16 1013 82 10000 5.1 250 08:19 15.08.2019
3620 Clouds 16 1013 82 10000 5.1 250 07:45 15.08.2019
3621 Clouds 16 1013 82 10000 5.1 250 07:27 15.08.2019
3622 Clouds 17 1012 77 10000 4.6 250 06:55 15.08.2019
3623 Clouds 17 1012 77 10000 4.6 260 06:33 15.08.2019
3624 Clouds 17 1012 82 10000 5.7 240 05:54 15.08.2019
3625 Clouds 17 1012 82 10000 5.7 240 05:29 15.08.2019
3626 Clouds 17 1013 88 10000 4.1 240 04:39 15.08.2019
3627 Clouds 18 1013 77 10000 4.1 220 03:48 15.08.2019
3628 Clouds 18 1013 82 10000 4.6 220 02:47 15.08.2019
3629 Rain 18 1013 77 10000 6.2 210 01:58 15.08.2019
3630 Rain 18 1013 72 10000 5.1 220 01:38 15.08.2019
3631 Rain 18 1013 64 10000 4.1 210 00:42 15.08.2019
3632 Rain 19 1013 68 10000 3.6 220 00:22 15.08.2019
3633 Rain 19 1014 68 10000 3.1 190 23:59 14.08.2019
3634 Rain 19 1014 68 10000 3.1 190 23:40 14.08.2019
3635 Clouds 19 1014 64 10000 7.2 220 23:20 14.08.2019
3636 Clouds 19 1014 64 10000 7.2 220 22:59 14.08.2019
3637 Clouds 20 1014 56 10000 6.2 210 22:40 14.08.2019
3638 Clouds 20 1014 56 10000 6.2 210 22:40 14.08.2019
3639 Clear 20 1014 56 10000 5.7 210 22:21 14.08.2019
3640 Clear 20 1014 52 10000 5.1 220 21:57 14.08.2019
3641 Clear 20 1014 52 10000 5.1 220 21:38 14.08.2019
3642 Clear 20 1014 52 10000 5.1 220 21:38 14.08.2019
3643 Rain 21 1013 46 10000 6.2 230 21:19 14.08.2019
3644 Rain 21 1013 43 10000 5.1 230 20:54 14.08.2019
3645 Rain 21 1013 43 10000 5.1 230 20:36 14.08.2019
3646 Clouds 22 1013 41 10000 5.7 210 20:18 14.08.2019
3647 Clear 23 1014 41 10000 6.7 220 19:40 14.08.2019
3648 Clouds 23 1014 46 10000 4.1 220 19:22 14.08.2019
3649 Clear 24 1014 41 10000 6.7 200 18:57 14.08.2019
3650 Clear 24 1014 41 10000 6.7 200 18:57 14.08.2019
3651 Clear 24 1014 41 10000 6.7 200 18:39 14.08.2019
3652 Clear 24 1014 44 10000 6.7 210 18:20 14.08.2019
3653 Clear 24 1015 41 10000 7.2 180 17:59 14.08.2019
3654 Clear 24 1015 41 10000 7.2 180 17:38 14.08.2019
3655 Clear 24 1015 44 10000 6.2 190 17:20 14.08.2019
3656 Clear 24 1016 44 10000 6.7 190 16:55 14.08.2019
3657 Clear 24 1016 44 10000 5.7 200 16:37 14.08.2019
3658 Clear 24 1016 44 10000 5.7 200 16:18 14.08.2019
3659 Clear 23 1016 49 10000 5.1 200 15:42 14.08.2019
3660 Clouds 23 1017 49 10000 5.1 210 15:18 14.08.2019
3661 Clouds 22 1017 53 10000 4.1 210 14:55 14.08.2019
3662 Clouds 22 1017 53 10000 4.1 210 14:36 14.08.2019
3663 Clouds 22 1018 53 10000 5.1 180 14:18 14.08.2019
3664 Clouds 22 1018 53 10000 5.1 170 13:43 14.08.2019
3665 Clouds 21 1018 60 10000 4.1 210 13:24 14.08.2019
3666 Clouds 21 1018 60 10000 4.1 210 12:57 14.08.2019
3667 Clouds 21 1018 56 10000 5.1 170 12:38 14.08.2019
3668 Clouds 21 1018 56 10000 5.1 170 12:38 14.08.2019
3669 Clouds 20 1018 60 10000 4.6 160 12:20 14.08.2019
3670 Clouds 19 1019 60 10000 2.1 200 11:55 14.08.2019
3671 Clouds 19 1019 60 10000 2.1 200 11:37 14.08.2019
3672 Clouds 19 1019 63 10000 2.6 210 11:19 14.08.2019
3673 Clouds 18 1019 72 10000 1.5 0 10:42 14.08.2019
3674 Clouds 17 1020 77 10000 1.5 0 10:24 14.08.2019
3675 Fog 16 1019 82 10000 3.75 221.803 09:56 14.08.2019
3676 Fog 16 1019 82 10000 3.75 221.803 09:37 14.08.2019
3677 Fog 14 1019 87 10000 0.5 0 09:19 14.08.2019
3678 Fog 13 1019 93 10000 1.74 209.675 08:37 14.08.2019
3679 Mist 13 1019 100 10000 1.5 0 08:19 14.08.2019
3680 Fog 12 1019 93 10000 1.74 209.675 07:50 14.08.2019
3681 Fog 12 1019 93 10000 1.74 209.675 07:31 14.08.2019
3682 Fog 12 1019 93 10000 1.74 209.675 06:45 14.08.2019
3683 Clear 13 1019 93 10000 1.5 70 05:52 14.08.2019
3684 Clouds 13 1019 93 10000 1.5 0 05:22 14.08.2019
3685 Clouds 14 1020 87 10000 1 70 03:38 14.08.2019
3686 Rain 15 1020 87 10000 1.5 10 02:33 14.08.2019
3687 Clouds 15 1020 82 10000 1.5 80 01:45 14.08.2019
3688 Rain 15 1020 77 10000 2.23 248.065 01:18 14.08.2019
3689 Clouds 16 1020 72 10000 1 0 23:50 13.08.2019
3690 Rain 16 1020 67 10000 1.5 0 23:25 13.08.2019
3691 Rain 16 1020 67 10000 1.5 0 22:59 13.08.2019
3692 Rain 16 1020 67 10000 2.1 300 22:39 13.08.2019
3693 Clouds 16 1020 67 10000 1 0 22:21 13.08.2019
3694 Clouds 16 1020 67 10000 1 0 21:58 13.08.2019
3695 Clear 16 1020 63 10000 2.6 260 21:38 13.08.2019
3696 Clear 17 1020 59 10000 3.1 260 21:19 13.08.2019
3697 Rain 17 1020 63 10000 2.6 280 20:56 13.08.2019
3698 Rain 17 1020 63 10000 2.6 280 20:37 13.08.2019
3699 Rain 18 1020 68 10000 1 0 20:18 13.08.2019
3700 Rain 18 1020 68 10000 3.1 330 19:43 13.08.2019
3701 Rain 18 1020 68 10000 2.1 330 19:22 13.08.2019
3702 Rain 19 1020 68 10000 2.1 330 18:59 13.08.2019
3703 Rain 19 1020 68 10000 2.1 330 18:40 13.08.2019
3704 Clear 19 1020 68 10000 3.6 340 18:20 13.08.2019
3705 Clear 20 1020 67 10000 3.6 350 17:43 13.08.2019
3706 Clear 19 1020 67 10000 6.7 340 17:22 13.08.2019
3707 Clear 19 1020 67 10000 6.7 340 16:57 13.08.2019
3708 Rain 20 1020 52 10000 5.1 240 16:39 13.08.2019
3709 Clear 20 1020 52 10000 4.1 250 16:21 13.08.2019
3710 Clear 20 1020 52 10000 4.1 250 15:59 13.08.2019
3711 Clouds 20 1020 49 10000 4.1 250 15:59 13.08.2019
3712 Clouds 20 1020 49 10000 4.1 250 15:38 13.08.2019
3713 Clouds 20 1020 52 10000 5.7 240 15:19 13.08.2019
3714 Clouds 20 1020 52 10000 5.7 240 15:19 13.08.2019
3715 Clouds 20 1020 52 10000 5.7 240 15:19 13.08.2019
3716 Clouds 20 1020 52 10000 4.6 270 14:42 13.08.2019
3717 Clouds 20 1021 52 10000 4.6 250 14:20 13.08.2019
3718 Clouds 20 1021 52 10000 4.6 240 13:57 13.08.2019
3719 Clouds 19 1021 52 10000 4.6 240 13:38 13.08.2019
3720 Clouds 19 1021 48 10000 5.1 250 13:18 13.08.2019
3721 Clouds 19 1021 55 10000 5.1 220 12:56 13.08.2019
3722 Clouds 18 1021 55 10000 5.1 220 12:37 13.08.2019
3723 Clouds 18 1021 55 10000 4.1 250 12:18 13.08.2019
3724 Clouds 18 1021 55 10000 5.1 230 11:40 13.08.2019
3725 Clear 17 1021 67 10000 4.6 250 11:21 13.08.2019
3726 Clear 17 1021 72 10000 4.1 250 10:57 13.08.2019
3727 Clear 16 1021 72 10000 4.1 250 10:38 13.08.2019
3728 Clear 15 1021 77 10000 3.6 250 10:19 13.08.2019
3729 Clear 14 1021 82 10000 3.1 250 09:45 13.08.2019
3730 Clear 13 1021 82 10000 4.1 240 09:24 13.08.2019
3731 Clear 13 1021 82 10000 4.1 240 09:24 13.08.2019
3732 Clear 12 1021 87 10000 4.1 240 08:57 13.08.2019
3733 Clear 12 1021 87 10000 4.1 240 08:39 13.08.2019
3734 Clear 11 1021 87 10000 2.6 250 08:20 13.08.2019
3735 Clear 11 1020 87 10000 2.1 240 07:42 13.08.2019
3736 Clear 10 1020 87 10000 1.5 220 07:21 13.08.2019
3737 Clear 10 1020 87 10000 2.1 230 06:43 13.08.2019
3738 Clear 11 1020 87 10000 3.6 230 05:47 13.08.2019
3739 Clear 11 1020 87 10000 3.1 230 04:36 13.08.2019
3740 Clear 12 1020 87 10000 2.6 240 02:22 13.08.2019
3741 Clear 13 1020 87 10000 2.6 240 01:29 13.08.2019
3742 Clear 13 1020 82 10000 3.1 260 00:48 13.08.2019
3743 Clear 14 1019 82 10000 3.1 270 00:22 13.08.2019
3744 Clear 14 1019 82 10000 3.1 240 23:43 12.08.2019
3745 Clear 14 1019 77 10000 2.6 250 23:21 12.08.2019
3746 Clear 15 1018 77 10000 2.6 260 22:54 12.08.2019
3747 Clear 15 1018 77 10000 2.6 260 22:36 12.08.2019
3748 Clear 16 1018 77 10000 4.1 270 22:18 12.08.2019
3749 Clear 16 1017 82 10000 2.6 250 21:54 12.08.2019
3750 Clear 16 1017 82 10000 2.6 250 21:36 12.08.2019
3751 Clear 17 1017 77 10000 2.1 240 21:18 12.08.2019
3752 Clear 17 1016 77 10000 3.6 240 20:41 12.08.2019
3753 Rain 18 1016 82 10000 1.5 200 20:21 12.08.2019
3754 Thunderstorm 18 1016 82 10000 1.5 0 19:58 12.08.2019
3755 Thunderstorm 18 1016 82 10000 1.5 0 19:39 12.08.2019
3756 Rain 18 1016 68 10000 2.6 330 19:20 12.08.2019
3757 Clouds 18 1016 63 10000 3.6 340 18:58 12.08.2019
3758 Clouds 18 1016 63 10000 3.6 340 18:39 12.08.2019
3759 Rain 19 1016 68 10000 3.1 150 18:20 12.08.2019
3760 Thunderstorm 19 1016 72 10000 1.5 0 17:55 12.08.2019
3761 Thunderstorm 19 1016 72 10000 1.5 0 17:37 12.08.2019
3762 Thunderstorm 19 1016 82 5000 4.6 120 17:19 12.08.2019
3763 Rain 20 1015 63 10000 5.1 190 16:41 12.08.2019
3764 Thunderstorm 20 1015 52 10000 6.7 180 16:20 12.08.2019
3765 Thunderstorm 20 1015 52 10000 5.1 200 15:59 12.08.2019
3766 Rain 20 1015 52 10000 5.1 200 15:41 12.08.2019
3767 Rain 20 1015 56 10000 2.6 240 15:22 12.08.2019
3768 Clouds 21 1016 52 10000 4.6 200 14:58 12.08.2019
3769 Clouds 21 1016 52 10000 4.6 200 14:39 12.08.2019
3770 Clouds 20 1016 56 10000 5.1 180 14:21 12.08.2019
3771 Rain 20 1016 56 10000 5.1 180 13:57 12.08.2019
3772 Thunderstorm 20 1016 63 10000 5.7 190 13:39 12.08.2019
3773 Clouds 20 1016 52 10000 5.1 220 13:20 12.08.2019
3774 Rain 20 1016 52 10000 5.7 240 12:43 12.08.2019
3775 Rain 20 1016 56 10000 5.1 210 12:19 12.08.2019
3776 Clouds 19 1016 56 10000 5.7 240 11:45 12.08.2019
3777 Clouds 19 1016 68 10000 3.6 230 11:26 12.08.2019
3778 Clear 19 1016 72 10000 3.6 260 10:59 12.08.2019
3779 Clear 18 1016 72 10000 3.6 260 10:40 12.08.2019
3780 Clear 18 1016 68 10000 3.1 230 10:21 12.08.2019
3781 Clear 17 1016 72 10000 3.1 220 09:55 12.08.2019
3782 Clear 16 1016 72 10000 3.1 220 09:36 12.08.2019
3783 Clear 16 1016 72 10000 3.1 220 09:18 12.08.2019
3784 Clear 16 1016 72 10000 3.1 220 09:18 12.08.2019
3785 Clear 14 1016 82 10000 2.6 200 08:40 12.08.2019
3786 Clear 13 1016 82 10000 1 200 08:22 12.08.2019
3787 Clear 13 1016 82 10000 1.5 170 07:56 12.08.2019
3788 Clear 13 1016 82 10000 1.5 170 07:35 12.08.2019
3789 Clear 12 1016 82 10000 1.5 170 06:54 12.08.2019
3790 Clear 13 1016 77 10000 1 0 06:20 12.08.2019
3791 Clear 14 1016 72 10000 1 180 04:29 12.08.2019
3792 Clear 15 1016 72 10000 2.6 220 02:43 12.08.2019
3793 Clear 16 1017 63 10000 2.6 210 01:48 12.08.2019
3794 Clear 16 1016 68 10000 3.1 210 01:19 12.08.2019
3795 Clear 17 1016 68 10000 3.6 220 00:55 12.08.2019
3796 Clear 17 1016 68 10000 3.6 220 00:37 12.08.2019
3797 Clear 17 1016 63 10000 4.1 210 00:18 12.08.2019
3798 Clear 17 1016 63 10000 4.1 210 23:40 11.08.2019
3799 Clear 18 1016 59 10000 3.6 210 23:20 11.08.2019
3800 Clear 18 1016 52 10000 1.5 200 22:58 11.08.2019
3801 Clear 18 1016 52 10000 1.5 200 22:39 11.08.2019
3802 Clear 18 1015 49 10000 2.1 240 22:18 11.08.2019
3803 Clear 19 1015 49 10000 3.6 230 21:58 11.08.2019
3804 Clear 19 1015 49 10000 3.6 230 21:39 11.08.2019
3805 Clear 20 1015 46 10000 4.1 220 21:19 11.08.2019
3806 Clear 21 1015 46 10000 3.6 210 20:45 11.08.2019
3807 Clear 21 1015 46 10000 5.1 210 20:24 11.08.2019
3808 Clear 21 1015 46 10000 5.1 220 19:59 11.08.2019
3809 Clear 21 1015 46 10000 5.1 210 19:59 11.08.2019
3810 Clear 22 1015 46 10000 5.1 220 19:41 11.08.2019
3811 Clouds 22 1015 46 10000 2.1 240 19:18 11.08.2019
3812 Clouds 22 1015 53 10000 3.1 190 18:41 11.08.2019
3813 Clouds 22 1015 56 10000 3.6 200 18:21 11.08.2019
3814 Clouds 22 1015 60 10000 3.6 220 17:57 11.08.2019
3815 Clouds 22 1015 60 10000 3.6 220 17:39 11.08.2019
3816 Clouds 21 1015 56 10000 3.6 220 17:20 11.08.2019
3817 Clouds 21 1015 60 10000 3.6 220 16:56 11.08.2019
3818 Clouds 21 1015 60 10000 3.6 220 16:37 11.08.2019
3819 Clouds 21 1015 56 10000 4.1 200 16:18 11.08.2019
3820 Clouds 20 1016 60 10000 3.6 220 15:43 11.08.2019
3821 Clouds 20 1016 60 10000 4.1 220 15:24 11.08.2019
3822 Clouds 19 1016 63 10000 3.6 230 14:58 11.08.2019
3823 Clouds 19 1016 63 10000 3.6 230 14:39 11.08.2019
3824 Clouds 19 1016 59 10000 3.6 220 14:19 11.08.2019
3825 Clouds 19 1016 59 10000 3.6 220 13:44 11.08.2019
3826 Clear 19 1017 59 10000 3.1 220 13:25 11.08.2019
3827 Clear 18 1017 68 10000 3.1 220 12:56 11.08.2019
3828 Clear 18 1017 68 10000 3.1 220 12:36 11.08.2019
3829 Clear 18 1017 68 10000 2.1 220 12:18 11.08.2019
3830 Clear 17 1016 68 10000 2.1 210 11:39 11.08.2019
3831 Clear 17 1017 68 10000 3.1 240 11:20 11.08.2019
3832 Clear 16 1017 72 10000 3.1 230 10:55 11.08.2019
3833 Clear 16 1017 72 10000 3.1 230 10:37 11.08.2019
3834 Clear 16 1016 72 10000 2.1 250 10:18 11.08.2019
3835 Clear 15 1017 72 10000 3.1 230 09:40 11.08.2019
3836 Clear 15 1017 87 10000 2.1 220 09:22 11.08.2019
3837 Clear 15 1017 87 10000 2.1 240 08:48 11.08.2019
3838 Clear 15 1017 87 10000 2.1 240 08:29 11.08.2019
3839 Clear 14 1017 77 10000 3.1 230 07:57 11.08.2019
3840 Clear 13 1017 77 10000 3.1 230 07:30 11.08.2019
3841 Clear 14 1017 72 10000 2.6 240 06:46 11.08.2019
3842 Clear 14 1017 72 10000 2.6 230 06:26 11.08.2019
3843 Clear 15 1017 63 10000 4.1 250 04:40 11.08.2019
3844 Clear 16 1017 59 10000 4.1 240 02:50 11.08.2019
3845 Clear 17 1017 52 10000 4.6 240 01:56 11.08.2019
3846 Clear 17 1017 52 10000 4.6 240 01:30 11.08.2019
3847 Clear 17 1017 49 10000 5.1 240 00:56 11.08.2019
3848 Clear 17 1017 49 10000 5.1 240 00:56 11.08.2019
3849 Clear 18 1017 49 10000 5.1 240 00:34 11.08.2019
3850 Clear 19 1016 46 10000 5.1 230 23:49 10.08.2019
3851 Clear 19 1016 46 10000 4.6 230 23:30 10.08.2019
3852 Clear 19 1016 46 10000 4.6 230 23:29 10.08.2019
3853 -273 0 0 0 0 0 22:56 10.08.2019
3854 Clear 20 1016 40 10000 4.6 230 22:36 10.08.2019
3855 Clear 21 1016 38 10000 6.2 240 22:18 10.08.2019
3856 Clear 22 1015 40 10000 6.2 230 21:40 10.08.2019
3857 Clear 22 1015 38 10000 8.7 230 21:21 10.08.2019
3858 Clear 22 1015 38 10000 8.7 230 21:21 10.08.2019
3859 Clear 23 1015 36 10000 7.7 240 20:58 10.08.2019
3860 Clear 23 1015 36 10000 7.7 240 20:39 10.08.2019
3861 Clear 24 1014 38 10000 8.7 230 20:20 10.08.2019
3862 Clear 24 1014 36 10000 8.2 230 19:44 10.08.2019
3863 Clear 25 1014 38 10000 7.7 240 19:25 10.08.2019
3864 Clear 25 1014 38 10000 7.7 240 19:25 10.08.2019
3865 Clear 25 1014 36 10000 9.3 240 18:46 10.08.2019
3866 -273 0 0 0 0 0 18:26 10.08.2019
3867 Clear 25 1014 38 10000 8.7 210 17:57 10.08.2019
3868 Clear 25 1014 38 10000 8.7 210 17:39 10.08.2019
3869 Clear 25 1014 38 10000 8.7 230 17:21 10.08.2019
3870 Clear 25 1014 38 10000 7.7 220 16:43 10.08.2019
3871 Clear 25 1014 36 10000 9.3 220 16:25 10.08.2019
3872 Clouds 24 1014 44 10000 8.7 230 15:49 10.08.2019
3873 Rain 24 1015 50 10000 7.7 230 15:22 10.08.2019
3874 Clear 24 1014 47 10000 8.2 210 14:44 10.08.2019
3875 Clouds 24 1014 49 10000 9.8 220 14:21 10.08.2019
3876 Clouds 23 1015 46 10000 8.2 230 13:42 10.08.2019
3877 Clouds 23 1014 49 10000 8.7 220 13:20 10.08.2019
3878 Clouds 22 1014 56 10000 9.3 210 12:57 10.08.2019
3879 Clouds 22 1014 56 10000 9.3 210 12:39 10.08.2019
3880 Clouds 22 1014 60 10000 8.2 230 12:20 10.08.2019
3881 Clouds 21 1014 60 10000 8.7 210 11:42 10.08.2019
3882 Clouds 20 1014 60 10000 8.2 210 11:23 10.08.2019
3883 Clouds 20 1014 64 10000 8.7 220 10:58 10.08.2019
3884 Clouds 20 1014 64 10000 8.7 220 10:37 10.08.2019
3885 Clouds 20 1013 64 10000 8.2 220 10:19 10.08.2019
3886 Clouds 20 1013 64 10000 8.2 220 10:19 10.08.2019
3887 Clouds 19 1013 68 10000 8.2 220 09:43 10.08.2019
3888 Clouds 19 1013 68 10000 7.7 210 09:24 10.08.2019
3889 Clouds 19 1012 72 10000 5.7 210 08:56 10.08.2019
3890 Clouds 19 1012 72 10000 5.7 210 08:37 10.08.2019
3891 Clear 18 1012 68 10000 7.2 210 08:18 10.08.2019
3892 Clear 18 1012 68 10000 6.2 210 07:46 10.08.2019
3893 Clouds 18 1011 72 10000 6.2 210 07:22 10.08.2019
3894 Clouds 18 1011 72 10000 7.7 220 06:46 10.08.2019
3895 Clouds 18 1011 77 10000 5.7 210 05:46 10.08.2019
3896 Clouds 18 1010 72 10000 8.2 200 05:19 10.08.2019
3897 Clouds 19 1010 68 10000 5.1 210 03:54 10.08.2019
3898 Clear 19 1009 68 10000 8.2 200 02:48 10.08.2019
3899 Clear 19 1009 68 10000 5.7 210 01:56 10.08.2019
3900 Clear 19 1009 68 10000 5.7 210 01:36 10.08.2019
3901 Clear 20 1009 68 10000 7.7 190 01:18 10.08.2019
3902 Clear 20 1008 68 10000 7.7 190 00:41 10.08.2019
3903 Clear 20 1009 73 10000 7.7 190 00:19 10.08.2019
3904 Clear 20 1008 73 10000 7.7 180 23:39 09.08.2019
3905 Clear 20 1009 77 10000 5.7 190 23:21 09.08.2019
3906 Clear 20 1009 77 10000 6.2 190 22:55 09.08.2019
3907 Clear 20 1009 77 10000 6.2 190 22:37 09.08.2019
3908 Clear 20 1008 77 10000 4.6 200 22:18 09.08.2019
3909 Clear 21 1008 68 10000 7.7 190 21:41 09.08.2019
3910 Clear 21 1007 68 10000 6.7 190 21:22 09.08.2019
3911 Clear 21 1007 64 10000 6.7 180 20:58 09.08.2019
3912 Clear 22 1007 64 10000 6.7 180 20:39 09.08.2019
3913 Clear 22 1007 64 10000 6.2 200 20:20 09.08.2019
3914 Clear 22 1007 64 10000 5.1 220 19:44 09.08.2019
3915 Clouds 22 1007 60 10000 7.2 220 19:23 09.08.2019
3916 Clouds 22 1008 69 10000 4.6 210 18:59 09.08.2019
3917 Clouds 22 1008 69 10000 4.6 210 18:39 09.08.2019
3918 Rain 22 1007 69 10000 6.2 210 18:21 09.08.2019
3919 Rain 22 1007 69 10000 7.2 200 17:45 09.08.2019
3920 Rain 22 1007 69 10000 5.1 210 17:25 09.08.2019
3921 Rain 21 1007 83 10000 3.1 220 16:58 09.08.2019
3922 Rain 21 1007 83 10000 3.1 220 16:38 09.08.2019
3923 Rain 21 1007 78 10000 1.5 0 16:20 09.08.2019
3924 Rain 22 1007 94 1600 3.6 280 15:55 09.08.2019
3925 Rain 22 1007 94 1600 3.6 280 15:36 09.08.2019
3926 Rain 22 1007 88 2800 2.6 130 15:18 09.08.2019
3927 Rain 23 1006 78 10000 2.1 150 14:43 09.08.2019
3928 Rain 23 1007 78 10000 1.5 0 14:22 09.08.2019
3929 -273 0 0 0 0 0 14:21 09.08.2019
3930 Rain 24 1006 78 10000 1 0 13:56 09.08.2019
3931 Rain 24 1006 78 10000 1 0 13:38 09.08.2019
3932 Clouds 24 1006 78 10000 2.1 130 13:18 09.08.2019
3933 Clouds 23 1006 83 10000 2.1 80 12:43 09.08.2019
3934 Rain 23 1007 88 10000 1 0 12:22 09.08.2019
3935 Rain 22 1006 83 10000 0.5 0 11:42 09.08.2019
3936 Rain 21 1006 88 10000 1 0 11:21 09.08.2019
3937 Rain 21 1006 88 10000 1 0 10:59 09.08.2019
3938 Rain 21 1006 88 6000 0.5 0 10:39 09.08.2019
3939 Rain 21 1007 83 8000 2.1 200 10:21 09.08.2019
3940 Rain 21 1006 78 10000 2.6 200 09:42 09.08.2019
3941 Rain 22 1006 64 10000 4.1 180 09:19 09.08.2019
3942 Clouds 22 1006 64 10000 4.6 180 08:54 09.08.2019
3943 Clouds 22 1006 64 10000 4.6 180 08:36 09.08.2019
3944 Clear 22 1006 64 10000 4.6 180 08:18 09.08.2019
3945 Clear 22 1006 60 10000 4.1 170 07:42 09.08.2019
3946 Clear 22 1006 60 10000 3.1 180 07:21 09.08.2019
3947 Clear 22 1006 60 10000 4.1 170 06:52 09.08.2019
3948 Rain 22 1006 60 10000 2.6 150 06:26 09.08.2019
3949 Clear 22 1006 60 10000 3.6 150 05:46 09.08.2019
3950 Clear 23 1008 57 10000 3.1 140 02:33 09.08.2019
3951 Clear 23 1008 57 10000 3.1 140 01:41 09.08.2019
3952 Clear 24 1008 57 10000 3.1 120 00:43 09.08.2019
3953 Clear 24 1008 57 10000 2.1 110 00:24 09.08.2019
3954 Clear 24 1008 60 10000 2.6 80 23:59 08.08.2019
3955 Clear 24 1008 60 10000 2.6 80 23:38 08.08.2019
3956 Clear 24 1009 60 10000 2.6 80 23:19 08.08.2019
3957 Clear 24 1009 50 10000 2.6 90 22:56 08.08.2019
3958 Clear 24 1009 50 10000 2.6 90 22:36 08.08.2019
3959 Clear 25 1008 47 10000 3.6 110 22:18 08.08.2019
3960 Clear 26 1008 47 10000 3.1 110 21:55 08.08.2019
3961 Clear 26 1008 47 10000 3.1 110 21:36 08.08.2019
3962 Clear 27 1009 45 10000 3.6 120 21:18 08.08.2019
3963 Clear 27 1009 42 10000 3.1 150 20:42 08.08.2019
3964 Clear 28 1009 39 10000 3.6 150 20:21 08.08.2019
3965 Clouds 28 1009 39 10000 4.1 160 19:56 08.08.2019
3966 Clear 28 1010 39 10000 3.1 200 19:37 08.08.2019
3967 Clear 29 1010 39 10000 3.1 200 19:19 08.08.2019
3968 Clear 29 1010 39 10000 2.6 150 18:41 08.08.2019
3969 Clear 29 1010 42 10000 3.1 160 18:21 08.08.2019
3970 Clear 28 1010 42 10000 3.6 190 17:55 08.08.2019
3971 Clear 28 1010 42 10000 3.6 190 17:36 08.08.2019
3972 Clear 28 1010 42 10000 3.1 170 17:18 08.08.2019
3973 Clear 28 1010 42 10000 3.1 160 16:41 08.08.2019
3974 Clear 28 1011 44 10000 3.1 160 16:23 08.08.2019
3975 Clear 28 1011 42 10000 3.6 190 15:58 08.08.2019
3976 Clear 28 1011 42 10000 3.6 190 15:39 08.08.2019
3977 Clear 28 1011 42 10000 3.6 190 15:39 08.08.2019
3978 Clear 28 1011 42 10000 2.6 200 15:20 08.08.2019
3979 Clear 28 1011 42 10000 2.6 200 15:20 08.08.2019
3980 Clear 27 1011 44 10000 3.6 200 14:41 08.08.2019
3981 Clear 27 1011 44 10000 3.1 230 14:22 08.08.2019
3982 Clear 27 1011 44 10000 2.6 0 13:57 08.08.2019
3983 Clear 27 1011 44 10000 2.6 0 13:37 08.08.2019
3984 Clear 27 1011 44 10000 4.1 180 13:18 08.08.2019
3985 Clear 26 1012 44 10000 5.1 180 12:39 08.08.2019
3986 Clear 26 1012 50 10000 3.6 200 12:19 08.08.2019
3987 Clear 25 1012 50 10000 2.6 190 11:48 08.08.2019
3988 Clear 24 1012 53 10000 2.1 210 11:27 08.08.2019
3989 Clear 23 1012 56 10000 2.1 130 10:59 08.08.2019
3990 Clear 23 1012 56 10000 2.1 130 10:59 08.08.2019
3991 Clear 22 1012 56 10000 2.1 130 10:40 08.08.2019
3992 Clear 21 1012 68 10000 1.5 0 10:20 08.08.2019
3993 Clear 20 1012 64 10000 1 0 09:44 08.08.2019
3994 Clear 18 1012 68 10000 2.1 150 09:25 08.08.2019
3995 Clear 17 1012 77 10000 1.5 110 08:56 08.08.2019
3996 Clear 17 1012 77 10000 1.5 110 08:36 08.08.2019
3997 Clear 16 1012 82 10000 1.5 80 08:18 08.08.2019
3998 Clear 15 1011 87 10000 2.1 80 07:39 08.08.2019
3999 Clear 15 1011 82 10000 3.1 60 07:19 08.08.2019
4000 Clear 14 1012 87 10000 2.1 60 06:47 08.08.2019
4001 Clear 14 1012 82 10000 0.75 21.999 06:23 08.08.2019
4002 Clear 14 1012 82 10000 1 0 05:51 08.08.2019
4003 Clear 15 1012 82 10000 1.5 340 04:48 08.08.2019
4004 Clear 15 1011 77 10000 0.5 30 03:51 08.08.2019
4005 Clear 16 1012 77 10000 2.1 40 01:59 08.08.2019
4006 Clear 16 1012 72 10000 1 0 01:33 08.08.2019
4007 Clear 17 1012 60 10000 1.59 353.887 00:26 08.08.2019
4008 Clear 18 1011 56 10000 2.1 330 23:46 07.08.2019
4009 Clear 19 1011 53 10000 1.5 320 23:19 07.08.2019
4010 Clear 19 1011 53 10000 1.5 0 22:55 07.08.2019
4011 Clear 20 1011 53 10000 1.5 0 22:36 07.08.2019
4012 Clear 20 1011 53 10000 1.5 0 22:36 07.08.2019
4013 Clear 20 1010 49 10000 2.1 290 22:18 07.08.2019
4014 Clear 22 1010 41 10000 3.1 260 21:55 07.08.2019
4015 Clear 22 1010 41 10000 3.1 260 21:36 07.08.2019
4016 Clear 23 1010 38 10000 3.6 260 21:18 07.08.2019
4017 Clear 24 1009 36 10000 5.1 260 20:41 07.08.2019
4018 Clear 24 1009 38 10000 4.6 240 20:23 07.08.2019
4019 Clear 24 1009 38 10000 4.6 240 20:23 07.08.2019
4020 Clear 25 1009 38 10000 6.2 230 19:57 07.08.2019
4021 Clear 25 1009 38 10000 6.2 230 19:38 07.08.2019
4022 Clear 25 1009 39 10000 5.1 240 19:20 07.08.2019
4023 Clear 25 1009 39 10000 6.2 230 18:43 07.08.2019
4024 Clear 25 1009 39 10000 5.1 280 18:21 07.08.2019
4025 Clear 25 1009 39 10000 5.1 280 18:21 07.08.2019
4026 Clear 26 1009 44 10000 5.7 230 17:58 07.08.2019
4027 Clear 26 1009 44 10000 5.7 230 17:39 07.08.2019
4028 Clear 25 1009 44 10000 6.2 250 17:21 07.08.2019
4029 Clear 25 1009 44 10000 6.2 250 17:21 07.08.2019
4030 Clear 25 1009 53 10000 3.1 260 16:57 07.08.2019
4031 Clear 25 1009 53 10000 3.1 260 16:39 07.08.2019
4032 Clouds 25 1009 50 10000 4.1 250 16:20 07.08.2019
4033 Clouds 25 1009 50 10000 4.6 230 15:56 07.08.2019
4034 Clouds 25 1009 50 10000 4.6 230 15:37 07.08.2019
4035 Rain 24 1009 53 10000 4.1 230 15:19 07.08.2019
4036 Clouds 24 1009 50 10000 4.6 220 14:46 07.08.2019
4037 Clouds 24 1009 53 10000 2.6 220 14:27 07.08.2019
4038 Clouds 23 1010 56 10000 3.6 200 13:55 07.08.2019
4039 Clouds 23 1010 56 10000 3.6 200 13:36 07.08.2019
4040 Clouds 22 1010 60 10000 1.5 0 13:18 07.08.2019
4041 Clouds 22 1010 60 10000 1.5 0 12:55 07.08.2019
4042 Clouds 22 1010 60 10000 1.5 0 12:36 07.08.2019
4043 Clouds 21 1010 68 10000 1 0 12:18 07.08.2019
4044 Clouds 20 1010 68 10000 1 0 11:42 07.08.2019
4045 Clouds 20 1010 72 10000 1.5 0 11:20 07.08.2019
4046 Clear 19 1010 77 10000 1.5 0 10:56 07.08.2019
4047 Clear 19 1010 77 10000 1.5 0 10:38 07.08.2019
4048 Clouds 19 1010 82 10000 1.5 260 10:18 07.08.2019
4049 Clouds 18 1010 88 10000 2.1 260 09:45 07.08.2019
4050 Clear 18 1009 88 10000 1 0 09:22 07.08.2019
4051 Clear 17 1009 93 10000 1 250 08:57 07.08.2019
4052 Clear 17 1009 93 10000 1 250 08:38 07.08.2019
4053 Clouds 17 1009 88 10000 0.5 0 08:20 07.08.2019
4054 Clear 16 1009 93 10000 1.5 240 07:41 07.08.2019
4055 Mist 16 1009 88 10000 1.49 270.346 07:20 07.08.2019
4056 Mist 16 1009 88 10000 1.49 270.346 06:31 07.08.2019
4057 Clouds 16 1009 88 10000 1 0 05:54 07.08.2019
4058 Clear 17 1009 82 10000 1.5 230 04:57 07.08.2019
4059 Clear 17 1009 82 10000 2.1 220 03:21 07.08.2019
4060 Clear 17 1010 82 10000 2.6 230 02:50 07.08.2019
4061 Clear 18 1010 88 10000 1.5 250 02:20 07.08.2019
4062 Clear 18 1010 82 10000 1.5 220 01:39 07.08.2019
4063 Clear 18 1011 82 10000 2.6 230 00:51 07.08.2019
4064 Clear 18 1010 82 10000 2.6 220 00:22 07.08.2019
4065 Clear 18 1010 82 10000 3.1 210 23:42 06.08.2019
4066 Clouds 18 1010 82 10000 2.6 220 23:21 06.08.2019
4067 Clear 18 1011 93 10000 2.1 230 22:58 06.08.2019
4068 Clear 18 1011 93 10000 2.1 230 22:38 06.08.2019
4069 Clouds 19 1010 77 10000 2.6 250 22:20 06.08.2019
4070 Clouds 19 1010 77 10000 2.1 220 21:43 06.08.2019
4071 Clouds 19 1010 77 10000 4.1 230 21:25 06.08.2019
4072 Clouds 19 1010 82 10000 3.1 250 20:59 06.08.2019
4073 Clouds 19 1010 82 10000 3.1 250 20:41 06.08.2019
4074 Clouds 20 1010 82 10000 3.1 220 20:22 06.08.2019
4075 Clouds 20 1010 88 10000 1.5 200 19:45 06.08.2019
4076 Clouds 20 1010 82 10000 2.6 220 19:26 06.08.2019
4077 Rain 19 1010 88 10000 3.6 200 18:55 06.08.2019
4078 Rain 19 1010 88 10000 3.6 200 18:36 06.08.2019
4079 Rain 19 1011 93 10000 3.1 220 18:18 06.08.2019
4080 Rain 19 1010 93 8000 3.6 150 17:55 06.08.2019
4081 Rain 19 1010 93 8000 3.6 150 17:36 06.08.2019
4082 Rain 19 1011 88 9000 3.1 160 17:18 06.08.2019
4083 Rain 19 1011 93 2900 2.6 250 16:42 06.08.2019
4084 Rain 19 1011 88 6000 2.1 260 16:21 06.08.2019
4085 Rain 19 1011 82 10000 2.1 220 15:57 06.08.2019
4086 Rain 20 1011 82 10000 2.1 220 15:39 06.08.2019
4087 Rain 20 1011 82 10000 2.1 220 15:39 06.08.2019
4088 Rain 21 1011 83 10000 4.6 190 15:20 06.08.2019
4089 Rain 21 1012 77 10000 5.1 220 14:45 06.08.2019
4090 Drizzle 21 1011 68 10000 4.6 210 14:26 06.08.2019
4091 Clouds 22 1011 68 10000 4.1 200 13:58 06.08.2019
4092 Clouds 22 1011 68 10000 4.1 200 13:40 06.08.2019
4093 Clouds 22 1011 60 10000 4.1 220 13:21 06.08.2019
4094 Rain 22 1012 60 10000 3.6 240 12:58 06.08.2019
4095 Rain 22 1012 60 10000 3.6 240 12:39 06.08.2019
4096 Clouds 22 1012 60 10000 4.1 220 12:21 06.08.2019
4097 Clouds 22 1012 60 10000 3.1 210 11:43 06.08.2019
4098 Clouds 22 1012 68 10000 1.5 0 11:19 06.08.2019
4099 Clouds 22 1012 68 10000 1.5 0 10:56 06.08.2019
4100 Clouds 21 1012 73 10000 2.1 230 10:37 06.08.2019
4101 Clouds 21 1012 73 10000 1.5 210 10:19 06.08.2019
4102 Clouds 20 1012 73 10000 1.5 260 09:41 06.08.2019
4103 Clouds 19 1012 77 10000 2.1 230 09:20 06.08.2019
4104 Clear 19 1012 77 10000 2.1 240 08:49 06.08.2019
4105 Clouds 19 1013 77 10000 1.5 260 08:27 06.08.2019
4106 Clouds 19 1012 77 10000 2.1 270 07:56 06.08.2019
4107 Clouds 19 1013 77 10000 3.1 250 07:23 06.08.2019
4108 Clouds 19 1012 77 10000 2.1 260 06:43 06.08.2019
4109 Clouds 19 1012 77 10000 2.1 230 06:19 06.08.2019
4110 Clear 19 1012 77 10000 1 0 04:36 06.08.2019
4111 Rain 20 1013 73 10000 1 330 01:59 06.08.2019
4112 Clear 21 1013 68 10000 1.5 330 01:24 06.08.2019
4113 Rain 21 1012 64 10000 2.6 310 00:39 06.08.2019
4114 Clear 22 1012 56 10000 3.1 240 23:52 05.08.2019
4115 Clear 22 1012 56 10000 3.1 230 23:19 05.08.2019
4116 Clear 22 1012 56 10000 3.1 230 22:42 05.08.2019
4117 Clear 23 1012 53 10000 3.6 250 22:23 05.08.2019
4118 Clear 24 1012 50 10000 4.6 250 21:58 05.08.2019
4119 Clear 24 1012 50 10000 4.6 250 21:40 05.08.2019
4120 Clear 24 1012 50 10000 4.6 230 21:20 05.08.2019
4121 Clear 24 1012 50 10000 4.6 240 20:57 05.08.2019
4122 Clear 25 1012 50 10000 4.6 240 20:38 05.08.2019
4123 Clear 25 1012 47 10000 4.6 230 20:20 05.08.2019
4124 Clear 26 1012 44 10000 5.1 240 19:55 05.08.2019
4125 Clear 26 1012 44 10000 5.1 240 19:36 05.08.2019
4126 Clear 26 1012 47 10000 5.1 230 19:18 05.08.2019
4127 Clear 26 1012 47 10000 5.1 230 18:40 05.08.2019
4128 Clear 26 1012 44 10000 5.1 220 18:19 05.08.2019
4129 Clear 26 1012 41 10000 5.1 210 17:46 05.08.2019
4130 Clear 26 1012 41 10000 5.7 220 17:27 05.08.2019
4131 Clear 27 1012 41 10000 5.1 230 16:47 05.08.2019
4132 Clear 27 1012 39 10000 5.7 220 16:27 05.08.2019
4133 Clouds 27 1013 36 10000 5.1 230 15:58 05.08.2019
4134 Clouds 27 1013 36 10000 5.1 230 15:40 05.08.2019
4135 Clear 26 1013 39 10000 3.6 240 15:20 05.08.2019
4136 Clear 26 1013 36 10000 5.1 260 14:42 05.08.2019
4137 Clear 26 1013 39 10000 6.2 230 14:21 05.08.2019
4138 Clouds 26 1013 47 10000 5.1 240 13:48 05.08.2019
4139 Clouds 25 1013 47 10000 5.1 240 13:24 05.08.2019
4140 Clouds 25 1013 53 10000 4.6 230 12:56 05.08.2019
4141 Clouds 25 1013 53 10000 4.6 230 12:37 05.08.2019
4142 Clouds 24 1013 57 10000 5.1 200 12:18 05.08.2019
4143 Clouds 23 1014 60 10000 3.6 220 11:42 05.08.2019
4144 Clouds 23 1014 60 10000 3.1 210 11:24 05.08.2019
4145 Clouds 22 1014 64 10000 2.1 220 10:46 05.08.2019
4146 Clouds 21 1014 68 10000 2.1 210 10:28 05.08.2019
4147 Clear 20 1014 72 10000 1.5 0 09:55 05.08.2019
4148 Clear 20 1014 72 10000 1.5 0 09:37 05.08.2019
4149 Clear 19 1014 77 10000 1.5 0 09:19 05.08.2019
4150 Clear 18 1014 82 10000 1 0 08:43 05.08.2019
4151 Clouds 17 1014 82 10000 1.5 0 08:23 05.08.2019
4152 Clouds 17 1014 82 10000 1.57 242.371 07:47 05.08.2019
4153 Clear 16 1014 77 10000 0.5 0 07:27 05.08.2019
4154 Clear 17 1014 82 10000 0.5 280 06:51 05.08.2019
4155 Clear 17 1013 77 10000 1 0 06:19 05.08.2019
4156 Clear 18 1013 72 10000 1.5 310 05:23 05.08.2019
4157 Clear 18 1013 72 10000 2.1 290 04:35 05.08.2019
4158 Clear 19 1013 68 10000 3.1 290 03:50 05.08.2019
4159 Clear 20 1013 68 10000 3.1 290 02:38 05.08.2019
4160 Clear 20 1013 56 10000 3.1 290 01:47 05.08.2019
4161 Clear 21 1013 56 10000 3.6 280 01:19 05.08.2019
4162 Clear 22 1012 56 10000 3.1 270 00:39 05.08.2019
4163 Rain 22 1012 56 10000 3.1 280 00:19 05.08.2019
4164 Clear 22 1012 56 10000 4.1 280 23:42 04.08.2019
4165 Clear 23 1012 53 10000 3.6 280 23:23 04.08.2019
4166 Rain 24 1012 41 10000 2.6 280 22:57 04.08.2019
4167 Rain 24 1012 41 10000 2.6 280 22:38 04.08.2019
4168 Clear 25 1011 41 10000 1.5 0 22:19 04.08.2019
4169 Clear 25 1011 41 10000 1.5 0 22:19 04.08.2019
4170 Clear 25 1011 39 10000 3.6 80 21:45 04.08.2019
4171 Clear 25 1011 39 10000 3.6 80 21:45 04.08.2019
4172 Clear 26 1011 36 10000 3.6 80 21:24 04.08.2019
4173 Clear 27 1011 34 10000 3.1 80 20:59 04.08.2019
4174 Clear 28 1011 34 10000 3.1 80 20:41 04.08.2019
4175 Clear 28 1011 34 10000 4.1 90 20:18 04.08.2019
4176 Clear 29 1011 30 10000 2.6 60 19:48 04.08.2019
4177 Clear 29 1012 28 10000 1.5 10 19:28 04.08.2019
4178 Clear 29 1012 27 10000 1 0 18:58 04.08.2019
4179 Clear 30 1012 27 10000 1 0 18:40 04.08.2019
4180 Clear 30 1012 27 10000 1.5 0 18:20 04.08.2019
4181 Clear 30 1012 27 10000 1.5 190 17:43 04.08.2019
4182 Clear 30 1013 28 10000 2.6 200 17:24 04.08.2019
4183 Clear 30 1013 30 10000 1.5 190 16:46 04.08.2019
4184 Clear 30 1013 32 10000 1 0 16:27 04.08.2019
4185 Clear 29 1013 34 10000 2.1 220 15:56 04.08.2019
4186 Clear 29 1013 34 10000 2.1 220 15:37 04.08.2019
4187 Clear 29 1014 34 10000 1.5 0 15:19 04.08.2019
4188 Clear 28 1014 34 10000 2.6 140 14:42 04.08.2019
4189 Clear 28 1014 34 10000 2.6 160 14:22 04.08.2019
4190 Clear 28 1014 39 10000 2.6 180 13:46 04.08.2019
4191 Clear 27 1015 42 10000 3.1 140 13:27 04.08.2019
4192 Clear 27 1015 44 10000 2.1 0 12:57 04.08.2019
4193 Clear 27 1015 44 10000 2.1 0 12:39 04.08.2019
4194 Clear 26 1015 44 10000 3.1 160 12:21 04.08.2019
4195 Clear 25 1015 50 10000 2.6 120 11:48 04.08.2019
4196 Clear 25 1015 53 10000 2.6 140 11:23 04.08.2019
4197 Clear 23 1016 56 10000 1 0 10:48 04.08.2019
4198 Clear 22 1016 60 10000 1 0 10:23 04.08.2019
4199 Clear 21 1016 64 10000 1 0 09:47 04.08.2019
4200 Clear 19 1016 72 10000 1 0 09:27 04.08.2019
4201 Clear 18 1016 77 10000 1.5 10 08:59 04.08.2019
4202 Clear 17 1016 77 10000 1.5 10 08:38 04.08.2019
4203 Clear 15 1016 82 10000 1.5 10 07:56 04.08.2019
4204 Clear 15 1016 82 10000 1.5 10 07:38 04.08.2019
4205 Clear 15 1016 77 10000 1.5 360 06:46 04.08.2019
4206 Clear 15 1016 77 10000 2.1 10 06:23 04.08.2019
4207 Clear 16 1016 77 10000 1.5 360 03:38 04.08.2019
4208 Clear 17 1016 72 10000 1.5 350 02:20 04.08.2019
4209 Clear 17 1016 72 10000 1 340 01:33 04.08.2019
4210 Clear 18 1016 64 10000 1 350 00:43 04.08.2019
4211 Clear 19 1016 64 10000 2.1 50 00:25 04.08.2019
4212 Clear 19 1016 60 10000 3.1 50 23:56 03.08.2019
4213 Clear 19 1016 60 10000 3.1 50 23:38 03.08.2019
4214 Clear 20 1016 60 10000 3.1 50 23:18 03.08.2019
4215 Clear 20 1017 56 10000 2.6 30 22:42 03.08.2019
4216 Clear 22 1016 56 10000 2.6 40 22:20 03.08.2019
4217 Clear 22 1016 53 10000 2.6 40 21:40 03.08.2019
4218 Clear 22 1016 53 10000 2.6 40 21:40 03.08.2019
4219 Clear 23 1016 50 10000 2.6 30 21:22 03.08.2019
4220 Clear 23 1016 50 10000 2.6 20 20:46 03.08.2019
4221 Clear 24 1017 50 10000 2.6 350 20:26 03.08.2019
4222 Clear 24 1017 47 10000 2.1 10 19:57 03.08.2019
4223 Clear 24 1017 47 10000 2.1 10 19:39 03.08.2019
4224 Clear 25 1017 50 10000 2.6 340 19:21 03.08.2019
4225 Clouds 25 1017 47 10000 2.1 10 18:46 03.08.2019
4226 Clouds 25 1017 50 10000 3.1 20 18:26 03.08.2019
4227 Clear 25 1017 50 10000 3.1 40 17:46 03.08.2019
4228 Clear 25 1018 50 10000 2.6 30 17:20 03.08.2019
4229 Clouds 25 1018 50 10000 2.1 0 16:54 03.08.2019
4230 Clouds 25 1018 50 10000 2.1 0 16:36 03.08.2019
4231 Clouds 25 1018 50 10000 3.6 30 16:18 03.08.2019
4232 Clouds 24 1018 50 10000 2.1 0 15:42 03.08.2019
4233 Clouds 24 1018 53 10000 3.6 30 15:20 03.08.2019
4234 Clouds 24 1019 56 10000 2.6 90 14:38 03.08.2019
4235 Clouds 23 1019 56 10000 3.1 50 14:19 03.08.2019
4236 Clouds 23 1019 56 10000 3.1 70 13:49 03.08.2019
4237 Clouds 23 1019 60 10000 2.1 40 13:23 03.08.2019
4238 Clouds 22 1019 60 10000 4.1 30 12:56 03.08.2019
4239 Clouds 22 1019 60 10000 4.1 30 12:37 03.08.2019
4240 Clouds 21 1019 60 10000 2.6 60 12:19 03.08.2019
4241 Clouds 21 1019 64 10000 3.6 60 11:45 03.08.2019
4242 Clouds 20 1019 68 10000 4.1 40 11:25 03.08.2019
4243 Clouds 19 1019 68 10000 3.1 50 10:39 03.08.2019
4244 Clouds 19 1019 72 10000 2.1 360 10:21 03.08.2019
4245 Clouds 18 1019 77 10000 2.1 350 09:39 03.08.2019
4246 Clouds 17 1019 77 10000 1.5 20 09:19 03.08.2019
4247 Clouds 16 1019 77 10000 1 0 08:46 03.08.2019
4248 Clouds 17 1019 77 10000 1 0 08:46 03.08.2019
4249 Clouds 15 1019 87 10000 1 0 07:47 03.08.2019
4250 Mist 15 1019 87 10000 1 0 07:28 03.08.2019
4251 Clear 15 1018 87 10000 2.1 350 06:22 03.08.2019
4252 Clear 17 1018 72 10000 2.6 350 03:58 03.08.2019
4253 Clear 18 1018 68 10000 2.6 10 02:29 03.08.2019
4254 Clear 18 1018 68 10000 3.1 10 01:34 03.08.2019
4255 Clear 20 1018 60 10000 2.6 10 00:33 03.08.2019
4256 Clear 20 1018 60 10000 4.1 10 23:57 02.08.2019
4257 Clear 20 1018 60 10000 4.1 10 23:38 02.08.2019
4258 Clear 21 1018 53 10000 3.1 360 23:18 02.08.2019
4259 Clear 22 1017 53 10000 2.6 350 22:56 02.08.2019
4260 -273 0 0 0 0 0 22:38 02.08.2019
4261 Clear 23 1017 49 10000 4.1 340 22:18 02.08.2019
4262 Clear 24 1017 50 10000 3.6 350 21:42 02.08.2019
4263 Clear 24 1016 47 10000 5.1 350 21:22 02.08.2019
4264 Clear 25 1016 41 10000 4.6 330 20:55 02.08.2019
4265 Clear 25 1016 41 10000 4.6 330 20:37 02.08.2019
4266 Clear 26 1016 39 10000 4.1 350 20:19 02.08.2019
4267 Clear 27 1016 36 10000 3.6 320 19:42 02.08.2019
4268 Clear 27 1016 36 10000 3.6 360 19:24 02.08.2019
4269 Clear 27 1016 32 10000 3.6 300 18:44 02.08.2019
4270 Clear 28 1016 34 10000 2.6 310 18:24 02.08.2019
4271 Clear 27 1016 32 10000 1 0 17:44 02.08.2019
4272 Clear 27 1017 34 10000 3.1 320 17:24 02.08.2019
4273 Clear 27 1017 34 10000 2.1 250 16:58 02.08.2019
4274 Clear 27 1017 34 10000 2.1 250 16:38 02.08.2019
4275 Clear 27 1017 36 10000 2.1 260 16:18 02.08.2019
4276 Clear 26 1017 39 10000 1.5 0 15:39 02.08.2019
4277 Clear 26 1017 41 10000 3.1 320 15:19 02.08.2019
4278 Clear 26 1017 41 10000 2.6 330 14:46 02.08.2019
4279 Clear 25 1017 44 10000 2.1 0 14:18 02.08.2019
4280 Clear 25 1017 44 10000 2.1 0 14:18 02.08.2019
4281 Clear 25 1018 44 10000 2.1 0 13:48 02.08.2019
4282 Clear 25 1018 47 10000 2.1 0 13:26 02.08.2019
4283 Clear 24 1018 47 10000 2.1 0 12:45 02.08.2019
4284 Clear 24 1018 49 10000 1.5 0 12:22 02.08.2019
4285 Clear 23 1018 53 10000 2.6 360 11:55 02.08.2019
4286 Clear 23 1018 53 10000 2.6 360 11:37 02.08.2019
4287 Clear 23 1018 60 10000 2.1 10 11:18 02.08.2019
4288 Clear 22 1018 60 10000 3.1 350 10:41 02.08.2019
4289 Clear 21 1018 63 10000 3.1 350 10:23 02.08.2019
4290 Clear 19 1018 72 10000 2.6 340 09:52 02.08.2019
4291 Clouds 19 1017 68 10000 2.1 340 09:26 02.08.2019
4292 Clear 18 1017 72 10000 2.6 340 08:50 02.08.2019
4293 Clear 17 1017 67 10000 3.1 340 08:23 02.08.2019
4294 Clear 16 1017 67 10000 2.1 320 07:51 02.08.2019
4295 Clear 16 1017 67 10000 2.1 320 07:31 02.08.2019
4296 Clear 16 1017 67 10000 1.5 340 06:54 02.08.2019
4297 Clear 16 1017 67 10000 2.1 330 06:24 02.08.2019
4298 Clear 17 1017 67 10000 1.5 330 05:37 02.08.2019
4299 Clear 17 1017 63 10000 2.1 340 03:31 02.08.2019
4300 Clear 18 1017 63 10000 2.1 340 02:35 02.08.2019
4301 Clear 19 1017 60 10000 3.1 350 00:54 02.08.2019
4302 Clear 20 1017 56 10000 3.1 350 00:20 02.08.2019
4303 Clear 20 1017 56 10000 3.1 350 23:43 01.08.2019
4304 Clear 21 1017 53 10000 4.1 360 23:19 01.08.2019
4305 Clear 21 1016 49 10000 4.6 360 22:41 01.08.2019
4306 Clear 22 1016 47 10000 5.7 10 22:21 01.08.2019
4307 Clear 23 1016 44 10000 2.6 20 21:55 01.08.2019
4308 Clear 23 1016 44 10000 2.6 20 21:37 01.08.2019
4309 Clear 23 1015 44 10000 2.1 350 21:18 01.08.2019
4310 Clear 24 1015 41 10000 2.6 350 20:43 01.08.2019
4311 Clear 25 1015 41 10000 3.6 350 20:22 01.08.2019
4312 Clear 25 1015 39 10000 2.1 10 19:45 01.08.2019
4313 Clear 26 1015 36 10000 1.5 340 19:23 01.08.2019
4314 Clear 26 1015 36 10000 2.1 340 18:58 01.08.2019
4315 Clear 26 1015 36 10000 2.1 340 18:40 01.08.2019
4316 Clear 26 1015 39 10000 3.6 10 18:21 01.08.2019
4317 Clear 26 1016 41 10000 1.5 0 17:45 01.08.2019
4318 Clear 26 1016 39 10000 2.6 310 17:26 01.08.2019
4319 Clear 27 1016 36 10000 1 0 16:44 01.08.2019
4320 Clear 26 1016 44 10000 2.6 50 16:22 01.08.2019
4321 Clear 26 1017 44 10000 3.1 30 15:46 01.08.2019
4322 Clear 26 1017 39 10000 1.5 170 15:21 01.08.2019
4323 Clear 25 1017 47 10000 2.1 250 14:58 01.08.2019
4324 Clear 25 1017 47 10000 2.1 250 14:40 01.08.2019
4325 Clouds 25 1017 47 10000 1.5 0 14:18 01.08.2019
4326 Clear 25 1017 50 10000 2.1 0 13:41 01.08.2019
4327 Clouds 24 1018 50 10000 2.1 0 13:22 01.08.2019
4328 Clear 24 1018 50 10000 1.5 0 12:59 01.08.2019
4329 Clear 24 1018 50 10000 1.5 0 12:41 01.08.2019
4330 Clear 23 1018 53 10000 1 0 12:21 01.08.2019
4331 Clear 23 1018 56 10000 1.5 0 11:42 01.08.2019
4332 Clear 22 1018 64 10000 1.5 0 11:22 01.08.2019
4333 Clear 22 1018 64 10000 1.5 0 11:22 01.08.2019
4334 Clear 21 1018 64 10000 1 0 10:46 01.08.2019
4335 Clear 20 1018 63 10000 1 0 10:28 01.08.2019
4336 Clear 19 1018 68 10000 1 0 09:59 01.08.2019
4337 Clear 19 1018 68 10000 1 0 09:39 01.08.2019
4338 Clear 18 1018 67 10000 1 40 09:21 01.08.2019
4339 Clear 17 1018 77 10000 0.5 0 08:42 01.08.2019
4340 Clear 15 1018 77 10000 0.5 0 08:19 01.08.2019
4341 Clear 15 1018 77 10000 0.77 295.968 07:47 01.08.2019
4342 Clear 14 1018 72 10000 1 0 07:24 01.08.2019
4343 Clear 14 1018 72 10000 1.5 40 06:47 01.08.2019
4344 Clear 15 1018 72 10000 2.1 80 05:48 01.08.2019
4345 Clear 15 1018 68 10000 1 0 04:18 01.08.2019
4346 Clear 16 1018 59 10000 1.05 257.067 02:32 01.08.2019
4347 Clear 18 1018 46 10000 1 0 00:42 01.08.2019
4348 Clear 18 1018 46 10000 1 0 00:24 01.08.2019
4349 Clear 19 1018 46 10000 1.5 310 23:42 31.07.2019
4350 Clear 19 1018 46 10000 2.1 300 23:21 31.07.2019
4351 Clear 19 1018 43 10000 2.1 310 22:47 31.07.2019
4352 Clear 20 1017 40 10000 2.6 270 22:29 31.07.2019
4353 Clear 21 1017 35 10000 2.6 260 21:57 31.07.2019
4354 Clear 21 1017 35 10000 2.6 260 21:37 31.07.2019
4355 Clear 21 1017 38 10000 2.6 240 21:18 31.07.2019
4356 Clear 22 1017 38 10000 2.6 250 20:43 31.07.2019
4357 Clear 23 1017 36 10000 3.6 230 20:21 31.07.2019
4358 Clear 23 1017 38 10000 3.6 260 19:42 31.07.2019
4359 Clear 23 1017 40 10000 2.1 240 19:23 31.07.2019
4360 Clear 23 1017 40 10000 4.1 260 18:53 31.07.2019
4361 Clear 23 1018 43 10000 4.1 250 18:28 31.07.2019
4362 Clear 23 1018 46 10000 4.6 230 17:59 31.07.2019
4363 Clear 23 1018 46 10000 4.6 230 17:40 31.07.2019
4364 Clear 22 1018 46 10000 3.6 220 17:19 31.07.2019
4365 Clouds 22 1018 46 10000 4.1 250 16:43 31.07.2019
4366 Clear 22 1018 49 10000 5.1 240 16:20 31.07.2019
4367 Clear 21 1018 49 10000 5.1 270 15:45 31.07.2019
4368 Clear 21 1018 46 10000 4.1 250 15:26 31.07.2019
4369 Clear 21 1018 46 10000 4.1 250 15:26 31.07.2019
4370 Clouds 21 1018 46 10000 4.6 240 14:54 31.07.2019
4371 Clouds 21 1018 46 10000 4.6 240 14:36 31.07.2019
4372 Clouds 21 1018 46 10000 5.7 240 14:18 31.07.2019
4373 Clouds 21 1018 49 10000 4.6 260 13:42 31.07.2019
4374 Clouds 20 1018 52 10000 4.6 240 13:23 31.07.2019
4375 Clouds 20 1018 59 10000 5.1 260 12:56 31.07.2019
4376 Clouds 20 1018 59 10000 5.1 260 12:37 31.07.2019
4377 Clouds 20 1018 59 10000 6.2 230 12:18 31.07.2019
4378 Clouds 19 1018 63 10000 3.6 230 11:38 31.07.2019
4379 Clouds 19 1018 63 10000 3.6 250 11:19 31.07.2019
4380 Clouds 18 1018 68 10000 3.6 250 10:42 31.07.2019
4381 Clouds 18 1018 68 10000 4.6 240 10:20 31.07.2019
4382 Clouds 17 1018 72 10000 3.6 250 09:54 31.07.2019
4383 Clouds 17 1018 72 10000 3.6 250 09:36 31.07.2019
4384 Clouds 16 1018 72 10000 2.6 240 09:18 31.07.2019
4385 Clouds 16 1018 72 10000 2.6 240 09:18 31.07.2019
4386 Clouds 15 1018 77 10000 3.1 230 08:40 31.07.2019
4387 Clouds 15 1018 77 10000 5.1 230 08:20 31.07.2019
4388 Clouds 14 1017 77 10000 6.7 220 07:35 31.07.2019
4389 Rain 15 1017 72 10000 4.6 230 06:35 31.07.2019
4390 Clouds 16 1016 72 10000 3.6 240 04:52 31.07.2019
4391 Clouds 16 1016 82 10000 2.6 230 03:24 31.07.2019
4392 Clear 17 1015 59 10000 4.1 230 00:20 31.07.2019
4393 Clear 18 1015 63 10000 3.6 230 23:40 30.07.2019
4394 Clouds 18 1015 64 10000 2.6 260 23:19 30.07.2019
4395 Clouds 18 1014 56 10000 4.6 230 22:46 30.07.2019
4396 Rain 19 1014 56 10000 4.6 230 22:25 30.07.2019
4397 Clear 19 1014 56 10000 4.6 220 21:56 30.07.2019
4398 Clear 19 1014 56 10000 4.6 220 21:36 30.07.2019
4399 Rain 20 1014 60 10000 4.1 250 21:18 30.07.2019
4400 Rain 20 1013 56 10000 3.6 250 20:42 30.07.2019
4401 Rain 21 1013 64 10000 6.7 270 20:23 30.07.2019
4402 Rain 21 1014 52 10000 8.2 240 19:58 30.07.2019
4403 Rain 21 1012 47 10000 5.7 220 19:39 30.07.2019
4404 Rain 22 1013 46 10000 9.3 210 18:58 30.07.2019
4405 Rain 22 1013 46 10000 9.3 210 18:38 30.07.2019
4406 Rain 23 1012 47 10000 7.2 220 18:18 30.07.2019
4407 Clear 23 1013 44 10000 7.7 200 17:41 30.07.2019
4408 Clear 23 1013 53 10000 6.7 230 17:19 30.07.2019
4409 Clouds 23 1013 56 10000 7.7 240 16:51 30.07.2019
4410 Rain 23 1012 44 10000 9.3 210 16:21 30.07.2019
4411 Clear 23 1012 44 10000 9.3 190 15:58 30.07.2019
4412 Clear 23 1012 44 10000 9.3 190 15:38 30.07.2019
4413 Clouds 23 1012 44 10000 9.8 200 15:19 30.07.2019
4414 Clear 24 1013 47 10000 8.7 210 14:42 30.07.2019
4415 Clear 24 1012 47 10000 9.3 210 14:21 30.07.2019
4416 Clouds 24 1012 49 10000 7.7 210 13:48 30.07.2019
4417 Clouds 23 1012 49 10000 8.2 210 13:29 30.07.2019
4418 Clouds 23 1012 49 10000 9.8 200 12:59 30.07.2019
4419 Clouds 23 1012 49 10000 9.8 200 12:40 30.07.2019
4420 Clouds 23 1012 56 10000 8.7 210 12:22 30.07.2019
4421 Clouds 22 1012 53 10000 10.3 200 11:42 30.07.2019
4422 Clouds 22 1012 56 10000 9.3 210 11:20 30.07.2019
4423 Clouds 21 1012 60 10000 8.2 200 10:55 30.07.2019
4424 Clouds 21 1012 60 10000 8.2 200 10:37 30.07.2019
4425 Clouds 20 1012 60 10000 5.7 200 10:18 30.07.2019
4426 Clear 19 1012 64 10000 7.7 200 09:44 30.07.2019
4427 Clouds 19 1012 68 10000 6.7 200 09:24 30.07.2019
4428 Clear 17 1012 72 10000 5.1 200 08:32 30.07.2019
4429 Clear 17 1012 72 10000 4.1 200 07:52 30.07.2019
4430 Clear 16 1012 72 10000 4.1 200 07:34 30.07.2019
4431 Clear 16 1011 82 10000 3.6 220 06:50 30.07.2019
4432 Clear 16 1011 63 10000 4.1 210 06:31 30.07.2019
4433 Clear 17 1011 63 10000 4.1 220 05:34 30.07.2019
4434 Clear 18 1010 63 10000 2.1 80 03:29 30.07.2019
4435 Clear 19 1010 49 10000 1 0 01:22 30.07.2019
4436 Clear 20 1010 46 10000 2.1 120 00:27 30.07.2019
4437 Clear 21 1009 40 10000 2.6 120 23:57 29.07.2019
4438 Clear 21 1009 40 10000 2.6 120 23:38 29.07.2019
4439 Clear 21 1009 38 10000 3.1 120 23:20 29.07.2019
4440 Clear 22 1009 36 10000 3.6 130 22:54 29.07.2019
4441 Clear 22 1009 36 10000 3.6 130 22:36 29.07.2019
4442 Clear 23 1009 31 10000 4.1 130 22:18 29.07.2019
4443 Clear 25 1009 30 10000 4.6 140 21:41 29.07.2019
4444 Clear 26 1009 30 10000 3.6 150 21:23 29.07.2019
4445 Clear 26 1009 30 10000 3.6 150 20:57 29.07.2019
4446 Clear 27 1009 26 10000 3.6 130 20:38 29.07.2019
4447 Clear 27 1009 26 10000 3.1 190 20:19 29.07.2019
4448 Clear 28 1009 28 10000 3.6 190 19:43 29.07.2019
4449 Clear 28 1009 26 10000 3.6 180 19:23 29.07.2019
4450 Clear 28 1009 28 10000 3.1 210 18:55 29.07.2019
4451 Clear 28 1009 28 10000 3.1 210 18:37 29.07.2019
4452 Clear 28 1009 30 10000 3.1 150 18:18 29.07.2019
4453 Clear 28 1009 30 10000 3.1 160 17:47 29.07.2019
4454 Clear 28 1009 30 10000 3.1 160 17:47 29.07.2019
4455 Clear 28 1010 32 10000 2.1 120 17:27 29.07.2019
4456 Clear 28 1010 32 10000 4.1 140 16:46 29.07.2019
4457 Clear 27 1010 32 10000 4.1 120 16:27 29.07.2019
4458 Clear 27 1010 32 10000 4.6 150 15:54 29.07.2019
4459 Clear 27 1010 34 10000 3.6 0 15:36 29.07.2019
4460 Clear 27 1010 34 10000 4.6 0 14:59 29.07.2019
4461 Clear 26 1010 34 10000 4.6 0 14:40 29.07.2019
4462 Clear 26 1011 36 10000 4.6 120 14:21 29.07.2019
4463 Clear 25 1011 36 10000 3.6 140 13:46 29.07.2019
4464 Clear 25 1011 38 10000 4.1 160 13:24 29.07.2019
4465 Clear 25 1011 38 10000 3.6 130 12:57 29.07.2019
4466 Clear 24 1012 41 10000 4.1 150 12:38 29.07.2019
4467 -273 0 0 0 0 0 12:19 29.07.2019
4468 Clear 23 1012 43 10000 4.1 120 11:40 29.07.2019
4469 Clear 23 1012 43 10000 2.6 110 11:19 29.07.2019
4470 Clear 22 1012 49 10000 2.6 110 10:42 29.07.2019
4471 Clear 21 1012 52 10000 2.6 130 10:21 29.07.2019
4472 Clear 19 1012 63 10000 1.5 110 09:44 29.07.2019
4473 Clear 18 1012 72 10000 1.5 0 09:21 29.07.2019
4474 Clear 16 1012 77 10000 1.5 20 08:43 29.07.2019
4475 Clear 15 1012 82 10000 1 360 08:24 29.07.2019
4476 Clear 13 1011 82 10000 1 360 07:46 29.07.2019
4477 Clear 12 1011 82 10000 1 10 07:27 29.07.2019
4478 Clear 12 1011 82 10000 1.5 360 06:37 29.07.2019
4479 Clear 12 1011 87 10000 1.5 10 05:32 29.07.2019
4480 Clear 14 1011 77 10000 1 50 02:54 29.07.2019
4481 Clear 15 1011 63 10000 0.5 0 01:50 29.07.2019
4482 Clear 15 1011 63 10000 0.5 0 01:31 29.07.2019
4483 Clear 16 1011 59 10000 2.1 310 00:57 29.07.2019
4484 Clear 17 1010 55 10000 1.5 0 00:24 29.07.2019
4485 Clear 17 1010 55 10000 1.5 320 23:42 28.07.2019
4486 Clear 18 1010 52 10000 2.1 320 23:24 28.07.2019
4487 Clear 18 1010 52 10000 2.1 320 22:44 28.07.2019
4488 Clear 19 1009 49 10000 2.1 310 22:26 28.07.2019
4489 Clear 21 1009 43 10000 3.1 300 21:52 28.07.2019
4490 Clear 21 1009 40 10000 4.1 320 21:20 28.07.2019
4491 Clear 22 1009 38 10000 3.6 280 20:57 28.07.2019
4492 Clear 23 1009 38 10000 3.6 280 20:39 28.07.2019
4493 Clear 23 1008 38 10000 5.1 300 20:21 28.07.2019
4494 Clear 23 1008 40 10000 4.1 320 19:40 28.07.2019
4495 Clear 24 1008 38 10000 4.6 290 19:20 28.07.2019
4496 Clear 24 1008 41 10000 5.1 270 18:46 28.07.2019
4497 Clear 24 1008 41 10000 5.7 280 18:27 28.07.2019
4498 Clear 24 1008 43 10000 4.6 290 17:56 28.07.2019
4499 Clear 24 1008 43 10000 4.6 290 17:38 28.07.2019
4500 Clear 24 1008 43 10000 4.1 300 17:19 28.07.2019
4501 Clear 24 1008 46 10000 3.6 280 16:42 28.07.2019
4502 Clouds 24 1008 46 10000 4.1 280 16:24 28.07.2019
4503 Clear 24 1008 53 10000 3.6 270 15:48 28.07.2019
4504 Clouds 23 1007 53 10000 4.6 250 15:27 28.07.2019
4505 Clouds 23 1007 53 10000 4.6 250 14:56 28.07.2019
4506 Clouds 22 1007 53 10000 5.1 270 14:36 28.07.2019
4507 Clouds 22 1007 53 10000 5.1 280 14:18 28.07.2019
4508 Clouds 22 1007 53 10000 5.1 280 14:18 28.07.2019
4509 Clouds 22 1007 53 10000 5.1 280 14:18 28.07.2019
4510 Clouds 22 1007 53 10000 4.1 290 13:39 28.07.2019
4511 Clouds 22 1007 60 10000 5.1 260 13:20 28.07.2019
4512 Clouds 21 1007 60 10000 5.1 280 12:45 28.07.2019
4513 Clouds 21 1007 64 10000 5.1 270 12:27 28.07.2019
4514 Clouds 20 1007 64 10000 4.6 280 11:51 28.07.2019
4515 Clouds 19 1007 72 10000 5.1 280 11:29 28.07.2019
4516 Clouds 19 1007 77 10000 4.6 290 10:59 28.07.2019
4517 Clouds 18 1007 77 10000 4.6 290 10:38 28.07.2019
4518 Clouds 18 1007 77 10000 4.6 280 10:19 28.07.2019
4519 Clouds 17 1007 77 10000 6.2 270 09:40 28.07.2019
4520 Clouds 16 1007 82 10000 4.1 270 09:22 28.07.2019
4521 Clouds 16 1006 82 10000 4.1 260 08:44 28.07.2019
4522 Clouds 15 1006 82 10000 4.1 270 08:26 28.07.2019
4523 Clouds 15 1006 82 10000 3.1 270 07:44 28.07.2019
4524 Clouds 14 1006 93 10000 6.2 290 07:26 28.07.2019
4525 Clear 14 1006 82 10000 4.1 260 06:36 28.07.2019
4526 Clouds 15 1006 77 10000 3.6 290 05:22 28.07.2019
4527 Clouds 16 1006 77 10000 4.1 290 03:21 28.07.2019
4528 Drizzle 16 1006 72 10000 3.6 290 02:18 28.07.2019
4529 Rain 17 1006 72 10000 3.6 300 01:18 28.07.2019
4530 Clouds 17 1006 72 10000 3.6 300 00:43 28.07.2019
4531 Clear 18 1006 68 10000 3.1 300 23:56 27.07.2019
4532 Clear 18 1006 68 10000 3.1 300 23:38 27.07.2019
4533 Clear 18 1006 68 10000 3.6 300 23:18 27.07.2019
4534 Clear 18 1006 68 10000 4.6 320 22:40 27.07.2019
4535 Clouds 19 1006 68 10000 5.1 320 22:18 27.07.2019
4536 Clouds 20 1006 64 10000 4.1 330 21:39 27.07.2019
4537 Clouds 20 1005 64 10000 5.1 330 21:19 27.07.2019
4538 Clouds 21 1005 60 10000 5.7 320 20:50 27.07.2019
4539 Clear 21 1005 64 10000 5.7 330 20:23 27.07.2019
4540 Clouds 21 1005 64 10000 5.1 330 19:46 27.07.2019
4541 Clouds 22 1005 68 10000 5.1 340 19:26 27.07.2019
4542 Clouds 22 1005 64 10000 4.6 330 18:51 27.07.2019
4543 Clear 22 1005 60 10000 5.1 310 18:32 27.07.2019
4544 Clouds 23 1005 64 10000 4.6 310 17:52 27.07.2019
4545 Clouds 22 1005 64 10000 4.6 310 17:33 27.07.2019
4546 Clouds 22 1006 72 10000 3.6 320 16:59 27.07.2019
4547 Clouds 22 1006 72 10000 3.6 320 16:40 27.07.2019
4548 Clouds 22 1006 73 10000 4.6 330 16:21 27.07.2019
4549 Clouds 22 1006 72 10000 4.6 300 15:48 27.07.2019
4550 Clouds 21 1006 72 10000 4.6 300 15:20 27.07.2019
4551 Clouds 21 1006 72 10000 4.1 310 14:50 27.07.2019
4552 Clouds 20 1006 82 10000 3.1 290 14:31 27.07.2019
4553 Rain 19 1006 82 10000 2.6 280 13:56 27.07.2019
4554 Rain 19 1006 82 10000 2.6 280 13:37 27.07.2019
4555 Rain 19 1006 82 10000 3.6 310 13:18 27.07.2019
4556 Rain 18 1006 93 10000 3.1 300 12:41 27.07.2019
4557 Rain 17 1007 88 10000 3.1 290 12:21 27.07.2019
4558 Rain 17 1007 88 10000 4.1 290 11:42 27.07.2019
4559 Rain 17 1007 88 10000 3.6 300 11:24 27.07.2019
4560 Rain 16 1007 93 10000 3.1 310 10:42 27.07.2019
4561 Rain 16 1007 93 10000 3.6 310 10:23 27.07.2019
4562 Drizzle 16 1007 93 10000 3.1 290 09:45 27.07.2019
4563 Rain 16 1007 93 10000 2.6 270 09:24 27.07.2019
4564 Rain 16 1007 93 10000 3.6 310 08:58 27.07.2019
4565 Rain 16 1007 93 10000 3.6 310 08:40 27.07.2019
4566 Rain 16 1007 93 9000 4.1 310 08:20 27.07.2019
4567 Rain 16 1007 88 10000 3.1 290 07:41 27.07.2019
4568 Rain 16 1007 88 10000 2.6 300 07:20 27.07.2019
4569 Rain 16 1007 88 10000 2.6 300 06:50 27.07.2019
4570 Rain 16 1007 88 10000 2.1 290 06:22 27.07.2019
4571 Rain 16 1007 88 10000 3.1 310 05:35 27.07.2019
4572 Rain 17 1008 93 6000 2.1 320 04:51 27.07.2019
4573 Rain 17 1008 88 5000 1 0 03:50 27.07.2019
4574 Rain 17 1009 93 10000 2.6 270 02:43 27.07.2019
4575 Rain 18 1009 93 10000 2.6 340 01:59 27.07.2019
4576 Rain 18 1009 93 10000 2.6 340 01:36 27.07.2019
4577 Rain 18 1010 88 3900 2.6 0 00:49 27.07.2019
4578 Rain 19 1009 88 10000 5.1 330 00:31 27.07.2019
4579 Rain 20 1009 68 10000 4.1 320 23:44 26.07.2019
4580 Rain 20 1009 64 10000 3.6 320 23:26 26.07.2019
4581 Clear 22 1009 64 10000 5.1 330 22:44 26.07.2019
4582 Clear 22 1009 64 10000 5.1 340 22:26 26.07.2019
4583 Clear 23 1009 60 10000 5.7 340 21:52 26.07.2019
4584 Clear 23 1009 61 10000 5.1 330 21:21 26.07.2019
4585 Clear 24 1009 61 10000 3.1 330 20:58 26.07.2019
4586 Clear 24 1009 61 10000 3.1 330 20:39 26.07.2019
4587 Clear 25 1009 61 10000 4.1 340 20:21 26.07.2019
4588 Clear 26 1009 57 10000 4.6 320 19:41 26.07.2019
4589 Clear 26 1009 57 10000 4.1 310 19:22 26.07.2019
4590 Clear 27 1009 57 10000 5.1 300 18:45 26.07.2019
4591 Clear 27 1010 57 10000 4.6 320 18:22 26.07.2019
4592 Clear 28 1010 57 10000 5.7 310 17:58 26.07.2019
4593 Clear 28 1010 57 10000 5.7 310 17:38 26.07.2019
4594 Clear 28 1010 57 10000 5.1 280 17:18 26.07.2019
4595 Clear 28 1010 57 10000 5.1 280 17:18 26.07.2019
4596 Clear 28 1010 58 10000 6.2 270 16:55 26.07.2019
4597 Clear 28 1010 58 10000 6.2 270 16:37 26.07.2019
4598 Clear 28 1010 54 10000 5.1 280 16:18 26.07.2019
4599 Clear 28 1010 54 10000 4.1 270 15:45 26.07.2019
4600 Clouds 28 1010 51 10000 2.6 280 15:22 26.07.2019
4601 Clear 28 1010 54 10000 2.6 290 14:54 26.07.2019
4602 Clear 28 1010 54 10000 2.6 290 14:36 26.07.2019
4603 Thunderstorm 28 1010 54 10000 2.6 350 14:18 26.07.2019
4604 Clear 27 1010 61 10000 2.1 310 13:39 26.07.2019
4605 Clear 27 1010 65 10000 4.1 330 13:21 26.07.2019
4606 Clear 26 1011 69 10000 4.1 280 12:43 26.07.2019
4607 Thunderstorm 25 1011 73 10000 2.1 350 12:19 26.07.2019
4608 Rain 24 1011 78 10000 3.6 290 11:39 26.07.2019
4609 Rain 24 1011 64 10000 5.1 310 11:19 26.07.2019
4610 Rain 23 1011 73 10000 4.6 340 10:55 26.07.2019
4611 Thunderstorm 23 1011 73 10000 4.6 340 10:36 26.07.2019
4612 Thunderstorm 22 1012 69 10000 4.1 290 09:55 26.07.2019
4613 Thunderstorm 22 1012 69 10000 4.1 290 09:36 26.07.2019
4614 Clear 22 1011 68 10000 4.6 300 08:44 26.07.2019
4615 Clear 21 1011 68 10000 4.1 300 08:22 26.07.2019
4616 Clear 21 1011 68 10000 4.1 300 07:59 26.07.2019
4617 Clear 21 1010 64 10000 4.6 300 07:29 26.07.2019
4618 Clear 22 1010 69 10000 4.6 290 06:53 26.07.2019
4619 Clear 23 1009 54 10000 1.5 290 05:23 26.07.2019
4620 Clear 24 1009 47 10000 2.6 350 04:22 26.07.2019
4621 Clear 26 1009 42 10000 2.1 320 02:45 26.07.2019
4622 Clear 28 1010 35 10000 2.1 310 01:43 26.07.2019
4623 Clear 30 1009 27 10000 2.6 330 00:45 26.07.2019
4624 Clear 30 1008 25 10000 1.5 0 23:57 25.07.2019
4625 Thunderstorm 31 1008 21 10000 3.6 230 23:25 25.07.2019
4626 Thunderstorm 33 1008 23 10000 3.6 200 22:58 25.07.2019
4627 Thunderstorm 33 1008 23 10000 3.6 200 22:39 25.07.2019
4628 Thunderstorm 33 1008 22 10000 2.6 140 22:20 25.07.2019
4629 Thunderstorm 33 1007 21 10000 3.6 160 21:45 25.07.2019
4630 Thunderstorm 36 1008 21 10000 3.1 110 21:22 25.07.2019
4631 Clear 36 1007 18 10000 4.1 100 20:48 25.07.2019
4632 Rain 38 1008 17 10000 5.1 110 20:29 25.07.2019
4633 Clear 38 1008 16 10000 7.7 100 19:54 25.07.2019
4634 Clear 39 1008 16 10000 7.7 100 19:36 25.07.2019
4635 Rain 40 1008 16 10000 7.7 140 19:18 25.07.2019
4636 Haze 40 1008 15 10000 6.2 130 18:39 25.07.2019
4637 Clear 41 1008 15 10000 5.7 150 18:21 25.07.2019
4638 Haze 41 1009 15 10000 6.7 130 17:45 25.07.2019
4639 Haze 41 1009 16 10000 7.2 150 17:25 25.07.2019
4640 Haze 41 1010 17 10000 6.7 150 16:47 25.07.2019
4641 Haze 41 1010 16 10000 6.2 150 16:29 25.07.2019
4642 Haze 41 1010 16 10000 6.2 150 15:58 25.07.2019
4643 Haze 41 1010 16 10000 6.2 150 15:38 25.07.2019
4644 Clear 41 1010 18 10000 6.2 130 15:19 25.07.2019
4645 Clear 40 1011 21 10000 5.1 140 14:41 25.07.2019
4646 Clear 40 1011 22 10000 2.6 110 14:22 25.07.2019
4647 Clear 39 1011 22 10000 3.6 130 13:44 25.07.2019
4648 Clear 38 1011 25 10000 3.1 150 13:26 25.07.2019
4649 Clear 38 1011 25 10000 3.1 150 13:26 25.07.2019
4650 Clear 38 1012 28 10000 2.6 130 12:57 25.07.2019
4651 Clear 36 1012 30 10000 2.6 120 12:28 25.07.2019
4652 Clear 35 1012 33 10000 3.1 130 11:46 25.07.2019
4653 Clear 34 1012 38 10000 3.1 130 11:25 25.07.2019
4654 Clear 33 1012 40 10000 2.6 120 10:55 25.07.2019
4655 Clear 32 1012 40 10000 2.6 120 10:36 25.07.2019
4656 Clear 31 1012 42 10000 2.1 120 10:18 25.07.2019
4657 Clear 30 1012 45 10000 2.1 110 09:42 25.07.2019
4658 Clear 28 1012 57 10000 1.5 60 09:23 25.07.2019
4659 Clear 26 1012 61 10000 1.5 50 08:42 25.07.2019
4660 Clear 24 1012 60 10000 1.5 40 07:56 25.07.2019
4661 Clear 24 1012 60 10000 1.5 40 07:34 25.07.2019
4662 Clear 23 1012 60 10000 1.5 10 06:43 25.07.2019
4663 Clear 23 1012 57 10000 2.6 30 05:48 25.07.2019
4664 Clear 24 1012 57 10000 1.5 10 05:28 25.07.2019
4665 Clear 24 1012 57 10000 2.6 360 04:37 25.07.2019
4666 Clear 27 1013 51 10000 1.5 0 01:48 25.07.2019
4667 Clear 28 1013 48 10000 2.1 30 01:20 25.07.2019
4668 Clear 29 1013 43 10000 3.1 20 00:20 25.07.2019
4669 Haze 29 1013 43 10000 4.1 20 23:50 24.07.2019
4670 Clear 29 1013 40 10000 4.1 20 23:31 24.07.2019
4671 Haze 30 1013 33 10000 3.6 20 22:56 24.07.2019
4672 Haze 30 1013 33 10000 3.6 20 22:38 24.07.2019
4673 Clear 31 1012 32 10000 3.1 30 22:19 24.07.2019
4674 Clear 34 1012 28 10000 2.6 30 21:43 24.07.2019
4675 Clear 34 1012 28 10000 2.6 30 21:43 24.07.2019
4676 Clear 35 1012 27 10000 2.1 10 21:22 24.07.2019
4677 Clear 36 1012 27 10000 2.1 10 20:58 24.07.2019
4678 Clear 36 1012 27 10000 2.1 10 20:38 24.07.2019
4679 Clear 37 1012 24 10000 2.1 20 20:20 24.07.2019
4680 Clear 37 1012 22 10000 2.1 290 19:54 24.07.2019
4681 Clear 37 1012 22 10000 2.1 290 19:36 24.07.2019
4682 Haze 38 1012 22 10000 2.1 0 19:18 24.07.2019
4683 Clear 38 1012 22 10000 1 0 18:40 24.07.2019
4684 Clear 38 1012 24 10000 3.1 270 18:22 24.07.2019
4685 Clear 38 1013 24 10000 1.5 0 17:42 24.07.2019
4686 Clear 38 1013 24 10000 1.5 0 17:20 24.07.2019
4687 Clear 38 1013 25 10000 2.1 0 16:41 24.07.2019
4688 Clear 38 1013 24 10000 2.1 0 16:22 24.07.2019
4689 Clear 37 1013 25 10000 2.6 220 15:40 24.07.2019
4690 Clear 37 1013 23 10000 2.6 240 15:21 24.07.2019
4691 Clear 36 1014 28 10000 2.6 270 14:57 24.07.2019
4692 Clear 36 1014 28 10000 2.6 270 14:38 24.07.2019
4693 Clear 36 1014 30 10000 2.1 230 14:18 24.07.2019
4694 Clear 35 1014 32 10000 2.6 0 13:37 24.07.2019
4695 Clear 35 1014 36 10000 1.5 0 13:18 24.07.2019
4696 Clouds 34 1014 38 10000 2.6 260 12:50 24.07.2019
4697 Clear 32 1014 40 10000 2.6 240 12:30 24.07.2019
4698 Clear 31 1014 40 10000 2.6 250 11:39 24.07.2019
4699 Clear 31 1014 40 10000 2.6 280 11:20 24.07.2019
4700 Clear 30 1013 42 10000 3.1 300 10:44 24.07.2019
4701 Clear 29 1013 39 10000 2.6 280 10:25 24.07.2019
4702 Clear 28 1013 39 10000 0.5 0 09:48 24.07.2019
4703 Clear 27 1013 42 10000 0.5 0 09:25 24.07.2019
4704 Clear 25 1013 50 10000 0.5 0 08:58 24.07.2019
4705 Clear 24 1013 50 10000 1 0 08:30 24.07.2019
4706 Clear 23 1013 53 10000 1 0 07:52 24.07.2019
4707 Clear 23 1012 49 10000 1.5 10 07:24 24.07.2019
4708 Clear 23 1012 56 10000 1 0 06:33 24.07.2019
4709 Clear 23 1012 49 10000 1 0 05:54 24.07.2019
4710 Clear 25 1013 41 10000 1.5 50 02:52 24.07.2019
4711 Clear 26 1013 39 10000 2.1 60 01:30 24.07.2019
4712 Clear 27 1014 39 10000 3.6 70 00:57 24.07.2019
4713 Clear 28 1014 36 10000 3.1 70 00:23 24.07.2019
4714 Clear 28 1014 36 10000 3.1 70 23:45 23.07.2019
4715 Clear 29 1014 34 10000 3.1 70 23:25 23.07.2019
4716 Clear 29 1014 35 10000 4.1 70 22:55 23.07.2019
4717 Clear 29 1014 35 10000 4.1 70 22:36 23.07.2019
4718 Clear 31 1014 27 10000 2.6 80 22:18 23.07.2019
4719 Clear 32 1014 24 10000 2.6 100 21:43 23.07.2019
4720 Clear 33 1014 20 10000 4.6 110 21:25 23.07.2019
4721 Clear 35 1014 19 10000 4.6 100 20:48 23.07.2019
4722 Clear 35 1014 19 10000 4.6 100 20:29 23.07.2019
4723 Clear 36 1014 20 10000 4.1 120 19:43 23.07.2019
4724 Clear 36 1014 18 10000 3.1 130 19:24 23.07.2019
4725 Clear 37 1015 19 10000 3.1 130 18:56 23.07.2019
4726 Clear 36 1015 19 10000 3.1 130 18:38 23.07.2019
4727 Clear 37 1015 19 10000 3.1 130 18:19 23.07.2019
4728 Clear 37 1015 22 10000 3.6 120 17:42 23.07.2019
4729 Clear 37 1015 20 10000 3.6 140 17:20 23.07.2019
4730 Clear 37 1016 22 10000 4.6 130 16:42 23.07.2019
4731 Clear 36 1016 23 10000 4.6 90 16:24 23.07.2019
4732 Clear 36 1016 23 10000 4.6 130 15:48 23.07.2019
4733 Clear 36 1016 23 10000 4.6 130 15:29 23.07.2019
4734 Clear 35 1017 24 10000 4.1 120 14:54 23.07.2019
4735 Clear 35 1017 24 10000 4.1 120 14:36 23.07.2019
4736 Clear 35 1017 26 10000 5.1 120 14:18 23.07.2019
4737 Clear 34 1017 27 10000 4.1 130 13:42 23.07.2019
4738 Clear 33 1018 27 10000 5.1 120 13:23 23.07.2019
4739 Clear 33 1018 31 10000 4.6 120 12:54 23.07.2019
4740 Clear 32 1018 31 10000 4.6 120 12:36 23.07.2019
4741 Clear 31 1018 33 10000 4.1 130 12:18 23.07.2019
4742 Clear 30 1018 37 10000 2.6 130 11:41 23.07.2019
4743 Clear 29 1019 37 10000 2.6 120 11:20 23.07.2019
4744 Clear 28 1019 42 10000 2.6 80 10:43 23.07.2019
4745 Clear 27 1019 44 10000 2.1 80 10:22 23.07.2019
4746 Clear 25 1019 50 10000 2.6 60 09:42 23.07.2019
4747 Clear 24 1019 60 10000 1 0 09:22 23.07.2019
4748 Clear 23 1019 68 10000 2.1 350 08:44 23.07.2019
4749 Clear 21 1019 72 10000 1.5 360 08:20 23.07.2019
4750 Clear 20 1019 68 10000 2.6 10 07:57 23.07.2019
4751 Clear 19 1019 68 10000 2.6 10 07:37 23.07.2019
4752 Clear 18 1020 72 10000 2.6 350 06:52 23.07.2019
4753 Clear 18 1020 72 10000 2.6 350 06:34 23.07.2019
4754 Clear 18 1020 72 10000 2.6 350 06:34 23.07.2019
4755 Clear 19 1020 68 10000 2.6 360 04:26 23.07.2019
4756 Clear 21 1021 60 10000 1.5 360 01:40 23.07.2019
4757 Clear 22 1021 53 10000 1.5 0 00:41 23.07.2019
4758 Clear 23 1021 50 10000 2.6 50 00:19 23.07.2019
4759 Clear 23 1021 50 10000 2.6 50 00:19 23.07.2019
4760 Clear 23 1021 47 10000 3.1 60 23:39 22.07.2019
4761 Clear 24 1021 47 10000 3.1 70 23:19 22.07.2019
4762 Clear 26 1021 44 10000 3.6 70 22:45 22.07.2019
4763 Clear 26 1021 39 10000 3.6 70 22:23 22.07.2019
4764 Clear 28 1021 33 10000 3.6 100 21:54 22.07.2019
4765 Clear 29 1021 31 10000 3.1 110 21:36 22.07.2019
4766 Clear 29 1021 31 10000 3.1 110 21:18 22.07.2019
4767 Clear 29 1021 31 10000 3.1 110 21:18 22.07.2019
4768 Clear 30 1021 31 10000 3.6 90 20:41 22.07.2019
4769 Clear 31 1021 29 10000 3.6 60 20:22 22.07.2019
4770 Clear 31 1021 31 10000 3.6 100 19:42 22.07.2019
4771 Clear 31 1021 29 10000 2.1 0 19:23 22.07.2019
4772 Clear 31 1021 29 10000 2.1 30 18:48 22.07.2019
4773 Clear 32 1021 31 10000 3.1 50 18:28 22.07.2019
4774 Clear 31 1021 31 10000 3.1 50 17:59 22.07.2019
4775 Clear 31 1022 31 10000 2.1 0 17:38 22.07.2019
4776 Clear 31 1022 31 10000 2.1 0 17:38 22.07.2019
4777 Clear 31 1022 29 10000 1.5 350 17:20 22.07.2019
4778 Clear 31 1022 31 10000 2.1 0 16:41 22.07.2019
4779 Clear 31 1023 31 10000 1.5 260 16:21 22.07.2019
4780 Clear 30 1023 33 10000 2.1 150 15:46 22.07.2019
4781 Clear 30 1023 33 10000 3.1 110 15:22 22.07.2019
4782 Clear 30 1023 35 10000 1.5 0 14:59 22.07.2019
4783 Clear 29 1023 35 10000 1.5 0 14:41 22.07.2019
4784 Clear 29 1024 35 10000 1.5 120 14:19 22.07.2019
4785 Clear 29 1024 37 10000 1.5 0 13:44 22.07.2019
4786 Clear 28 1024 37 10000 1.5 0 13:22 22.07.2019
4787 Clear 28 1024 39 10000 2.6 0 12:44 22.07.2019
4788 Clear 27 1024 44 10000 1.5 260 12:23 22.07.2019
4789 Clear 26 1024 41 10000 2.1 140 11:44 22.07.2019
4790 Clear 25 1024 44 10000 1.5 0 11:20 22.07.2019
4791 Clear 24 1024 47 10000 1 0 10:43 22.07.2019
4792 Clear 23 1024 53 10000 2.1 60 10:25 22.07.2019
4793 Clear 21 1024 56 10000 2.6 60 09:43 22.07.2019
4794 Clear 20 1024 60 10000 2.1 50 09:24 22.07.2019
4795 Clear 18 1024 72 10000 1 0 08:44 22.07.2019
4796 Clear 17 1024 72 10000 1.5 360 08:25 22.07.2019
4797 Clear 16 1024 77 10000 0.5 0 07:55 22.07.2019
4798 Clear 15 1024 82 10000 1 360 07:32 22.07.2019
4799 Clear 15 1024 82 10000 2.1 360 06:51 22.07.2019
4800 Clear 16 1024 68 10000 2.1 350 03:57 22.07.2019
4801 Clear 17 1024 68 10000 1.5 360 02:24 22.07.2019
4802 Clear 19 1024 60 10000 2.6 10 00:56 22.07.2019
4803 Clear 20 1023 60 10000 2.1 350 00:26 22.07.2019
4804 Clear 20 1023 56 10000 1.5 350 23:55 21.07.2019
4805 Clear 21 1023 53 10000 1.5 30 23:31 21.07.2019
4806 Clear 22 1023 50 10000 1 10 22:54 21.07.2019
4807 Clear 22 1022 47 10000 2.1 20 22:36 21.07.2019
4808 Clear 22 1022 47 10000 2.1 20 22:18 21.07.2019
4809 Clear 24 1022 44 10000 2.6 360 21:43 21.07.2019
4810 Clear 25 1022 41 10000 2.6 350 21:22 21.07.2019
4811 Clear 26 1022 41 10000 2.6 340 20:54 21.07.2019
4812 Clear 26 1022 41 10000 2.6 340 20:36 21.07.2019
4813 Clear 26 1022 41 10000 3.1 340 20:18 21.07.2019
4814 Clear 27 1022 41 10000 2.6 350 19:44 21.07.2019
4815 Clear 27 1022 39 10000 2.1 330 19:22 21.07.2019
4816 Clear 27 1022 39 10000 3.6 330 18:48 21.07.2019
4817 Clear 27 1022 39 10000 1 0 18:26 21.07.2019
4818 Clear 27 1022 39 10000 1 0 18:26 21.07.2019
4819 Clear 27 1022 41 10000 1.5 0 17:43 21.07.2019
4820 Clear 27 1022 39 10000 2.1 260 17:20 21.07.2019
4821 Clear 27 1022 39 10000 2.1 0 16:58 21.07.2019
4822 Clear 27 1022 39 10000 2.1 0 16:39 21.07.2019
4823 Clear 27 1022 41 10000 3.6 240 16:20 21.07.2019
4824 Clear 26 1022 41 10000 2.6 0 15:37 21.07.2019
4825 Clear 26 1023 44 10000 3.1 260 15:19 21.07.2019
4826 Clear 25 1023 47 10000 2.6 270 14:42 21.07.2019
4827 Clear 25 1023 47 10000 2.6 280 14:22 21.07.2019
4828 Clear 24 1023 46 10000 3.1 240 13:52 21.07.2019
4829 Clear 24 1023 49 10000 4.1 220 13:32 21.07.2019
4830 Clear 23 1023 49 10000 2.6 230 12:45 21.07.2019
4831 Clear 22 1023 56 10000 1.5 0 12:26 21.07.2019
4832 Clear 22 1022 60 10000 2.1 0 11:55 21.07.2019
4833 Clear 21 1022 60 10000 2.1 0 11:37 21.07.2019
4834 Clear 21 1022 60 10000 2.6 270 11:18 21.07.2019
4835 Clouds 20 1022 64 10000 3.1 260 10:41 21.07.2019
4836 Clouds 19 1022 68 10000 2.1 310 10:22 21.07.2019
4837 Clouds 18 1022 77 10000 3.1 280 09:42 21.07.2019
4838 Clouds 18 1021 72 10000 2.6 300 09:24 21.07.2019
4839 Clear 17 1021 82 10000 2.1 280 08:45 21.07.2019
4840 Clear 16 1021 82 10000 1.5 0 08:27 21.07.2019
4841 Mist 15 1021 82 10000 1 0 07:39 21.07.2019
4842 Mist 15 1020 87 10000 1.5 0 06:52 21.07.2019
4843 Clouds 16 1020 82 10000 1.5 320 05:43 21.07.2019
4844 Clear 17 1019 77 10000 1 0 02:58 21.07.2019
4845 Clouds 18 1018 100 10000 3.1 260 01:24 21.07.2019
4846 Clear 19 1017 82 10000 1 0 00:42 21.07.2019
4847 Rain 19 1017 77 10000 1.5 280 00:19 21.07.2019
4848 Rain 20 1016 77 10000 3.6 280 23:42 20.07.2019
4849 Rain 20 1017 93 9000 3.6 310 23:21 20.07.2019
4850 Rain 21 1015 64 10000 3.1 260 22:46 20.07.2019
4851 Clear 21 1015 64 10000 2.1 250 22:22 20.07.2019
4852 Clear 22 1014 60 10000 2.6 250 21:57 20.07.2019
4853 Clear 22 1014 60 10000 2.6 250 21:38 20.07.2019
4854 Clouds 22 1014 60 10000 3.1 270 21:20 20.07.2019
4855 Clear 23 1014 60 10000 4.6 230 20:41 20.07.2019
4856 Clear 23 1013 57 10000 4.1 220 20:19 20.07.2019
4857 Rain 23 1014 60 10000 5.1 220 19:45 20.07.2019
4858 Rain 23 1015 69 10000 7.7 250 19:21 20.07.2019
4859 Rain 23 1013 69 10000 3.1 220 18:44 20.07.2019
4860 Clear 23 1013 73 10000 4.6 210 18:22 20.07.2019
4861 Rain 23 1013 83 10000 1.5 260 17:55 20.07.2019
4862 Rain 23 1013 83 2100 8.2 260 17:25 20.07.2019
4863 Rain 24 1013 50 10000 4.1 280 16:45 20.07.2019
4864 Rain 25 1013 47 10000 7.7 240 16:27 20.07.2019
4865 Rain 25 1012 47 10000 6.2 230 15:58 20.07.2019
4866 Rain 25 1012 47 10000 6.2 230 15:40 20.07.2019
4867 Clouds 26 1012 50 10000 7.2 250 15:20 20.07.2019
4868 Clouds 26 1012 54 10000 6.2 250 14:48 20.07.2019
4869 Clouds 26 1012 54 10000 6.2 250 14:29 20.07.2019
4870 Clouds 26 1011 50 10000 5.7 230 13:54 20.07.2019
4871 Clouds 26 1011 50 10000 5.7 230 13:36 20.07.2019
4872 Clouds 26 1011 50 10000 5.7 230 13:36 20.07.2019
4873 Clouds 26 1011 50 10000 5.7 230 13:36 20.07.2019
4874 Clouds 26 1011 50 10000 5.7 230 13:36 20.07.2019
4875 Clear 26 1011 44 10000 6.7 200 13:18 20.07.2019
4876 Clear 26 1011 47 10000 5.7 240 12:40 20.07.2019
4877 Clear 26 1011 47 10000 5.1 250 12:18 20.07.2019
4878 Clear 25 1011 47 10000 5.7 220 11:41 20.07.2019
4879 Clear 25 1011 47 10000 4.6 240 11:20 20.07.2019
4880 Clear 24 1011 50 10000 4.6 220 10:40 20.07.2019
4881 Clouds 23 1010 56 10000 4.1 220 10:22 20.07.2019
4882 Thunderstorm 22 1011 56 10000 3.1 220 09:46 20.07.2019
4883 Clear 21 1010 60 10000 3.1 170 09:24 20.07.2019
4884 Clear 19 1010 64 10000 1.5 190 08:49 20.07.2019
4885 Clear 19 1010 72 10000 1.5 220 08:22 20.07.2019
4886 Clear 18 1010 77 10000 1.5 0 07:35 20.07.2019
4887 Clear 17 1010 77 10000 3.73 228.031 06:46 20.07.2019
4888 Clear 17 1010 77 10000 1 120 05:24 20.07.2019
4889 Clear 17 1010 77 10000 1.5 110 04:31 20.07.2019
4890 Clear 19 1011 64 10000 1.5 50 01:30 20.07.2019
4891 Clear 19 1012 68 10000 2.1 50 00:52 20.07.2019
4892 Clear 20 1012 64 10000 2.1 70 00:33 20.07.2019
4893 Clear 20 1012 64 10000 2.1 70 23:59 19.07.2019
4894 Clear 21 1012 56 10000 0.87 183.81 23:39 19.07.2019
4895 Clear 21 1012 53 10000 1.5 350 23:20 19.07.2019
4896 Clear 22 1012 53 10000 2.6 330 22:41 19.07.2019
4897 Clear 23 1012 47 10000 2.1 320 22:22 19.07.2019
4898 Clear 26 1012 42 10000 3.1 290 21:44 19.07.2019
4899 -273 0 0 0 0 0 21:26 19.07.2019
4900 Clear 27 1012 39 10000 2.6 230 20:44 19.07.2019
4901 Clear 27 1012 37 10000 3.6 230 20:26 19.07.2019
4902 Clear 27 1012 37 10000 3.6 240 19:45 19.07.2019
4903 Clear 27 1013 37 10000 3.6 240 19:20 19.07.2019
4904 Clear 27 1013 37 10000 3.6 240 19:20 19.07.2019
4905 Clear 28 1013 37 10000 4.1 200 18:42 19.07.2019
4906 Clear 28 1013 37 10000 4.6 260 18:21 19.07.2019
4907 Clear 28 1013 37 10000 4.6 260 18:21 19.07.2019
4908 Clear 28 1013 37 10000 3.6 220 17:50 19.07.2019
4909 Clear 28 1013 37 10000 4.1 210 17:27 19.07.2019
4910 Clear 27 1014 39 10000 4.1 190 16:48 19.07.2019
4911 Clear 27 1014 42 10000 4.1 210 16:26 19.07.2019
4912 Clear 27 1014 44 10000 5.1 200 15:50 19.07.2019
4913 Clouds 26 1014 47 10000 3.1 240 15:31 19.07.2019
4914 Clouds 26 1015 50 10000 3.1 0 14:57 19.07.2019
4915 Clouds 26 1015 50 10000 3.1 0 14:38 19.07.2019
4916 Clouds 25 1015 53 10000 3.6 170 14:20 19.07.2019
4917 Clouds 24 1015 53 10000 2.6 170 13:44 19.07.2019
4918 Clouds 24 1015 53 10000 2.6 170 13:44 19.07.2019
4919 Clouds 24 1015 53 10000 2.6 170 13:44 19.07.2019
4920 Clouds 24 1015 53 10000 2.6 170 13:44 19.07.2019
4921 Clouds 24 1015 53 10000 2.6 170 13:44 19.07.2019
4922 Clouds 24 1015 56 10000 2.6 220 13:25 19.07.2019
4923 Clouds 23 1015 64 10000 1 0 12:55 19.07.2019
4924 Clouds 23 1015 64 10000 1 0 12:31 19.07.2019
4925 Clear 22 1015 64 10000 1.5 0 11:58 19.07.2019
4926 Clouds 21 1016 68 10000 2.1 250 11:40 19.07.2019
4927 Clouds 21 1016 72 10000 1.5 0 11:18 19.07.2019
4928 Clouds 20 1016 77 10000 2.1 290 10:42 19.07.2019
4929 Clouds 19 1016 77 10000 1.5 290 10:22 19.07.2019
4930 Clouds 19 1016 82 10000 1 0 09:57 19.07.2019
4931 Clouds 19 1016 82 10000 1 0 09:39 19.07.2019
4932 Clouds 18 1015 82 10000 1.5 250 09:20 19.07.2019
4933 Clouds 18 1015 88 10000 1.5 260 08:42 19.07.2019
4934 Fog 17 1015 93 10000 1 200 07:53 19.07.2019
4935 Mist 16 1015 93 10000 1.5 230 07:29 19.07.2019
4936 Clear 16 1015 93 10000 1 270 05:56 19.07.2019
4937 Clouds 17 1015 93 10000 1.5 0 02:23 19.07.2019
4938 Clouds 17 1015 93 10000 2.1 250 01:18 19.07.2019
4939 Clouds 17 1015 93 10000 2.1 250 00:38 19.07.2019
4940 Rain 18 1015 93 10000 1.5 290 23:57 18.07.2019
4941 Rain 18 1015 93 10000 1.5 290 23:39 18.07.2019
4942 Rain 18 1014 93 3800 2.1 290 23:19 18.07.2019
4943 Rain 18 1014 93 3800 2.1 290 23:19 18.07.2019
4944 Rain 18 1014 88 3800 3.6 310 22:40 18.07.2019
4945 Rain 18 1014 82 9000 3.1 280 22:20 18.07.2019
4946 Rain 19 1013 73 10000 3.6 310 21:44 18.07.2019
4947 -273 0 0 0 0 0 21:26 18.07.2019
4948 Rain 21 1013 60 10000 3.1 320 20:52 18.07.2019
4949 Rain 21 1013 60 10000 3.1 320 20:29 18.07.2019
4950 Clear 22 1013 57 10000 3.1 280 19:59 18.07.2019
4951 Clear 23 1013 57 10000 3.1 280 19:40 18.07.2019
4952 Clouds 23 1013 56 10000 4.1 270 19:19 18.07.2019
4953 Clouds 24 1013 53 10000 4.1 260 18:42 18.07.2019
4954 Clear 24 1013 53 10000 7.7 270 18:20 18.07.2019
4955 Clear 24 1013 53 10000 7.7 270 18:20 18.07.2019
4956 Clear 25 1012 36 10000 5.7 260 17:44 18.07.2019
4957 Clear 25 1012 36 10000 5.7 260 17:44 18.07.2019
4958 Clear 25 1012 30 10000 5.7 220 17:24 18.07.2019
4959 Clear 26 1013 30 10000 6.2 220 16:57 18.07.2019
4960 Clear 26 1013 30 10000 6.2 220 16:39 18.07.2019
4961 Clear 26 1013 30 10000 5.1 230 16:19 18.07.2019
4962 Clear 26 1013 34 10000 4.6 260 15:51 18.07.2019
4963 Clear 26 1013 34 10000 4.6 260 15:33 18.07.2019
4964 Clear 26 1013 36 10000 4.6 230 14:53 18.07.2019
4965 Clear 25 1013 44 10000 5.1 220 14:33 18.07.2019
4966 Clear 25 1013 44 10000 5.1 230 13:50 18.07.2019
4967 Clear 24 1013 43 10000 3.6 210 13:27 18.07.2019
4968 Clear 23 1013 43 10000 3.6 240 12:54 18.07.2019
4969 Clear 23 1013 43 10000 3.6 240 12:36 18.07.2019
4970 Clear 22 1014 53 10000 4.1 240 12:18 18.07.2019
4971 Clear 22 1014 53 10000 4.1 240 12:18 18.07.2019
4972 Clear 21 1014 56 10000 3.6 230 11:46 18.07.2019
4973 Clear 21 1014 60 10000 2.1 250 11:22 18.07.2019
4974 Clear 20 1014 63 10000 2.6 260 10:51 18.07.2019
4975 Clear 19 1013 72 10000 2.6 290 09:50 18.07.2019
4976 Clear 18 1013 72 10000 3.1 300 09:27 18.07.2019
4977 Clear 17 1013 72 10000 1.5 290 08:54 18.07.2019
4978 Clear 16 1013 63 10000 3.1 340 08:25 18.07.2019
4979 Clear 16 1013 77 10000 1.5 0 07:58 18.07.2019
4980 Clear 15 1013 67 10000 1.5 290 07:35 18.07.2019
4981 Clear 15 1013 55 10000 1.72 279.917 06:51 18.07.2019
4982 Clear 15 1013 72 10000 2.1 360 06:30 18.07.2019
4983 Clear 16 1013 59 10000 1.5 330 03:46 18.07.2019
4984 Clear 18 1013 55 10000 1 330 02:50 18.07.2019
4985 Clear 19 1013 52 10000 1 320 01:36 18.07.2019
4986 Clear 20 1013 43 10000 3.6 360 00:22 18.07.2019
4987 Clear 20 1013 40 10000 1.5 10 23:40 17.07.2019
4988 Clear 21 1013 38 10000 1.5 350 23:18 17.07.2019
4989 Clear 22 1013 35 10000 2.6 330 22:41 17.07.2019
4990 Clear 23 1012 33 10000 3.1 330 22:22 17.07.2019
4991 Clear 24 1012 33 10000 4.1 320 21:58 17.07.2019
4992 Clear 24 1012 33 10000 4.1 320 21:38 17.07.2019
4993 Clear 24 1012 34 10000 4.1 300 21:20 17.07.2019
4994 Clear 25 1012 34 10000 5.1 300 20:56 17.07.2019
4995 Clear 25 1012 34 10000 5.1 300 20:56 17.07.2019
4996 Clear 26 1012 34 10000 5.1 300 20:38 17.07.2019
4997 Clear 26 1012 26 10000 4.1 290 20:19 17.07.2019
4998 Clear 27 1012 24 10000 4.1 270 19:42 17.07.2019
4999 Clear 27 1012 24 10000 3.6 280 19:20 17.07.2019
5000 Clear 28 1012 21 10000 4.1 250 18:45 17.07.2019
5001 Clear 28 1012 26 10000 3.1 300 18:21 17.07.2019
5002 Clear 29 1012 32 10000 3.1 0 17:59 17.07.2019
5003 Clear 29 1012 32 10000 3.1 0 17:41 17.07.2019
5004 Clear 29 1012 32 10000 3.1 0 17:22 17.07.2019
5005 Clear 29 1013 30 10000 3.1 300 16:41 17.07.2019
5006 Clear 29 1013 30 10000 3.1 300 16:22 17.07.2019
5007 Clear 28 1014 32 10000 1.5 0 15:51 17.07.2019
5008 Clear 28 1014 32 10000 1.5 0 15:31 17.07.2019
5009 Clear 28 1014 34 10000 2.1 250 14:57 17.07.2019
5010 Clear 28 1014 32 10000 2.6 280 14:39 17.07.2019
5011 Clear 27 1014 32 10000 2.1 210 14:20 17.07.2019
5012 Clear 27 1015 34 10000 1.5 0 13:51 17.07.2019
5013 Clear 26 1015 34 10000 1.5 0 13:31 17.07.2019
5014 Clear 26 1015 36 10000 1 0 12:59 17.07.2019
5015 Clear 25 1015 38 10000 2.1 110 12:38 17.07.2019
5016 Clear 25 1015 38 10000 2.1 110 12:19 17.07.2019
5017 Clear 24 1015 43 10000 1.5 0 11:41 17.07.2019
5018 Clear 23 1016 43 10000 1.5 80 11:19 17.07.2019
5019 Clear 22 1016 49 10000 2.1 150 10:48 17.07.2019
5020 Clear 21 1016 49 10000 1.5 0 10:24 17.07.2019
5021 Clear 20 1016 59 10000 1 0 09:45 17.07.2019
5022 Clear 19 1016 59 10000 1 0 09:27 17.07.2019
5023 Clear 17 1016 67 10000 1.5 350 08:45 17.07.2019
5024 Clear 17 1016 67 10000 1.5 350 08:24 17.07.2019
5025 Clear 15 1016 72 10000 1.5 360 07:59 17.07.2019
5026 Clear 15 1016 71 10000 1.5 350 07:41 17.07.2019
5027 Clear 14 1016 71 10000 1.5 350 07:21 17.07.2019
5028 Clear 14 1016 71 10000 1.5 10 06:45 17.07.2019
5029 Clear 14 1016 71 10000 1.5 10 06:45 17.07.2019
5030 Clear 13 1016 76 10000 2.1 10 06:27 17.07.2019
5031 Clear 14 1016 76 10000 1 10 05:41 17.07.2019
5032 Clear 14 1016 76 10000 1.5 360 04:59 17.07.2019
5033 Clear 14 1017 72 10000 1 360 03:57 17.07.2019
5034 Clear 16 1017 59 10000 1 0 02:45 17.07.2019
5035 Clear 16 1017 55 10000 2.6 40 01:43 17.07.2019
5036 Clear 16 1017 52 10000 1.5 30 01:23 17.07.2019
5037 Clear 17 1017 52 10000 1.5 0 00:43 17.07.2019
5038 Clear 18 1017 52 10000 1.5 0 00:23 17.07.2019
5039 Clear 19 1017 52 10000 2.6 30 23:49 16.07.2019
5040 Clear 19 1017 46 10000 2.6 30 23:28 16.07.2019
5041 Clear 19 1017 46 10000 2.6 30 22:57 16.07.2019
5042 Clear 20 1016 43 10000 3.1 30 22:39 16.07.2019
5043 Clear 22 1016 43 10000 3.1 30 22:19 16.07.2019
5044 Clear 23 1016 36 10000 1.5 360 21:45 16.07.2019
5045 Clear 23 1016 36 10000 1.5 360 21:21 16.07.2019
5046 Clear 24 1016 33 10000 2.1 340 20:57 16.07.2019
5047 Clear 25 1016 36 10000 1.5 40 20:38 16.07.2019
5048 Clear 25 1016 34 10000 2.6 340 20:20 16.07.2019
5049 Clear 26 1017 34 10000 2.1 340 19:46 16.07.2019
5050 Clear 26 1017 34 10000 2.1 340 19:27 16.07.2019
5051 Clear 26 1017 31 10000 2.1 290 18:46 16.07.2019
5052 Clear 26 1017 36 10000 3.1 340 18:21 16.07.2019
5053 Clear 26 1017 36 10000 3.1 340 17:58 16.07.2019
5054 Clear 26 1017 36 10000 1.5 0 17:39 16.07.2019
5055 Clear 26 1018 36 10000 2.1 270 17:20 16.07.2019
5056 Clear 25 1018 38 10000 1.5 0 16:42 16.07.2019
5057 Clear 25 1018 41 10000 2.1 360 16:20 16.07.2019
5058 Clear 24 1018 44 10000 2.1 0 15:41 16.07.2019
5059 Clear 24 1018 44 10000 2.1 0 15:21 16.07.2019
5060 Clear 24 1018 43 10000 1.5 0 14:58 16.07.2019
5061 Clear 23 1018 43 10000 1.5 0 14:40 16.07.2019
5062 Clear 23 1018 43 10000 1.5 0 14:22 16.07.2019
5063 Clear 22 1019 46 10000 2.1 0 13:45 16.07.2019
5064 Clear 22 1019 46 10000 2.1 0 13:24 16.07.2019
5065 Clear 21 1019 46 10000 3.1 40 12:55 16.07.2019
5066 Clear 21 1019 49 10000 2.1 0 12:37 16.07.2019
5067 Clear 21 1019 52 10000 2.6 50 12:19 16.07.2019
5068 Clear 20 1019 55 10000 3.1 360 11:43 16.07.2019
5069 Clear 20 1019 55 10000 3.1 360 11:23 16.07.2019
5070 Clear 19 1020 55 10000 2.1 60 10:55 16.07.2019
5071 Clear 19 1020 55 10000 3.1 80 10:37 16.07.2019
5072 Clear 18 1020 55 10000 3.1 80 10:18 16.07.2019
5073 Clear 17 1020 67 10000 1.5 50 09:42 16.07.2019
5074 Clear 16 1020 72 10000 1.5 0 09:19 16.07.2019
5075 Clear 15 1020 76 10000 1.5 330 08:43 16.07.2019
5076 Clear 14 1020 76 10000 1.5 340 08:22 16.07.2019
5077 Clear 13 1020 81 10000 1.5 350 07:49 16.07.2019
5078 Clear 12 1020 81 10000 1.5 350 07:31 16.07.2019
5079 Clear 11 1020 81 10000 1.5 20 06:53 16.07.2019
5080 Clear 11 1020 81 10000 1.58 46.663 06:31 16.07.2019
5081 Clear 12 1019 81 10000 3.1 360 05:44 16.07.2019
5082 Clear 12 1019 81 10000 3.1 360 05:24 16.07.2019
5083 Clear 12 1020 76 10000 2.1 350 04:23 16.07.2019
5084 Clear 13 1020 71 10000 1.5 360 03:34 16.07.2019
5085 Clear 14 1020 71 10000 1.5 360 02:41 16.07.2019
5086 Clear 14 1020 67 10000 1.5 20 02:18 16.07.2019
5087 Clear 15 1020 67 10000 1.5 0 00:59 16.07.2019
5088 Clear 16 1020 63 10000 3.1 10 00:22 16.07.2019
5089 Clear 17 1020 63 10000 3.1 10 23:55 15.07.2019
5090 Clear 17 1020 63 10000 3.6 10 23:37 15.07.2019
5091 Clear 18 1020 59 10000 3.6 10 22:56 15.07.2019
5092 Clear 18 1019 55 10000 4.1 360 22:37 15.07.2019
5093 Clear 20 1019 52 10000 4.6 10 22:19 15.07.2019
5094 Clear 21 1019 49 10000 4.6 10 21:42 15.07.2019
5095 Clear 22 1019 46 10000 4.6 10 21:21 15.07.2019
5096 Clear 22 1019 46 10000 4.6 10 20:58 15.07.2019
5097 Clear 23 1018 40 10000 4.1 10 20:40 15.07.2019
5098 Clear 23 1018 40 10000 4.1 10 20:22 15.07.2019
5099 Clear 23 1018 40 10000 4.6 20 19:56 15.07.2019
5100 Clear 23 1018 40 10000 5.1 20 19:38 15.07.2019
5101 Clear 24 1018 38 10000 4.6 10 19:18 15.07.2019
5102 Clear 24 1018 38 10000 5.1 20 18:43 15.07.2019
5103 Clear 24 1019 38 10000 4.1 360 18:20 15.07.2019
5104 Clear 24 1019 38 10000 4.1 360 17:55 15.07.2019
5105 Clear 24 1019 38 10000 5.1 360 17:37 15.07.2019
5106 Clear 24 1019 38 10000 4.6 10 17:19 15.07.2019
5107 Clear 24 1019 40 10000 4.6 30 16:40 15.07.2019
5108 Clear 24 1019 40 10000 4.1 350 16:21 15.07.2019
5109 Clear 24 1019 40 10000 4.6 30 16:21 15.07.2019
5110 Clear 24 1019 40 10000 4.1 350 15:59 15.07.2019
5111 Clear 23 1019 40 10000 4.6 340 15:38 15.07.2019
5112 Clear 23 1019 40 10000 4.6 340 15:20 15.07.2019
5113 Clear 22 1019 43 10000 3.6 330 14:55 15.07.2019
5114 Clouds 22 1019 43 10000 4.1 360 14:37 15.07.2019
5115 Clouds 22 1019 43 10000 4.1 360 14:18 15.07.2019
5116 Clouds 21 1020 49 10000 3.1 330 13:43 15.07.2019
5117 Clouds 21 1020 49 10000 3.1 330 13:18 15.07.2019
5118 Clouds 20 1020 55 10000 4.1 340 12:42 15.07.2019
5119 Clouds 20 1020 55 10000 4.1 340 12:23 15.07.2019
5120 Clouds 19 1020 59 10000 3.6 10 11:44 15.07.2019
5121 Clouds 18 1020 59 10000 3.6 10 11:26 15.07.2019
5122 Clear 18 1020 63 10000 4.1 20 10:54 15.07.2019
5123 Clear 18 1020 63 10000 4.1 20 10:36 15.07.2019
5124 Clear 17 1020 63 10000 4.1 20 10:18 15.07.2019
5125 Clear 16 1020 72 10000 3.6 10 09:41 15.07.2019
5126 Clear 15 1020 76 10000 4.6 10 09:19 15.07.2019
5127 Clear 14 1020 82 10000 4.1 360 08:43 15.07.2019
5128 Clear 14 1020 82 10000 4.1 360 08:24 15.07.2019
5129 Clear 12 1020 81 10000 2.1 350 07:43 15.07.2019
5130 Clear 12 1020 81 10000 2.1 350 07:21 15.07.2019
5131 Clear 12 1020 81 10000 3.1 350 06:40 15.07.2019
5132 Clear 12 1020 76 10000 3.1 360 06:18 15.07.2019
5133 Clear 12 1020 76 10000 3.1 360 06:18 15.07.2019
5134 Clear 12 1020 76 10000 3.6 340 05:38 15.07.2019
5135 Clear 13 1020 82 10000 2.1 350 04:45 15.07.2019
5136 Clear 13 1020 82 10000 2.1 350 04:21 15.07.2019
5137 Clear 14 1020 76 10000 2.1 350 02:49 15.07.2019
5138 Clear 15 1020 72 10000 3.6 360 01:55 15.07.2019
5139 Clear 15 1020 72 10000 3.1 360 01:33 15.07.2019
5140 Clear 16 1020 67 6000 3.1 360 00:53 15.07.2019
5141 Clear 16 1020 67 6000 3.1 360 00:53 15.07.2019
5142 Clear 16 1020 67 10000 3.6 360 00:28 15.07.2019
5143 Clear 16 1020 63 10000 3.6 360 23:58 14.07.2019
5144 Clear 17 1020 59 10000 3.1 10 23:40 14.07.2019
5145 Clear 17 1020 55 10000 3.6 10 23:19 14.07.2019
5146 Clear 18 1020 55 10000 3.6 10 22:57 14.07.2019
5147 Clear 18 1019 55 10000 4.6 20 22:38 14.07.2019
5148 Clear 19 1019 52 10000 5.1 20 22:20 14.07.2019
5149 Clouds 19 1019 52 10000 6.2 20 21:43 14.07.2019
5150 Clouds 20 1019 52 10000 6.2 20 21:19 14.07.2019
5151 Clear 20 1019 49 10000 6.7 30 20:58 14.07.2019
5152 Clouds 20 1019 49 10000 5.7 30 20:38 14.07.2019
5153 Clear 21 1019 49 10000 5.1 10 20:20 14.07.2019
5154 Clouds 21 1019 49 10000 5.1 360 19:47 14.07.2019
5155 Clouds 21 1019 49 10000 5.1 360 19:28 14.07.2019
5156 Clear 21 1019 49 10000 5.7 360 18:58 14.07.2019
5157 Clouds 21 1019 49 10000 6.2 30 18:40 14.07.2019
5158 Clouds 22 1019 49 10000 5.1 20 18:21 14.07.2019
5159 Clouds 22 1019 49 10000 5.1 20 17:57 14.07.2019
5160 Clouds 21 1019 49 10000 5.7 20 17:23 14.07.2019
5161 Clouds 21 1019 52 10000 6.2 10 16:53 14.07.2019
5162 Clouds 20 1020 56 10000 6.2 20 16:26 14.07.2019
5163 Clouds 20 1020 59 10000 4.6 10 15:57 14.07.2019
5164 Clouds 20 1020 56 10000 5.1 10 15:38 14.07.2019
5165 Clouds 20 1020 59 10000 5.7 40 15:19 14.07.2019
5166 Clouds 20 1020 59 10000 4.6 360 14:44 14.07.2019
5167 Clouds 20 1020 59 10000 4.6 360 14:20 14.07.2019
5168 Clouds 19 1020 59 10000 6.2 20 13:45 14.07.2019
5169 Clouds 19 1020 59 10000 6.2 20 13:23 14.07.2019
5170 Clouds 19 1020 55 10000 5.7 10 12:57 14.07.2019
5171 Clouds 18 1020 63 10000 4.6 10 12:38 14.07.2019
5172 Clouds 18 1020 59 10000 4.6 360 12:18 14.07.2019
5173 Clouds 17 1020 63 10000 5.1 10 11:45 14.07.2019
5174 Clouds 17 1020 67 10000 5.1 10 11:20 14.07.2019
5175 Clouds 17 1020 72 10000 5.7 360 10:43 14.07.2019
5176 Clouds 16 1020 72 10000 4.6 10 10:21 14.07.2019
5177 Clouds 16 1020 72 10000 5.1 10 09:48 14.07.2019
5178 Clouds 16 1020 72 10000 5.1 10 09:29 14.07.2019
5179 Clear 15 1020 77 10000 3.6 360 08:47 14.07.2019
5180 Clear 15 1020 77 10000 3.6 360 08:29 14.07.2019
5181 Clear 14 1020 87 10000 3.1 350 07:43 14.07.2019
5182 Clear 13 1020 87 10000 3.1 350 07:20 14.07.2019
5183 Clear 13 1020 87 10000 2.1 350 05:46 14.07.2019
5184 Clear 13 1020 87 10000 2.1 350 05:46 14.07.2019
5185 Clear 15 1020 82 10000 2.6 360 03:53 14.07.2019
5186 Clear 15 1020 82 10000 2.6 360 03:34 14.07.2019
5187 Clear 16 1020 77 10000 3.6 360 02:52 14.07.2019
5188 Clear 16 1020 77 10000 3.6 360 02:23 14.07.2019
5189 Clear 17 1020 72 10000 2.6 10 01:53 14.07.2019
5190 Clear 17 1020 72 10000 2.6 10 01:27 14.07.2019
5191 Clear 18 1020 68 10000 1.5 0 00:41 14.07.2019
5192 Clear 18 1020 68 10000 2.1 10 00:20 14.07.2019
5193 Clear 19 1020 68 10000 2.1 10 23:57 13.07.2019
5194 Clear 19 1020 68 10000 1.5 10 23:38 13.07.2019
5195 Clear 19 1020 68 10000 1.5 10 23:20 13.07.2019
5196 Clear 20 1020 56 10000 4.1 30 22:41 13.07.2019
5197 Clear 20 1020 56 10000 4.1 30 22:21 13.07.2019
5198 Clear 21 1020 56 10000 4.6 20 21:48 13.07.2019
5199 Clouds 23 1019 49 10000 5.7 20 21:21 13.07.2019
5200 Clouds 23 1019 47 10000 5.7 20 20:51 13.07.2019
5201 Clouds 23 1019 47 10000 5.7 20 20:33 13.07.2019
5202 Clear 24 1019 47 10000 6.2 50 19:50 13.07.2019
5203 Clear 24 1019 47 10000 6.2 50 19:30 13.07.2019
5204 Clear 25 1019 44 10000 5.1 20 18:47 13.07.2019
5205 Clear 25 1019 44 10000 5.1 20 18:28 13.07.2019
5206 Clear 25 1019 47 10000 6.2 30 17:56 13.07.2019
5207 Clear 25 1019 41 10000 4.1 10 17:37 13.07.2019
5208 Clear 25 1019 47 10000 5.7 40 17:18 13.07.2019
5209 Clear 25 1020 44 10000 4.6 360 16:42 13.07.2019
5210 Clear 25 1020 44 10000 4.6 360 16:24 13.07.2019
5211 Clouds 25 1020 44 10000 4.6 350 15:46 13.07.2019
5212 Clouds 25 1020 44 10000 4.6 350 15:24 13.07.2019
5213 Clouds 24 1020 49 10000 4.1 10 14:47 13.07.2019
5214 Clouds 24 1020 49 10000 4.1 10 14:27 13.07.2019
5215 Clouds 24 1020 50 10000 3.6 330 13:58 13.07.2019
5216 Clouds 24 1020 49 10000 3.6 360 13:40 13.07.2019
5217 Clouds 24 1020 49 10000 3.6 360 13:19 13.07.2019
5218 Clouds 23 1020 53 10000 4.1 350 12:40 13.07.2019
5219 Clouds 22 1020 53 10000 4.1 350 12:22 13.07.2019
5220 Clouds 22 1020 53 10000 4.1 20 11:57 13.07.2019
5221 Clouds 22 1020 56 10000 3.6 20 11:20 13.07.2019
5222 Clouds 21 1020 64 10000 3.1 360 10:57 13.07.2019
5223 Clouds 21 1020 68 10000 4.6 40 10:39 13.07.2019
5224 Clouds 20 1020 68 10000 4.1 20 10:20 13.07.2019
5225 Clear 19 1020 72 10000 4.6 20 09:41 13.07.2019
5226 Clear 18 1020 77 10000 3.6 360 09:22 13.07.2019
5227 Clear 16 1019 82 10000 1.5 0 08:46 13.07.2019
5228 Clear 16 1019 82 10000 1.5 0 08:26 13.07.2019
5229 Clear 14 1019 82 10000 1 40 07:31 13.07.2019
5230 Clear 14 1019 82 10000 1.5 0 06:55 13.07.2019
5231 Clear 13 1019 82 10000 1.5 270 06:29 13.07.2019
5232 Clear 14 1018 77 10000 1.5 0 05:38 13.07.2019
5233 Clear 14 1018 77 10000 1 0 04:39 13.07.2019
5234 Clear 14 1018 72 10000 1.5 0 04:18 13.07.2019
5235 Clear 15 1018 72 10000 0.5 0 03:40 13.07.2019
5236 Clear 16 1018 67 10000 1 0 02:41 13.07.2019
5237 Clear 17 1018 63 10000 0.5 0 01:46 13.07.2019
5238 Clear 17 1018 59 10000 1 0 01:20 13.07.2019
5239 Clear 18 1018 59 10000 1 0 00:58 13.07.2019
5240 Clear 18 1018 56 10000 4.1 340 00:20 13.07.2019
5241 Clear 19 1017 52 10000 4.1 340 23:49 12.07.2019
5242 Clear 19 1017 52 10000 4.1 340 23:30 12.07.2019
5243 Clear 20 1017 52 10000 3.6 330 22:57 12.07.2019
5244 Clear 21 1016 49 10000 3.6 340 22:38 12.07.2019
5245 Clear 22 1016 46 10000 3.6 330 22:18 12.07.2019
5246 Clear 23 1015 44 10000 4.1 320 21:41 12.07.2019
5247 Clear 23 1015 44 10000 4.1 320 21:19 12.07.2019
5248 Clear 23 1015 44 10000 4.1 320 21:19 12.07.2019
5249 Clear 24 1015 41 10000 6.2 310 20:43 12.07.2019
5250 Clear 24 1015 41 10000 6.2 310 20:22 12.07.2019
5251 Clear 25 1015 44 10000 7.2 320 19:43 12.07.2019
5252 Clear 25 1015 44 10000 7.2 320 19:25 12.07.2019
5253 Clear 25 1014 41 10000 6.2 310 18:49 12.07.2019
5254 Clouds 25 1014 39 10000 6.2 290 18:23 12.07.2019
5255 Clear 26 1014 47 10000 6.7 290 17:58 12.07.2019
5256 Clear 26 1014 47 10000 5.7 300 17:38 12.07.2019
5257 Clear 26 1014 47 10000 5.1 290 17:19 12.07.2019
5258 Clear 26 1014 47 10000 4.6 290 16:37 12.07.2019
5259 Clear 26 1014 47 10000 5.1 270 16:18 12.07.2019
5260 Clear 26 1014 44 10000 5.7 270 15:39 12.07.2019
5261 Clouds 25 1014 47 10000 4.6 260 15:19 12.07.2019
5262 Clouds 25 1015 50 10000 3.6 280 14:45 12.07.2019
5263 Clouds 25 1015 50 10000 3.6 280 14:21 12.07.2019
5264 Clouds 24 1015 50 10000 4.6 280 13:53 12.07.2019
5265 Clouds 24 1015 53 10000 4.6 280 13:32 12.07.2019
5266 Clouds 23 1015 56 10000 5.7 260 12:44 12.07.2019
5267 Clouds 23 1015 60 10000 4.6 260 12:24 12.07.2019
5268 -273 0 0 0 0 0 11:58 12.07.2019
5269 Clouds 22 1015 60 10000 4.1 300 11:39 12.07.2019
5270 Clouds 22 1015 68 10000 3.1 290 11:19 12.07.2019
5271 Clear 21 1015 68 10000 2.6 260 10:41 12.07.2019
5272 Clouds 20 1015 68 10000 4.1 250 10:23 12.07.2019
5273 Clouds 19 1015 68 10000 4.1 250 09:53 12.07.2019
5274 Clouds 19 1015 72 10000 3.6 270 09:29 12.07.2019
5275 Clouds 18 1015 72 10000 3.1 280 08:52 12.07.2019
5276 Clear 17 1014 77 10000 3.6 270 08:26 12.07.2019
5277 Clear 16 1014 72 10000 2.6 270 07:55 12.07.2019
5278 Clear 15 1014 77 10000 2.6 260 07:32 12.07.2019
5279 Clear 15 1014 77 10000 3.1 270 06:51 12.07.2019
5280 Clear 15 1014 72 10000 2.6 270 06:26 12.07.2019
5281 Clear 15 1014 67 10000 2.1 300 05:24 12.07.2019
5282 Clear 17 1014 63 10000 3.1 300 03:21 12.07.2019
5283 Clear 19 1014 52 10000 1.5 330 01:39 12.07.2019
5284 Clear 20 1013 56 10000 1.5 330 00:54 12.07.2019
5285 Clear 21 1013 53 10000 2.6 330 00:20 12.07.2019
5286 Clear 22 1013 49 10000 4.1 330 23:47 11.07.2019
5287 Clear 22 1013 49 10000 4.1 330 23:26 11.07.2019
5288 Clear 23 1013 50 10000 4.1 330 22:55 11.07.2019
5289 Clear 24 1012 47 10000 4.1 340 22:37 11.07.2019
5290 Clear 24 1012 47 10000 4.1 340 22:19 11.07.2019
5291 Clear 25 1012 42 10000 2.1 320 21:40 11.07.2019
5292 Clear 26 1012 39 10000 2.6 300 21:18 11.07.2019
5293 Clear 26 1012 39 10000 2.6 300 20:54 11.07.2019
5294 Clear 27 1011 39 10000 1.5 260 20:36 11.07.2019
5295 Clear 27 1012 37 10000 0.5 0 20:18 11.07.2019
5296 Clear 27 1012 39 10000 1 0 19:43 11.07.2019
5297 Clear 27 1012 39 10000 1 0 19:22 11.07.2019
5298 Clear 27 1012 39 10000 1.5 0 18:44 11.07.2019
5299 -273 0 0 0 0 0 18:26 11.07.2019
5300 Rain 27 1012 42 10000 3.1 340 17:54 11.07.2019
5301 Rain 27 1012 42 10000 3.1 340 17:36 11.07.2019
5302 Clouds 27 1012 37 10000 2.1 280 17:18 11.07.2019
5303 Clear 28 1012 35 10000 3.1 260 16:42 11.07.2019
5304 Clear 28 1012 35 10000 3.1 260 16:42 11.07.2019
5305 Clear 28 1012 35 10000 3.1 260 16:19 11.07.2019
5306 Clear 28 1012 37 10000 2.6 290 15:44 11.07.2019
5307 Clear 28 1012 37 10000 2.6 290 15:24 11.07.2019
5308 Clear 28 1012 37 10000 3.6 0 14:58 11.07.2019
5309 Clear 28 1013 37 10000 3.1 230 14:38 11.07.2019
5310 Clear 28 1013 37 10000 1.5 190 14:19 11.07.2019
5311 Clear 27 1013 42 10000 2.1 0 13:42 11.07.2019
5312 Clear 27 1013 42 10000 2.1 0 13:23 11.07.2019
5313 Clear 24 1013 53 10000 1.5 150 12:39 11.07.2019
5314 Clear 24 1014 60 10000 1.21 129.023 12:19 11.07.2019
5315 Clear 23 1014 60 10000 1.21 129.023 11:50 11.07.2019
5316 Clear 22 1014 64 10000 1 0 11:30 11.07.2019
5317 Clear 21 1014 68 10000 1 0 10:54 11.07.2019
5318 Clear 20 1014 68 10000 1 0 10:20 11.07.2019
5319 Clear 20 1014 72 10000 2.6 360 09:58 11.07.2019
5320 Clear 19 1014 72 10000 1 0 09:39 11.07.2019
5321 Clear 19 1014 72 10000 1 0 09:21 11.07.2019
5322 Rain 18 1014 72 10000 2.1 330 08:49 11.07.2019
5323 Rain 18 1013 77 10000 2.1 110 08:22 11.07.2019
5324 Rain 18 1014 77 10000 2.1 360 07:46 11.07.2019
5325 Rain 18 1014 77 10000 2.1 360 07:28 11.07.2019
5326 Rain 18 1014 68 10000 1 10 06:21 11.07.2019
5327 Clear 18 1014 68 10000 1 360 05:45 11.07.2019
5328 Clear 18 1014 68 10000 1 360 05:26 11.07.2019
5329 Clear 18 1015 68 10000 1.5 30 03:59 11.07.2019
5330 Clear 18 1015 64 10000 1 10 02:37 11.07.2019
5331 Clear 19 1016 53 10000 1 0 00:49 11.07.2019
5332 Clear 20 1016 53 10000 2.1 90 23:56 10.07.2019
5333 Clear 20 1016 46 10000 2.6 130 23:31 10.07.2019
5334 Clear 21 1016 49 10000 2.1 90 22:59 10.07.2019
5335 Clear 22 1016 44 10000 2.1 40 22:41 10.07.2019
5336 Clear 22 1016 41 10000 2.1 20 22:19 10.07.2019
5337 Clear 24 1016 39 10000 1.5 40 21:44 10.07.2019
5338 Clear 24 1016 39 10000 1.5 40 21:26 10.07.2019
5339 Clear 26 1017 39 10000 1.5 340 20:54 10.07.2019
5340 Clear 26 1017 39 10000 1.5 340 20:36 10.07.2019
5341 Clear 26 1017 36 10000 1.5 0 20:18 10.07.2019
5342 Clear 26 1017 36 10000 1.5 0 19:42 10.07.2019
5343 Clear 26 1017 36 10000 1.5 0 19:21 10.07.2019
5344 Clear 27 1017 36 10000 2.6 20 18:48 10.07.2019
5345 Clear 27 1017 36 10000 2.6 20 18:25 10.07.2019
5346 Clear 27 1018 36 10000 2.1 0 17:59 10.07.2019
5347 Clear 27 1018 36 10000 3.6 330 17:40 10.07.2019
5348 Clear 27 1018 34 10000 3.1 190 17:19 10.07.2019
5349 Clear 27 1018 34 10000 2.1 0 16:22 10.07.2019
5350 Clear 27 1019 36 10000 1.5 0 15:59 10.07.2019
5351 Clear 26 1019 36 10000 2.6 330 15:40 10.07.2019
5352 Clear 26 1019 38 10000 2.1 50 15:18 10.07.2019
5353 Clear 25 1019 38 10000 1.5 0 14:39 10.07.2019
5354 Clear 25 1019 38 10000 1.5 0 14:21 10.07.2019
5355 Clear 25 1020 41 10000 2.6 30 13:44 10.07.2019
5356 Clear 24 1020 38 10000 2.1 0 13:19 10.07.2019
5357 Clear 24 1020 38 10000 2.1 0 13:19 10.07.2019
5358 Clear 24 1020 38 10000 2.1 0 13:19 10.07.2019
5359 Clear 24 1020 38 10000 2.1 0 12:55 10.07.2019
5360 Clear 24 1020 40 10000 2.1 0 12:36 10.07.2019
5361 Clear 23 1020 38 10000 2.1 300 12:18 10.07.2019
5362 Clear 23 1020 38 10000 1 0 11:40 10.07.2019
5363 Clear 23 1020 38 10000 1 0 11:20 10.07.2019
5364 Clear 22 1020 40 10000 1.5 0 10:41 10.07.2019
5365 Clear 21 1020 40 10000 1.5 0 10:19 10.07.2019
5366 Clear 20 1020 52 10000 1.5 0 09:44 10.07.2019
5367 Clear 19 1020 52 10000 1.5 0 09:21 10.07.2019
5368 Clear 18 1020 59 10000 1.5 350 08:50 10.07.2019
5369 Clear 17 1020 63 10000 2.1 360 08:29 10.07.2019
5370 Clear 15 1020 71 10000 1 0 07:54 10.07.2019
5371 Clear 15 1020 71 10000 1 0 07:31 10.07.2019
5372 Clear 13 1020 71 10000 1 0 06:42 10.07.2019
5373 Clear 13 1020 71 10000 1 360 05:59 10.07.2019
5374 Clear 14 1020 67 10000 2.6 350 04:36 10.07.2019
5375 Clear 14 1020 59 10000 2.6 350 03:38 10.07.2019
5376 Clear 17 1020 48 10000 2.6 20 00:45 10.07.2019
5377 Clear 17 1020 48 10000 2.6 20 00:26 10.07.2019
5378 Clear 18 1020 42 10000 2.1 10 23:41 09.07.2019
5379 Clear 19 1020 42 10000 2.1 10 23:21 09.07.2019
5380 Clear 19 1019 40 10000 2.6 10 22:41 09.07.2019
5381 Clear 20 1019 40 10000 2.6 10 22:22 09.07.2019
5382 Clear 21 1019 37 10000 3.1 10 21:56 09.07.2019
5383 Clear 22 1019 35 10000 4.1 20 21:38 09.07.2019
5384 Clear 22 1019 33 10000 4.1 10 21:19 09.07.2019
5385 Clear 23 1019 31 10000 5.1 360 20:43 09.07.2019
5386 Clear 23 1019 31 10000 5.1 360 20:24 09.07.2019
5387 Clear 24 1019 31 10000 5.1 10 19:41 09.07.2019
5388 Clear 24 1019 31 10000 5.1 10 19:21 09.07.2019
5389 Clear 24 1019 29 10000 4.6 360 18:45 09.07.2019
5390 Clear 24 1019 29 10000 4.6 360 18:23 09.07.2019
5391 Clear 25 1019 27 10000 4.6 10 17:56 09.07.2019
5392 Clear 25 1019 27 10000 4.6 10 17:37 09.07.2019
5393 Clear 25 1019 27 10000 4.6 10 17:37 09.07.2019
5394 Clear 24 1019 29 10000 4.6 20 17:18 09.07.2019
5395 Clear 24 1019 25 10000 5.7 30 16:47 09.07.2019
5396 Clear 24 1019 25 10000 5.7 30 16:24 09.07.2019
5397 Clear 24 1020 28 10000 4.1 20 15:49 09.07.2019
5398 Clear 23 1020 28 10000 4.1 20 15:31 09.07.2019
5399 Clear 23 1020 31 10000 4.6 50 14:57 09.07.2019
5400 Clear 23 1020 35 10000 4.1 20 14:39 09.07.2019
5401 Clear 22 1021 37 10000 5.1 20 14:18 09.07.2019
5402 Clear 22 1021 37 10000 4.1 40 13:43 09.07.2019
5403 Clear 21 1021 37 10000 4.1 40 13:24 09.07.2019
5404 Clear 20 1021 48 10000 4.1 10 12:40 09.07.2019
5405 Clear 20 1021 48 10000 4.1 10 12:22 09.07.2019
5406 Clear 19 1021 45 10000 5.1 60 11:58 09.07.2019
5407 Clear 19 1021 45 10000 5.7 40 11:39 09.07.2019
5408 Clouds 18 1021 52 10000 4.6 40 11:20 09.07.2019
5409 Clear 18 1021 59 10000 5.1 50 10:50 09.07.2019
5410 Clear 18 1021 59 10000 5.1 50 10:31 09.07.2019
5411 Clear 16 1021 59 10000 4.6 50 09:42 09.07.2019
5412 Clear 16 1021 59 10000 4.6 50 09:22 09.07.2019
5413 Clear 16 1021 59 10000 4.6 50 09:22 09.07.2019
5414 Clear 15 1021 67 10000 4.6 40 08:55 09.07.2019
5415 Clear 14 1021 67 10000 4.1 30 08:37 09.07.2019
5416 Clear 14 1020 63 10000 2.1 350 03:59 05.07.2019
5417 Clear 15 1020 63 10000 1 0 03:38 05.07.2019
5418 Clear 15 1020 63 10000 1 0 03:19 05.07.2019
5419 Clear 17 1020 63 10000 1.5 350 02:45 05.07.2019
5420 Clear 18 1020 55 10000 1.5 360 01:44 05.07.2019
5421 Clear 18 1020 55 10000 1.5 360 01:25 05.07.2019
5422 Clear 18 1020 52 10000 2.6 10 00:47 05.07.2019
5423 Clear 19 1020 52 10000 2.6 10 00:20 05.07.2019
5424 Clear 20 1020 46 10000 2.6 10 23:23 04.07.2019
5425 Clear 20 1020 46 10000 2.6 10 22:59 04.07.2019
5426 Clear 21 1020 43 10000 2.6 10 22:40 04.07.2019
5427 Clear 23 1019 38 10000 3.1 20 22:19 04.07.2019
5428 Clear 24 1019 36 10000 4.1 40 21:41 04.07.2019
5429 Clear 24 1019 36 10000 4.1 40 21:22 04.07.2019
5430 Clear 25 1019 34 10000 4.1 20 20:58 04.07.2019
5431 Clear 26 1019 34 10000 3.6 40 20:37 04.07.2019
5432 Clear 26 1019 32 10000 4.1 30 20:18 04.07.2019
5433 Clear 27 1019 32 10000 3.6 20 19:41 04.07.2019
5434 Clear 27 1019 32 10000 3.6 20 19:21 04.07.2019
5435 Clear 27 1020 32 10000 3.6 20 18:46 04.07.2019
5436 Clear 27 1020 30 10000 3.6 20 18:27 04.07.2019
5437 Clear 27 1020 30 10000 3.6 20 17:58 04.07.2019
5438 Clouds 27 1021 30 10000 3.6 50 17:40 04.07.2019
5439 Clear 27 1021 30 10000 3.6 50 17:18 04.07.2019
5440 Clear 26 1022 34 10000 3.6 60 15:43 04.07.2019
5441 Clear 26 1022 34 10000 3.6 60 15:24 04.07.2019
5442 Clear 26 1022 36 10000 3.6 40 14:59 04.07.2019
5443 Clear 25 1022 36 10000 4.6 30 14:38 04.07.2019
5444 Clear 25 1023 38 10000 4.1 50 14:19 04.07.2019
5445 Clear 25 1023 38 10000 4.1 50 13:56 04.07.2019
5446 Clear 24 1023 38 10000 4.6 50 13:38 04.07.2019
5447 Clear 24 1023 38 10000 4.6 50 13:19 04.07.2019
5448 Clear 23 1023 40 10000 5.1 30 12:38 04.07.2019
5449 Clear 23 1023 40 10000 5.1 30 12:19 04.07.2019
5450 Clear 22 1023 49 10000 4.1 20 11:45 04.07.2019
5451 Clear 21 1023 49 10000 4.1 40 11:20 04.07.2019
5452 Clear 20 1023 49 10000 4.1 40 10:56 04.07.2019
5453 Clear 20 1024 55 10000 4.6 30 10:38 04.07.2019
5454 Clear 19 1024 55 10000 4.6 30 10:18 04.07.2019
5455 Clear 17 1024 55 10000 4.1 30 09:38 04.07.2019
5456 Clear 17 1024 55 10000 4.1 30 09:19 04.07.2019
5457 Clear 16 1024 59 10000 4.1 20 08:52 04.07.2019
5458 Clear 15 1023 62 10000 2.6 10 08:18 04.07.2019
5459 Clear 14 1023 67 10000 3.1 360 07:40 04.07.2019
5460 Clear 14 1023 67 10000 2.6 360 07:19 04.07.2019
5461 Clear 13 1023 67 10000 3.6 10 06:32 04.07.2019
5462 Clear 14 1023 67 10000 3.6 360 05:43 04.07.2019
5463 Clear 14 1023 62 10000 3.1 360 04:59 04.07.2019
5464 Clear 16 1023 63 10000 4.1 360 02:23 04.07.2019
5465 Clear 17 1023 59 10000 4.1 360 01:27 04.07.2019
5466 Clear 17 1023 59 10000 2.6 360 00:52 04.07.2019
5467 Clear 18 1023 52 10000 4.6 20 23:53 03.07.2019
5468 Clear 19 1023 48 10000 3.6 20 23:21 03.07.2019
5469 Clear 19 1022 45 10000 5.1 20 22:57 03.07.2019
5470 Clear 19 1022 46 10000 5.1 20 22:39 03.07.2019
5471 Clear 20 1022 46 10000 5.1 20 22:21 03.07.2019
5472 Clear 21 1022 46 10000 5.1 20 21:56 03.07.2019
5473 Clear 21 1021 43 10000 6.2 20 21:37 03.07.2019
5474 Clear 22 1021 40 10000 5.7 20 20:57 03.07.2019
5475 Clear 23 1021 40 10000 6.2 30 20:37 03.07.2019
5476 Clear 23 1021 41 10000 6.2 30 20:19 03.07.2019
5477 Clear 24 1021 41 10000 6.2 20 19:45 03.07.2019
5478 Clear 24 1021 41 10000 6.2 20 19:25 03.07.2019
5479 Clear 25 1021 38 10000 5.1 30 18:45 03.07.2019
5480 Clear 25 1021 38 10000 5.1 30 18:23 03.07.2019
5481 Clear 25 1021 38 10000 6.2 50 17:51 03.07.2019
5482 Clear 25 1022 38 10000 4.6 40 17:20 03.07.2019
5483 Clear 25 1022 38 10000 4.6 40 16:58 03.07.2019
5484 Clear 25 1022 38 10000 4.6 30 16:40 03.07.2019
5485 Clear 25 1022 38 10000 4.6 30 16:19 03.07.2019
5486 Clear 25 1022 38 10000 6.2 40 15:47 03.07.2019
5487 Clear 24 1022 41 10000 4.6 40 15:27 03.07.2019
5488 Clear 24 1022 41 10000 4.6 50 14:51 03.07.2019
5489 Clear 24 1023 41 10000 5.1 30 14:23 03.07.2019
5490 Clear 24 1023 40 10000 6.2 30 13:50 03.07.2019
5491 Clear 24 1023 43 10000 4.6 30 13:31 03.07.2019
5492 Clear 23 1023 43 10000 5.7 30 12:54 03.07.2019
5493 Clear 22 1023 43 10000 6.2 20 12:21 03.07.2019
5494 Clear 22 1023 49 10000 5.7 30 11:58 03.07.2019
5495 Clear 21 1023 49 10000 4.6 30 11:39 03.07.2019
5496 Clear 21 1023 49 10000 4.6 30 11:20 03.07.2019
5497 Clear 20 1023 55 10000 5.7 40 10:41 03.07.2019
5498 Clear 19 1023 55 10000 5.7 40 10:22 03.07.2019
5499 Clear 18 1023 63 10000 6.2 40 09:42 03.07.2019
5500 Clear 17 1023 63 10000 6.2 40 09:21 03.07.2019
5501 Clear 17 1023 67 10000 6.2 40 08:53 03.07.2019
5502 Clear 17 1023 67 10000 6.2 40 08:53 03.07.2019
5503 Clear 16 1022 67 10000 5.1 20 08:32 03.07.2019
5504 Clear 15 1022 72 10000 4.6 10 07:57 03.07.2019
5505 Clear 15 1022 71 10000 3.1 20 07:36 03.07.2019
5506 Clear 14 1022 71 10000 2.6 20 06:52 03.07.2019
5507 Clear 14 1022 71 10000 3.6 20 05:56 03.07.2019
5508 Clear 14 1022 67 10000 3.6 10 05:24 03.07.2019
5509 Clear 15 1022 63 10000 4.6 10 03:50 03.07.2019
5510 Clear 16 1022 63 10000 5.1 360 02:43 03.07.2019
5511 Clear 17 1022 72 10000 5.1 360 01:37 03.07.2019
5512 Clear 17 1022 68 10000 4.6 360 01:19 03.07.2019
5513 Clear 17 1022 63 10000 4.6 360 00:40 03.07.2019
5514 Clear 18 1022 52 10000 2.1 360 23:54 02.07.2019
5515 Clear 19 1022 52 10000 2.1 360 23:36 02.07.2019
5516 Clear 19 1021 49 10000 2.1 360 23:18 02.07.2019
5517 Clear 19 1021 46 10000 2.1 20 22:41 02.07.2019
5518 Clear 20 1021 43 10000 3.6 30 22:23 02.07.2019
5519 Clear 21 1021 43 10000 3.6 30 21:58 02.07.2019
5520 Clear 22 1020 40 10000 3.6 20 21:39 02.07.2019
5521 Clear 22 1021 40 10000 5.7 30 21:20 02.07.2019
5522 Clear 23 1020 38 10000 4.6 20 20:42 02.07.2019
5523 Clear 24 1020 38 10000 4.6 10 20:24 02.07.2019
5524 Clear 24 1020 38 10000 4.6 10 19:59 02.07.2019
5525 Clear 24 1021 41 10000 4.6 30 19:40 02.07.2019
5526 Clear 24 1020 41 10000 3.1 20 19:21 02.07.2019
5527 Clear 25 1021 36 10000 4.6 40 18:45 02.07.2019
5528 Clear 25 1021 36 10000 4.6 20 18:18 02.07.2019
5529 Clear 25 1021 36 10000 5.1 20 17:41 02.07.2019
5530 Clear 25 1021 41 10000 4.6 30 17:22 02.07.2019
5531 Clear 25 1021 41 10000 4.6 30 16:49 02.07.2019
5532 Clear 25 1022 41 10000 4.1 30 16:31 02.07.2019
5533 Clear 24 1022 43 10000 5.1 30 15:46 02.07.2019
5534 Clear 24 1022 43 10000 5.1 30 15:26 02.07.2019
5535 Clear 24 1022 46 10000 5.1 50 14:56 02.07.2019
5536 Clear 24 1022 46 10000 5.1 50 14:38 02.07.2019
5537 Clouds 23 1022 46 10000 4.6 20 14:19 02.07.2019
5538 Clouds 23 1023 46 10000 5.1 20 13:38 02.07.2019
5539 Clouds 22 1023 49 10000 4.6 20 13:18 02.07.2019
5540 Clouds 22 1023 46 10000 4.6 50 12:44 02.07.2019
5541 Clouds 21 1023 49 10000 4.1 20 12:22 02.07.2019
5542 Clouds 21 1023 52 10000 5.1 60 11:43 02.07.2019
5543 Clear 21 1023 56 10000 4.6 40 11:23 02.07.2019
5544 Clear 20 1023 56 10000 4.6 40 10:54 02.07.2019
5545 Clear 19 1023 63 10000 4.1 50 10:26 02.07.2019
5546 Clear 18 1023 67 10000 2.6 40 09:51 02.07.2019
5547 Clear 17 1023 72 10000 2.1 20 09:22 02.07.2019
5548 Clear 16 1023 77 10000 2.6 360 08:57 02.07.2019
5549 Clear 15 1023 77 10000 2.6 360 08:37 02.07.2019
5550 Clear 14 1023 82 10000 0.5 0 07:59 02.07.2019
5551 Clear 12 1023 81 10000 2.1 360 07:21 02.07.2019
5552 Clear 11 1023 87 10000 1 0 06:59 02.07.2019
5553 Clear 11 1023 87 10000 1 0 06:36 02.07.2019
5554 Clear 11 1023 81 10000 1 0 05:27 02.07.2019
5555 Clear 14 1023 71 10000 1 0 02:38 02.07.2019
5556 Clear 16 1022 63 10000 4.1 340 00:28 02.07.2019
5557 Clear 17 1022 59 10000 3.6 350 23:38 01.07.2019
5558 Clear 17 1022 56 10000 4.1 330 23:18 01.07.2019
5559 Clear 19 1021 52 10000 2.6 320 22:42 01.07.2019
5560 Clear 20 1021 52 10000 5.1 320 22:23 01.07.2019
5561 Clear 21 1020 49 10000 4.1 310 21:44 01.07.2019
5562 Clear 21 1020 49 10000 4.1 310 21:25 01.07.2019
5563 Clear 22 1020 49 10000 3.1 310 20:47 01.07.2019
5564 Clear 22 1020 49 10000 3.1 310 20:21 01.07.2019
5565 Clear 23 1020 49 10000 4.6 290 19:55 01.07.2019
5566 Clouds 23 1020 53 10000 3.6 300 19:36 01.07.2019
5567 Rain 23 1020 64 10000 4.1 300 19:18 01.07.2019
5568 Rain 23 1020 49 10000 3.6 330 18:43 01.07.2019
5569 Clouds 23 1020 47 10000 4.1 320 18:25 01.07.2019
5570 Rain 23 1020 47 10000 4.1 320 17:46 01.07.2019
5571 Clear 24 1020 46 10000 3.6 320 17:26 01.07.2019
5572 Clear 24 1020 49 10000 4.1 330 16:57 01.07.2019
5573 Clear 24 1020 49 10000 4.1 330 16:39 01.07.2019
5574 Clear 24 1020 46 10000 3.6 320 16:20 01.07.2019
5575 Clouds 23 1020 49 10000 3.6 300 15:43 01.07.2019
5576 Clouds 23 1021 53 10000 3.1 310 15:23 01.07.2019
5577 Clouds 23 1021 56 10000 3.6 280 14:44 01.07.2019
5578 Clouds 22 1021 60 10000 2.1 0 14:20 01.07.2019
5579 Clouds 22 1021 60 10000 3.1 320 13:48 01.07.2019
5580 Clouds 22 1020 60 10000 3.1 330 13:24 01.07.2019
5581 Clear 21 1021 60 10000 3.6 320 12:57 01.07.2019
5582 Rain 21 1021 60 10000 3.6 320 12:38 01.07.2019
5583 Clear 20 1021 64 10000 3.6 330 12:20 01.07.2019
5584 Clouds 20 1021 68 10000 3.1 330 11:45 01.07.2019
5585 Clouds 19 1021 68 10000 2.1 280 11:23 01.07.2019
5586 Clear 19 1022 68 10000 3.1 260 10:48 01.07.2019
5587 Rain 19 1021 72 10000 2.6 290 10:25 01.07.2019
5588 Rain 18 1020 72 10000 1.5 0 09:59 01.07.2019
5589 Rain 18 1020 72 10000 1.5 0 09:40 01.07.2019
5590 Clouds 17 1021 72 10000 4.1 260 09:22 01.07.2019
5591 Clear 17 1021 72 10000 2.1 260 08:39 01.07.2019
5592 Clouds 16 1020 77 10000 2.23 294.017 08:21 01.07.2019
5593 Clear 15 1019 72 10000 2.1 310 07:29 01.07.2019
5594 Clouds 15 1020 72 10000 2.1 270 06:39 01.07.2019
5595 Clear 17 1020 68 10000 2.6 320 02:48 01.07.2019
5596 Clear 19 1019 68 10000 3.6 340 00:53 01.07.2019
5597 Clear 19 1018 60 10000 3.1 340 00:30 01.07.2019
5598 Clear 20 1018 53 10000 3.1 310 23:58 30.06.2019
5599 Clear 21 1018 49 10000 4.1 310 23:23 30.06.2019
5600 Clear 22 1018 53 10000 3.1 320 22:54 30.06.2019
5601 Clear 22 1017 47 10000 2.6 310 22:23 30.06.2019
5602 Clear 23 1017 44 10000 3.6 310 21:57 30.06.2019
5603 Clear 23 1017 44 10000 3.6 310 21:38 30.06.2019
5604 Clear 23 1017 44 10000 3.6 300 21:18 30.06.2019
5605 Clear 25 1017 41 10000 3.6 320 20:41 30.06.2019
5606 Clear 25 1017 44 10000 4.1 320 20:22 30.06.2019
5607 Clear 26 1017 44 10000 5.1 330 19:48 30.06.2019
5608 Clear 26 1017 47 10000 3.6 310 19:25 30.06.2019
5609 Clear 26 1018 50 10000 3.1 340 18:48 30.06.2019
5610 Thunderstorm 26 1018 53 10000 3.6 320 18:22 30.06.2019
5611 Clouds 25 1018 53 10000 4.1 320 17:41 30.06.2019
5612 Rain 24 1018 60 10000 4.6 310 17:20 30.06.2019
5613 Thunderstorm 24 1019 53 10000 5.7 310 16:56 30.06.2019
5614 Thunderstorm 24 1019 53 10000 5.7 310 16:37 30.06.2019
5615 Clouds 24 1018 44 10000 5.7 300 16:18 30.06.2019
5616 Clear 25 1018 39 10000 4.1 300 15:36 30.06.2019
5617 Clear 26 1018 39 10000 1.5 0 15:18 30.06.2019
5618 Clear 26 1017 42 10000 1.5 0 14:45 30.06.2019
5619 Clear 26 1017 42 10000 1.5 0 14:27 30.06.2019
5620 Clear 26 1017 42 10000 1 0 13:43 30.06.2019
5621 Clear 26 1017 47 10000 1.5 0 13:23 30.06.2019
5622 Clear 25 1018 47 10000 3.6 340 12:48 30.06.2019
5623 Clear 25 1018 53 10000 3.6 270 12:25 30.06.2019
5624 Clouds 24 1018 56 9000 4.1 280 11:55 30.06.2019
5625 Clouds 24 1018 56 9000 4.1 280 11:37 30.06.2019
5626 Clouds 23 1018 60 9000 3.6 280 11:18 30.06.2019
5627 Clouds 23 1018 60 9000 3.6 280 11:18 30.06.2019
5628 Clouds 22 1018 64 8000 4.6 280 10:42 30.06.2019
5629 Clouds 22 1017 68 8000 4.6 280 10:19 30.06.2019
5630 Clouds 21 1017 73 7000 3.6 270 09:44 30.06.2019
5631 Clouds 21 1017 73 7000 3.6 270 09:44 30.06.2019
5632 Clouds 20 1017 77 9000 4.1 280 09:23 30.06.2019
5633 Clouds 19 1016 82 9000 3.6 270 08:59 30.06.2019
5634 Clouds 19 1016 82 9000 3.6 270 08:38 30.06.2019
5635 Clouds 19 1016 82 8000 3.6 270 08:18 30.06.2019
5636 Clear 19 1015 77 9000 3.1 290 07:38 30.06.2019
5637 Clear 19 1015 77 9000 3.1 290 07:19 30.06.2019
5638 Clear 19 1014 73 10000 3.6 280 06:18 30.06.2019
5639 Clear 23 1012 69 10000 2.1 50 03:25 30.06.2019
5640 Clear 24 1012 61 10000 2.1 40 01:31 30.06.2019
5641 Clear 24 1012 57 10000 2.1 50 00:38 30.06.2019
5642 Clear 25 1012 54 10000 1.5 40 00:18 30.06.2019
5643 Clear 26 1012 48 10000 1.5 50 23:39 29.06.2019
5644 Clear 26 1012 45 10000 1 0 23:20 29.06.2019
5645 Clear 27 1012 42 10000 2.6 110 22:42 29.06.2019
5646 Clear 29 1012 40 10000 3.1 120 22:22 29.06.2019
5647 Clear 30 1012 38 10000 4.6 110 21:54 29.06.2019
5648 Clear 31 1013 38 10000 4.1 110 21:24 29.06.2019
5649 Clear 32 1013 36 10000 4.1 120 20:46 29.06.2019
5650 Clear 33 1013 34 10000 4.6 120 20:28 29.06.2019
5651 Clear 34 1013 32 10000 5.7 110 19:55 29.06.2019
5652 Clear 34 1013 32 10000 5.7 110 19:36 29.06.2019
5653 Clear 34 1013 32 10000 4.1 120 19:18 29.06.2019
5654 Clear 35 1013 28 10000 3.6 100 18:44 29.06.2019
5655 Clear 35 1014 26 10000 4.1 120 18:24 29.06.2019
5656 Clear 35 1014 26 10000 3.6 110 17:37 29.06.2019
5657 Clear 35 1014 28 10000 3.1 150 17:19 29.06.2019
5658 Clear 35 1014 28 10000 3.1 130 16:42 29.06.2019
5659 Clear 34 1015 30 10000 3.6 120 15:59 29.06.2019
5660 Clear 34 1015 30 10000 3.6 120 15:32 29.06.2019
5661 Clear 33 1015 29 10000 3.6 100 14:46 29.06.2019
5662 Clear 33 1016 33 10000 3.6 100 14:27 29.06.2019
5663 Clear 32 1016 35 10000 3.6 80 13:56 29.06.2019
5664 Clear 32 1016 35 10000 3.6 80 13:37 29.06.2019
5665 Clear 31 1016 35 10000 3.1 80 13:19 29.06.2019
5666 Clear 30 1016 37 10000 3.6 60 12:40 29.06.2019
5667 Clear 30 1016 39 10000 3.6 80 12:22 29.06.2019
5668 Clear 29 1017 45 10000 3.6 70 11:45 29.06.2019
5669 Clear 28 1017 47 10000 3.1 50 11:27 29.06.2019
5670 Clear 27 1017 50 10000 2.1 60 10:51 29.06.2019
5671 Clear 26 1017 50 10000 2.6 60 10:22 29.06.2019
5672 Clear 25 1017 53 10000 2.6 60 09:57 29.06.2019
5673 Clear 23 1017 56 10000 2.6 50 09:19 29.06.2019
5674 Clear 21 1017 72 10000 1.5 0 08:36 29.06.2019
5675 Clear 20 1017 77 10000 1.5 350 07:46 29.06.2019
5676 Clear 18 1017 82 10000 1.5 360 06:57 29.06.2019
5677 Clear 18 1017 82 10000 1.5 360 06:39 29.06.2019
5678 Clear 18 1018 82 10000 2.1 350 06:19 29.06.2019
5679 Clear 21 1019 64 10000 1.5 10 01:56 29.06.2019
5680 Clear 22 1019 64 10000 2.1 40 00:54 29.06.2019
5681 Clear 24 1019 53 10000 2.6 20 23:55 28.06.2019
5682 Clear 25 1019 50 10000 3.6 30 23:22 28.06.2019
5683 Clear 25 1019 50 10000 4.1 30 22:50 28.06.2019
5684 Clear 26 1019 45 10000 3.6 30 22:27 28.06.2019
5685 Clear 28 1019 42 10000 2.6 20 21:46 28.06.2019
5686 Clear 29 1019 37 10000 3.1 50 21:20 28.06.2019
5687 Clear 30 1019 39 10000 3.6 50 20:44 28.06.2019
5688 Clear 30 1019 40 10000 4.6 40 20:21 28.06.2019
5689 Clear 31 1019 40 10000 4.6 50 19:45 28.06.2019
5690 Clear 31 1019 38 10000 5.1 40 19:27 28.06.2019
5691 Clear 31 1019 38 10000 5.1 50 18:43 28.06.2019
5692 Clear 32 1019 38 10000 5.1 60 18:22 28.06.2019
5693 Clear 32 1020 38 10000 5.1 60 17:56 28.06.2019
5694 Clear 32 1020 38 10000 5.7 70 17:29 28.06.2019
5695 Clear 32 1020 38 10000 5.1 60 16:49 28.06.2019
5696 Clear 32 1020 38 10000 5.1 60 16:24 28.06.2019
5697 Clear 31 1020 42 10000 5.7 60 15:48 28.06.2019
5698 Clear 31 1021 40 10000 5.1 60 15:23 28.06.2019
5699 Clear 30 1021 42 10000 4.6 50 14:43 28.06.2019
5700 Clear 30 1021 45 10000 4.6 50 14:22 28.06.2019
5701 Clear 29 1021 48 10000 5.1 50 13:58 28.06.2019
5702 Clear 29 1021 48 10000 5.1 50 13:39 28.06.2019
5703 Clear 29 1021 47 10000 4.1 40 13:19 28.06.2019
5704 Clear 27 1022 50 10000 4.1 60 12:45 28.06.2019
5705 Clear 26 1022 50 10000 4.1 60 11:54 28.06.2019
5706 Clear 25 1022 53 10000 4.6 70 11:25 28.06.2019
5707 Clear 24 1022 53 10000 5.1 60 10:46 28.06.2019
5708 Clear 23 1022 56 10000 5.1 50 10:22 28.06.2019
5709 Clear 22 1022 56 10000 4.6 50 09:49 28.06.2019
5710 Clear 21 1022 60 10000 4.1 30 09:30 28.06.2019
5711 Clear 20 1022 63 10000 2.6 30 08:48 28.06.2019
5712 Clear 20 1022 68 10000 2.6 30 08:26 28.06.2019
5713 Clear 19 1022 63 10000 2.6 30 07:49 28.06.2019
5714 Clear 18 1022 67 10000 2.6 30 07:31 28.06.2019
5715 Clear 18 1022 63 10000 1.5 360 06:31 28.06.2019
5716 Clear 22 1022 53 10000 4.1 30 01:42 28.06.2019
5717 Clear 23 1022 53 10000 4.6 30 00:44 28.06.2019
5718 Clear 23 1022 53 10000 4.6 20 23:55 27.06.2019
5719 Clear 24 1022 53 10000 4.6 20 23:37 27.06.2019
5720 Clear 24 1022 57 10000 4.1 20 23:18 27.06.2019
5721 Clear 25 1022 53 10000 4.1 20 22:41 27.06.2019
5722 Clear 26 1022 54 10000 4.6 20 22:22 27.06.2019
5723 Clear 27 1022 54 10000 4.1 30 21:49 27.06.2019
5724 Clear 27 1022 54 10000 4.1 30 21:31 27.06.2019
5725 Clear 28 1022 48 10000 5.7 30 20:57 27.06.2019
5726 Clear 29 1022 48 10000 5.7 30 20:39 27.06.2019
5727 Clear 29 1022 51 10000 6.2 30 20:19 27.06.2019
5728 Clear 30 1021 48 10000 6.7 30 19:44 27.06.2019
5729 Clear 30 1022 48 10000 6.2 40 19:25 27.06.2019
5730 Clear 31 1022 51 10000 7.2 30 18:43 27.06.2019
5731 Clear 31 1022 51 10000 7.2 30 18:43 27.06.2019
5732 Clear 31 1022 48 10000 6.2 30 18:21 27.06.2019
5733 Clear 31 1022 48 10000 6.2 20 17:45 27.06.2019
5734 Clear 31 1022 52 10000 6.2 30 17:22 27.06.2019
5735 Clear 31 1022 52 10000 5.7 30 16:41 27.06.2019
5736 Clear 31 1022 55 10000 6.2 50 16:20 27.06.2019
5737 Clear 31 1023 55 10000 5.7 30 15:59 27.06.2019
5738 Clear 31 1023 55 10000 5.7 30 15:40 27.06.2019
5739 Clear 30 1023 55 10000 5.1 20 14:59 27.06.2019
5740 Clear 30 1023 58 10000 5.1 20 14:40 27.06.2019
5741 Clear 30 1023 58 10000 5.1 20 14:22 27.06.2019
5742 Clear 29 1023 61 10000 5.1 20 13:44 27.06.2019
5743 Clear 29 1023 61 10000 5.1 40 13:26 27.06.2019
5744 Clear 28 1023 61 10000 5.1 30 12:51 27.06.2019
5745 Clear 27 1023 61 10000 5.1 30 12:33 27.06.2019
5746 Clear 26 1023 65 10000 4.6 20 11:55 27.06.2019
5747 Clear 26 1023 65 10000 4.6 20 11:36 27.06.2019
5748 Clear 26 1023 69 10000 4.6 20 11:18 27.06.2019
5749 Clear 25 1023 69 10000 4.6 20 10:42 27.06.2019
5750 Clear 24 1023 73 10000 5.1 20 10:20 27.06.2019
5751 Clear 23 1023 73 10000 5.1 20 09:50 27.06.2019
5752 Clear 22 1023 77 10000 5.1 30 09:22 27.06.2019
5753 Clear 21 1023 77 10000 5.1 20 08:52 27.06.2019
5754 Clear 21 1023 77 10000 3.6 10 08:30 27.06.2019
5755 Clear 20 1023 82 10000 3.1 10 07:49 27.06.2019
5756 Clear 19 1023 82 10000 3.6 10 07:29 27.06.2019
5757 Clear 19 1023 82 10000 3.1 10 06:43 27.06.2019
5758 Clear 21 1022 83 10000 4.6 360 04:24 27.06.2019
5759 Clear 22 1022 83 7000 4.6 20 02:44 27.06.2019
5760 Clear 22 1022 78 8000 4.6 20 01:48 27.06.2019
5761 Clear 23 1022 73 10000 4.1 10 00:57 27.06.2019
5762 Clear 24 1022 73 10000 4.1 10 00:38 27.06.2019
5763 Clear 24 1022 69 10000 4.1 10 00:18 27.06.2019
5764 Clear 25 1022 65 10000 3.6 20 23:38 26.06.2019
5765 Clear 25 1022 65 10000 5.1 20 23:19 26.06.2019
5766 Clear 26 1021 61 10000 4.1 20 22:43 26.06.2019
5767 Clear 27 1021 65 10000 5.1 30 22:25 26.06.2019
5768 Clear 27 1021 61 10000 5.7 30 21:56 26.06.2019
5769 Clear 28 1021 61 10000 5.7 30 21:37 26.06.2019
5770 Clear 28 1020 58 10000 6.7 30 21:19 26.06.2019
5771 Clear 29 1020 62 10000 5.7 30 20:44 26.06.2019
5772 Clear 30 1020 58 10000 6.2 20 20:26 26.06.2019
5773 Clear 31 1020 58 10000 6.7 30 19:49 26.06.2019
5774 Clear 32 1020 55 10000 6.2 30 19:31 26.06.2019
5775 Clear 32 1020 55 10000 6.7 30 18:55 26.06.2019
5776 Clear 32 1020 55 10000 6.7 30 18:55 26.06.2019
5777 Clear 33 1020 55 10000 6.7 30 18:37 26.06.2019
5778 Clear 33 1020 55 10000 6.7 20 18:18 26.06.2019
5779 Clear 33 1020 55 10000 6.7 30 17:43 26.06.2019
5780 Clear 33 1020 55 10000 7.7 30 17:23 26.06.2019
5781 Clear 33 1020 55 10000 7.2 30 16:51 26.06.2019
5782 Clear 32 1021 55 10000 7.7 40 16:28 26.06.2019
5783 Clear 32 1021 52 10000 6.7 40 15:51 26.06.2019
5784 Clear 32 1021 55 10000 6.2 30 15:28 26.06.2019
5785 Clear 32 1021 55 10000 6.2 30 14:42 26.06.2019
5786 Clear 31 1022 55 10000 5.7 20 14:21 26.06.2019
5787 Clear 31 1022 55 10000 5.7 20 13:46 26.06.2019
5788 Clear 30 1022 55 9000 5.1 10 13:21 26.06.2019
5789 Clear 30 1022 62 9000 4.6 30 12:54 26.06.2019
5790 Clear 29 1022 61 8000 5.1 40 12:36 26.06.2019
5791 Clear 29 1022 61 8000 5.1 40 12:18 26.06.2019
5792 Clear 27 1022 69 7000 4.6 30 11:25 26.06.2019
5793 Clear 26 1022 69 6000 5.1 30 10:51 26.06.2019
5794 Clear 26 1022 69 6000 5.1 30 10:51 26.06.2019
5795 Mist 25 1022 73 5000 3.6 10 10:31 26.06.2019
5796 Clear 24 1022 73 6000 3.6 10 09:51 26.06.2019
5797 Mist 24 1022 78 5000 4.1 10 09:29 26.06.2019
5798 Mist 23 1022 78 6000 3.1 360 08:55 26.06.2019
5799 Mist 22 1022 83 5000 3.6 360 08:22 26.06.2019
5800 Mist 21 1021 88 5000 3.1 360 07:57 26.06.2019
5801 Mist 21 1021 88 5000 3.1 360 07:38 26.06.2019
5802 Mist 20 1021 88 6000 3.1 10 06:33 26.06.2019
5803 Clear 22 1021 78 10000 2.6 10 01:59 26.06.2019
5804 Clear 24 1020 73 10000 2.6 360 00:36 26.06.2019
5805 Clear 24 1020 69 10000 3.6 350 23:57 25.06.2019
5806 Clear 24 1020 69 10000 3.6 350 23:38 25.06.2019
5807 Clear 25 1020 69 10000 4.1 360 23:19 25.06.2019
5808 Clear 25 1019 58 10000 2.6 340 22:41 25.06.2019
5809 Clear 27 1019 51 10000 1.5 0 22:22 25.06.2019
5810 Clear 29 1018 55 10000 2.1 20 21:46 25.06.2019
5811 Clear 29 1018 51 10000 1.5 360 21:26 25.06.2019
5812 -273 0 0 0 0 0 20:57 25.06.2019
5813 Clear 30 1017 48 10000 2.6 340 20:36 25.06.2019
5814 Clear 31 1017 48 10000 2.6 340 20:18 25.06.2019
5815 Clear 31 1017 43 10000 2.6 340 19:43 25.06.2019
5816 Clear 32 1017 46 10000 2.1 350 19:21 25.06.2019
5817 Clear 32 1017 38 10000 2.1 280 18:42 25.06.2019
5818 Clear 32 1017 43 10000 1 0 18:24 25.06.2019
5819 -273 0 0 0 0 0 17:46 25.06.2019
5820 Clear 32 1017 43 10000 3.6 270 17:26 25.06.2019
5821 Clear 32 1017 43 10000 3.6 270 17:26 25.06.2019
5822 Clear 32 1017 43 10000 3.6 270 17:26 25.06.2019
5823 Clear 32 1017 46 10000 3.1 230 16:44 25.06.2019
5824 Clear 32 1016 43 10000 3.6 250 16:26 25.06.2019
5825 Clear 32 1016 43 10000 3.6 250 16:26 25.06.2019
5826 Clear 31 1016 46 10000 4.1 230 15:59 25.06.2019
5827 Clear 31 1016 46 10000 4.1 230 15:39 25.06.2019
5828 Clear 31 1016 52 10000 4.1 240 15:20 25.06.2019
5829 Clear 30 1016 52 10000 3.6 220 14:45 25.06.2019
5830 Clear 30 1016 52 10000 4.6 190 14:26 25.06.2019
5831 Clear 30 1016 55 10000 3.6 220 13:43 25.06.2019
5832 Clear 29 1016 58 10000 4.1 240 13:24 25.06.2019
5833 Clear 28 1016 61 10000 3.6 230 12:43 25.06.2019
5834 Clear 27 1016 58 10000 4.1 210 12:24 25.06.2019
5835 Clear 27 1016 58 10000 4.1 210 12:24 25.06.2019
5836 Clear 26 1015 61 10000 3.6 200 11:46 25.06.2019
5837 Clear 26 1015 65 10000 2.1 220 11:25 25.06.2019
5838 Clear 25 1015 65 10000 2.1 220 10:58 25.06.2019
5839 -273 0 0 0 0 0 10:57 25.06.2019
5840 Clear 25 1015 65 10000 2.1 220 10:37 25.06.2019
5841 Clear 24 1015 73 10000 2.1 240 10:18 25.06.2019
5842 Clear 22 1015 78 10000 2.6 230 09:39 25.06.2019
5843 Clear 22 1014 78 10000 2.6 240 09:21 25.06.2019
5844 Clear 21 1014 78 10000 1.5 0 08:54 25.06.2019
5845 Clear 20 1014 78 10000 1.5 0 08:31 25.06.2019
5846 Clear 19 1014 88 10000 1 360 07:45 25.06.2019
5847 Mist 19 1014 88 10000 1.5 350 07:26 25.06.2019
5848 Clear 19 1013 88 10000 1.5 0 06:49 25.06.2019
5849 Clear 19 1013 83 10000 2.6 10 06:23 25.06.2019
5850 Clear 22 1014 78 10000 1.5 10 02:44 25.06.2019
5851 Clear 23 1014 78 10000 3.1 10 00:57 25.06.2019
5852 Clear 23 1014 78 10000 3.1 10 00:57 25.06.2019
5853 Clear 24 1014 73 10000 3.1 360 00:25 25.06.2019
5854 Clear 25 1014 78 10000 3.1 10 23:52 24.06.2019
5855 Clear 25 1014 78 10000 3.1 10 23:33 24.06.2019
5856 Clear 24 1015 69 10000 2.6 10 22:49 24.06.2019
5857 Clear 25 1014 65 10000 3.6 20 22:22 24.06.2019
5858 Clear 26 1014 69 10000 4.1 30 21:58 24.06.2019
5859 Clear 26 1014 69 10000 4.1 30 21:37 24.06.2019
5860 Clear 26 1014 69 10000 4.1 30 21:37 24.06.2019
5861 Clear 27 1015 61 10000 4.6 30 21:18 24.06.2019
5862 Clear 28 1015 58 10000 4.6 20 20:43 24.06.2019
5863 Clear 28 1015 58 10000 5.1 20 20:23 24.06.2019
5864 Clear 29 1015 58 10000 4.6 20 19:59 24.06.2019
5865 Clear 29 1015 58 10000 4.6 20 19:59 24.06.2019
5866 Clear 29 1015 58 10000 4.6 20 19:40 24.06.2019
5867 Clear 29 1015 58 10000 4.1 20 19:21 24.06.2019
5868 Clear 29 1015 58 10000 5.7 20 18:42 24.06.2019
5869 Clear 29 1015 58 10000 4.6 10 18:23 24.06.2019
5870 Clear 29 1015 58 10000 5.7 360 17:37 24.06.2019
5871 Clear 29 1015 58 10000 5.1 350 17:19 24.06.2019
5872 Clear 29 1015 51 10000 3.6 350 16:45 24.06.2019
5873 Clear 28 1016 54 10000 3.6 320 16:20 24.06.2019
5874 Clear 28 1016 54 10000 4.1 330 15:44 24.06.2019
5875 Clear 28 1016 54 10000 3.6 320 15:25 24.06.2019
5876 Clear 28 1016 54 10000 3.1 300 14:39 24.06.2019
5877 Clear 28 1016 54 10000 3.1 310 14:21 24.06.2019
5878 Clear 28 1016 54 10000 3.1 290 13:44 24.06.2019
5879 Clouds 28 1016 45 10000 3.1 260 13:23 24.06.2019
5880 Clear 27 1016 45 10000 3.1 130 12:42 24.06.2019
5881 Clear 27 1015 48 10000 2.6 130 12:21 24.06.2019
5882 Clear 27 1015 54 10000 2.6 90 11:45 24.06.2019
5883 Clear 27 1015 57 10000 2.1 120 11:27 24.06.2019
5884 Clear 26 1015 57 10000 2.6 110 10:53 24.06.2019
5885 Clear 26 1015 57 10000 2.6 110 10:34 24.06.2019
5886 Clear 24 1015 64 10000 2.1 110 09:59 24.06.2019
5887 Clear 24 1015 64 10000 2.1 110 09:41 24.06.2019
5888 Clear 23 1015 69 10000 1.5 0 09:19 24.06.2019
5889 Clear 22 1015 83 10000 1.5 0 08:41 24.06.2019
5890 Clear 21 1015 77 10000 3.1 70 08:18 24.06.2019
5891 Clear 20 1015 82 10000 1 0 07:41 24.06.2019
5892 Clear 19 1015 82 10000 2.6 60 07:22 24.06.2019
5893 Clear 19 1015 82 10000 1.5 30 06:24 24.06.2019
5894 Clear 19 1015 82 10000 2.1 40 05:41 24.06.2019
5895 Clear 19 1014 82 10000 2.6 70 04:46 24.06.2019
5896 Clear 20 1015 82 10000 2.1 70 03:49 24.06.2019
5897 Clear 20 1015 77 10000 1.5 60 02:48 24.06.2019
5898 Clear 21 1015 69 10000 1.5 100 01:55 24.06.2019
5899 Clear 21 1015 69 10000 1.5 100 01:33 24.06.2019
5900 Clear 22 1015 69 10000 3.1 110 00:55 24.06.2019
5901 Clear 22 1014 73 10000 2.1 90 00:21 24.06.2019
5902 Clear 23 1014 73 10000 2.1 70 23:58 23.06.2019
5903 Clear 23 1014 73 10000 2.1 70 23:40 23.06.2019
5904 Clear 23 1014 69 10000 2.6 80 23:20 23.06.2019
5905 Clear 24 1014 61 10000 2.6 80 22:41 23.06.2019
5906 Clear 24 1014 57 10000 3.6 90 22:20 23.06.2019
5907 Clear 26 1014 54 10000 4.1 110 21:42 23.06.2019
5908 Clear 26 1013 51 10000 5.1 100 21:23 23.06.2019
5909 Clear 26 1013 51 10000 5.7 120 20:52 23.06.2019
5910 Clear 27 1013 54 10000 6.2 90 20:32 23.06.2019
5911 Clear 27 1013 51 10000 5.7 110 19:57 23.06.2019
5912 Clear 27 1013 51 10000 5.7 110 19:39 23.06.2019
5913 Clear 27 1013 51 10000 5.7 100 19:20 23.06.2019
5914 Clear 28 1014 54 10000 5.1 110 18:47 23.06.2019
5915 Clear 28 1014 51 10000 5.7 110 18:20 23.06.2019
5916 Clear 28 1014 48 10000 6.2 120 17:45 23.06.2019
5917 Clear 28 1014 47 10000 6.2 120 17:25 23.06.2019
5918 Clear 28 1014 47 10000 6.2 110 16:47 23.06.2019
5919 Clouds 28 1014 48 10000 6.2 110 16:26 23.06.2019
5920 Clear 27 1014 47 10000 5.7 120 15:58 23.06.2019
5921 Clear 27 1014 47 10000 5.7 120 15:37 23.06.2019
5922 Clear 27 1014 47 10000 6.2 100 15:18 23.06.2019
5923 Clear 27 1014 47 10000 5.7 120 14:39 23.06.2019
5924 Clouds 27 1015 47 10000 6.7 90 14:21 23.06.2019
5925 Clouds 27 1015 51 10000 5.1 110 13:54 23.06.2019
5926 Clouds 27 1015 51 10000 5.1 110 13:36 23.06.2019
5927 Clouds 26 1015 50 10000 6.2 100 13:18 23.06.2019
5928 Clear 26 1015 54 10000 5.1 110 12:42 23.06.2019
5929 Clear 26 1015 53 10000 5.1 100 12:19 23.06.2019
5930 Clear 25 1015 53 10000 3.1 100 11:49 23.06.2019
5931 Clear 24 1015 53 10000 3.1 110 11:28 23.06.2019
5932 Clear 24 1015 53 10000 3.1 110 11:28 23.06.2019
5933 Clear 23 1015 64 10000 3.1 70 10:51 23.06.2019
5934 Clear 22 1016 64 10000 2.1 50 10:22 23.06.2019
5935 Clear 21 1016 68 10000 2.1 70 09:59 23.06.2019
5936 Clear 21 1016 68 10000 2.1 70 09:25 23.06.2019
5937 Clear 19 1016 72 10000 3.1 80 08:55 23.06.2019
5938 Clear 19 1016 72 10000 2.1 40 08:36 23.06.2019
5939 Clear 18 1016 72 10000 2.1 40 08:18 23.06.2019
5940 Clear 17 1016 82 10000 1.5 0 07:48 23.06.2019
5941 Clear 15 1016 77 10000 1.5 20 07:19 23.06.2019
5942 Clear 15 1016 77 10000 1.5 20 06:53 23.06.2019
5943 Clear 15 1016 82 10000 1.5 10 05:53 23.06.2019
5944 Clear 17 1017 77 10000 1.5 40 02:52 23.06.2019
5945 Clear 17 1017 68 10000 2.6 350 01:43 23.06.2019
5946 Clear 18 1017 68 10000 3.6 20 01:24 23.06.2019
5947 Clear 19 1018 64 10000 3.1 20 00:34 23.06.2019
5948 Clear 19 1018 60 10000 3.1 20 23:52 22.06.2019
5949 Clear 20 1017 60 10000 3.1 30 23:27 22.06.2019
5950 Clear 20 1017 56 10000 3.1 30 22:49 22.06.2019
5951 Clear 21 1017 56 10000 2.6 30 22:29 22.06.2019
5952 Clear 22 1017 49 10000 3.1 30 21:59 22.06.2019
5953 Clear 22 1017 49 10000 3.1 30 21:37 22.06.2019
5954 Clear 22 1017 53 10000 3.6 40 21:18 22.06.2019
5955 Clear 23 1017 49 10000 2.6 20 20:46 22.06.2019
5956 Clear 23 1017 53 10000 2.6 40 20:25 22.06.2019
5957 Clear 23 1017 49 10000 3.6 60 19:44 22.06.2019
5958 Clear 24 1017 49 10000 3.6 40 19:22 22.06.2019
5959 Clear 24 1017 44 10000 3.6 40 18:48 22.06.2019
5960 Clear 24 1017 47 10000 4.1 80 18:29 22.06.2019
5961 Clear 24 1018 44 10000 4.1 40 17:56 22.06.2019
5962 Clear 24 1018 44 10000 4.1 40 17:33 22.06.2019
5963 Clear 24 1018 44 10000 3.6 40 16:50 22.06.2019
5964 Clear 24 1018 44 10000 2.6 20 16:24 22.06.2019
5965 Clear 24 1019 49 10000 2.6 0 15:55 22.06.2019
5966 Clear 24 1019 49 10000 2.6 0 15:34 22.06.2019
5967 Clear 23 1019 43 10000 2.6 0 14:58 22.06.2019
5968 Clear 23 1019 46 10000 3.1 0 14:34 22.06.2019
5969 Clear 22 1019 46 10000 2.6 20 13:59 22.06.2019
5970 Clear 22 1019 46 10000 2.6 20 13:40 22.06.2019
5971 Clouds 22 1019 46 10000 3.1 360 13:19 22.06.2019
5972 Clear 21 1020 49 10000 3.6 10 12:50 22.06.2019
5973 Clear 21 1020 52 10000 4.1 20 12:31 22.06.2019
5974 Clear 21 1020 52 10000 3.1 350 11:58 22.06.2019
5975 Clear 20 1020 59 10000 3.1 360 11:33 22.06.2019
5976 Clear 19 1020 63 10000 2.6 350 10:50 22.06.2019
5977 Clear 18 1020 63 10000 4.1 350 10:21 22.06.2019
5978 Clear 17 1020 67 10000 2.6 350 09:49 22.06.2019
5979 Clear 16 1021 67 10000 2.6 10 09:22 22.06.2019
5980 Clear 15 1020 71 10000 2.1 30 08:43 22.06.2019
5981 Clear 14 1021 76 10000 2.6 360 08:22 22.06.2019
5982 Clear 12 1021 81 10000 2.1 10 07:31 22.06.2019
5983 Clear 11 1021 87 10000 1 30 06:47 22.06.2019
5984 Clear 12 1021 76 10000 2.1 350 05:22 22.06.2019
5985 Clear 14 1022 71 10000 3.1 350 02:33 22.06.2019
5986 Clear 14 1021 67 10000 3.6 360 01:19 22.06.2019
5987 Clear 15 1021 63 10000 3.1 360 00:41 22.06.2019
5988 Clear 15 1021 63 10000 2.1 350 00:22 22.06.2019
5989 Clear 16 1021 59 10000 3.1 10 23:44 21.06.2019
5990 Clear 17 1021 55 10000 3.6 10 23:22 21.06.2019
5991 Clear 17 1021 55 10000 3.6 10 22:50 21.06.2019
5992 Clear 18 1020 52 10000 3.1 10 22:24 21.06.2019
5993 Clear 18 1020 49 10000 4.1 360 21:55 21.06.2019
5994 Clear 19 1020 49 10000 4.1 360 21:36 21.06.2019
5995 Clear 19 1020 46 10000 4.6 30 21:18 21.06.2019
5996 Clear 20 1020 46 10000 4.6 30 20:42 21.06.2019
5997 Clear 20 1020 43 10000 4.1 20 20:20 21.06.2019
5998 Clear 21 1020 43 10000 3.6 20 19:34 21.06.2019
5999 Clear 21 1020 37 10000 3.1 340 18:49 21.06.2019
6000 Clear 22 1020 40 10000 3.1 20 18:30 21.06.2019
6001 Clear 22 1020 43 10000 2.6 30 17:47 21.06.2019
6002 Clear 22 1020 43 10000 2.6 320 17:28 21.06.2019
6003 Clear 21 1020 43 10000 3.1 10 16:41 21.06.2019
6004 Clear 21 1020 46 10000 3.1 330 16:22 21.06.2019
6005 Clear 21 1020 43 10000 2.1 0 15:40 21.06.2019
6006 Clear 21 1020 43 10000 2.1 0 15:21 21.06.2019
6007 Clear 21 1020 45 10000 2.6 340 14:50 21.06.2019
6008 Clear 20 1020 49 10000 2.6 30 14:30 21.06.2019
6009 Clouds 20 1020 45 10000 2.1 330 13:57 21.06.2019
6010 Clouds 20 1020 45 10000 2.1 330 13:36 21.06.2019
6011 Clouds 20 1020 45 10000 2.1 330 13:18 21.06.2019
6012 Clear 20 1021 48 10000 2.1 0 12:39 21.06.2019
6013 Clouds 19 1020 52 10000 2.6 330 12:18 21.06.2019
6014 Clouds 19 1021 55 10000 1.5 0 11:47 21.06.2019
6015 Clouds 18 1021 55 10000 2.6 340 11:26 21.06.2019
6016 Clouds 18 1020 59 10000 1.5 340 10:51 21.06.2019
6017 Clouds 17 1020 63 10000 1.5 340 10:22 21.06.2019
6018 Clouds 17 1020 63 10000 1.5 340 09:59 21.06.2019
6019 Clear 16 1020 67 10000 1.5 340 09:40 21.06.2019
6020 Clear 15 1020 72 10000 2.1 330 09:19 21.06.2019
6021 Clear 14 1020 82 10000 1.75 299.388 08:43 21.06.2019
6022 Clear 13 1020 87 10000 1.75 299.388 08:24 21.06.2019
6023 Clear 12 1020 87 10000 0.5 340 07:52 21.06.2019
6024 Clear 12 1020 87 10000 0.5 340 07:30 21.06.2019
6025 Clear 11 1019 87 10000 0.5 30 06:54 21.06.2019
6026 Clear 11 1019 87 10000 1.33 305.105 06:21 21.06.2019
6027 Clear 11 1019 76 10000 1 0 05:30 21.06.2019
6028 Clear 11 1019 82 10000 1.5 340 04:30 21.06.2019
6029 Clear 11 1019 76 10000 1 0 03:34 21.06.2019
6030 Clear 12 1019 76 10000 1.5 60 02:53 21.06.2019
6031 Clear 13 1018 76 10000 1.5 330 01:53 21.06.2019
6032 Clear 13 1018 67 10000 1.5 0 00:56 21.06.2019
6033 Clear 14 1017 63 10000 2.1 320 00:27 21.06.2019
6034 Clear 14 1017 59 10000 2.1 310 23:49 20.06.2019
6035 Clear 15 1017 59 10000 1.5 320 23:23 20.06.2019
6036 Clear 15 1017 52 10000 2.1 320 22:58 20.06.2019
6037 Clear 16 1017 52 10000 2.1 320 22:39 20.06.2019
6038 Clear 17 1016 48 10000 2.6 320 22:20 20.06.2019
6039 Clear 18 1016 48 10000 3.1 310 21:49 20.06.2019
6040 Clear 18 1016 45 10000 2.6 320 21:19 20.06.2019
6041 Clear 19 1016 43 10000 2.6 330 20:59 20.06.2019
6042 Clear 19 1016 43 10000 2.6 330 20:40 20.06.2019
6043 Clear 20 1016 37 10000 3.1 320 20:19 20.06.2019
6044 Clear 20 1016 45 10000 4.1 300 19:40 20.06.2019
6045 Clouds 20 1016 49 10000 3.6 310 19:19 20.06.2019
6046 Clouds 20 1016 52 10000 2.6 250 18:44 20.06.2019
6047 Clouds 20 1015 49 10000 2.6 280 18:23 20.06.2019
6048 Clouds 20 1015 52 10000 4.1 240 17:59 20.06.2019
6049 Clouds 20 1015 52 10000 4.1 240 17:41 20.06.2019
6050 Clouds 20 1015 49 10000 3.6 270 17:19 20.06.2019
6051 Clouds 20 1015 52 10000 4.1 280 16:40 20.06.2019
6052 Clear 20 1015 49 10000 4.6 260 16:19 20.06.2019
6053 Clouds 20 1015 52 10000 4.6 260 15:43 20.06.2019
6054 Clouds 20 1015 52 10000 5.1 230 15:23 20.06.2019
6055 Clouds 19 1015 55 10000 5.1 260 14:57 20.06.2019
6056 Clouds 19 1015 55 10000 5.1 260 14:38 20.06.2019
6057 Clouds 19 1015 56 10000 5.1 240 14:19 20.06.2019
6058 Clouds 19 1015 63 10000 3.6 250 13:39 20.06.2019
6059 Clouds 19 1015 63 10000 3.6 260 13:18 20.06.2019
6060 Clouds 18 1015 72 10000 3.6 280 12:42 20.06.2019
6061 Clouds 17 1015 77 10000 3.6 280 12:21 20.06.2019
6062 Clouds 17 1015 82 10000 5.7 300 11:41 20.06.2019
6063 Clouds 16 1014 82 10000 3.6 270 11:23 20.06.2019
6064 Rain 16 1014 87 10000 3.6 280 10:45 20.06.2019
6065 Rain 15 1014 82 10000 3.1 280 10:24 20.06.2019
6066 Rain 15 1014 87 10000 3.1 270 09:57 20.06.2019
6067 Rain 15 1014 87 10000 3.1 270 09:38 20.06.2019
6068 Rain 15 1013 93 10000 3.1 280 09:20 20.06.2019
6069 Rain 14 1013 93 5000 2.6 280 08:44 20.06.2019
6070 Rain 14 1013 93 2900 3.1 310 08:25 20.06.2019
6071 Rain 14 1012 93 2700 2.6 290 07:50 20.06.2019
6072 Rain 15 1012 93 4300 3.1 330 07:26 20.06.2019
6073 Rain 15 1012 87 4800 2.1 290 06:22 20.06.2019
6074 Clouds 16 1012 88 10000 1.5 0 03:41 20.06.2019
6075 Clear 16 1012 88 10000 1.5 230 02:29 20.06.2019
6076 Rain 17 1011 88 10000 1.5 250 00:33 20.06.2019
6077 Clear 17 1011 88 10000 2.1 250 23:49 19.06.2019
6078 Clear 17 1011 88 10000 2.1 250 23:30 19.06.2019
6079 Clear 18 1011 88 10000 3.1 260 22:49 19.06.2019
6080 Clear 18 1011 88 10000 3.1 260 22:49 19.06.2019
6081 Clouds 18 1010 82 10000 4.1 240 22:25 19.06.2019
6082 Clouds 18 1010 82 10000 4.1 240 21:58 19.06.2019
6083 Clear 18 1010 82 10000 2.1 230 21:40 19.06.2019
6084 Thunderstorm 19 1010 88 10000 2.6 240 21:21 19.06.2019
6085 Rain 19 1010 82 5000 6.7 270 20:42 19.06.2019
6086 Rain 20 1009 53 10000 5.7 210 20:21 19.06.2019
6087 Rain 21 1009 53 10000 6.7 220 19:51 19.06.2019
6088 Thunderstorm 22 1008 53 10000 7.2 210 19:29 19.06.2019
6089 Thunderstorm 22 1008 53 10000 7.2 220 18:57 19.06.2019
6090 Clouds 24 1008 53 10000 6.7 220 18:28 19.06.2019
6091 Clouds 24 1008 53 10000 6.7 230 17:53 19.06.2019
6092 Clouds 24 1008 47 10000 7.7 220 17:33 19.06.2019
6093 Clouds 25 1009 50 10000 8.7 210 16:57 19.06.2019
6094 Clouds 24 1009 50 10000 8.7 210 16:38 19.06.2019
6095 Clear 25 1008 47 10000 8.2 210 16:20 19.06.2019
6096 Thunderstorm 25 1008 50 10000 6.2 220 15:47 19.06.2019
6097 Clouds 25 1009 50 10000 7.2 230 15:25 19.06.2019
6098 Thunderstorm 25 1008 50 10000 7.2 230 14:50 19.06.2019
6099 Clouds 25 1008 47 10000 5.7 220 14:30 19.06.2019
6100 Clouds 25 1008 47 10000 5.7 220 13:59 19.06.2019
6101 Clouds 25 1008 54 10000 4.6 230 13:40 19.06.2019
6102 Clear 25 1008 53 10000 3.1 230 13:21 19.06.2019
6103 Clear 25 1008 60 10000 3.6 280 12:43 19.06.2019
6104 Clear 24 1008 57 10000 4.1 260 12:21 19.06.2019
6105 Clouds 24 1007 54 10000 4.6 250 11:45 19.06.2019
6106 Clear 24 1007 53 10000 4.6 230 11:25 19.06.2019
6107 Clear 23 1007 57 10000 4.6 250 10:57 19.06.2019
6108 Clear 23 1007 57 10000 4.6 250 10:38 19.06.2019
6109 Clear 23 1007 56 10000 3.1 240 10:19 19.06.2019
6110 Rain 22 1007 60 10000 1.5 0 09:39 19.06.2019
6111 Rain 21 1007 56 10000 2.6 260 09:19 19.06.2019
6112 Rain 20 1007 60 10000 3.6 200 08:48 19.06.2019
6113 Clear 20 1007 64 10000 3.1 210 08:28 19.06.2019
6114 Clear 20 1007 68 10000 2.1 230 07:47 19.06.2019
6115 Clear 20 1007 68 10000 2.1 230 07:47 19.06.2019
6116 Clear 20 1007 77 10000 1.5 0 07:23 19.06.2019
6117 Clear 20 1007 82 10000 2.1 320 06:52 19.06.2019
6118 Clear 19 1007 82 10000 1.5 0 06:28 19.06.2019
6119 Clear 19 1007 82 10000 2.53 212.471 05:49 19.06.2019
6120 Clear 18 1007 82 10000 1 0 04:34 19.06.2019
6121 Clear 19 1006 77 10000 1.5 340 03:30 19.06.2019
6122 Clear 20 1008 73 10000 2.1 50 01:53 19.06.2019
6123 Clear 20 1008 73 10000 1.5 0 01:23 19.06.2019
6124 Clear 21 1008 73 10000 1.5 0 00:43 19.06.2019
6125 Clear 21 1008 73 10000 1.5 0 00:43 19.06.2019
6126 Clear 21 1008 68 10000 1.5 0 00:20 19.06.2019
6127 Clear 21 1008 68 10000 2.1 90 23:52 18.06.2019
6128 Clear 22 1009 69 10000 3.1 90 23:28 18.06.2019
6129 Clear 23 1009 60 10000 3.1 80 22:49 18.06.2019
6130 Clear 24 1009 54 10000 3.6 100 22:25 18.06.2019
6131 Clear 24 1009 54 10000 3.6 100 22:25 18.06.2019
6132 Clear 25 1009 54 10000 4.6 100 21:58 18.06.2019
6133 Clear 26 1009 54 10000 4.6 100 21:39 18.06.2019
6134 Clear 26 1009 51 10000 5.7 110 21:21 18.06.2019
6135 Clear 27 1009 51 10000 5.7 120 20:44 18.06.2019
6136 Clear 27 1009 45 10000 6.2 120 20:25 18.06.2019
6137 Clear 28 1010 44 10000 6.2 110 19:47 18.06.2019
6138 Clear 28 1010 48 10000 6.2 110 19:25 18.06.2019
6139 Clear 28 1010 48 10000 6.2 110 18:59 18.06.2019
6140 Clear 28 1010 42 10000 6.7 120 18:39 18.06.2019
6141 Clear 28 1010 37 10000 6.7 100 18:21 18.06.2019
6142 Clear 28 1010 39 10000 6.7 90 17:40 18.06.2019
6143 Clear 28 1010 42 10000 6.7 100 17:20 18.06.2019
6144 Clear 28 1010 42 10000 6.7 120 16:47 18.06.2019
6145 Clouds 28 1011 44 10000 5.7 110 16:27 18.06.2019
6146 Clouds 28 1011 39 10000 5.7 110 15:56 18.06.2019
6147 Clouds 27 1011 39 10000 5.7 110 15:36 18.06.2019
6148 Clear 27 1012 44 10000 4.1 130 15:18 18.06.2019
6149 Haze 27 1012 42 10000 5.1 140 14:42 18.06.2019
6150 Haze 27 1012 47 10000 4.1 100 14:22 18.06.2019
6151 Clear 26 1013 50 10000 4.1 120 13:56 18.06.2019
6152 Clear 26 1013 50 10000 4.1 120 13:38 18.06.2019
6153 Clear 26 1013 54 10000 3.1 60 13:19 18.06.2019
6154 Clear 26 1013 53 10000 1.5 70 12:42 18.06.2019
6155 Clear 25 1013 57 10000 2.1 70 12:24 18.06.2019
6156 Clear 24 1014 60 10000 2.1 60 11:43 18.06.2019
6157 Clear 23 1014 64 10000 1.5 0 11:21 18.06.2019
6158 Clear 22 1014 68 10000 1.5 40 10:57 18.06.2019
6159 Clear 21 1014 68 10000 1.5 40 10:37 18.06.2019
6160 Clear 20 1014 77 10000 1.5 20 10:18 18.06.2019
6161 Clear 19 1014 77 10000 1.5 0 09:48 18.06.2019
6162 Clear 18 1014 82 10000 1.5 0 09:24 18.06.2019
6163 Clear 17 1014 82 10000 2.1 20 08:43 18.06.2019
6164 Clear 16 1015 82 10000 1.5 0 08:21 18.06.2019
6165 Clear 16 1015 87 10000 1.5 0 07:41 18.06.2019
6166 Clear 15 1014 82 10000 2.1 20 07:21 18.06.2019
6167 Clear 15 1015 87 10000 2.1 350 06:43 18.06.2019
6168 Clear 14 1015 87 10000 2.1 350 05:21 18.06.2019
6169 Clear 15 1016 82 10000 1.5 10 02:53 18.06.2019
6170 Clear 16 1016 77 10000 1 30 01:59 18.06.2019
6171 Clear 16 1016 72 10000 1 0 01:25 18.06.2019
6172 Clear 17 1016 72 10000 1.5 30 00:56 18.06.2019
6173 Clear 18 1016 68 10000 2.1 40 00:30 18.06.2019
6174 Clear 18 1016 64 10000 1.5 20 23:42 17.06.2019
6175 Clear 19 1016 60 10000 2.1 70 23:20 17.06.2019
6176 Clear 20 1016 56 10000 1.5 120 22:58 17.06.2019
6177 Clear 20 1016 56 10000 1.5 120 22:38 17.06.2019
6178 Clear 22 1016 49 10000 3.1 110 22:20 17.06.2019
6179 Clear 23 1016 50 10000 3.6 100 21:42 17.06.2019
6180 Clear 24 1016 47 10000 4.6 90 21:23 17.06.2019
6181 Clear 25 1016 47 10000 4.6 90 20:40 17.06.2019
6182 Clear 25 1016 44 10000 5.1 100 20:21 17.06.2019
6183 Clear 25 1016 44 10000 4.6 100 19:56 17.06.2019
6184 Clear 25 1016 44 10000 4.6 100 19:38 17.06.2019
6185 Clear 25 1016 44 10000 3.1 100 19:19 17.06.2019
6186 Clear 26 1017 44 10000 2.1 200 18:39 17.06.2019
6187 Clear 26 1017 47 10000 2.1 70 18:18 17.06.2019
6188 Clear 26 1017 42 10000 1.5 0 17:48 17.06.2019
6189 Clear 26 1017 42 10000 1.5 0 17:29 17.06.2019
6190 Clear 26 1017 39 10000 1.5 160 16:59 17.06.2019
6191 Clear 26 1017 41 10000 3.1 80 16:39 17.06.2019
6192 Clear 26 1017 47 10000 2.1 70 16:21 17.06.2019
6193 Clear 25 1018 41 10000 3.6 120 15:44 17.06.2019
6194 Clear 26 1018 41 10000 2.6 150 15:20 17.06.2019
6195 Clear 25 1018 41 10000 2.6 150 14:56 17.06.2019
6196 Clear 25 1018 41 10000 1 0 14:38 17.06.2019
6197 Clear 25 1018 47 10000 2.1 80 14:19 17.06.2019
6198 Clear 25 1019 44 10000 2.1 170 13:41 17.06.2019
6199 Clear 24 1019 49 10000 2.1 90 13:21 17.06.2019
6200 Clouds 24 1019 49 10000 1 0 12:46 17.06.2019
6201 Clouds 23 1019 49 10000 2.6 0 12:22 17.06.2019
6202 Clear 23 1020 49 10000 1.5 120 11:45 17.06.2019
6203 Clear 22 1020 49 10000 1.5 120 11:26 17.06.2019
6204 Clear 22 1020 53 10000 1.5 0 10:49 17.06.2019
6205 Clear 21 1020 56 10000 1.5 0 10:30 17.06.2019
6206 Clear 20 1020 60 10000 1 0 09:57 17.06.2019
6207 Clear 19 1020 63 10000 0.5 0 09:39 17.06.2019
6208 Clear 17 1020 68 10000 0.98 165.75 09:20 17.06.2019
6209 Clear 16 1020 77 10000 1 0 08:39 17.06.2019
6210 Clear 15 1020 77 10000 1 0 08:21 17.06.2019
6211 Clear 14 1020 87 10000 1.5 350 07:40 17.06.2019
6212 Clear 13 1020 87 10000 1.5 350 07:20 17.06.2019
6213 Clear 11 1020 93 10000 2.1 50 06:30 17.06.2019
6214 Clear 11 1020 87 10000 1.5 30 05:42 17.06.2019
6215 Clear 11 1020 87 10000 1.5 360 04:33 17.06.2019
6216 Clear 12 1020 82 10000 1.5 20 03:35 17.06.2019
6217 Clear 12 1020 82 10000 2.1 20 02:58 17.06.2019
6218 Clear 13 1020 82 10000 1.5 10 02:39 17.06.2019
6219 Clear 13 1021 77 10000 1.5 360 01:41 17.06.2019
6220 Clear 14 1021 77 10000 1 10 01:18 17.06.2019
6221 Clear 14 1021 67 10000 1 10 00:41 17.06.2019
6222 Clear 15 1021 63 10000 2 237.882 00:21 17.06.2019
6223 Clear 16 1021 55 10000 2.1 230 23:41 16.06.2019
6224 Clouds 16 1021 59 10000 1.5 220 23:21 16.06.2019
6225 Clouds 17 1020 59 10000 2.1 230 22:55 16.06.2019
6226 Clouds 17 1020 59 10000 2.1 230 22:36 16.06.2019
6227 Clear 19 1020 56 10000 2.1 250 22:18 16.06.2019
6228 Clear 20 1020 49 10000 3.6 260 21:41 16.06.2019
6229 Clear 20 1020 46 10000 3.6 190 21:22 16.06.2019
6230 Clear 21 1020 46 10000 3.6 190 20:58 16.06.2019
6231 Clear 21 1020 46 10000 4.1 240 20:37 16.06.2019
6232 Clear 21 1020 46 10000 3.6 220 20:18 16.06.2019
6233 Clear 22 1020 43 10000 4.1 250 19:42 16.06.2019
6234 Clear 22 1020 46 10000 5.1 250 19:22 16.06.2019
6235 Clear 22 1020 46 10000 5.1 250 18:58 16.06.2019
6236 Clear 22 1020 46 10000 4.6 260 18:40 16.06.2019
6237 Clear 22 1020 43 10000 4.1 240 18:20 16.06.2019
6238 Clear 22 1021 49 10000 3.6 210 17:48 16.06.2019
6239 Clear 22 1021 49 10000 3.6 210 17:23 16.06.2019
6240 Clouds 22 1021 49 10000 4.6 220 16:57 16.06.2019
6241 Clouds 22 1021 52 10000 2.6 210 16:39 16.06.2019
6242 Clouds 21 1021 52 10000 5.1 190 16:21 16.06.2019
6243 Clouds 21 1021 52 10000 3.6 200 15:44 16.06.2019
6244 Clouds 21 1021 52 10000 3.6 200 15:24 16.06.2019
6245 Clouds 21 1021 60 10000 3.6 210 14:45 16.06.2019
6246 Clouds 20 1021 60 10000 3.6 210 14:24 16.06.2019
6247 Clouds 20 1021 56 10000 5.1 230 13:56 16.06.2019
6248 Clouds 20 1021 63 10000 4.6 200 13:38 16.06.2019
6249 Clouds 19 1021 63 10000 3.6 190 13:20 16.06.2019
6250 Clouds 19 1021 59 10000 3.1 210 12:42 16.06.2019
6251 Clouds 19 1021 59 10000 3.1 210 12:20 16.06.2019
6252 Clouds 19 1021 59 10000 3.1 180 11:48 16.06.2019
6253 Clouds 18 1021 68 10000 3.1 190 11:21 16.06.2019
6254 Clouds 18 1021 68 10000 3.1 190 10:59 16.06.2019
6255 Clouds 18 1021 68 10000 3.6 190 10:41 16.06.2019
6256 Clouds 17 1021 72 10000 4.1 210 10:18 16.06.2019
6257 Rain 17 1021 72 10000 3.6 230 09:41 16.06.2019
6258 Clouds 16 1021 72 10000 3.6 230 09:23 16.06.2019
6259 Clouds 15 1021 77 10000 4.1 210 08:45 16.06.2019
6260 Clouds 15 1020 77 10000 2.6 190 08:20 16.06.2019
6261 Clouds 14 1020 82 10000 2.6 210 07:44 16.06.2019
6262 Clouds 14 1020 82 10000 2.6 210 07:26 16.06.2019
6263 Clouds 13 1020 77 10000 4.1 220 06:50 16.06.2019
6264 Clouds 13 1020 77 10000 4.6 200 05:55 16.06.2019
6265 Clear 13 1020 77 10000 4.1 210 05:20 16.06.2019
6266 Clouds 13 1019 77 10000 4.6 210 04:21 16.06.2019
6267 Clear 13 1019 77 10000 3.6 200 03:40 16.06.2019
6268 Clear 13 1019 77 10000 3.6 200 03:20 16.06.2019
6269 Clear 14 1019 67 10000 4.6 230 01:48 16.06.2019
6270 Clear 14 1019 67 10000 4.6 230 01:30 16.06.2019
6271 Clear 15 1019 72 10000 2.6 230 00:43 16.06.2019
6272 Clear 15 1019 72 10000 2.6 230 00:25 16.06.2019
6273 Clear 15 1019 67 10000 2.1 230 23:56 15.06.2019
6274 Clear 15 1018 59 10000 3.1 230 23:38 15.06.2019
6275 Clouds 16 1018 55 10000 4.1 230 23:19 15.06.2019
6276 Clear 16 1018 55 10000 4.6 230 22:43 15.06.2019
6277 Clear 17 1018 55 10000 4.6 230 22:25 15.06.2019
6278 Clear 18 1017 45 10000 5.1 220 21:44 15.06.2019
6279 Clear 18 1017 45 10000 5.1 220 21:21 15.06.2019
6280 Clear 19 1017 46 10000 5.7 240 20:45 15.06.2019
6281 Clear 19 1017 46 10000 5.7 240 20:23 15.06.2019
6282 Clouds 20 1017 55 10000 5.1 260 19:50 15.06.2019
6283 Clouds 20 1017 55 10000 5.1 260 19:28 15.06.2019
6284 Clear 21 1016 46 10000 5.1 210 18:45 15.06.2019
6285 Clear 21 1016 46 10000 5.1 210 18:26 15.06.2019
6286 Clear 20 1016 43 10000 5.7 220 17:58 15.06.2019
6287 Clear 21 1016 46 10000 4.1 230 17:40 15.06.2019
6288 Clear 21 1016 46 10000 4.1 250 17:21 15.06.2019
6289 Clear 21 1016 46 10000 4.1 240 16:43 15.06.2019
6290 Clear 21 1016 43 10000 4.6 250 16:18 15.06.2019
6291 Clear 21 1016 43 10000 6.2 220 15:41 15.06.2019
6292 Clear 21 1016 46 10000 6.2 220 15:21 15.06.2019
6293 Clear 21 1016 46 10000 6.2 220 15:21 15.06.2019
6294 Clear 21 1016 40 10000 6.7 210 14:38 15.06.2019
6295 Clear 20 1016 43 10000 5.7 220 14:18 15.06.2019
6296 Clear 21 1016 43 10000 5.7 210 13:44 15.06.2019
6297 Clear 20 1016 46 10000 4.1 240 13:21 15.06.2019
6298 Clear 20 1016 46 10000 4.1 240 12:59 15.06.2019
6299 Clear 20 1016 45 10000 4.1 240 12:40 15.06.2019
6300 Clear 20 1016 45 10000 4.1 240 12:21 15.06.2019
6301 Clouds 19 1016 59 10000 4.6 250 11:45 15.06.2019
6302 Clouds 19 1015 59 10000 4.1 260 11:27 15.06.2019
6303 Clear 18 1015 63 10000 4.1 230 10:43 15.06.2019
6304 Clear 18 1015 63 10000 4.1 230 10:25 15.06.2019
6305 Clear 16 1014 67 10000 4.1 240 09:48 15.06.2019
6306 Clear 16 1014 77 10000 2.6 230 09:26 15.06.2019
6307 Clear 16 1014 67 10000 4.1 240 09:26 15.06.2019
6308 Clear 16 1014 77 10000 2.6 230 08:54 15.06.2019
6309 Clear 15 1014 82 10000 4.1 230 08:34 15.06.2019
6310 Clear 14 1013 82 10000 2.1 230 07:58 15.06.2019
6311 Mist 14 1013 87 10000 1.5 0 07:25 15.06.2019
6312 Mist 14 1013 87 10000 2.1 220 06:48 15.06.2019
6313 Mist 14 1013 93 10000 2.1 220 06:22 15.06.2019
6314 Mist 14 1012 93 10000 2.1 200 05:39 15.06.2019
6315 Clear 15 1012 100 10000 3.6 200 04:51 15.06.2019
6316 Rain 15 1012 93 10000 1.5 180 03:51 15.06.2019
6317 Rain 15 1012 87 10000 2.26 273.407 03:21 15.06.2019
6318 Rain 16 1012 82 6000 2.6 220 02:31 15.06.2019
6319 Rain 16 1012 82 10000 1 0 01:53 15.06.2019
6320 Rain 17 1011 77 10000 0.5 0 01:20 15.06.2019
6321 Rain 18 1011 63 10000 1.5 30 00:40 15.06.2019
6322 Rain 18 1011 63 10000 1.5 30 00:20 15.06.2019
6323 Rain 18 1011 56 10000 2.1 310 23:42 14.06.2019
6324 Clear 19 1011 56 10000 2.6 320 23:19 14.06.2019
6325 Clear 19 1011 56 10000 2.1 320 22:41 14.06.2019
6326 Clear 19 1011 56 10000 2.1 320 22:21 14.06.2019
6327 Clear 21 1011 53 10000 1.5 170 21:48 14.06.2019
6328 Clear 21 1011 53 10000 1.5 170 21:28 14.06.2019
6329 Clear 21 1011 53 10000 1.5 170 21:28 14.06.2019
6330 Clear 21 1011 53 10000 2.1 150 20:55 14.06.2019
6331 Clear 21 1011 53 10000 2.1 150 20:36 14.06.2019
6332 Clear 22 1011 49 10000 3.1 160 20:18 14.06.2019
6333 Clear 22 1011 49 10000 1.5 0 19:39 14.06.2019
6334 Clear 22 1011 49 10000 2.1 160 19:21 14.06.2019
6335 Clear 23 1011 47 10000 1.5 0 18:54 14.06.2019
6336 Clear 23 1011 47 10000 1.5 0 18:36 14.06.2019
6337 Clear 23 1011 49 10000 1.5 0 18:18 14.06.2019
6338 Clouds 23 1012 56 10000 1.5 0 17:44 14.06.2019
6339 Clouds 23 1012 56 10000 1.5 0 17:23 14.06.2019
6340 Clouds 23 1012 56 10000 1.5 0 17:23 14.06.2019
6341 Clouds 22 1012 49 10000 3.6 180 16:48 14.06.2019
6342 Clouds 22 1013 49 10000 3.6 210 16:24 14.06.2019
6343 Clouds 22 1013 49 10000 3.6 210 16:24 14.06.2019
6344 Clouds 22 1013 49 10000 3.6 210 15:59 14.06.2019
6345 Clouds 22 1013 53 10000 5.1 170 15:39 14.06.2019
6346 Clouds 22 1013 53 10000 4.6 180 15:19 14.06.2019
6347 Clouds 21 1014 56 10000 4.1 170 14:46 14.06.2019
6348 Clouds 21 1014 56 10000 4.1 170 14:46 14.06.2019
6349 Clouds 21 1014 56 10000 4.1 170 14:27 14.06.2019
6350 Clouds 20 1014 60 10000 4.6 160 13:46 14.06.2019
6351 Clouds 20 1014 60 10000 4.6 160 13:28 14.06.2019
6352 Clouds 20 1014 56 10000 3.6 180 12:59 14.06.2019
6353 Clouds 19 1014 52 10000 3.1 230 12:39 14.06.2019
6354 Clouds 19 1014 52 10000 2.1 0 12:21 14.06.2019
6355 Clouds 19 1014 52 10000 2.1 0 12:21 14.06.2019
6356 Clear 19 1014 55 10000 2.1 200 11:42 14.06.2019
6357 Clear 19 1014 55 10000 2.1 200 11:42 14.06.2019
6358 Clear 19 1014 55 10000 2.1 200 11:23 14.06.2019
6359 Clear 18 1014 59 10000 2.1 190 10:48 14.06.2019
6360 Clear 17 1013 63 10000 1.5 0 10:22 14.06.2019
6361 Clear 17 1013 63 10000 1.5 0 09:55 14.06.2019
6362 Clouds 16 1013 67 10000 3.6 280 09:34 14.06.2019
6363 Clouds 15 1013 77 10000 3.6 250 08:56 14.06.2019
6364 Clouds 15 1013 82 10000 2.1 180 08:38 14.06.2019
6365 Clear 13 1012 82 10000 3.1 160 08:18 14.06.2019
6366 Rain 13 1012 87 10000 3.1 160 07:43 14.06.2019
6367 Rain 13 1012 82 10000 3.6 140 07:19 14.06.2019
6368 Rain 13 1013 82 10000 3.6 160 06:27 14.06.2019
6369 Rain 13 1013 87 10000 3.6 150 05:53 14.06.2019
6370 Rain 13 1013 93 10000 2.1 150 04:56 14.06.2019
6371 Rain 13 1012 87 10000 1 0 04:31 14.06.2019
6372 Clear 12 1012 87 10000 1 360 03:46 14.06.2019
6373 Clear 12 1012 87 10000 2.1 40 03:23 14.06.2019
6374 Clear 12 1012 87 10000 1.5 10 02:43 14.06.2019
6375 Clear 12 1012 87 10000 1 10 01:54 14.06.2019
6376 Clear 13 1012 77 10000 1.5 120 00:45 14.06.2019
6377 Clear 14 1012 77 10000 1.5 120 00:22 14.06.2019
6378 Clear 14 1012 67 10000 2.6 180 23:52 13.06.2019
6379 Clear 15 1012 67 10000 2.6 180 23:26 13.06.2019
6380 Rain 15 1012 67 10000 3.1 180 22:58 13.06.2019
6381 Clear 15 1012 63 10000 4.6 190 22:38 13.06.2019
6382 Clouds 16 1011 63 10000 4.1 190 22:19 13.06.2019
6383 Clouds 18 1011 59 10000 5.1 180 21:38 13.06.2019
6384 Clouds 18 1011 59 10000 5.1 180 21:38 13.06.2019
6385 Clouds 18 1011 63 10000 5.7 180 21:19 13.06.2019
6386 Clouds 19 1011 59 10000 6.2 190 20:45 13.06.2019
6387 Clouds 19 1011 60 10000 6.2 190 20:22 13.06.2019
6388 Clouds 19 1011 60 10000 6.2 190 19:57 13.06.2019
6389 Clouds 19 1011 60 10000 6.2 170 19:37 13.06.2019
6390 Clouds 20 1011 56 10000 7.2 180 19:19 13.06.2019
6391 Clouds 19 1011 56 10000 6.2 210 18:46 13.06.2019
6392 Clouds 19 1011 56 10000 6.2 210 18:27 13.06.2019
6393 Clouds 20 1011 55 10000 7.2 190 17:59 13.06.2019
6394 Clouds 20 1011 55 10000 5.1 190 17:41 13.06.2019
6395 Clouds 20 1011 59 10000 6.2 200 17:20 13.06.2019
6396 Rain 19 1011 72 10000 7.7 180 16:46 13.06.2019
6397 Rain 19 1011 55 10000 5.7 200 16:21 13.06.2019
6398 Rain 19 1011 55 10000 5.7 200 15:56 13.06.2019
6399 Clouds 19 1012 55 10000 7.2 190 15:38 13.06.2019
6400 Clouds 18 1012 55 10000 8.2 190 15:18 13.06.2019
6401 Clouds 18 1012 59 10000 7.7 210 14:44 13.06.2019
6402 Clouds 18 1012 59 10000 7.7 210 14:23 13.06.2019
6403 Clouds 17 1012 63 10000 8.7 190 13:46 13.06.2019
6404 Clouds 17 1012 63 10000 8.7 190 13:21 13.06.2019
6405 Clouds 16 1012 72 10000 8.2 190 12:44 13.06.2019
6406 Clouds 16 1012 72 10000 8.2 190 12:23 13.06.2019
6407 Clouds 16 1012 72 10000 8.2 190 12:23 13.06.2019
6408 Rain 15 1012 72 10000 6.7 180 11:59 13.06.2019
6409 Rain 15 1012 72 10000 6.2 170 11:41 13.06.2019
6410 Rain 14 1012 72 10000 6.2 170 11:21 13.06.2019
6411 Rain 13 1012 76 10000 5.1 190 10:46 13.06.2019
6412 Rain 13 1012 76 10000 5.1 190 10:27 13.06.2019
6413 Rain 13 1012 76 10000 5.1 190 10:27 13.06.2019
6414 Drizzle 12 1012 82 10000 3.6 160 09:45 13.06.2019
6415 Clouds 12 1012 82 10000 3.6 180 09:25 13.06.2019
6416 Clouds 12 1012 87 10000 3.6 180 08:50 13.06.2019
6417 Clouds 11 1012 87 10000 3.6 180 08:29 13.06.2019
6418 Clouds 11 1012 81 10000 4.1 170 07:59 13.06.2019
6419 Clouds 10 1012 93 10000 3.1 190 07:31 13.06.2019
6420 Clouds 10 1011 93 10000 4.6 160 06:52 13.06.2019
6421 Clouds 10 1011 93 10000 3.1 160 06:24 13.06.2019
6422 Clouds 10 1011 87 10000 2.6 170 05:57 13.06.2019
6423 Clouds 10 1011 87 10000 2.6 160 05:38 13.06.2019
6424 Clouds 10 1011 87 10000 2.6 160 05:38 13.06.2019
6425 Clouds 10 1011 87 10000 3.1 190 05:18 13.06.2019
6426 Clear 10 1011 93 10000 3.6 210 03:44 13.06.2019
6427 Clouds 11 1010 82 10000 5.7 200 01:55 13.06.2019
6428 Clouds 12 1010 82 10000 4.1 210 00:30 13.06.2019
6429 Clouds 12 1010 82 10000 4.1 210 00:30 13.06.2019
6430 Clouds 12 1010 76 10000 6.7 200 23:26 12.06.2019
6431 Rain 12 1010 82 10000 5.7 200 22:59 12.06.2019
6432 Rain 13 1009 82 10000 3.1 190 22:40 12.06.2019
6433 Rain 13 1009 82 10000 3.1 190 22:21 12.06.2019
6434 Rain 14 1009 72 10000 5.1 180 21:43 12.06.2019
6435 Rain 14 1009 72 10000 5.1 180 21:25 12.06.2019
6436 Rain 14 1009 87 10000 3.6 190 20:49 12.06.2019
6437 Rain 15 1009 87 10000 3.6 190 20:30 12.06.2019
6438 Rain 15 1009 87 10000 4.1 150 19:57 12.06.2019
6439 Rain 15 1009 82 4000 5.7 170 19:38 12.06.2019
6440 Clouds 15 1008 77 10000 3.6 140 19:20 12.06.2019
6441 Thunderstorm 15 1009 82 10000 4.6 140 18:47 12.06.2019
6442 Thunderstorm 15 1009 82 10000 4.6 140 18:27 12.06.2019
6443 Thunderstorm 15 1008 67 10000 2.6 190 17:47 12.06.2019
6444 Thunderstorm 15 1008 67 10000 2.6 190 17:23 12.06.2019
6445 Rain 16 1009 82 10000 4.1 170 16:57 12.06.2019
6446 Rain 15 1009 77 10000 4.6 150 16:37 12.06.2019
6447 Rain 15 1009 82 10000 3.1 160 16:19 12.06.2019
6448 Rain 15 1009 72 10000 6.2 130 15:46 12.06.2019
6449 Rain 15 1009 72 10000 6.2 130 15:25 12.06.2019
6450 Rain 16 1009 59 10000 5.1 180 14:36 12.06.2019
6451 Rain 15 1009 63 10000 4.6 180 14:18 12.06.2019
6452 Clouds 15 1009 62 10000 4.6 160 13:41 12.06.2019
6453 Clouds 15 1009 62 10000 5.1 170 13:20 12.06.2019
6454 Clouds 15 1010 63 10000 4.1 160 12:56 12.06.2019
6455 Clouds 15 1010 63 10000 4.1 160 12:37 12.06.2019
6456 -273 0 0 0 0 0 12:19 12.06.2019
6457 Clouds 14 1010 76 10000 5.1 150 11:44 12.06.2019
6458 Clouds 14 1010 76 10000 5.1 150 11:26 12.06.2019
6459 Clouds 12 1010 82 10000 4.1 160 10:50 12.06.2019
6460 Clouds 12 1010 82 10000 4.1 160 10:25 12.06.2019
6461 Mist 11 1010 93 9000 3.1 140 09:45 12.06.2019
6462 Mist 10 1010 93 9000 3.1 150 09:23 12.06.2019
6463 Mist 10 1010 93 9000 3.1 150 08:53 12.06.2019
6464 Mist 10 1009 93 8000 2.1 170 08:21 12.06.2019
6465 Fog 10 1009 100 10000 1.5 100 07:45 12.06.2019
6466 Fog 9 1009 93 10000 1.5 80 06:54 12.06.2019
6467 Fog 9 1009 100 7000 2.1 90 05:27 12.06.2019
6468 Fog 9 1009 93 9000 1.5 60 04:34 12.06.2019
6469 Fog 10 1011 93 10000 1 0 01:44 12.06.2019
6470 Fog 10 1011 87 10000 1 0 00:40 12.06.2019
6471 Fog 11 1011 93 10000 2.6 70 23:48 11.06.2019
6472 Fog 11 1011 93 10000 2.6 70 23:30 11.06.2019
6473 Rain 12 1011 87 10000 1.5 50 22:44 11.06.2019
6474 Rain 12 1011 87 10000 1 0 22:21 11.06.2019
6475 Rain 12 1011 87 5000 1.5 0 21:58 11.06.2019
6476 Rain 13 1011 87 5000 1.5 0 21:39 11.06.2019
6477 Rain 13 1011 87 10000 2.6 230 21:20 11.06.2019
6478 Rain 13 1011 87 10000 2.6 230 21:20 11.06.2019
6479 Rain 13 1011 87 10000 2.6 230 21:20 11.06.2019
6480 Drizzle 13 1011 82 10000 2.6 240 20:49 11.06.2019
6481 Drizzle 13 1011 82 10000 2.6 240 20:26 11.06.2019
6482 Rain 13 1011 82 10000 3.1 220 19:57 11.06.2019
6483 Rain 13 1011 82 10000 3.1 220 19:38 11.06.2019
6484 -273 0 0 0 0 0 19:38 11.06.2019
6485 Rain 13 1011 82 10000 3.1 220 19:37 11.06.2019
6486 Rain 13 1011 82 10000 3.1 220 19:37 11.06.2019
6487 Rain 14 1011 67 10000 3.1 240 18:59 11.06.2019
6488 -273 0 0 0 0 0 18:58 11.06.2019
6489 -273 0 0 0 0 0 18:23 11.06.2019
6490 Rain 16 1011 72 10000 2.1 340 18:22 11.06.2019
6491 Rain 16 1011 76 10000 3.1 260 17:42 11.06.2019
6492 Rain 17 1011 63 10000 4.1 80 17:23 11.06.2019
6493 Rain 17 1011 63 10000 4.1 80 16:58 11.06.2019
6494 Clouds 18 1011 42 10000 2.1 330 16:40 11.06.2019
6495 Clouds 18 1011 42 10000 2.1 330 16:22 11.06.2019
6496 Clear 18 1011 45 10000 1.5 230 15:42 11.06.2019
6497 Clear 18 1011 45 10000 1.5 230 15:42 11.06.2019
6498 Clear 17 1011 42 10000 1.5 0 15:24 11.06.2019
6499 Clear 17 1011 48 10000 3.1 110 14:52 11.06.2019
6500 Clear 17 1011 48 10000 3.1 110 14:22 11.06.2019
6501 Rain 17 1011 48 10000 1.5 0 13:55 11.06.2019
6502 Rain 16 1012 45 10000 2.6 160 13:36 11.06.2019
6503 Clouds 16 1012 51 10000 2.6 140 13:18 11.06.2019
6504 Clouds 16 1012 51 10000 1.5 150 12:40 11.06.2019
6505 Clouds 16 1012 51 10000 1.5 150 12:20 11.06.2019
6506 Clouds 16 1012 55 10000 3.1 130 11:40 11.06.2019
6507 Clouds 16 1012 55 10000 3.1 130 11:40 11.06.2019
6508 Clear 15 1012 59 10000 2.6 160 11:19 11.06.2019
6509 Clear 15 1012 67 10000 2.1 120 10:46 11.06.2019
6510 Clear 15 1012 67 10000 2.1 120 10:26 11.06.2019
6511 Clear 15 1012 67 10000 2.1 120 10:26 11.06.2019
6512 Clear 13 1012 76 10000 1.5 0 09:49 11.06.2019
6513 Clear 13 1012 76 10000 1 0 09:24 11.06.2019
6514 Clear 11 1012 87 10000 1 50 08:47 11.06.2019
6515 Clear 10 1012 87 10000 1 50 08:29 11.06.2019
6516 Fog 9 1012 93 10000 1.5 30 07:55 11.06.2019
6517 Mist 8 1012 87 10000 2.1 30 07:29 11.06.2019
6518 Fog 7 1012 93 10000 1 0 06:50 11.06.2019
6519 Fog 7 1012 87 10000 1 360 04:56 11.06.2019
6520 Clear 8 1012 87 10000 1 90 03:43 11.06.2019
6521 Clear 9 1013 81 10000 1 0 01:41 11.06.2019
6522 Clear 10 1013 76 10000 1.5 0 00:48 11.06.2019
6523 Clear 11 1013 76 10000 1 0 23:56 10.06.2019
6524 Clear 11 1013 71 10000 1.5 310 23:38 10.06.2019
6525 Clear 12 1013 67 10000 2.1 280 22:58 10.06.2019
6526 Clouds 12 1013 67 10000 3.1 280 22:40 10.06.2019
6527 Clouds 13 1012 62 10000 3.1 270 22:22 10.06.2019
6528 Clouds 14 1012 62 10000 3.6 270 21:41 10.06.2019
6529 Clouds 14 1012 62 10000 3.6 270 21:23 10.06.2019
6530 Clouds 15 1012 62 10000 2.6 260 20:57 10.06.2019
6531 Clouds 15 1012 63 10000 3.6 260 20:38 10.06.2019
6532 Clouds 15 1012 67 10000 3.6 300 20:19 10.06.2019
6533 Clouds 16 1012 63 10000 4.1 270 19:43 10.06.2019
6534 Clouds 16 1012 63 10000 4.1 270 19:22 10.06.2019
6535 Clouds 16 1012 59 10000 5.7 260 18:56 10.06.2019
6536 Clouds 16 1012 59 10000 5.7 270 18:38 10.06.2019
6537 Clouds 16 1012 59 10000 6.2 260 18:19 10.06.2019
6538 Clouds 16 1013 59 10000 5.1 250 17:41 10.06.2019
6539 Clouds 16 1013 59 10000 5.7 260 17:22 10.06.2019
6540 Clouds 16 1013 63 10000 7.2 250 16:46 10.06.2019
6541 Clouds 16 1013 63 10000 7.2 250 16:28 10.06.2019
6542 Clouds 16 1012 63 10000 8.2 250 15:57 10.06.2019
6543 Rain 16 1012 59 10000 7.2 240 15:38 10.06.2019
6544 Rain 16 1012 67 10000 4.6 240 15:19 10.06.2019
6545 Clouds 17 1012 63 10000 4.1 210 14:41 10.06.2019
6546 Clouds 17 1012 63 10000 4.1 210 14:22 10.06.2019
6547 Clouds 17 1013 63 10000 4.6 220 13:45 10.06.2019
6548 Clouds 17 1013 67 10000 3.6 230 13:24 10.06.2019
6549 Clouds 16 1013 77 10000 4.1 250 12:48 10.06.2019
6550 Clouds 16 1013 77 10000 4.1 250 12:29 10.06.2019
6551 Rain 16 1013 67 10000 4.1 240 11:52 10.06.2019
6552 Clouds 15 1013 67 10000 3.6 260 11:30 10.06.2019
6553 Clouds 15 1013 67 10000 5.1 250 10:59 10.06.2019
6554 Clouds 15 1013 72 10000 3.6 230 10:40 10.06.2019
6555 Clouds 15 1013 77 10000 2.6 250 10:18 10.06.2019
6556 Clear 14 1013 82 10000 2.6 230 09:50 10.06.2019
6557 Clear 14 1013 82 10000 2.6 230 09:29 10.06.2019
6558 Clear 14 1013 82 10000 2.6 230 09:29 10.06.2019
6559 Fog 13 1014 87 10000 2.1 230 08:48 10.06.2019
6560 Fog 13 1014 87 10000 2.1 230 08:26 10.06.2019
6561 Fog 12 1014 87 10000 1 0 07:40 10.06.2019
6562 Rain 13 1015 93 10000 3.6 240 04:42 10.06.2019
6563 Rain 14 1016 82 10000 1.5 350 02:35 10.06.2019
6564 Rain 13 1016 76 10000 1 0 01:50 10.06.2019
6565 Clear 14 1016 82 10000 1.5 0 01:19 10.06.2019
6566 Clear 14 1016 82 10000 1.5 0 00:47 10.06.2019
6567 Clear 14 1017 77 10000 1.5 0 23:47 09.06.2019
6568 Clear 14 1017 77 10000 1.5 0 23:47 09.06.2019
6569 Clear 14 1017 77 10000 1.5 0 23:23 09.06.2019
6570 Clear 14 1017 77 10000 2.1 360 22:48 09.06.2019
6571 Clear 15 1017 72 10000 2.1 20 22:26 09.06.2019
6572 Clear 16 1017 67 10000 1.5 20 21:59 09.06.2019
6573 Clear 17 1017 67 10000 1.5 20 21:37 09.06.2019
6574 Clear 17 1017 59 10000 3.1 30 21:19 09.06.2019
6575 Clear 18 1017 52 10000 3.6 30 20:42 09.06.2019
6576 Clear 18 1017 52 10000 3.6 30 20:22 09.06.2019
6577 Clear 18 1017 52 10000 3.1 20 19:45 09.06.2019
6578 Clear 19 1018 55 10000 2.6 20 19:19 09.06.2019
6579 Clear 19 1018 55 10000 2.6 20 18:56 09.06.2019
6580 Clouds 19 1018 55 10000 3.1 50 18:36 09.06.2019
6581 Clear 19 1018 52 10000 2.1 50 18:18 09.06.2019
6582 Clouds 19 1018 52 10000 1.5 0 17:42 09.06.2019
6583 Clouds 19 1018 52 10000 1.5 0 17:23 09.06.2019
6584 Clouds 18 1019 52 10000 2.1 100 16:41 09.06.2019
6585 Clouds 19 1019 52 10000 2.6 90 16:21 09.06.2019
6586 Clouds 19 1019 52 10000 2.6 90 15:56 09.06.2019
6587 Clouds 19 1020 59 10000 1.5 0 15:38 09.06.2019
6588 Clouds 18 1020 63 10000 1 0 15:20 09.06.2019
6589 Clear 17 1020 63 10000 2.6 140 14:42 09.06.2019
6590 Clear 17 1020 63 10000 2.6 140 14:21 09.06.2019
6591 Clear 17 1020 63 10000 3.1 120 13:50 09.06.2019
6592 Clouds 16 1021 59 10000 5.7 150 13:19 09.06.2019
6593 Rain 16 1021 63 10000 6.2 120 12:41 09.06.2019
6594 Rain 16 1021 63 10000 6.2 120 12:22 09.06.2019
6595 Clear 16 1021 72 10000 1 0 11:39 09.06.2019
6596 Clear 16 1021 72 10000 1 0 11:21 09.06.2019
6597 Clear 15 1022 77 10000 2.1 70 10:45 09.06.2019
6598 Clear 15 1022 77 10000 2.1 70 10:23 09.06.2019
6599 Clear 15 1022 82 10000 2.6 70 09:41 09.06.2019
6600 Clear 15 1022 82 10000 2.6 70 09:41 09.06.2019
6601 Clear 14 1022 82 10000 2.6 70 09:22 09.06.2019
6602 Clear 13 1022 87 10000 1.5 30 08:53 09.06.2019
6603 Clear 13 1022 87 10000 1.5 30 08:34 09.06.2019
6604 Clear 11 1022 87 10000 1.5 360 07:27 09.06.2019
6605 Clear 10 1022 93 10000 1.5 10 06:30 09.06.2019
6606 Clear 10 1022 93 10000 1.15 57.793 05:28 09.06.2019
6607 Clear 10 1022 93 10000 1.15 57.793 05:28 09.06.2019
6608 Clear 12 1023 87 10000 1 0 01:46 09.06.2019
6609 Clear 12 1023 87 10000 1 0 01:22 09.06.2019
6610 Clear 12 1023 87 10000 1 0 00:59 09.06.2019
6611 Clear 13 1023 82 10000 1.5 80 00:19 09.06.2019
6612 Clouds 13 1023 77 10000 1.5 0 23:38 08.06.2019
6613 Clouds 13 1023 77 10000 1.5 0 23:20 08.06.2019
6614 Rain 14 1023 72 10000 2.6 320 22:43 08.06.2019
6615 Clouds 15 1022 63 10000 2.6 330 22:25 08.06.2019
6616 Rain 15 1022 59 10000 4.1 210 21:52 08.06.2019
6617 Rain 16 1022 59 10000 4.1 210 21:29 08.06.2019
6618 Clear 16 1022 59 10000 4.6 210 20:59 08.06.2019
6619 Clear 17 1022 55 10000 4.1 210 20:40 08.06.2019
6620 Clouds 18 1022 59 10000 5.1 200 20:20 08.06.2019
6621 Rain 18 1022 63 10000 7.7 200 19:42 08.06.2019
6622 Clouds 18 1021 55 10000 4.6 250 19:22 08.06.2019
6623 Clouds 18 1021 55 10000 4.6 250 18:58 08.06.2019
6624 Rain 18 1021 55 10000 7.7 210 18:38 08.06.2019
6625 Rain 18 1021 49 10000 7.7 210 18:18 08.06.2019
6626 Rain 18 1021 42 10000 8.7 210 17:41 08.06.2019
6627 Rain 18 1021 42 10000 8.7 210 17:18 08.06.2019
6628 Rain 19 1021 48 10000 8.7 220 16:44 08.06.2019
6629 Rain 18 1021 55 10000 7.2 220 16:20 08.06.2019
6630 Rain 18 1021 59 10000 7.2 220 15:39 08.06.2019
6631 Rain 18 1021 59 10000 7.2 220 15:39 08.06.2019
6632 Rain 18 1021 55 10000 7.7 230 14:58 08.06.2019
6633 Rain 18 1021 52 10000 8.2 220 14:40 08.06.2019
6634 Rain 18 1021 52 10000 8.2 220 14:21 08.06.2019
6635 Rain 17 1021 51 10000 7.7 230 13:38 08.06.2019
6636 Clouds 16 1020 55 10000 8.2 220 12:47 08.06.2019
6637 Clouds 16 1020 55 10000 8.2 220 12:27 08.06.2019
6638 Clouds 15 1020 59 10000 6.7 220 11:44 08.06.2019
6639 Clouds 15 1020 62 10000 8.7 220 11:24 08.06.2019
6640 Clouds 14 1020 62 10000 8.7 210 10:45 08.06.2019
6641 Clouds 14 1020 62 10000 8.7 210 10:24 08.06.2019
6642 Clouds 14 1019 67 10000 10.3 210 09:52 08.06.2019
6643 Clouds 14 1019 67 10000 10.3 210 09:25 08.06.2019
6644 Clouds 13 1018 71 10000 8.7 210 08:39 08.06.2019
6645 Clouds 12 1017 71 10000 8.2 200 08:18 08.06.2019
6646 Clouds 11 1016 76 10000 7.2 200 06:51 08.06.2019
6647 Clouds 11 1015 76 10000 7.7 210 05:53 08.06.2019
6648 Clouds 11 1014 81 10000 6.7 220 03:34 08.06.2019
6649 Clouds 12 1012 66 10000 9.8 210 01:59 08.06.2019
6650 Clouds 13 1011 62 10000 13.9 200 00:29 08.06.2019
6651 Clouds 13 1010 58 10000 13.4 200 23:52 07.06.2019
6652 Clouds 13 1010 71 10000 9.8 220 23:21 07.06.2019
6653 Clouds 14 1009 71 10000 7.7 220 22:50 07.06.2019
6654 Clouds 14 1009 67 10000 12.3 200 22:31 07.06.2019
6655 Rain 13 1007 71 10000 9.3 220 21:54 07.06.2019
6656 Rain 13 1007 71 10000 9.3 220 21:31 07.06.2019
6657 Rain 13 1006 67 10000 11.3 200 20:57 07.06.2019
6658 Rain 13 1005 76 10000 11.8 200 20:38 07.06.2019
6659 Rain 13 1005 76 10000 11.8 200 20:38 07.06.2019
6660 Rain 14 1004 72 10000 9.8 190 19:52 07.06.2019
6661 Rain 15 1004 72 10000 9.8 190 19:27 07.06.2019
6662 Rain 14 1004 87 7000 10.3 160 18:59 07.06.2019
6663 Rain 14 1004 87 7000 10.3 160 18:37 07.06.2019
6664 Rain 15 1003 67 10000 10.8 160 18:19 07.06.2019
6665 Rain 15 1004 63 10000 12.3 160 17:41 07.06.2019
6666 Rain 15 1004 59 10000 11.8 160 17:19 07.06.2019
6667 Rain 16 1004 63 10000 11.3 170 16:41 07.06.2019
6668 Clouds 16 1004 63 10000 11.8 160 15:56 07.06.2019
6669 Clouds 16 1005 67 10000 10.8 160 15:38 07.06.2019
6670 Clouds 16 1005 67 10000 9.8 160 15:18 07.06.2019
6671 Clouds 15 1005 62 10000 10.3 170 14:39 07.06.2019
6672 Clouds 15 1005 62 10000 10.3 170 14:19 07.06.2019
6673 Rain 14 1005 63 10000 7.2 160 13:28 07.06.2019
6674 Rain 14 1005 59 10000 6.2 190 12:51 07.06.2019
6675 Rain 15 1005 59 10000 6.2 190 12:29 07.06.2019
6676 Rain 15 1005 63 10000 8.7 200 11:57 07.06.2019
6677 Rain 14 1005 77 10000 5.7 200 11:34 07.06.2019
6678 Rain 14 1004 67 10000 7.2 180 10:59 07.06.2019
6679 Rain 15 1004 67 10000 6.7 160 10:41 07.06.2019
6680 Clear 15 1003 63 10000 5.1 140 10:19 07.06.2019
6681 Clouds 15 1003 72 10000 6.2 120 09:48 07.06.2019
6682 Rain 14 1004 72 10000 5.1 120 09:21 07.06.2019
6683 Clouds 14 1004 72 10000 5.1 100 08:46 07.06.2019
6684 Rain 14 1004 76 10000 5.7 110 08:26 07.06.2019
6685 Rain 13 1004 71 10000 4.1 100 07:49 07.06.2019
6686 Clear 13 1004 71 10000 5.7 90 07:22 07.06.2019
6687 Clear 14 1004 67 10000 6.7 90 06:48 07.06.2019
6688 Clear 14 1005 67 10000 5.7 90 06:23 07.06.2019
6689 Clear 14 1005 67 10000 5.7 80 05:44 07.06.2019
6690 Clear 14 1009 76 10000 4.6 70 02:43 07.06.2019
6691 Clear